<?xml version="1.0" encoding="UTF-8" standalone="no" ?>
<gpx xmlns="http://www.topografix.com/GPX/1/1" xmlns:xsi="http://www.w3.org/2001/XMLSchema-instance" xsi:schemaLocation="http://www.topografix.com/GPX/1/1 http://www.topografix.com/GPX/1/1/gpx.xsd" version="1.1" creator="VisuGPX - https://www.visugpx.com">
  <metadata>
    <name>Champagnat Cyclisme sur route</name>
  </metadata>
  <trk>
    <name><![CDATA[Champagnat Cyclisme sur route_1]]></name>
    <trkseg>
      <trkpt lat="46.48262" lon="5.36826">
        <ele>264</ele>
        <time>2022-03-28T11:52:50Z</time>
      </trkpt>
      <trkpt lat="46.48243" lon="5.36807">
        <ele>262.4</ele>
        <time>2022-03-28T11:52:52Z</time>
      </trkpt>
      <trkpt lat="46.48222" lon="5.36789">
        <ele>260.8</ele>
        <time>2022-03-28T11:52:54Z</time>
      </trkpt>
      <trkpt lat="46.48215" lon="5.36783">
        <ele>259.6</ele>
        <time>2022-03-28T11:52:55Z</time>
      </trkpt>
      <trkpt lat="46.48188" lon="5.36761">
        <ele>258.4</ele>
        <time>2022-03-28T11:52:57Z</time>
      </trkpt>
      <trkpt lat="46.4817" lon="5.36747">
        <ele>257.2</ele>
        <time>2022-03-28T11:52:59Z</time>
      </trkpt>
      <trkpt lat="46.48161" lon="5.36739">
        <ele>257</ele>
        <time>2022-03-28T11:53:00Z</time>
      </trkpt>
      <trkpt lat="46.48151" lon="5.36731">
        <ele>256.2</ele>
        <time>2022-03-28T11:53:01Z</time>
      </trkpt>
      <trkpt lat="46.48133" lon="5.36716">
        <ele>255.2</ele>
        <time>2022-03-28T11:53:03Z</time>
      </trkpt>
      <trkpt lat="46.48117" lon="5.36702">
        <ele>253.8</ele>
        <time>2022-03-28T11:53:05Z</time>
      </trkpt>
      <trkpt lat="46.48112" lon="5.36696">
        <ele>253</ele>
        <time>2022-03-28T11:53:06Z</time>
      </trkpt>
      <trkpt lat="46.4811" lon="5.36689">
        <ele>252.8</ele>
        <time>2022-03-28T11:53:07Z</time>
      </trkpt>
      <trkpt lat="46.48112" lon="5.36682">
        <ele>252.2</ele>
        <time>2022-03-28T11:53:08Z</time>
      </trkpt>
      <trkpt lat="46.48122" lon="5.36669">
        <ele>251.4</ele>
        <time>2022-03-28T11:53:10Z</time>
      </trkpt>
      <trkpt lat="46.48122" lon="5.36669">
        <ele>250.6</ele>
        <time>2022-03-28T11:53:11Z</time>
      </trkpt>
      <trkpt lat="46.48134" lon="5.36656">
        <ele>250.4</ele>
        <time>2022-03-28T11:53:12Z</time>
      </trkpt>
      <trkpt lat="46.48141" lon="5.3665">
        <ele>249.6</ele>
        <time>2022-03-28T11:53:13Z</time>
      </trkpt>
      <trkpt lat="46.48148" lon="5.36644">
        <ele>249.2</ele>
        <time>2022-03-28T11:53:14Z</time>
      </trkpt>
      <trkpt lat="46.48154" lon="5.3664">
        <ele>248.6</ele>
        <time>2022-03-28T11:53:15Z</time>
      </trkpt>
      <trkpt lat="46.48158" lon="5.36638">
        <ele>248.2</ele>
        <time>2022-03-28T11:53:16Z</time>
      </trkpt>
      <trkpt lat="46.48166" lon="5.36632">
        <ele>248.2</ele>
        <time>2022-03-28T11:53:17Z</time>
      </trkpt>
      <trkpt lat="46.48172" lon="5.36626">
        <ele>248</ele>
        <time>2022-03-28T11:53:18Z</time>
      </trkpt>
      <trkpt lat="46.48179" lon="5.36619">
        <ele>247.8</ele>
        <time>2022-03-28T11:53:19Z</time>
      </trkpt>
      <trkpt lat="46.48195" lon="5.36611">
        <ele>247.6</ele>
        <time>2022-03-28T11:53:21Z</time>
      </trkpt>
      <trkpt lat="46.4821" lon="5.36601">
        <ele>247.2</ele>
        <time>2022-03-28T11:53:23Z</time>
      </trkpt>
      <trkpt lat="46.48215" lon="5.36592">
        <ele>247.2</ele>
        <time>2022-03-28T11:53:24Z</time>
      </trkpt>
      <trkpt lat="46.48219" lon="5.36581">
        <ele>247</ele>
        <time>2022-03-28T11:53:25Z</time>
      </trkpt>
      <trkpt lat="46.48228" lon="5.3656">
        <ele>246.8</ele>
        <time>2022-03-28T11:53:27Z</time>
      </trkpt>
      <trkpt lat="46.48255" lon="5.3653">
        <ele>246.2</ele>
        <time>2022-03-28T11:53:31Z</time>
      </trkpt>
      <trkpt lat="46.48269" lon="5.36515">
        <ele>246</ele>
        <time>2022-03-28T11:53:33Z</time>
      </trkpt>
      <trkpt lat="46.48304" lon="5.36476">
        <ele>244.8</ele>
        <time>2022-03-28T11:53:38Z</time>
      </trkpt>
      <trkpt lat="46.48318" lon="5.3646">
        <ele>244.2</ele>
        <time>2022-03-28T11:53:40Z</time>
      </trkpt>
      <trkpt lat="46.4834" lon="5.36436">
        <ele>243.8</ele>
        <time>2022-03-28T11:53:43Z</time>
      </trkpt>
      <trkpt lat="46.48368" lon="5.36404">
        <ele>242.6</ele>
        <time>2022-03-28T11:53:47Z</time>
      </trkpt>
      <trkpt lat="46.48397" lon="5.36373">
        <ele>242</ele>
        <time>2022-03-28T11:53:51Z</time>
      </trkpt>
      <trkpt lat="46.48405" lon="5.36367">
        <ele>241.6</ele>
        <time>2022-03-28T11:53:52Z</time>
      </trkpt>
      <trkpt lat="46.48428" lon="5.36354">
        <ele>240.8</ele>
        <time>2022-03-28T11:53:55Z</time>
      </trkpt>
      <trkpt lat="46.48444" lon="5.36349">
        <ele>240.6</ele>
        <time>2022-03-28T11:53:57Z</time>
      </trkpt>
      <trkpt lat="46.48468" lon="5.36344">
        <ele>240.4</ele>
        <time>2022-03-28T11:54:00Z</time>
      </trkpt>
      <trkpt lat="46.48523" lon="5.36336">
        <ele>240</ele>
        <time>2022-03-28T11:54:07Z</time>
      </trkpt>
      <trkpt lat="46.48547" lon="5.36332">
        <ele>240</ele>
        <time>2022-03-28T11:54:10Z</time>
      </trkpt>
      <trkpt lat="46.48579" lon="5.36327">
        <ele>239.6</ele>
        <time>2022-03-28T11:54:15Z</time>
      </trkpt>
      <trkpt lat="46.48613" lon="5.36319">
        <ele>238.8</ele>
        <time>2022-03-28T11:54:18Z</time>
      </trkpt>
      <trkpt lat="46.48621" lon="5.36312">
        <ele>238.6</ele>
        <time>2022-03-28T11:54:19Z</time>
      </trkpt>
      <trkpt lat="46.48627" lon="5.36303">
        <ele>238.2</ele>
        <time>2022-03-28T11:54:20Z</time>
      </trkpt>
      <trkpt lat="46.48635" lon="5.36279">
        <ele>237.4</ele>
        <time>2022-03-28T11:54:22Z</time>
      </trkpt>
      <trkpt lat="46.48638" lon="5.36265">
        <ele>236.8</ele>
        <time>2022-03-28T11:54:23Z</time>
      </trkpt>
      <trkpt lat="46.4864" lon="5.36237">
        <ele>236.2</ele>
        <time>2022-03-28T11:54:25Z</time>
      </trkpt>
      <trkpt lat="46.48644" lon="5.36197">
        <ele>235.2</ele>
        <time>2022-03-28T11:54:28Z</time>
      </trkpt>
      <trkpt lat="46.48645" lon="5.36183">
        <ele>234.8</ele>
        <time>2022-03-28T11:54:29Z</time>
      </trkpt>
      <trkpt lat="46.48649" lon="5.36144">
        <ele>234</ele>
        <time>2022-03-28T11:54:32Z</time>
      </trkpt>
      <trkpt lat="46.48655" lon="5.36107">
        <ele>233.4</ele>
        <time>2022-03-28T11:54:35Z</time>
      </trkpt>
      <trkpt lat="46.48665" lon="5.36062">
        <ele>233</ele>
        <time>2022-03-28T11:54:39Z</time>
      </trkpt>
      <trkpt lat="46.4867" lon="5.36043">
        <ele>232.8</ele>
        <time>2022-03-28T11:54:41Z</time>
      </trkpt>
      <trkpt lat="46.48676" lon="5.36008">
        <ele>232.8</ele>
        <time>2022-03-28T11:54:45Z</time>
      </trkpt>
      <trkpt lat="46.48678" lon="5.36">
        <ele>233</ele>
        <time>2022-03-28T11:54:46Z</time>
      </trkpt>
      <trkpt lat="46.48687" lon="5.35935">
        <ele>234</ele>
        <time>2022-03-28T11:54:53Z</time>
      </trkpt>
      <trkpt lat="46.48695" lon="5.35903">
        <ele>234.2</ele>
        <time>2022-03-28T11:54:56Z</time>
      </trkpt>
      <trkpt lat="46.48698" lon="5.35893">
        <ele>234.4</ele>
        <time>2022-03-28T11:54:58Z</time>
      </trkpt>
      <trkpt lat="46.48727" lon="5.35822">
        <ele>234.2</ele>
        <time>2022-03-28T11:55:04Z</time>
      </trkpt>
      <trkpt lat="46.48732" lon="5.35811">
        <ele>234</ele>
        <time>2022-03-28T11:55:05Z</time>
      </trkpt>
      <trkpt lat="46.48749" lon="5.35772">
        <ele>233</ele>
        <time>2022-03-28T11:55:09Z</time>
      </trkpt>
      <trkpt lat="46.48766" lon="5.35733">
        <ele>232</ele>
        <time>2022-03-28T11:55:14Z</time>
      </trkpt>
      <trkpt lat="46.48774" lon="5.35714">
        <ele>231.8</ele>
        <time>2022-03-28T11:55:15Z</time>
      </trkpt>
      <trkpt lat="46.48807" lon="5.35643">
        <ele>231.4</ele>
        <time>2022-03-28T11:55:23Z</time>
      </trkpt>
      <trkpt lat="46.4881" lon="5.35634">
        <ele>231.2</ele>
        <time>2022-03-28T11:55:24Z</time>
      </trkpt>
      <trkpt lat="46.4884" lon="5.35566">
        <ele>231.6</ele>
        <time>2022-03-28T11:55:32Z</time>
      </trkpt>
      <trkpt lat="46.48851" lon="5.35541">
        <ele>231.8</ele>
        <time>2022-03-28T11:55:35Z</time>
      </trkpt>
      <trkpt lat="46.48878" lon="5.35481">
        <ele>231.6</ele>
        <time>2022-03-28T11:55:42Z</time>
      </trkpt>
      <trkpt lat="46.48909" lon="5.3541">
        <ele>231.4</ele>
        <time>2022-03-28T11:55:50Z</time>
      </trkpt>
      <trkpt lat="46.48917" lon="5.35392">
        <ele>231.4</ele>
        <time>2022-03-28T11:55:52Z</time>
      </trkpt>
      <trkpt lat="46.48945" lon="5.35325">
        <ele>230.8</ele>
        <time>2022-03-28T11:55:59Z</time>
      </trkpt>
      <trkpt lat="46.48953" lon="5.35307">
        <ele>230.6</ele>
        <time>2022-03-28T11:56:01Z</time>
      </trkpt>
      <trkpt lat="46.48983" lon="5.35238">
        <ele>230.4</ele>
        <time>2022-03-28T11:56:09Z</time>
      </trkpt>
      <trkpt lat="46.49007" lon="5.35185">
        <ele>231.2</ele>
        <time>2022-03-28T11:56:16Z</time>
      </trkpt>
      <trkpt lat="46.49024" lon="5.35148">
        <ele>232</ele>
        <time>2022-03-28T11:56:21Z</time>
      </trkpt>
      <trkpt lat="46.49034" lon="5.35125">
        <ele>232.4</ele>
        <time>2022-03-28T11:56:24Z</time>
      </trkpt>
      <trkpt lat="46.4905" lon="5.35061">
        <ele>232.6</ele>
        <time>2022-03-28T11:56:31Z</time>
      </trkpt>
      <trkpt lat="46.49066" lon="5.34977">
        <ele>231.8</ele>
        <time>2022-03-28T11:56:39Z</time>
      </trkpt>
      <trkpt lat="46.4907" lon="5.34954">
        <ele>231.6</ele>
        <time>2022-03-28T11:56:41Z</time>
      </trkpt>
      <trkpt lat="46.49079" lon="5.34907">
        <ele>231</ele>
        <time>2022-03-28T11:56:45Z</time>
      </trkpt>
      <trkpt lat="46.49088" lon="5.3486">
        <ele>229.8</ele>
        <time>2022-03-28T11:56:50Z</time>
      </trkpt>
      <trkpt lat="46.49104" lon="5.34778">
        <ele>229.2</ele>
        <time>2022-03-28T11:56:56Z</time>
      </trkpt>
      <trkpt lat="46.49109" lon="5.34754">
        <ele>228.8</ele>
        <time>2022-03-28T11:56:58Z</time>
      </trkpt>
      <trkpt lat="46.49109" lon="5.34754">
        <ele>228.6</ele>
        <time>2022-03-28T11:56:59Z</time>
      </trkpt>
      <trkpt lat="46.49118" lon="5.34706">
        <ele>227.8</ele>
        <time>2022-03-28T11:57:02Z</time>
      </trkpt>
      <trkpt lat="46.49132" lon="5.34638">
        <ele>226.8</ele>
        <time>2022-03-28T11:57:08Z</time>
      </trkpt>
      <trkpt lat="46.49134" lon="5.34628">
        <ele>226.4</ele>
        <time>2022-03-28T11:57:09Z</time>
      </trkpt>
      <trkpt lat="46.49143" lon="5.34582">
        <ele>226</ele>
        <time>2022-03-28T11:57:14Z</time>
      </trkpt>
      <trkpt lat="46.49154" lon="5.34519">
        <ele>226.2</ele>
        <time>2022-03-28T11:57:20Z</time>
      </trkpt>
      <trkpt lat="46.49168" lon="5.34444">
        <ele>226.2</ele>
        <time>2022-03-28T11:57:27Z</time>
      </trkpt>
      <trkpt lat="46.49183" lon="5.34369">
        <ele>226.4</ele>
        <time>2022-03-28T11:57:35Z</time>
      </trkpt>
      <trkpt lat="46.49197" lon="5.34298">
        <ele>227.6</ele>
        <time>2022-03-28T11:57:43Z</time>
      </trkpt>
      <trkpt lat="46.49211" lon="5.34222">
        <ele>227.8</ele>
        <time>2022-03-28T11:57:50Z</time>
      </trkpt>
      <trkpt lat="46.49227" lon="5.34141">
        <ele>227</ele>
        <time>2022-03-28T11:57:58Z</time>
      </trkpt>
      <trkpt lat="46.4923" lon="5.34123">
        <ele>227</ele>
        <time>2022-03-28T11:58:00Z</time>
      </trkpt>
      <trkpt lat="46.4924" lon="5.34077">
        <ele>227.2</ele>
        <time>2022-03-28T11:58:06Z</time>
      </trkpt>
      <trkpt lat="46.49248" lon="5.34027">
        <ele>228.4</ele>
        <time>2022-03-28T11:58:13Z</time>
      </trkpt>
      <trkpt lat="46.4925" lon="5.3402">
        <ele>228.6</ele>
        <time>2022-03-28T11:58:14Z</time>
      </trkpt>
      <trkpt lat="46.49258" lon="5.33978">
        <ele>229.6</ele>
        <time>2022-03-28T11:58:19Z</time>
      </trkpt>
      <trkpt lat="46.49259" lon="5.33969">
        <ele>229.6</ele>
        <time>2022-03-28T11:58:20Z</time>
      </trkpt>
      <trkpt lat="46.49275" lon="5.33891">
        <ele>230</ele>
        <time>2022-03-28T11:58:29Z</time>
      </trkpt>
      <trkpt lat="46.49277" lon="5.33883">
        <ele>230</ele>
        <time>2022-03-28T11:58:30Z</time>
      </trkpt>
      <trkpt lat="46.49293" lon="5.33801">
        <ele>229.4</ele>
        <time>2022-03-28T11:58:39Z</time>
      </trkpt>
      <trkpt lat="46.49296" lon="5.33782">
        <ele>229.2</ele>
        <time>2022-03-28T11:58:41Z</time>
      </trkpt>
      <trkpt lat="46.49306" lon="5.337">
        <ele>228.8</ele>
        <time>2022-03-28T11:58:49Z</time>
      </trkpt>
      <trkpt lat="46.49307" lon="5.33667">
        <ele>228.6</ele>
        <time>2022-03-28T11:58:52Z</time>
      </trkpt>
      <trkpt lat="46.49312" lon="5.33601">
        <ele>228.2</ele>
        <time>2022-03-28T11:58:58Z</time>
      </trkpt>
      <trkpt lat="46.49321" lon="5.3356">
        <ele>227.8</ele>
        <time>2022-03-28T11:59:02Z</time>
      </trkpt>
      <trkpt lat="46.49322" lon="5.33539">
        <ele>227.8</ele>
        <time>2022-03-28T11:59:04Z</time>
      </trkpt>
      <trkpt lat="46.49319" lon="5.33499">
        <ele>227.4</ele>
        <time>2022-03-28T11:59:09Z</time>
      </trkpt>
      <trkpt lat="46.49316" lon="5.33479">
        <ele>227.6</ele>
        <time>2022-03-28T11:59:10Z</time>
      </trkpt>
      <trkpt lat="46.49301" lon="5.33397">
        <ele>227.6</ele>
        <time>2022-03-28T11:59:18Z</time>
      </trkpt>
      <trkpt lat="46.49284" lon="5.33311">
        <ele>226.8</ele>
        <time>2022-03-28T11:59:26Z</time>
      </trkpt>
      <trkpt lat="46.49276" lon="5.33268">
        <ele>226.4</ele>
        <time>2022-03-28T11:59:30Z</time>
      </trkpt>
      <trkpt lat="46.49268" lon="5.33237">
        <ele>225.8</ele>
        <time>2022-03-28T11:59:33Z</time>
      </trkpt>
      <trkpt lat="46.49262" lon="5.33218">
        <ele>225.6</ele>
        <time>2022-03-28T11:59:35Z</time>
      </trkpt>
      <trkpt lat="46.49253" lon="5.33199">
        <ele>225.4</ele>
        <time>2022-03-28T11:59:37Z</time>
      </trkpt>
      <trkpt lat="46.49247" lon="5.33192">
        <ele>225.4</ele>
        <time>2022-03-28T11:59:38Z</time>
      </trkpt>
      <trkpt lat="46.49241" lon="5.33186">
        <ele>225.2</ele>
        <time>2022-03-28T11:59:39Z</time>
      </trkpt>
      <trkpt lat="46.49221" lon="5.3317">
        <ele>224.4</ele>
        <time>2022-03-28T11:59:42Z</time>
      </trkpt>
      <trkpt lat="46.49207" lon="5.3316">
        <ele>224.4</ele>
        <time>2022-03-28T11:59:44Z</time>
      </trkpt>
      <trkpt lat="46.49173" lon="5.3313">
        <ele>223.6</ele>
        <time>2022-03-28T11:59:49Z</time>
      </trkpt>
      <trkpt lat="46.49154" lon="5.33095">
        <ele>223.2</ele>
        <time>2022-03-28T11:59:53Z</time>
      </trkpt>
      <trkpt lat="46.49137" lon="5.33034">
        <ele>223</ele>
        <time>2022-03-28T11:59:59Z</time>
      </trkpt>
      <trkpt lat="46.49128" lon="5.3297">
        <ele>223</ele>
        <time>2022-03-28T12:00:05Z</time>
      </trkpt>
      <trkpt lat="46.49127" lon="5.32902">
        <ele>222.2</ele>
        <time>2022-03-28T12:00:11Z</time>
      </trkpt>
      <trkpt lat="46.49135" lon="5.32862">
        <ele>221.8</ele>
        <time>2022-03-28T12:00:15Z</time>
      </trkpt>
      <trkpt lat="46.49142" lon="5.32832">
        <ele>221.4</ele>
        <time>2022-03-28T12:00:18Z</time>
      </trkpt>
      <trkpt lat="46.49145" lon="5.32813">
        <ele>221.4</ele>
        <time>2022-03-28T12:00:20Z</time>
      </trkpt>
      <trkpt lat="46.49144" lon="5.32794">
        <ele>221.2</ele>
        <time>2022-03-28T12:00:22Z</time>
      </trkpt>
      <trkpt lat="46.49142" lon="5.32776">
        <ele>221.2</ele>
        <time>2022-03-28T12:00:24Z</time>
      </trkpt>
      <trkpt lat="46.4913" lon="5.32723">
        <ele>221.6</ele>
        <time>2022-03-28T12:00:30Z</time>
      </trkpt>
      <trkpt lat="46.49123" lon="5.32707">
        <ele>221.6</ele>
        <time>2022-03-28T12:00:32Z</time>
      </trkpt>
      <trkpt lat="46.49112" lon="5.32696">
        <ele>221.6</ele>
        <time>2022-03-28T12:00:34Z</time>
      </trkpt>
      <trkpt lat="46.49097" lon="5.32694">
        <ele>221.6</ele>
        <time>2022-03-28T12:00:36Z</time>
      </trkpt>
      <trkpt lat="46.49089" lon="5.32696">
        <ele>221.4</ele>
        <time>2022-03-28T12:00:37Z</time>
      </trkpt>
      <trkpt lat="46.49072" lon="5.32698">
        <ele>221.2</ele>
        <time>2022-03-28T12:00:39Z</time>
      </trkpt>
      <trkpt lat="46.49037" lon="5.32704">
        <ele>220.4</ele>
        <time>2022-03-28T12:00:43Z</time>
      </trkpt>
      <trkpt lat="46.49028" lon="5.32705">
        <ele>220</ele>
        <time>2022-03-28T12:00:44Z</time>
      </trkpt>
      <trkpt lat="46.48999" lon="5.32709">
        <ele>218.6</ele>
        <time>2022-03-28T12:00:47Z</time>
      </trkpt>
      <trkpt lat="46.48988" lon="5.32709">
        <ele>218.4</ele>
        <time>2022-03-28T12:00:48Z</time>
      </trkpt>
      <trkpt lat="46.48978" lon="5.32709">
        <ele>217.4</ele>
        <time>2022-03-28T12:00:49Z</time>
      </trkpt>
      <trkpt lat="46.48959" lon="5.32699">
        <ele>216.6</ele>
        <time>2022-03-28T12:00:51Z</time>
      </trkpt>
      <trkpt lat="46.4895" lon="5.32691">
        <ele>216.2</ele>
        <time>2022-03-28T12:00:52Z</time>
      </trkpt>
      <trkpt lat="46.48941" lon="5.32682">
        <ele>215.6</ele>
        <time>2022-03-28T12:00:53Z</time>
      </trkpt>
      <trkpt lat="46.48933" lon="5.32673">
        <ele>214.8</ele>
        <time>2022-03-28T12:00:54Z</time>
      </trkpt>
      <trkpt lat="46.48926" lon="5.32661">
        <ele>214.6</ele>
        <time>2022-03-28T12:00:55Z</time>
      </trkpt>
      <trkpt lat="46.48917" lon="5.32632">
        <ele>213.6</ele>
        <time>2022-03-28T12:00:57Z</time>
      </trkpt>
      <trkpt lat="46.4892" lon="5.32605">
        <ele>212.8</ele>
        <time>2022-03-28T12:00:59Z</time>
      </trkpt>
      <trkpt lat="46.48923" lon="5.32596">
        <ele>212</ele>
        <time>2022-03-28T12:01:00Z</time>
      </trkpt>
      <trkpt lat="46.48929" lon="5.32583">
        <ele>211</ele>
        <time>2022-03-28T12:01:01Z</time>
      </trkpt>
      <trkpt lat="46.48937" lon="5.32571">
        <ele>210.6</ele>
        <time>2022-03-28T12:01:02Z</time>
      </trkpt>
      <trkpt lat="46.48945" lon="5.32558">
        <ele>209.6</ele>
        <time>2022-03-28T12:01:03Z</time>
      </trkpt>
      <trkpt lat="46.48954" lon="5.32527">
        <ele>208.2</ele>
        <time>2022-03-28T12:01:05Z</time>
      </trkpt>
      <trkpt lat="46.4895" lon="5.325">
        <ele>207</ele>
        <time>2022-03-28T12:01:07Z</time>
      </trkpt>
      <trkpt lat="46.48946" lon="5.32487">
        <ele>206.6</ele>
        <time>2022-03-28T12:01:08Z</time>
      </trkpt>
      <trkpt lat="46.48939" lon="5.32463">
        <ele>205.8</ele>
        <time>2022-03-28T12:01:10Z</time>
      </trkpt>
      <trkpt lat="46.48928" lon="5.32428">
        <ele>205.4</ele>
        <time>2022-03-28T12:01:13Z</time>
      </trkpt>
      <trkpt lat="46.48914" lon="5.32373">
        <ele>205.4</ele>
        <time>2022-03-28T12:01:18Z</time>
      </trkpt>
      <trkpt lat="46.48904" lon="5.32344">
        <ele>205.4</ele>
        <time>2022-03-28T12:01:21Z</time>
      </trkpt>
      <trkpt lat="46.48897" lon="5.32329">
        <ele>205.4</ele>
        <time>2022-03-28T12:01:23Z</time>
      </trkpt>
      <trkpt lat="46.48893" lon="5.32322">
        <ele>205.4</ele>
        <time>2022-03-28T12:01:24Z</time>
      </trkpt>
      <trkpt lat="46.48879" lon="5.32301">
        <ele>205.6</ele>
        <time>2022-03-28T12:01:28Z</time>
      </trkpt>
      <trkpt lat="46.48858" lon="5.32273">
        <ele>207.4</ele>
        <time>2022-03-28T12:01:35Z</time>
      </trkpt>
      <trkpt lat="46.4885" lon="5.32262">
        <ele>208.4</ele>
        <time>2022-03-28T12:01:38Z</time>
      </trkpt>
      <trkpt lat="46.48843" lon="5.32249">
        <ele>209.4</ele>
        <time>2022-03-28T12:01:41Z</time>
      </trkpt>
      <trkpt lat="46.48839" lon="5.3224">
        <ele>209.6</ele>
        <time>2022-03-28T12:01:43Z</time>
      </trkpt>
      <trkpt lat="46.48835" lon="5.32229">
        <ele>210.4</ele>
        <time>2022-03-28T12:01:45Z</time>
      </trkpt>
      <trkpt lat="46.4883" lon="5.32208">
        <ele>211</ele>
        <time>2022-03-28T12:01:48Z</time>
      </trkpt>
      <trkpt lat="46.48824" lon="5.32155">
        <ele>211.4</ele>
        <time>2022-03-28T12:01:54Z</time>
      </trkpt>
      <trkpt lat="46.48824" lon="5.32145">
        <ele>211.4</ele>
        <time>2022-03-28T12:01:55Z</time>
      </trkpt>
      <trkpt lat="46.48827" lon="5.32114">
        <ele>210.8</ele>
        <time>2022-03-28T12:01:58Z</time>
      </trkpt>
      <trkpt lat="46.48839" lon="5.32049">
        <ele>209.8</ele>
        <time>2022-03-28T12:02:04Z</time>
      </trkpt>
      <trkpt lat="46.48845" lon="5.32017">
        <ele>209.4</ele>
        <time>2022-03-28T12:02:07Z</time>
      </trkpt>
      <trkpt lat="46.48847" lon="5.31984">
        <ele>208.8</ele>
        <time>2022-03-28T12:02:10Z</time>
      </trkpt>
      <trkpt lat="46.48844" lon="5.31927">
        <ele>208.4</ele>
        <time>2022-03-28T12:02:15Z</time>
      </trkpt>
      <trkpt lat="46.48843" lon="5.31915">
        <ele>208.2</ele>
        <time>2022-03-28T12:02:16Z</time>
      </trkpt>
      <trkpt lat="46.48839" lon="5.31883">
        <ele>208</ele>
        <time>2022-03-28T12:02:19Z</time>
      </trkpt>
      <trkpt lat="46.48835" lon="5.31871">
        <ele>207.8</ele>
        <time>2022-03-28T12:02:20Z</time>
      </trkpt>
      <trkpt lat="46.4883" lon="5.31862">
        <ele>207.8</ele>
        <time>2022-03-28T12:02:21Z</time>
      </trkpt>
      <trkpt lat="46.48817" lon="5.31851">
        <ele>207.6</ele>
        <time>2022-03-28T12:02:23Z</time>
      </trkpt>
      <trkpt lat="46.48801" lon="5.31845">
        <ele>207.2</ele>
        <time>2022-03-28T12:02:25Z</time>
      </trkpt>
      <trkpt lat="46.48794" lon="5.3184">
        <ele>207</ele>
        <time>2022-03-28T12:02:26Z</time>
      </trkpt>
      <trkpt lat="46.48788" lon="5.31834">
        <ele>207</ele>
        <time>2022-03-28T12:02:27Z</time>
      </trkpt>
      <trkpt lat="46.48781" lon="5.31816">
        <ele>206.8</ele>
        <time>2022-03-28T12:02:29Z</time>
      </trkpt>
      <trkpt lat="46.4878" lon="5.31805">
        <ele>206.8</ele>
        <time>2022-03-28T12:02:30Z</time>
      </trkpt>
      <trkpt lat="46.48777" lon="5.31744">
        <ele>206.8</ele>
        <time>2022-03-28T12:02:36Z</time>
      </trkpt>
      <trkpt lat="46.48776" lon="5.31734">
        <ele>207</ele>
        <time>2022-03-28T12:02:37Z</time>
      </trkpt>
      <trkpt lat="46.48771" lon="5.31716">
        <ele>207</ele>
        <time>2022-03-28T12:02:39Z</time>
      </trkpt>
      <trkpt lat="46.48768" lon="5.31709">
        <ele>207</ele>
        <time>2022-03-28T12:02:40Z</time>
      </trkpt>
      <trkpt lat="46.48744" lon="5.3168">
        <ele>207.4</ele>
        <time>2022-03-28T12:02:45Z</time>
      </trkpt>
      <trkpt lat="46.48715" lon="5.31645">
        <ele>207.8</ele>
        <time>2022-03-28T12:02:51Z</time>
      </trkpt>
      <trkpt lat="46.4868" lon="5.31606">
        <ele>208</ele>
        <time>2022-03-28T12:02:58Z</time>
      </trkpt>
      <trkpt lat="46.48676" lon="5.316">
        <ele>208</ele>
        <time>2022-03-28T12:02:59Z</time>
      </trkpt>
      <trkpt lat="46.48668" lon="5.31587">
        <ele>207.8</ele>
        <time>2022-03-28T12:03:01Z</time>
      </trkpt>
      <trkpt lat="46.48663" lon="5.3158">
        <ele>207.8</ele>
        <time>2022-03-28T12:03:02Z</time>
      </trkpt>
      <trkpt lat="46.4864" lon="5.31551">
        <ele>207.6</ele>
        <time>2022-03-28T12:03:07Z</time>
      </trkpt>
      <trkpt lat="46.48635" lon="5.31545">
        <ele>207.6</ele>
        <time>2022-03-28T12:03:08Z</time>
      </trkpt>
      <trkpt lat="46.48612" lon="5.31507">
        <ele>208</ele>
        <time>2022-03-28T12:03:14Z</time>
      </trkpt>
      <trkpt lat="46.48609" lon="5.31487">
        <ele>207.6</ele>
        <time>2022-03-28T12:03:16Z</time>
      </trkpt>
      <trkpt lat="46.48609" lon="5.31474">
        <ele>207.6</ele>
        <time>2022-03-28T12:03:17Z</time>
      </trkpt>
      <trkpt lat="46.48609" lon="5.31462">
        <ele>207.6</ele>
        <time>2022-03-28T12:03:18Z</time>
      </trkpt>
      <trkpt lat="46.48608" lon="5.31439">
        <ele>207.6</ele>
        <time>2022-03-28T12:03:20Z</time>
      </trkpt>
      <trkpt lat="46.48605" lon="5.31422">
        <ele>207.6</ele>
        <time>2022-03-28T12:03:22Z</time>
      </trkpt>
      <trkpt lat="46.48598" lon="5.31409">
        <ele>207.6</ele>
        <time>2022-03-28T12:03:24Z</time>
      </trkpt>
      <trkpt lat="46.4859" lon="5.314">
        <ele>207.6</ele>
        <time>2022-03-28T12:03:26Z</time>
      </trkpt>
      <trkpt lat="46.48579" lon="5.31388">
        <ele>208</ele>
        <time>2022-03-28T12:03:29Z</time>
      </trkpt>
      <trkpt lat="46.48569" lon="5.31375">
        <ele>208.4</ele>
        <time>2022-03-28T12:03:32Z</time>
      </trkpt>
      <trkpt lat="46.48567" lon="5.3137">
        <ele>208.6</ele>
        <time>2022-03-28T12:03:33Z</time>
      </trkpt>
      <trkpt lat="46.48564" lon="5.31364">
        <ele>208.8</ele>
        <time>2022-03-28T12:03:34Z</time>
      </trkpt>
      <trkpt lat="46.48562" lon="5.31359">
        <ele>209.2</ele>
        <time>2022-03-28T12:03:35Z</time>
      </trkpt>
      <trkpt lat="46.48558" lon="5.31342">
        <ele>210</ele>
        <time>2022-03-28T12:03:38Z</time>
      </trkpt>
      <trkpt lat="46.48556" lon="5.31331">
        <ele>210.2</ele>
        <time>2022-03-28T12:03:40Z</time>
      </trkpt>
      <trkpt lat="46.48556" lon="5.31314">
        <ele>211</ele>
        <time>2022-03-28T12:03:43Z</time>
      </trkpt>
      <trkpt lat="46.48555" lon="5.31302">
        <ele>211.4</ele>
        <time>2022-03-28T12:03:45Z</time>
      </trkpt>
      <trkpt lat="46.48552" lon="5.31266">
        <ele>212.6</ele>
        <time>2022-03-28T12:03:50Z</time>
      </trkpt>
      <trkpt lat="46.48553" lon="5.31252">
        <ele>212.8</ele>
        <time>2022-03-28T12:03:52Z</time>
      </trkpt>
      <trkpt lat="46.48557" lon="5.31232">
        <ele>213.2</ele>
        <time>2022-03-28T12:03:55Z</time>
      </trkpt>
      <trkpt lat="46.48568" lon="5.31208">
        <ele>213.6</ele>
        <time>2022-03-28T12:03:59Z</time>
      </trkpt>
      <trkpt lat="46.48573" lon="5.31198">
        <ele>213.8</ele>
        <time>2022-03-28T12:04:01Z</time>
      </trkpt>
      <trkpt lat="46.48592" lon="5.31157">
        <ele>214.6</ele>
        <time>2022-03-28T12:04:08Z</time>
      </trkpt>
      <trkpt lat="46.48595" lon="5.31152">
        <ele>214.8</ele>
        <time>2022-03-28T12:04:09Z</time>
      </trkpt>
      <trkpt lat="46.48612" lon="5.31118">
        <ele>215.8</ele>
        <time>2022-03-28T12:04:15Z</time>
      </trkpt>
      <trkpt lat="46.4862" lon="5.31101">
        <ele>216</ele>
        <time>2022-03-28T12:04:18Z</time>
      </trkpt>
      <trkpt lat="46.48636" lon="5.31067">
        <ele>216.8</ele>
        <time>2022-03-28T12:04:24Z</time>
      </trkpt>
      <trkpt lat="46.4865" lon="5.3104">
        <ele>218.4</ele>
        <time>2022-03-28T12:04:29Z</time>
      </trkpt>
      <trkpt lat="46.48652" lon="5.31035">
        <ele>218.4</ele>
        <time>2022-03-28T12:04:30Z</time>
      </trkpt>
      <trkpt lat="46.48678" lon="5.30984">
        <ele>219.4</ele>
        <time>2022-03-28T12:04:39Z</time>
      </trkpt>
      <trkpt lat="46.48683" lon="5.30971">
        <ele>219.8</ele>
        <time>2022-03-28T12:04:41Z</time>
      </trkpt>
      <trkpt lat="46.48696" lon="5.30944">
        <ele>220.4</ele>
        <time>2022-03-28T12:04:45Z</time>
      </trkpt>
      <trkpt lat="46.487" lon="5.30937">
        <ele>220.4</ele>
        <time>2022-03-28T12:04:46Z</time>
      </trkpt>
      <trkpt lat="46.48719" lon="5.30908">
        <ele>220.2</ele>
        <time>2022-03-28T12:04:50Z</time>
      </trkpt>
      <trkpt lat="46.48724" lon="5.30888">
        <ele>219.8</ele>
        <time>2022-03-28T12:04:52Z</time>
      </trkpt>
      <trkpt lat="46.48723" lon="5.30878">
        <ele>219.2</ele>
        <time>2022-03-28T12:04:53Z</time>
      </trkpt>
      <trkpt lat="46.4872" lon="5.30868">
        <ele>218.6</ele>
        <time>2022-03-28T12:04:54Z</time>
      </trkpt>
      <trkpt lat="46.48716" lon="5.30859">
        <ele>218.2</ele>
        <time>2022-03-28T12:04:55Z</time>
      </trkpt>
      <trkpt lat="46.4871" lon="5.30852">
        <ele>217.8</ele>
        <time>2022-03-28T12:04:56Z</time>
      </trkpt>
      <trkpt lat="46.48705" lon="5.30845">
        <ele>217.6</ele>
        <time>2022-03-28T12:04:57Z</time>
      </trkpt>
      <trkpt lat="46.48691" lon="5.30836">
        <ele>217.2</ele>
        <time>2022-03-28T12:04:59Z</time>
      </trkpt>
      <trkpt lat="46.4864" lon="5.30804">
        <ele>216.2</ele>
        <time>2022-03-28T12:05:06Z</time>
      </trkpt>
      <trkpt lat="46.48625" lon="5.30795">
        <ele>216</ele>
        <time>2022-03-28T12:05:08Z</time>
      </trkpt>
      <trkpt lat="46.48611" lon="5.30785">
        <ele>215.6</ele>
        <time>2022-03-28T12:05:10Z</time>
      </trkpt>
      <trkpt lat="46.48594" lon="5.30771">
        <ele>215.4</ele>
        <time>2022-03-28T12:05:13Z</time>
      </trkpt>
      <trkpt lat="46.48569" lon="5.30747">
        <ele>215.4</ele>
        <time>2022-03-28T12:05:18Z</time>
      </trkpt>
      <trkpt lat="46.48566" lon="5.30742">
        <ele>215.4</ele>
        <time>2022-03-28T12:05:19Z</time>
      </trkpt>
      <trkpt lat="46.48553" lon="5.30716">
        <ele>215.8</ele>
        <time>2022-03-28T12:05:23Z</time>
      </trkpt>
      <trkpt lat="46.4855" lon="5.30709">
        <ele>216</ele>
        <time>2022-03-28T12:05:24Z</time>
      </trkpt>
      <trkpt lat="46.48546" lon="5.30689">
        <ele>216.4</ele>
        <time>2022-03-28T12:05:27Z</time>
      </trkpt>
      <trkpt lat="46.48544" lon="5.30678">
        <ele>216.8</ele>
        <time>2022-03-28T12:05:29Z</time>
      </trkpt>
      <trkpt lat="46.48544" lon="5.30672">
        <ele>216.8</ele>
        <time>2022-03-28T12:05:30Z</time>
      </trkpt>
      <trkpt lat="46.48545" lon="5.30658">
        <ele>217.2</ele>
        <time>2022-03-28T12:05:32Z</time>
      </trkpt>
      <trkpt lat="46.48546" lon="5.30644">
        <ele>217.8</ele>
        <time>2022-03-28T12:05:34Z</time>
      </trkpt>
      <trkpt lat="46.48548" lon="5.30617">
        <ele>218.4</ele>
        <time>2022-03-28T12:05:38Z</time>
      </trkpt>
      <trkpt lat="46.4855" lon="5.30597">
        <ele>219</ele>
        <time>2022-03-28T12:05:41Z</time>
      </trkpt>
      <trkpt lat="46.48551" lon="5.30584">
        <ele>219.4</ele>
        <time>2022-03-28T12:05:43Z</time>
      </trkpt>
      <trkpt lat="46.48553" lon="5.30564">
        <ele>220</ele>
        <time>2022-03-28T12:05:46Z</time>
      </trkpt>
      <trkpt lat="46.48554" lon="5.30553">
        <ele>220.4</ele>
        <time>2022-03-28T12:05:48Z</time>
      </trkpt>
      <trkpt lat="46.48557" lon="5.30535">
        <ele>221</ele>
        <time>2022-03-28T12:05:51Z</time>
      </trkpt>
      <trkpt lat="46.4856" lon="5.30515">
        <ele>221.6</ele>
        <time>2022-03-28T12:05:54Z</time>
      </trkpt>
      <trkpt lat="46.48559" lon="5.30503">
        <ele>221.8</ele>
        <time>2022-03-28T12:05:56Z</time>
      </trkpt>
      <trkpt lat="46.48552" lon="5.30494">
        <ele>222.2</ele>
        <time>2022-03-28T12:05:58Z</time>
      </trkpt>
      <trkpt lat="46.48541" lon="5.30499">
        <ele>222.6</ele>
        <time>2022-03-28T12:06:01Z</time>
      </trkpt>
      <trkpt lat="46.48536" lon="5.30503">
        <ele>222.6</ele>
        <time>2022-03-28T12:06:02Z</time>
      </trkpt>
      <trkpt lat="46.4852" lon="5.30514">
        <ele>222.6</ele>
        <time>2022-03-28T12:06:05Z</time>
      </trkpt>
      <trkpt lat="46.48482" lon="5.30547">
        <ele>223</ele>
        <time>2022-03-28T12:06:12Z</time>
      </trkpt>
      <trkpt lat="46.48433" lon="5.30593">
        <ele>222.8</ele>
        <time>2022-03-28T12:06:21Z</time>
      </trkpt>
      <trkpt lat="46.48415" lon="5.30609">
        <ele>222.4</ele>
        <time>2022-03-28T12:06:24Z</time>
      </trkpt>
      <trkpt lat="46.48369" lon="5.30653">
        <ele>222</ele>
        <time>2022-03-28T12:06:32Z</time>
      </trkpt>
      <trkpt lat="46.48331" lon="5.30684">
        <ele>221.4</ele>
        <time>2022-03-28T12:06:38Z</time>
      </trkpt>
      <trkpt lat="46.48324" lon="5.30687">
        <ele>221.4</ele>
        <time>2022-03-28T12:06:39Z</time>
      </trkpt>
      <trkpt lat="46.48303" lon="5.30693">
        <ele>221</ele>
        <time>2022-03-28T12:06:42Z</time>
      </trkpt>
      <trkpt lat="46.48297" lon="5.30693">
        <ele>220.8</ele>
        <time>2022-03-28T12:06:43Z</time>
      </trkpt>
      <trkpt lat="46.48257" lon="5.30685">
        <ele>220.8</ele>
        <time>2022-03-28T12:06:49Z</time>
      </trkpt>
      <trkpt lat="46.48228" lon="5.30679">
        <ele>221</ele>
        <time>2022-03-28T12:06:54Z</time>
      </trkpt>
      <trkpt lat="46.48222" lon="5.3068">
        <ele>221.2</ele>
        <time>2022-03-28T12:06:55Z</time>
      </trkpt>
      <trkpt lat="46.48211" lon="5.30681">
        <ele>221.6</ele>
        <time>2022-03-28T12:06:57Z</time>
      </trkpt>
      <trkpt lat="46.48189" lon="5.3069">
        <ele>221.8</ele>
        <time>2022-03-28T12:07:01Z</time>
      </trkpt>
      <trkpt lat="46.48158" lon="5.30706">
        <ele>222.6</ele>
        <time>2022-03-28T12:07:07Z</time>
      </trkpt>
      <trkpt lat="46.48131" lon="5.3072">
        <ele>223.6</ele>
        <time>2022-03-28T12:07:12Z</time>
      </trkpt>
      <trkpt lat="46.48125" lon="5.30723">
        <ele>223.8</ele>
        <time>2022-03-28T12:07:13Z</time>
      </trkpt>
      <trkpt lat="46.48088" lon="5.30745">
        <ele>224.8</ele>
        <time>2022-03-28T12:07:20Z</time>
      </trkpt>
      <trkpt lat="46.48083" lon="5.30748">
        <ele>225</ele>
        <time>2022-03-28T12:07:21Z</time>
      </trkpt>
      <trkpt lat="46.48042" lon="5.30771">
        <ele>225.4</ele>
        <time>2022-03-28T12:07:28Z</time>
      </trkpt>
      <trkpt lat="46.4799" lon="5.308">
        <ele>225.2</ele>
        <time>2022-03-28T12:07:36Z</time>
      </trkpt>
      <trkpt lat="46.47945" lon="5.30817">
        <ele>224</ele>
        <time>2022-03-28T12:07:42Z</time>
      </trkpt>
      <trkpt lat="46.47938" lon="5.30816">
        <ele>223.8</ele>
        <time>2022-03-28T12:07:43Z</time>
      </trkpt>
      <trkpt lat="46.47919" lon="5.30813">
        <ele>223.8</ele>
        <time>2022-03-28T12:07:46Z</time>
      </trkpt>
      <trkpt lat="46.47893" lon="5.30804">
        <ele>224.4</ele>
        <time>2022-03-28T12:07:51Z</time>
      </trkpt>
      <trkpt lat="46.47885" lon="5.308">
        <ele>225</ele>
        <time>2022-03-28T12:07:53Z</time>
      </trkpt>
      <trkpt lat="46.47867" lon="5.30796">
        <ele>226.6</ele>
        <time>2022-03-28T12:07:57Z</time>
      </trkpt>
      <trkpt lat="46.47855" lon="5.30795">
        <ele>227</ele>
        <time>2022-03-28T12:08:00Z</time>
      </trkpt>
      <trkpt lat="46.47848" lon="5.30792">
        <ele>227.6</ele>
        <time>2022-03-28T12:08:02Z</time>
      </trkpt>
      <trkpt lat="46.47843" lon="5.30789">
        <ele>228</ele>
        <time>2022-03-28T12:08:03Z</time>
      </trkpt>
      <trkpt lat="46.4784" lon="5.30784">
        <ele>228.2</ele>
        <time>2022-03-28T12:08:04Z</time>
      </trkpt>
      <trkpt lat="46.47831" lon="5.30776">
        <ele>228.8</ele>
        <time>2022-03-28T12:08:06Z</time>
      </trkpt>
      <trkpt lat="46.47825" lon="5.30773">
        <ele>229</ele>
        <time>2022-03-28T12:08:07Z</time>
      </trkpt>
      <trkpt lat="46.47819" lon="5.30771">
        <ele>229</ele>
        <time>2022-03-28T12:08:08Z</time>
      </trkpt>
      <trkpt lat="46.47796" lon="5.3077">
        <ele>229</ele>
        <time>2022-03-28T12:08:11Z</time>
      </trkpt>
      <trkpt lat="46.4775" lon="5.30777">
        <ele>227.8</ele>
        <time>2022-03-28T12:08:17Z</time>
      </trkpt>
      <trkpt lat="46.47743" lon="5.30778">
        <ele>227.6</ele>
        <time>2022-03-28T12:08:18Z</time>
      </trkpt>
      <trkpt lat="46.47696" lon="5.30786">
        <ele>227</ele>
        <time>2022-03-28T12:08:25Z</time>
      </trkpt>
      <trkpt lat="46.47646" lon="5.30793">
        <ele>227.6</ele>
        <time>2022-03-28T12:08:33Z</time>
      </trkpt>
      <trkpt lat="46.4759" lon="5.30801">
        <ele>227.4</ele>
        <time>2022-03-28T12:08:42Z</time>
      </trkpt>
      <trkpt lat="46.47535" lon="5.3081">
        <ele>227.4</ele>
        <time>2022-03-28T12:08:51Z</time>
      </trkpt>
      <trkpt lat="46.47527" lon="5.30813">
        <ele>227.4</ele>
        <time>2022-03-28T12:08:52Z</time>
      </trkpt>
      <trkpt lat="46.47481" lon="5.30834">
        <ele>227.2</ele>
        <time>2022-03-28T12:08:59Z</time>
      </trkpt>
      <trkpt lat="46.47436" lon="5.30858">
        <ele>227</ele>
        <time>2022-03-28T12:09:06Z</time>
      </trkpt>
      <trkpt lat="46.47381" lon="5.30884">
        <ele>227</ele>
        <time>2022-03-28T12:09:14Z</time>
      </trkpt>
      <trkpt lat="46.47368" lon="5.30889">
        <ele>226.8</ele>
        <time>2022-03-28T12:09:16Z</time>
      </trkpt>
      <trkpt lat="46.47343" lon="5.30896">
        <ele>226.6</ele>
        <time>2022-03-28T12:09:20Z</time>
      </trkpt>
      <trkpt lat="46.47337" lon="5.30894">
        <ele>226.6</ele>
        <time>2022-03-28T12:09:21Z</time>
      </trkpt>
      <trkpt lat="46.47332" lon="5.3089">
        <ele>226.6</ele>
        <time>2022-03-28T12:09:22Z</time>
      </trkpt>
      <trkpt lat="46.47324" lon="5.30875">
        <ele>226.6</ele>
        <time>2022-03-28T12:09:24Z</time>
      </trkpt>
      <trkpt lat="46.47321" lon="5.30857">
        <ele>226.6</ele>
        <time>2022-03-28T12:09:26Z</time>
      </trkpt>
      <trkpt lat="46.47319" lon="5.30829">
        <ele>226.6</ele>
        <time>2022-03-28T12:09:29Z</time>
      </trkpt>
      <trkpt lat="46.47315" lon="5.30757">
        <ele>226.2</ele>
        <time>2022-03-28T12:09:36Z</time>
      </trkpt>
      <trkpt lat="46.47313" lon="5.30673">
        <ele>226.4</ele>
        <time>2022-03-28T12:09:45Z</time>
      </trkpt>
      <trkpt lat="46.47312" lon="5.30664">
        <ele>226.6</ele>
        <time>2022-03-28T12:09:46Z</time>
      </trkpt>
      <trkpt lat="46.47308" lon="5.30648">
        <ele>226.8</ele>
        <time>2022-03-28T12:09:48Z</time>
      </trkpt>
      <trkpt lat="46.473" lon="5.30633">
        <ele>227</ele>
        <time>2022-03-28T12:09:50Z</time>
      </trkpt>
      <trkpt lat="46.47272" lon="5.30598">
        <ele>227.2</ele>
        <time>2022-03-28T12:09:56Z</time>
      </trkpt>
      <trkpt lat="46.47263" lon="5.30587">
        <ele>227.2</ele>
        <time>2022-03-28T12:09:58Z</time>
      </trkpt>
      <trkpt lat="46.47241" lon="5.30567">
        <ele>227.2</ele>
        <time>2022-03-28T12:10:02Z</time>
      </trkpt>
      <trkpt lat="46.47223" lon="5.30557">
        <ele>227.2</ele>
        <time>2022-03-28T12:10:05Z</time>
      </trkpt>
      <trkpt lat="46.4721" lon="5.30556">
        <ele>227.2</ele>
        <time>2022-03-28T12:10:07Z</time>
      </trkpt>
      <trkpt lat="46.47167" lon="5.30557">
        <ele>227</ele>
        <time>2022-03-28T12:10:14Z</time>
      </trkpt>
      <trkpt lat="46.47161" lon="5.30557">
        <ele>226.8</ele>
        <time>2022-03-28T12:10:15Z</time>
      </trkpt>
      <trkpt lat="46.47138" lon="5.3055">
        <ele>227.2</ele>
        <time>2022-03-28T12:10:19Z</time>
      </trkpt>
      <trkpt lat="46.47087" lon="5.3052">
        <ele>227.6</ele>
        <time>2022-03-28T12:10:28Z</time>
      </trkpt>
      <trkpt lat="46.47044" lon="5.30482">
        <ele>228</ele>
        <time>2022-03-28T12:10:36Z</time>
      </trkpt>
      <trkpt lat="46.46999" lon="5.30444">
        <ele>227.4</ele>
        <time>2022-03-28T12:10:44Z</time>
      </trkpt>
      <trkpt lat="46.46947" lon="5.30403">
        <ele>227</ele>
        <time>2022-03-28T12:10:53Z</time>
      </trkpt>
      <trkpt lat="46.46903" lon="5.30385">
        <ele>226.6</ele>
        <time>2022-03-28T12:11:00Z</time>
      </trkpt>
      <trkpt lat="46.4687" lon="5.30366">
        <ele>226.8</ele>
        <time>2022-03-28T12:11:06Z</time>
      </trkpt>
      <trkpt lat="46.46841" lon="5.30336">
        <ele>227</ele>
        <time>2022-03-28T12:11:12Z</time>
      </trkpt>
      <trkpt lat="46.468" lon="5.30285">
        <ele>227.2</ele>
        <time>2022-03-28T12:11:21Z</time>
      </trkpt>
      <trkpt lat="46.46795" lon="5.3028">
        <ele>227</ele>
        <time>2022-03-28T12:11:22Z</time>
      </trkpt>
      <trkpt lat="46.46752" lon="5.3023">
        <ele>227</ele>
        <time>2022-03-28T12:11:31Z</time>
      </trkpt>
      <trkpt lat="46.46747" lon="5.30224">
        <ele>227</ele>
        <time>2022-03-28T12:11:32Z</time>
      </trkpt>
      <trkpt lat="46.46743" lon="5.30217">
        <ele>227.2</ele>
        <time>2022-03-28T12:11:33Z</time>
      </trkpt>
      <trkpt lat="46.46728" lon="5.30175">
        <ele>227.2</ele>
        <time>2022-03-28T12:11:38Z</time>
      </trkpt>
      <trkpt lat="46.46711" lon="5.30109">
        <ele>227</ele>
        <time>2022-03-28T12:11:45Z</time>
      </trkpt>
      <trkpt lat="46.46705" lon="5.30091">
        <ele>227</ele>
        <time>2022-03-28T12:11:47Z</time>
      </trkpt>
      <trkpt lat="46.46695" lon="5.30078">
        <ele>226.8</ele>
        <time>2022-03-28T12:11:49Z</time>
      </trkpt>
      <trkpt lat="46.46656" lon="5.30061">
        <ele>226.4</ele>
        <time>2022-03-28T12:11:55Z</time>
      </trkpt>
      <trkpt lat="46.46644" lon="5.30057">
        <ele>226.4</ele>
        <time>2022-03-28T12:11:57Z</time>
      </trkpt>
      <trkpt lat="46.46624" lon="5.30057">
        <ele>226.6</ele>
        <time>2022-03-28T12:12:00Z</time>
      </trkpt>
      <trkpt lat="46.46589" lon="5.30062">
        <ele>227</ele>
        <time>2022-03-28T12:12:05Z</time>
      </trkpt>
      <trkpt lat="46.46537" lon="5.30058">
        <ele>227</ele>
        <time>2022-03-28T12:12:12Z</time>
      </trkpt>
      <trkpt lat="46.4649" lon="5.30057">
        <ele>225.6</ele>
        <time>2022-03-28T12:12:18Z</time>
      </trkpt>
      <trkpt lat="46.46475" lon="5.30055">
        <ele>225.2</ele>
        <time>2022-03-28T12:12:20Z</time>
      </trkpt>
      <trkpt lat="46.46459" lon="5.30051">
        <ele>224.6</ele>
        <time>2022-03-28T12:12:22Z</time>
      </trkpt>
      <trkpt lat="46.46428" lon="5.30049">
        <ele>224</ele>
        <time>2022-03-28T12:12:26Z</time>
      </trkpt>
      <trkpt lat="46.46419" lon="5.30051">
        <ele>223.4</ele>
        <time>2022-03-28T12:12:27Z</time>
      </trkpt>
      <trkpt lat="46.46383" lon="5.30057">
        <ele>222</ele>
        <time>2022-03-28T12:12:31Z</time>
      </trkpt>
      <trkpt lat="46.46374" lon="5.30059">
        <ele>221.8</ele>
        <time>2022-03-28T12:12:32Z</time>
      </trkpt>
      <trkpt lat="46.46356" lon="5.30063">
        <ele>221</ele>
        <time>2022-03-28T12:12:34Z</time>
      </trkpt>
      <trkpt lat="46.46326" lon="5.30064">
        <ele>220</ele>
        <time>2022-03-28T12:12:37Z</time>
      </trkpt>
      <trkpt lat="46.46316" lon="5.30063">
        <ele>219.4</ele>
        <time>2022-03-28T12:12:38Z</time>
      </trkpt>
      <trkpt lat="46.46285" lon="5.3006">
        <ele>217.6</ele>
        <time>2022-03-28T12:12:41Z</time>
      </trkpt>
      <trkpt lat="46.46274" lon="5.30059">
        <ele>217.2</ele>
        <time>2022-03-28T12:12:42Z</time>
      </trkpt>
      <trkpt lat="46.46264" lon="5.30059">
        <ele>216.6</ele>
        <time>2022-03-28T12:12:43Z</time>
      </trkpt>
      <trkpt lat="46.4623" lon="5.30056">
        <ele>214.6</ele>
        <time>2022-03-28T12:12:46Z</time>
      </trkpt>
      <trkpt lat="46.46209" lon="5.30051">
        <ele>213.6</ele>
        <time>2022-03-28T12:12:48Z</time>
      </trkpt>
      <trkpt lat="46.46189" lon="5.30039">
        <ele>212.6</ele>
        <time>2022-03-28T12:12:50Z</time>
      </trkpt>
      <trkpt lat="46.46181" lon="5.3003">
        <ele>212.2</ele>
        <time>2022-03-28T12:12:51Z</time>
      </trkpt>
      <trkpt lat="46.46168" lon="5.30012">
        <ele>210.8</ele>
        <time>2022-03-28T12:12:53Z</time>
      </trkpt>
      <trkpt lat="46.46155" lon="5.29994">
        <ele>209.8</ele>
        <time>2022-03-28T12:12:55Z</time>
      </trkpt>
      <trkpt lat="46.4615" lon="5.29986">
        <ele>209.6</ele>
        <time>2022-03-28T12:12:56Z</time>
      </trkpt>
      <trkpt lat="46.46141" lon="5.2998">
        <ele>208.6</ele>
        <time>2022-03-28T12:12:58Z</time>
      </trkpt>
      <trkpt lat="46.46133" lon="5.29985">
        <ele>207.6</ele>
        <time>2022-03-28T12:13:00Z</time>
      </trkpt>
      <trkpt lat="46.46131" lon="5.29991">
        <ele>207.4</ele>
        <time>2022-03-28T12:13:01Z</time>
      </trkpt>
      <trkpt lat="46.46128" lon="5.29999">
        <ele>207</ele>
        <time>2022-03-28T12:13:02Z</time>
      </trkpt>
      <trkpt lat="46.46119" lon="5.30026">
        <ele>206.4</ele>
        <time>2022-03-28T12:13:05Z</time>
      </trkpt>
      <trkpt lat="46.46105" lon="5.30072">
        <ele>205.6</ele>
        <time>2022-03-28T12:13:10Z</time>
      </trkpt>
      <trkpt lat="46.46084" lon="5.30133">
        <ele>206</ele>
        <time>2022-03-28T12:13:17Z</time>
      </trkpt>
      <trkpt lat="46.46072" lon="5.30169">
        <ele>206.6</ele>
        <time>2022-03-28T12:13:22Z</time>
      </trkpt>
      <trkpt lat="46.46065" lon="5.30188">
        <ele>207.8</ele>
        <time>2022-03-28T12:13:25Z</time>
      </trkpt>
      <trkpt lat="46.46056" lon="5.30218">
        <ele>209.2</ele>
        <time>2022-03-28T12:13:30Z</time>
      </trkpt>
      <trkpt lat="46.46044" lon="5.30255">
        <ele>210.2</ele>
        <time>2022-03-28T12:13:36Z</time>
      </trkpt>
      <trkpt lat="46.46035" lon="5.3028">
        <ele>210.8</ele>
        <time>2022-03-28T12:13:40Z</time>
      </trkpt>
      <trkpt lat="46.46028" lon="5.30298">
        <ele>211.4</ele>
        <time>2022-03-28T12:13:43Z</time>
      </trkpt>
      <trkpt lat="46.46021" lon="5.30322">
        <ele>212</ele>
        <time>2022-03-28T12:13:47Z</time>
      </trkpt>
      <trkpt lat="46.46019" lon="5.30329">
        <ele>212.4</ele>
        <time>2022-03-28T12:13:48Z</time>
      </trkpt>
      <trkpt lat="46.46015" lon="5.3034">
        <ele>212.6</ele>
        <time>2022-03-28T12:13:50Z</time>
      </trkpt>
      <trkpt lat="46.46009" lon="5.30357">
        <ele>213.4</ele>
        <time>2022-03-28T12:13:53Z</time>
      </trkpt>
      <trkpt lat="46.46005" lon="5.30367">
        <ele>214</ele>
        <time>2022-03-28T12:13:55Z</time>
      </trkpt>
      <trkpt lat="46.45998" lon="5.30374">
        <ele>214.4</ele>
        <time>2022-03-28T12:13:57Z</time>
      </trkpt>
      <trkpt lat="46.45994" lon="5.30376">
        <ele>214.6</ele>
        <time>2022-03-28T12:13:58Z</time>
      </trkpt>
      <trkpt lat="46.45991" lon="5.30376">
        <ele>214.6</ele>
        <time>2022-03-28T12:13:59Z</time>
      </trkpt>
      <trkpt lat="46.45987" lon="5.30373">
        <ele>214.8</ele>
        <time>2022-03-28T12:14:00Z</time>
      </trkpt>
      <trkpt lat="46.45976" lon="5.30366">
        <ele>215.8</ele>
        <time>2022-03-28T12:14:03Z</time>
      </trkpt>
      <trkpt lat="46.45968" lon="5.30361">
        <ele>216.8</ele>
        <time>2022-03-28T12:14:05Z</time>
      </trkpt>
      <trkpt lat="46.45956" lon="5.30355">
        <ele>217.4</ele>
        <time>2022-03-28T12:14:08Z</time>
      </trkpt>
      <trkpt lat="46.45945" lon="5.30349">
        <ele>217.8</ele>
        <time>2022-03-28T12:14:11Z</time>
      </trkpt>
      <trkpt lat="46.45941" lon="5.30347">
        <ele>218</ele>
        <time>2022-03-28T12:14:12Z</time>
      </trkpt>
      <trkpt lat="46.45921" lon="5.30336">
        <ele>218.4</ele>
        <time>2022-03-28T12:14:17Z</time>
      </trkpt>
      <trkpt lat="46.45883" lon="5.30315">
        <ele>218.4</ele>
        <time>2022-03-28T12:14:24Z</time>
      </trkpt>
      <trkpt lat="46.45854" lon="5.30303">
        <ele>217.4</ele>
        <time>2022-03-28T12:14:28Z</time>
      </trkpt>
      <trkpt lat="46.45846" lon="5.30302">
        <ele>217.2</ele>
        <time>2022-03-28T12:14:29Z</time>
      </trkpt>
      <trkpt lat="46.45837" lon="5.30303">
        <ele>217</ele>
        <time>2022-03-28T12:14:30Z</time>
      </trkpt>
      <trkpt lat="46.45829" lon="5.30306">
        <ele>216.8</ele>
        <time>2022-03-28T12:14:31Z</time>
      </trkpt>
      <trkpt lat="46.45821" lon="5.3031">
        <ele>216.4</ele>
        <time>2022-03-28T12:14:32Z</time>
      </trkpt>
      <trkpt lat="46.45814" lon="5.30316">
        <ele>215.4</ele>
        <time>2022-03-28T12:14:33Z</time>
      </trkpt>
      <trkpt lat="46.45786" lon="5.30343">
        <ele>214.4</ele>
        <time>2022-03-28T12:14:37Z</time>
      </trkpt>
      <trkpt lat="46.45758" lon="5.30373">
        <ele>213.4</ele>
        <time>2022-03-28T12:14:41Z</time>
      </trkpt>
      <trkpt lat="46.45743" lon="5.30388">
        <ele>211.8</ele>
        <time>2022-03-28T12:14:43Z</time>
      </trkpt>
      <trkpt lat="46.45736" lon="5.30396">
        <ele>211</ele>
        <time>2022-03-28T12:14:44Z</time>
      </trkpt>
      <trkpt lat="46.45727" lon="5.30404">
        <ele>210.6</ele>
        <time>2022-03-28T12:14:45Z</time>
      </trkpt>
      <trkpt lat="46.457" lon="5.30426">
        <ele>209.2</ele>
        <time>2022-03-28T12:14:48Z</time>
      </trkpt>
      <trkpt lat="46.45681" lon="5.30434">
        <ele>208</ele>
        <time>2022-03-28T12:14:50Z</time>
      </trkpt>
      <trkpt lat="46.4567" lon="5.30435">
        <ele>207.4</ele>
        <time>2022-03-28T12:14:51Z</time>
      </trkpt>
      <trkpt lat="46.4566" lon="5.30435">
        <ele>207.2</ele>
        <time>2022-03-28T12:14:52Z</time>
      </trkpt>
      <trkpt lat="46.45651" lon="5.30433">
        <ele>207</ele>
        <time>2022-03-28T12:14:53Z</time>
      </trkpt>
      <trkpt lat="46.45642" lon="5.30429">
        <ele>206.2</ele>
        <time>2022-03-28T12:14:54Z</time>
      </trkpt>
      <trkpt lat="46.45624" lon="5.3042">
        <ele>205.4</ele>
        <time>2022-03-28T12:14:56Z</time>
      </trkpt>
      <trkpt lat="46.45608" lon="5.30408">
        <ele>204.8</ele>
        <time>2022-03-28T12:14:58Z</time>
      </trkpt>
      <trkpt lat="46.45587" lon="5.30386">
        <ele>204.2</ele>
        <time>2022-03-28T12:15:01Z</time>
      </trkpt>
      <trkpt lat="46.45573" lon="5.30371">
        <ele>204</ele>
        <time>2022-03-28T12:15:03Z</time>
      </trkpt>
      <trkpt lat="46.45553" lon="5.30353">
        <ele>204</ele>
        <time>2022-03-28T12:15:06Z</time>
      </trkpt>
      <trkpt lat="46.4554" lon="5.30346">
        <ele>204</ele>
        <time>2022-03-28T12:15:08Z</time>
      </trkpt>
      <trkpt lat="46.45528" lon="5.30344">
        <ele>204</ele>
        <time>2022-03-28T12:15:10Z</time>
      </trkpt>
      <trkpt lat="46.45512" lon="5.30344">
        <ele>204</ele>
        <time>2022-03-28T12:15:12Z</time>
      </trkpt>
      <trkpt lat="46.45485" lon="5.30349">
        <ele>204.2</ele>
        <time>2022-03-28T12:15:16Z</time>
      </trkpt>
      <trkpt lat="46.45467" lon="5.30347">
        <ele>204.2</ele>
        <time>2022-03-28T12:15:19Z</time>
      </trkpt>
      <trkpt lat="46.4543" lon="5.30336">
        <ele>204.2</ele>
        <time>2022-03-28T12:15:25Z</time>
      </trkpt>
      <trkpt lat="46.45381" lon="5.30323">
        <ele>205</ele>
        <time>2022-03-28T12:15:33Z</time>
      </trkpt>
      <trkpt lat="46.45369" lon="5.30322">
        <ele>205</ele>
        <time>2022-03-28T12:15:35Z</time>
      </trkpt>
      <trkpt lat="46.45353" lon="5.30326">
        <ele>205.2</ele>
        <time>2022-03-28T12:15:38Z</time>
      </trkpt>
      <trkpt lat="46.45343" lon="5.30331">
        <ele>205.4</ele>
        <time>2022-03-28T12:15:40Z</time>
      </trkpt>
      <trkpt lat="46.45326" lon="5.30342">
        <ele>205.4</ele>
        <time>2022-03-28T12:15:43Z</time>
      </trkpt>
      <trkpt lat="46.45322" lon="5.30345">
        <ele>205.6</ele>
        <time>2022-03-28T12:15:44Z</time>
      </trkpt>
      <trkpt lat="46.45317" lon="5.30347">
        <ele>205.8</ele>
        <time>2022-03-28T12:15:45Z</time>
      </trkpt>
      <trkpt lat="46.45305" lon="5.30351">
        <ele>205.8</ele>
        <time>2022-03-28T12:15:47Z</time>
      </trkpt>
      <trkpt lat="46.45294" lon="5.30351">
        <ele>206</ele>
        <time>2022-03-28T12:15:49Z</time>
      </trkpt>
      <trkpt lat="46.45257" lon="5.30343">
        <ele>206.4</ele>
        <time>2022-03-28T12:15:56Z</time>
      </trkpt>
      <trkpt lat="46.45239" lon="5.30338">
        <ele>206.8</ele>
        <time>2022-03-28T12:15:59Z</time>
      </trkpt>
      <trkpt lat="46.45206" lon="5.30333">
        <ele>207.2</ele>
        <time>2022-03-28T12:16:05Z</time>
      </trkpt>
      <trkpt lat="46.45202" lon="5.30333">
        <ele>207.2</ele>
        <time>2022-03-28T12:16:06Z</time>
      </trkpt>
      <trkpt lat="46.45191" lon="5.30339">
        <ele>207.4</ele>
        <time>2022-03-28T12:16:08Z</time>
      </trkpt>
      <trkpt lat="46.45186" lon="5.30343">
        <ele>207.6</ele>
        <time>2022-03-28T12:16:09Z</time>
      </trkpt>
      <trkpt lat="46.45176" lon="5.30356">
        <ele>207.8</ele>
        <time>2022-03-28T12:16:12Z</time>
      </trkpt>
      <trkpt lat="46.45169" lon="5.30368">
        <ele>208</ele>
        <time>2022-03-28T12:16:14Z</time>
      </trkpt>
      <trkpt lat="46.45167" lon="5.30374">
        <ele>208.2</ele>
        <time>2022-03-28T12:16:15Z</time>
      </trkpt>
      <trkpt lat="46.45163" lon="5.30384">
        <ele>208.4</ele>
        <time>2022-03-28T12:16:17Z</time>
      </trkpt>
      <trkpt lat="46.45154" lon="5.3041">
        <ele>208.8</ele>
        <time>2022-03-28T12:16:21Z</time>
      </trkpt>
      <trkpt lat="46.45152" lon="5.30415">
        <ele>209.2</ele>
        <time>2022-03-28T12:16:22Z</time>
      </trkpt>
      <trkpt lat="46.45145" lon="5.30433">
        <ele>210</ele>
        <time>2022-03-28T12:16:25Z</time>
      </trkpt>
      <trkpt lat="46.4513" lon="5.30468">
        <ele>211.2</ele>
        <time>2022-03-28T12:16:31Z</time>
      </trkpt>
      <trkpt lat="46.45125" lon="5.30478">
        <ele>211.4</ele>
        <time>2022-03-28T12:16:33Z</time>
      </trkpt>
      <trkpt lat="46.45113" lon="5.3049">
        <ele>211.8</ele>
        <time>2022-03-28T12:16:36Z</time>
      </trkpt>
      <trkpt lat="46.45109" lon="5.30493">
        <ele>212</ele>
        <time>2022-03-28T12:16:37Z</time>
      </trkpt>
      <trkpt lat="46.451" lon="5.30496">
        <ele>212.2</ele>
        <time>2022-03-28T12:16:39Z</time>
      </trkpt>
      <trkpt lat="46.45092" lon="5.30496">
        <ele>212.4</ele>
        <time>2022-03-28T12:16:41Z</time>
      </trkpt>
      <trkpt lat="46.45076" lon="5.30494">
        <ele>213.4</ele>
        <time>2022-03-28T12:16:45Z</time>
      </trkpt>
      <trkpt lat="46.45061" lon="5.30491">
        <ele>214.4</ele>
        <time>2022-03-28T12:16:49Z</time>
      </trkpt>
      <trkpt lat="46.45042" lon="5.30488">
        <ele>215.8</ele>
        <time>2022-03-28T12:16:54Z</time>
      </trkpt>
      <trkpt lat="46.45031" lon="5.30485">
        <ele>216.4</ele>
        <time>2022-03-28T12:16:57Z</time>
      </trkpt>
      <trkpt lat="46.45021" lon="5.30484">
        <ele>217</ele>
        <time>2022-03-28T12:17:00Z</time>
      </trkpt>
      <trkpt lat="46.45011" lon="5.30484">
        <ele>218.2</ele>
        <time>2022-03-28T12:17:03Z</time>
      </trkpt>
      <trkpt lat="46.45007" lon="5.30484">
        <ele>218.4</ele>
        <time>2022-03-28T12:17:04Z</time>
      </trkpt>
      <trkpt lat="46.44991" lon="5.30488">
        <ele>219.2</ele>
        <time>2022-03-28T12:17:08Z</time>
      </trkpt>
      <trkpt lat="46.4498" lon="5.30492">
        <ele>219.6</ele>
        <time>2022-03-28T12:17:11Z</time>
      </trkpt>
      <trkpt lat="46.44944" lon="5.30503">
        <ele>220.4</ele>
        <time>2022-03-28T12:17:19Z</time>
      </trkpt>
      <trkpt lat="46.44939" lon="5.30505">
        <ele>220.4</ele>
        <time>2022-03-28T12:17:20Z</time>
      </trkpt>
      <trkpt lat="46.44911" lon="5.30512">
        <ele>221</ele>
        <time>2022-03-28T12:17:26Z</time>
      </trkpt>
      <trkpt lat="46.4488" lon="5.30514">
        <ele>221.6</ele>
        <time>2022-03-28T12:17:33Z</time>
      </trkpt>
      <trkpt lat="46.4487" lon="5.30515">
        <ele>221.8</ele>
        <time>2022-03-28T12:17:35Z</time>
      </trkpt>
      <trkpt lat="46.44843" lon="5.30515">
        <ele>222.6</ele>
        <time>2022-03-28T12:17:41Z</time>
      </trkpt>
      <trkpt lat="46.44826" lon="5.30516">
        <ele>223.2</ele>
        <time>2022-03-28T12:17:45Z</time>
      </trkpt>
      <trkpt lat="46.44816" lon="5.30516">
        <ele>223.6</ele>
        <time>2022-03-28T12:17:47Z</time>
      </trkpt>
      <trkpt lat="46.44789" lon="5.30516">
        <ele>224.6</ele>
        <time>2022-03-28T12:17:53Z</time>
      </trkpt>
      <trkpt lat="46.44784" lon="5.30515">
        <ele>224.8</ele>
        <time>2022-03-28T12:17:54Z</time>
      </trkpt>
      <trkpt lat="46.44742" lon="5.30516">
        <ele>225.6</ele>
        <time>2022-03-28T12:18:02Z</time>
      </trkpt>
      <trkpt lat="46.4472" lon="5.30516">
        <ele>225.8</ele>
        <time>2022-03-28T12:18:06Z</time>
      </trkpt>
      <trkpt lat="46.44687" lon="5.30516">
        <ele>226</ele>
        <time>2022-03-28T12:18:12Z</time>
      </trkpt>
      <trkpt lat="46.44647" lon="5.30517">
        <ele>226.2</ele>
        <time>2022-03-28T12:18:19Z</time>
      </trkpt>
      <trkpt lat="46.44597" lon="5.30518">
        <ele>226.6</ele>
        <time>2022-03-28T12:18:28Z</time>
      </trkpt>
      <trkpt lat="46.44585" lon="5.30519">
        <ele>226.8</ele>
        <time>2022-03-28T12:18:30Z</time>
      </trkpt>
      <trkpt lat="46.4457" lon="5.30523">
        <ele>227</ele>
        <time>2022-03-28T12:18:33Z</time>
      </trkpt>
      <trkpt lat="46.4456" lon="5.30528">
        <ele>227.4</ele>
        <time>2022-03-28T12:18:35Z</time>
      </trkpt>
      <trkpt lat="46.44553" lon="5.30533">
        <ele>227.6</ele>
        <time>2022-03-28T12:18:37Z</time>
      </trkpt>
      <trkpt lat="46.44545" lon="5.3054">
        <ele>228.2</ele>
        <time>2022-03-28T12:18:39Z</time>
      </trkpt>
      <trkpt lat="46.44537" lon="5.30545">
        <ele>228.6</ele>
        <time>2022-03-28T12:18:41Z</time>
      </trkpt>
      <trkpt lat="46.44528" lon="5.3055">
        <ele>229</ele>
        <time>2022-03-28T12:18:43Z</time>
      </trkpt>
      <trkpt lat="46.44522" lon="5.30554">
        <ele>229.2</ele>
        <time>2022-03-28T12:18:44Z</time>
      </trkpt>
      <trkpt lat="46.44488" lon="5.30569">
        <ele>230.2</ele>
        <time>2022-03-28T12:18:50Z</time>
      </trkpt>
      <trkpt lat="46.44471" lon="5.3057">
        <ele>230.6</ele>
        <time>2022-03-28T12:18:53Z</time>
      </trkpt>
      <trkpt lat="46.44454" lon="5.30568">
        <ele>230.8</ele>
        <time>2022-03-28T12:18:56Z</time>
      </trkpt>
      <trkpt lat="46.44437" lon="5.30568">
        <ele>231</ele>
        <time>2022-03-28T12:18:59Z</time>
      </trkpt>
      <trkpt lat="46.44428" lon="5.30572">
        <ele>231</ele>
        <time>2022-03-28T12:19:01Z</time>
      </trkpt>
      <trkpt lat="46.44402" lon="5.30588">
        <ele>231.2</ele>
        <time>2022-03-28T12:19:06Z</time>
      </trkpt>
      <trkpt lat="46.44391" lon="5.30593">
        <ele>231.2</ele>
        <time>2022-03-28T12:19:08Z</time>
      </trkpt>
      <trkpt lat="46.44369" lon="5.30599">
        <ele>231.6</ele>
        <time>2022-03-28T12:19:12Z</time>
      </trkpt>
      <trkpt lat="46.44358" lon="5.30597">
        <ele>231.8</ele>
        <time>2022-03-28T12:19:14Z</time>
      </trkpt>
      <trkpt lat="46.44341" lon="5.30594">
        <ele>231.8</ele>
        <time>2022-03-28T12:19:17Z</time>
      </trkpt>
      <trkpt lat="46.44331" lon="5.30596">
        <ele>232</ele>
        <time>2022-03-28T12:19:19Z</time>
      </trkpt>
      <trkpt lat="46.44319" lon="5.30604">
        <ele>232</ele>
        <time>2022-03-28T12:19:21Z</time>
      </trkpt>
      <trkpt lat="46.4431" lon="5.30613">
        <ele>232</ele>
        <time>2022-03-28T12:19:23Z</time>
      </trkpt>
      <trkpt lat="46.44292" lon="5.30633">
        <ele>232.2</ele>
        <time>2022-03-28T12:19:27Z</time>
      </trkpt>
      <trkpt lat="46.44272" lon="5.30649">
        <ele>232.4</ele>
        <time>2022-03-28T12:19:31Z</time>
      </trkpt>
      <trkpt lat="46.44243" lon="5.30663">
        <ele>232.4</ele>
        <time>2022-03-28T12:19:36Z</time>
      </trkpt>
      <trkpt lat="46.44236" lon="5.30665">
        <ele>232.4</ele>
        <time>2022-03-28T12:19:37Z</time>
      </trkpt>
      <trkpt lat="46.44181" lon="5.30672">
        <ele>233</ele>
        <time>2022-03-28T12:19:46Z</time>
      </trkpt>
      <trkpt lat="46.44147" lon="5.30665">
        <ele>233.2</ele>
        <time>2022-03-28T12:19:52Z</time>
      </trkpt>
      <trkpt lat="46.4412" lon="5.3065">
        <ele>233.4</ele>
        <time>2022-03-28T12:19:57Z</time>
      </trkpt>
      <trkpt lat="46.44109" lon="5.30642">
        <ele>233.6</ele>
        <time>2022-03-28T12:19:59Z</time>
      </trkpt>
      <trkpt lat="46.44077" lon="5.30621">
        <ele>234</ele>
        <time>2022-03-28T12:20:05Z</time>
      </trkpt>
      <trkpt lat="46.44066" lon="5.3062">
        <ele>233.8</ele>
        <time>2022-03-28T12:20:07Z</time>
      </trkpt>
      <trkpt lat="46.44055" lon="5.30622">
        <ele>233.6</ele>
        <time>2022-03-28T12:20:09Z</time>
      </trkpt>
      <trkpt lat="46.44044" lon="5.30629">
        <ele>233.6</ele>
        <time>2022-03-28T12:20:11Z</time>
      </trkpt>
      <trkpt lat="46.44012" lon="5.30657">
        <ele>233.4</ele>
        <time>2022-03-28T12:20:17Z</time>
      </trkpt>
      <trkpt lat="46.44006" lon="5.30663">
        <ele>233.2</ele>
        <time>2022-03-28T12:20:18Z</time>
      </trkpt>
      <trkpt lat="46.43996" lon="5.30672">
        <ele>233.2</ele>
        <time>2022-03-28T12:20:20Z</time>
      </trkpt>
      <trkpt lat="46.43991" lon="5.30673">
        <ele>233.2</ele>
        <time>2022-03-28T12:20:21Z</time>
      </trkpt>
      <trkpt lat="46.43988" lon="5.30668">
        <ele>233.2</ele>
        <time>2022-03-28T12:20:22Z</time>
      </trkpt>
      <trkpt lat="46.43988" lon="5.30661">
        <ele>233.2</ele>
        <time>2022-03-28T12:20:23Z</time>
      </trkpt>
      <trkpt lat="46.43988" lon="5.30653">
        <ele>233.2</ele>
        <time>2022-03-28T12:20:24Z</time>
      </trkpt>
      <trkpt lat="46.43993" lon="5.30629">
        <ele>233.2</ele>
        <time>2022-03-28T12:20:27Z</time>
      </trkpt>
      <trkpt lat="46.43995" lon="5.30619">
        <ele>233</ele>
        <time>2022-03-28T12:20:28Z</time>
      </trkpt>
      <trkpt lat="46.43997" lon="5.3059">
        <ele>233</ele>
        <time>2022-03-28T12:20:31Z</time>
      </trkpt>
      <trkpt lat="46.43994" lon="5.30538">
        <ele>233.2</ele>
        <time>2022-03-28T12:20:36Z</time>
      </trkpt>
      <trkpt lat="46.43988" lon="5.30455">
        <ele>233.6</ele>
        <time>2022-03-28T12:20:44Z</time>
      </trkpt>
      <trkpt lat="46.4398" lon="5.30375">
        <ele>233.4</ele>
        <time>2022-03-28T12:20:52Z</time>
      </trkpt>
      <trkpt lat="46.43978" lon="5.30354">
        <ele>233.2</ele>
        <time>2022-03-28T12:20:54Z</time>
      </trkpt>
      <trkpt lat="46.43965" lon="5.30283">
        <ele>232.8</ele>
        <time>2022-03-28T12:21:01Z</time>
      </trkpt>
      <trkpt lat="46.43954" lon="5.30243">
        <ele>232.4</ele>
        <time>2022-03-28T12:21:05Z</time>
      </trkpt>
      <trkpt lat="46.43942" lon="5.30195">
        <ele>232.2</ele>
        <time>2022-03-28T12:21:10Z</time>
      </trkpt>
      <trkpt lat="46.4392" lon="5.30124">
        <ele>232.4</ele>
        <time>2022-03-28T12:21:18Z</time>
      </trkpt>
      <trkpt lat="46.43893" lon="5.30051">
        <ele>233</ele>
        <time>2022-03-28T12:21:27Z</time>
      </trkpt>
      <trkpt lat="46.4388" lon="5.3003">
        <ele>233</ele>
        <time>2022-03-28T12:21:30Z</time>
      </trkpt>
      <trkpt lat="46.4387" lon="5.30019">
        <ele>233</ele>
        <time>2022-03-28T12:21:32Z</time>
      </trkpt>
      <trkpt lat="46.43818" lon="5.29982">
        <ele>233</ele>
        <time>2022-03-28T12:21:41Z</time>
      </trkpt>
      <trkpt lat="46.43812" lon="5.29978">
        <ele>233</ele>
        <time>2022-03-28T12:21:42Z</time>
      </trkpt>
      <trkpt lat="46.438" lon="5.2997">
        <ele>231.4</ele>
        <time>2022-03-28T12:21:44Z</time>
      </trkpt>
      <trkpt lat="46.43761" lon="5.29942">
        <ele>232.6</ele>
        <time>2022-03-28T12:21:51Z</time>
      </trkpt>
      <trkpt lat="46.43736" lon="5.29922">
        <ele>232.8</ele>
        <time>2022-03-28T12:21:56Z</time>
      </trkpt>
      <trkpt lat="46.43731" lon="5.29922">
        <ele>232.8</ele>
        <time>2022-03-28T12:21:57Z</time>
      </trkpt>
      <trkpt lat="46.43725" lon="5.29924">
        <ele>232.8</ele>
        <time>2022-03-28T12:21:58Z</time>
      </trkpt>
      <trkpt lat="46.43712" lon="5.29926">
        <ele>232.8</ele>
        <time>2022-03-28T12:22:00Z</time>
      </trkpt>
      <trkpt lat="46.4367" lon="5.29925">
        <ele>232.2</ele>
        <time>2022-03-28T12:22:06Z</time>
      </trkpt>
      <trkpt lat="46.43624" lon="5.29923">
        <ele>232.2</ele>
        <time>2022-03-28T12:22:13Z</time>
      </trkpt>
      <trkpt lat="46.43577" lon="5.29923">
        <ele>232.2</ele>
        <time>2022-03-28T12:22:20Z</time>
      </trkpt>
      <trkpt lat="46.43569" lon="5.29925">
        <ele>232.2</ele>
        <time>2022-03-28T12:22:21Z</time>
      </trkpt>
      <trkpt lat="46.43554" lon="5.29932">
        <ele>232</ele>
        <time>2022-03-28T12:22:23Z</time>
      </trkpt>
      <trkpt lat="46.4353" lon="5.29952">
        <ele>231.4</ele>
        <time>2022-03-28T12:22:26Z</time>
      </trkpt>
      <trkpt lat="46.43512" lon="5.29969">
        <ele>230.6</ele>
        <time>2022-03-28T12:22:28Z</time>
      </trkpt>
      <trkpt lat="46.43504" lon="5.29977">
        <ele>230</ele>
        <time>2022-03-28T12:22:29Z</time>
      </trkpt>
      <trkpt lat="46.43485" lon="5.29993">
        <ele>228.8</ele>
        <time>2022-03-28T12:22:31Z</time>
      </trkpt>
      <trkpt lat="46.43465" lon="5.30005">
        <ele>227.4</ele>
        <time>2022-03-28T12:22:33Z</time>
      </trkpt>
      <trkpt lat="46.43443" lon="5.30009">
        <ele>225.8</ele>
        <time>2022-03-28T12:22:35Z</time>
      </trkpt>
      <trkpt lat="46.43432" lon="5.30009">
        <ele>224.8</ele>
        <time>2022-03-28T12:22:36Z</time>
      </trkpt>
      <trkpt lat="46.43423" lon="5.3001">
        <ele>224.4</ele>
        <time>2022-03-28T12:22:37Z</time>
      </trkpt>
      <trkpt lat="46.43401" lon="5.30012">
        <ele>223.2</ele>
        <time>2022-03-28T12:22:39Z</time>
      </trkpt>
      <trkpt lat="46.43391" lon="5.30013">
        <ele>222</ele>
        <time>2022-03-28T12:22:40Z</time>
      </trkpt>
      <trkpt lat="46.43382" lon="5.30015">
        <ele>221.6</ele>
        <time>2022-03-28T12:22:41Z</time>
      </trkpt>
      <trkpt lat="46.43372" lon="5.30018">
        <ele>220.8</ele>
        <time>2022-03-28T12:22:42Z</time>
      </trkpt>
      <trkpt lat="46.43363" lon="5.30022">
        <ele>220.4</ele>
        <time>2022-03-28T12:22:43Z</time>
      </trkpt>
      <trkpt lat="46.43354" lon="5.30026">
        <ele>219.4</ele>
        <time>2022-03-28T12:22:44Z</time>
      </trkpt>
      <trkpt lat="46.43344" lon="5.30029">
        <ele>218.8</ele>
        <time>2022-03-28T12:22:45Z</time>
      </trkpt>
      <trkpt lat="46.4332" lon="5.30029">
        <ele>218.2</ele>
        <time>2022-03-28T12:22:47Z</time>
      </trkpt>
      <trkpt lat="46.43308" lon="5.30029">
        <ele>218</ele>
        <time>2022-03-28T12:22:48Z</time>
      </trkpt>
      <trkpt lat="46.43284" lon="5.30035">
        <ele>216.6</ele>
        <time>2022-03-28T12:22:50Z</time>
      </trkpt>
      <trkpt lat="46.43274" lon="5.30037">
        <ele>215.4</ele>
        <time>2022-03-28T12:22:51Z</time>
      </trkpt>
      <trkpt lat="46.43262" lon="5.30037">
        <ele>214.4</ele>
        <time>2022-03-28T12:22:52Z</time>
      </trkpt>
      <trkpt lat="46.43252" lon="5.30035">
        <ele>214</ele>
        <time>2022-03-28T12:22:53Z</time>
      </trkpt>
      <trkpt lat="46.43237" lon="5.30028">
        <ele>213.4</ele>
        <time>2022-03-28T12:22:55Z</time>
      </trkpt>
      <trkpt lat="46.4323" lon="5.30023">
        <ele>213.4</ele>
        <time>2022-03-28T12:22:56Z</time>
      </trkpt>
      <trkpt lat="46.43219" lon="5.30017">
        <ele>213.4</ele>
        <time>2022-03-28T12:22:58Z</time>
      </trkpt>
      <trkpt lat="46.43208" lon="5.30015">
        <ele>214.4</ele>
        <time>2022-03-28T12:23:00Z</time>
      </trkpt>
      <trkpt lat="46.43197" lon="5.30015">
        <ele>215.6</ele>
        <time>2022-03-28T12:23:02Z</time>
      </trkpt>
      <trkpt lat="46.43193" lon="5.30014">
        <ele>216.4</ele>
        <time>2022-03-28T12:23:03Z</time>
      </trkpt>
      <trkpt lat="46.43188" lon="5.30014">
        <ele>216.8</ele>
        <time>2022-03-28T12:23:04Z</time>
      </trkpt>
      <trkpt lat="46.43184" lon="5.30014">
        <ele>217.4</ele>
        <time>2022-03-28T12:23:05Z</time>
      </trkpt>
      <trkpt lat="46.4318" lon="5.30014">
        <ele>218.4</ele>
        <time>2022-03-28T12:23:06Z</time>
      </trkpt>
      <trkpt lat="46.43168" lon="5.30013">
        <ele>219.8</ele>
        <time>2022-03-28T12:23:09Z</time>
      </trkpt>
      <trkpt lat="46.43154" lon="5.3001">
        <ele>221.2</ele>
        <time>2022-03-28T12:23:12Z</time>
      </trkpt>
      <trkpt lat="46.43142" lon="5.30008">
        <ele>222.8</ele>
        <time>2022-03-28T12:23:15Z</time>
      </trkpt>
      <trkpt lat="46.43126" lon="5.30001">
        <ele>224.4</ele>
        <time>2022-03-28T12:23:19Z</time>
      </trkpt>
      <trkpt lat="46.43114" lon="5.29994">
        <ele>225.2</ele>
        <time>2022-03-28T12:23:22Z</time>
      </trkpt>
      <trkpt lat="46.43111" lon="5.29992">
        <ele>225.4</ele>
        <time>2022-03-28T12:23:23Z</time>
      </trkpt>
      <trkpt lat="46.43096" lon="5.29988">
        <ele>226.8</ele>
        <time>2022-03-28T12:23:27Z</time>
      </trkpt>
      <trkpt lat="46.43092" lon="5.29988">
        <ele>227</ele>
        <time>2022-03-28T12:23:28Z</time>
      </trkpt>
      <trkpt lat="46.4308" lon="5.29988">
        <ele>227.8</ele>
        <time>2022-03-28T12:23:31Z</time>
      </trkpt>
      <trkpt lat="46.43058" lon="5.2999">
        <ele>228.2</ele>
        <time>2022-03-28T12:23:36Z</time>
      </trkpt>
      <trkpt lat="46.43027" lon="5.30001">
        <ele>228.8</ele>
        <time>2022-03-28T12:23:43Z</time>
      </trkpt>
      <trkpt lat="46.43018" lon="5.30003">
        <ele>228.8</ele>
        <time>2022-03-28T12:23:45Z</time>
      </trkpt>
      <trkpt lat="46.42982" lon="5.30009">
        <ele>229.4</ele>
        <time>2022-03-28T12:23:52Z</time>
      </trkpt>
      <trkpt lat="46.42961" lon="5.3001">
        <ele>230</ele>
        <time>2022-03-28T12:23:56Z</time>
      </trkpt>
      <trkpt lat="46.4294" lon="5.3001">
        <ele>230.2</ele>
        <time>2022-03-28T12:24:00Z</time>
      </trkpt>
      <trkpt lat="46.42891" lon="5.30006">
        <ele>231</ele>
        <time>2022-03-28T12:24:09Z</time>
      </trkpt>
      <trkpt lat="46.42885" lon="5.30005">
        <ele>231</ele>
        <time>2022-03-28T12:24:10Z</time>
      </trkpt>
      <trkpt lat="46.42852" lon="5.29998">
        <ele>231.4</ele>
        <time>2022-03-28T12:24:16Z</time>
      </trkpt>
      <trkpt lat="46.4283" lon="5.3">
        <ele>231.8</ele>
        <time>2022-03-28T12:24:20Z</time>
      </trkpt>
      <trkpt lat="46.4282" lon="5.30005">
        <ele>232</ele>
        <time>2022-03-28T12:24:22Z</time>
      </trkpt>
      <trkpt lat="46.4281" lon="5.30012">
        <ele>232.2</ele>
        <time>2022-03-28T12:24:24Z</time>
      </trkpt>
      <trkpt lat="46.42795" lon="5.30026">
        <ele>232.8</ele>
        <time>2022-03-28T12:24:27Z</time>
      </trkpt>
      <trkpt lat="46.42791" lon="5.30032">
        <ele>232.8</ele>
        <time>2022-03-28T12:24:28Z</time>
      </trkpt>
      <trkpt lat="46.4277" lon="5.30051">
        <ele>233.2</ele>
        <time>2022-03-28T12:24:32Z</time>
      </trkpt>
      <trkpt lat="46.4276" lon="5.30058">
        <ele>233.2</ele>
        <time>2022-03-28T12:24:34Z</time>
      </trkpt>
      <trkpt lat="46.42712" lon="5.3008">
        <ele>234</ele>
        <time>2022-03-28T12:24:43Z</time>
      </trkpt>
      <trkpt lat="46.42684" lon="5.30093">
        <ele>234.2</ele>
        <time>2022-03-28T12:24:48Z</time>
      </trkpt>
      <trkpt lat="46.42674" lon="5.30097">
        <ele>234.2</ele>
        <time>2022-03-28T12:24:50Z</time>
      </trkpt>
      <trkpt lat="46.42646" lon="5.30109">
        <ele>234.4</ele>
        <time>2022-03-28T12:24:55Z</time>
      </trkpt>
      <trkpt lat="46.42622" lon="5.30119">
        <ele>234.4</ele>
        <time>2022-03-28T12:24:59Z</time>
      </trkpt>
      <trkpt lat="46.42577" lon="5.30141">
        <ele>234.6</ele>
        <time>2022-03-28T12:25:06Z</time>
      </trkpt>
      <trkpt lat="46.42531" lon="5.30158">
        <ele>234.4</ele>
        <time>2022-03-28T12:25:13Z</time>
      </trkpt>
      <trkpt lat="46.42517" lon="5.30154">
        <ele>234.2</ele>
        <time>2022-03-28T12:25:15Z</time>
      </trkpt>
      <trkpt lat="46.42496" lon="5.30128">
        <ele>233.8</ele>
        <time>2022-03-28T12:25:19Z</time>
      </trkpt>
      <trkpt lat="46.42476" lon="5.30107">
        <ele>233.2</ele>
        <time>2022-03-28T12:25:22Z</time>
      </trkpt>
      <trkpt lat="46.42459" lon="5.30085">
        <ele>232.8</ele>
        <time>2022-03-28T12:25:25Z</time>
      </trkpt>
      <trkpt lat="46.42432" lon="5.30054">
        <ele>232.2</ele>
        <time>2022-03-28T12:25:29Z</time>
      </trkpt>
      <trkpt lat="46.42425" lon="5.30046">
        <ele>231.8</ele>
        <time>2022-03-28T12:25:30Z</time>
      </trkpt>
      <trkpt lat="46.42404" lon="5.30025">
        <ele>231.2</ele>
        <time>2022-03-28T12:25:33Z</time>
      </trkpt>
      <trkpt lat="46.42387" lon="5.3001">
        <ele>230.2</ele>
        <time>2022-03-28T12:25:35Z</time>
      </trkpt>
      <trkpt lat="46.42379" lon="5.30003">
        <ele>229.2</ele>
        <time>2022-03-28T12:25:36Z</time>
      </trkpt>
      <trkpt lat="46.42361" lon="5.29989">
        <ele>227.8</ele>
        <time>2022-03-28T12:25:38Z</time>
      </trkpt>
      <trkpt lat="46.42343" lon="5.29975">
        <ele>226.6</ele>
        <time>2022-03-28T12:25:40Z</time>
      </trkpt>
      <trkpt lat="46.42316" lon="5.29953">
        <ele>225.6</ele>
        <time>2022-03-28T12:25:43Z</time>
      </trkpt>
      <trkpt lat="46.42299" lon="5.2994">
        <ele>224.2</ele>
        <time>2022-03-28T12:25:45Z</time>
      </trkpt>
      <trkpt lat="46.42279" lon="5.29926">
        <ele>223</ele>
        <time>2022-03-28T12:25:47Z</time>
      </trkpt>
      <trkpt lat="46.42267" lon="5.29917">
        <ele>222</ele>
        <time>2022-03-28T12:25:48Z</time>
      </trkpt>
      <trkpt lat="46.4226" lon="5.29911">
        <ele>221.4</ele>
        <time>2022-03-28T12:25:49Z</time>
      </trkpt>
      <trkpt lat="46.42228" lon="5.29885">
        <ele>219.8</ele>
        <time>2022-03-28T12:25:52Z</time>
      </trkpt>
      <trkpt lat="46.42208" lon="5.29869">
        <ele>218.4</ele>
        <time>2022-03-28T12:25:54Z</time>
      </trkpt>
      <trkpt lat="46.42198" lon="5.2986">
        <ele>217.2</ele>
        <time>2022-03-28T12:25:55Z</time>
      </trkpt>
      <trkpt lat="46.42178" lon="5.29843">
        <ele>216</ele>
        <time>2022-03-28T12:25:57Z</time>
      </trkpt>
      <trkpt lat="46.42169" lon="5.29835">
        <ele>214.8</ele>
        <time>2022-03-28T12:25:58Z</time>
      </trkpt>
      <trkpt lat="46.42151" lon="5.29817">
        <ele>213.4</ele>
        <time>2022-03-28T12:26:00Z</time>
      </trkpt>
      <trkpt lat="46.42144" lon="5.29809">
        <ele>213</ele>
        <time>2022-03-28T12:26:01Z</time>
      </trkpt>
      <trkpt lat="46.4213" lon="5.29791">
        <ele>212.6</ele>
        <time>2022-03-28T12:26:03Z</time>
      </trkpt>
      <trkpt lat="46.4212" lon="5.29776">
        <ele>212.2</ele>
        <time>2022-03-28T12:26:05Z</time>
      </trkpt>
      <trkpt lat="46.42102" lon="5.2975">
        <ele>212.2</ele>
        <time>2022-03-28T12:26:09Z</time>
      </trkpt>
      <trkpt lat="46.42084" lon="5.29724">
        <ele>213.6</ele>
        <time>2022-03-28T12:26:14Z</time>
      </trkpt>
      <trkpt lat="46.42075" lon="5.2971">
        <ele>214.6</ele>
        <time>2022-03-28T12:26:17Z</time>
      </trkpt>
      <trkpt lat="46.42064" lon="5.29694">
        <ele>215.8</ele>
        <time>2022-03-28T12:26:21Z</time>
      </trkpt>
      <trkpt lat="46.42053" lon="5.29678">
        <ele>216.8</ele>
        <time>2022-03-28T12:26:25Z</time>
      </trkpt>
      <trkpt lat="46.42042" lon="5.29664">
        <ele>217.8</ele>
        <time>2022-03-28T12:26:29Z</time>
      </trkpt>
      <trkpt lat="46.42037" lon="5.29657">
        <ele>218.2</ele>
        <time>2022-03-28T12:26:31Z</time>
      </trkpt>
      <trkpt lat="46.42027" lon="5.29642">
        <ele>219.2</ele>
        <time>2022-03-28T12:26:35Z</time>
      </trkpt>
      <trkpt lat="46.42013" lon="5.29621">
        <ele>220.8</ele>
        <time>2022-03-28T12:26:41Z</time>
      </trkpt>
      <trkpt lat="46.42001" lon="5.29603">
        <ele>222</ele>
        <time>2022-03-28T12:26:46Z</time>
      </trkpt>
      <trkpt lat="46.41989" lon="5.29585">
        <ele>223.2</ele>
        <time>2022-03-28T12:26:51Z</time>
      </trkpt>
      <trkpt lat="46.41977" lon="5.29568">
        <ele>224.4</ele>
        <time>2022-03-28T12:26:56Z</time>
      </trkpt>
      <trkpt lat="46.41965" lon="5.29549">
        <ele>225.4</ele>
        <time>2022-03-28T12:27:01Z</time>
      </trkpt>
      <trkpt lat="46.41963" lon="5.29545">
        <ele>225.6</ele>
        <time>2022-03-28T12:27:02Z</time>
      </trkpt>
      <trkpt lat="46.41954" lon="5.29524">
        <ele>226.8</ele>
        <time>2022-03-28T12:27:07Z</time>
      </trkpt>
      <trkpt lat="46.41949" lon="5.29511">
        <ele>227.6</ele>
        <time>2022-03-28T12:27:10Z</time>
      </trkpt>
      <trkpt lat="46.41946" lon="5.29502">
        <ele>228.2</ele>
        <time>2022-03-28T12:27:12Z</time>
      </trkpt>
      <trkpt lat="46.41937" lon="5.29474">
        <ele>229.4</ele>
        <time>2022-03-28T12:27:18Z</time>
      </trkpt>
      <trkpt lat="46.41931" lon="5.29462">
        <ele>230.2</ele>
        <time>2022-03-28T12:27:21Z</time>
      </trkpt>
      <trkpt lat="46.41928" lon="5.29459">
        <ele>230.2</ele>
        <time>2022-03-28T12:27:22Z</time>
      </trkpt>
      <trkpt lat="46.4192" lon="5.29457">
        <ele>230.8</ele>
        <time>2022-03-28T12:27:24Z</time>
      </trkpt>
      <trkpt lat="46.41908" lon="5.29457">
        <ele>231.2</ele>
        <time>2022-03-28T12:27:27Z</time>
      </trkpt>
      <trkpt lat="46.419" lon="5.29459">
        <ele>231.6</ele>
        <time>2022-03-28T12:27:29Z</time>
      </trkpt>
      <trkpt lat="46.41896" lon="5.2946">
        <ele>232</ele>
        <time>2022-03-28T12:27:30Z</time>
      </trkpt>
      <trkpt lat="46.41887" lon="5.29462">
        <ele>232.2</ele>
        <time>2022-03-28T12:27:32Z</time>
      </trkpt>
      <trkpt lat="46.41851" lon="5.29468">
        <ele>232.4</ele>
        <time>2022-03-28T12:27:39Z</time>
      </trkpt>
      <trkpt lat="46.4184" lon="5.29471">
        <ele>232.4</ele>
        <time>2022-03-28T12:27:41Z</time>
      </trkpt>
      <trkpt lat="46.41815" lon="5.29483">
        <ele>232</ele>
        <time>2022-03-28T12:27:45Z</time>
      </trkpt>
      <trkpt lat="46.41788" lon="5.29493">
        <ele>230.8</ele>
        <time>2022-03-28T12:27:49Z</time>
      </trkpt>
      <trkpt lat="46.41774" lon="5.29496">
        <ele>230.4</ele>
        <time>2022-03-28T12:27:51Z</time>
      </trkpt>
      <trkpt lat="46.41738" lon="5.29496">
        <ele>229.6</ele>
        <time>2022-03-28T12:27:56Z</time>
      </trkpt>
      <trkpt lat="46.41696" lon="5.29495">
        <ele>229</ele>
        <time>2022-03-28T12:28:02Z</time>
      </trkpt>
      <trkpt lat="46.41683" lon="5.295">
        <ele>228.8</ele>
        <time>2022-03-28T12:28:04Z</time>
      </trkpt>
      <trkpt lat="46.41672" lon="5.29509">
        <ele>229</ele>
        <time>2022-03-28T12:28:06Z</time>
      </trkpt>
      <trkpt lat="46.41667" lon="5.29514">
        <ele>229</ele>
        <time>2022-03-28T12:28:07Z</time>
      </trkpt>
      <trkpt lat="46.41664" lon="5.2952">
        <ele>229.2</ele>
        <time>2022-03-28T12:28:08Z</time>
      </trkpt>
      <trkpt lat="46.41654" lon="5.29542">
        <ele>229.2</ele>
        <time>2022-03-28T12:28:11Z</time>
      </trkpt>
      <trkpt lat="46.4164" lon="5.29574">
        <ele>229.4</ele>
        <time>2022-03-28T12:28:15Z</time>
      </trkpt>
      <trkpt lat="46.41631" lon="5.29588">
        <ele>229.4</ele>
        <time>2022-03-28T12:28:17Z</time>
      </trkpt>
      <trkpt lat="46.41606" lon="5.29607">
        <ele>229.6</ele>
        <time>2022-03-28T12:28:21Z</time>
      </trkpt>
      <trkpt lat="46.4156" lon="5.29625">
        <ele>229.4</ele>
        <time>2022-03-28T12:28:28Z</time>
      </trkpt>
      <trkpt lat="46.41515" lon="5.29633">
        <ele>229</ele>
        <time>2022-03-28T12:28:35Z</time>
      </trkpt>
      <trkpt lat="46.4146" lon="5.29639">
        <ele>229.4</ele>
        <time>2022-03-28T12:28:44Z</time>
      </trkpt>
      <trkpt lat="46.41449" lon="5.29641">
        <ele>229.6</ele>
        <time>2022-03-28T12:28:46Z</time>
      </trkpt>
      <trkpt lat="46.41427" lon="5.29646">
        <ele>230.4</ele>
        <time>2022-03-28T12:28:50Z</time>
      </trkpt>
      <trkpt lat="46.41405" lon="5.29651">
        <ele>230.8</ele>
        <time>2022-03-28T12:28:54Z</time>
      </trkpt>
      <trkpt lat="46.41367" lon="5.29663">
        <ele>231.4</ele>
        <time>2022-03-28T12:29:01Z</time>
      </trkpt>
      <trkpt lat="46.41318" lon="5.2968">
        <ele>231.6</ele>
        <time>2022-03-28T12:29:10Z</time>
      </trkpt>
      <trkpt lat="46.41308" lon="5.2969">
        <ele>231.4</ele>
        <time>2022-03-28T12:29:12Z</time>
      </trkpt>
      <trkpt lat="46.41298" lon="5.29703">
        <ele>231.4</ele>
        <time>2022-03-28T12:29:14Z</time>
      </trkpt>
      <trkpt lat="46.41279" lon="5.29742">
        <ele>231.2</ele>
        <time>2022-03-28T12:29:19Z</time>
      </trkpt>
      <trkpt lat="46.41274" lon="5.29759">
        <ele>231.2</ele>
        <time>2022-03-28T12:29:21Z</time>
      </trkpt>
      <trkpt lat="46.4127" lon="5.29787">
        <ele>231</ele>
        <time>2022-03-28T12:29:24Z</time>
      </trkpt>
      <trkpt lat="46.4127" lon="5.29796">
        <ele>231.2</ele>
        <time>2022-03-28T12:29:25Z</time>
      </trkpt>
      <trkpt lat="46.41276" lon="5.29864">
        <ele>230.8</ele>
        <time>2022-03-28T12:29:32Z</time>
      </trkpt>
      <trkpt lat="46.41271" lon="5.29892">
        <ele>230.8</ele>
        <time>2022-03-28T12:29:35Z</time>
      </trkpt>
      <trkpt lat="46.41268" lon="5.299">
        <ele>230.8</ele>
        <time>2022-03-28T12:29:36Z</time>
      </trkpt>
      <trkpt lat="46.41265" lon="5.29908">
        <ele>230.8</ele>
        <time>2022-03-28T12:29:37Z</time>
      </trkpt>
      <trkpt lat="46.41256" lon="5.2992">
        <ele>230.8</ele>
        <time>2022-03-28T12:29:39Z</time>
      </trkpt>
      <trkpt lat="46.41243" lon="5.29932">
        <ele>231</ele>
        <time>2022-03-28T12:29:42Z</time>
      </trkpt>
      <trkpt lat="46.41235" lon="5.29939">
        <ele>231</ele>
        <time>2022-03-28T12:29:44Z</time>
      </trkpt>
      <trkpt lat="46.41215" lon="5.29951">
        <ele>232</ele>
        <time>2022-03-28T12:29:49Z</time>
      </trkpt>
      <trkpt lat="46.41195" lon="5.29963">
        <ele>233.2</ele>
        <time>2022-03-28T12:29:53Z</time>
      </trkpt>
      <trkpt lat="46.41188" lon="5.29966">
        <ele>233.2</ele>
        <time>2022-03-28T12:29:54Z</time>
      </trkpt>
      <trkpt lat="46.4118" lon="5.29968">
        <ele>233.6</ele>
        <time>2022-03-28T12:29:55Z</time>
      </trkpt>
      <trkpt lat="46.41165" lon="5.29971">
        <ele>233.8</ele>
        <time>2022-03-28T12:29:57Z</time>
      </trkpt>
      <trkpt lat="46.4115" lon="5.29972">
        <ele>234</ele>
        <time>2022-03-28T12:29:59Z</time>
      </trkpt>
      <trkpt lat="46.41142" lon="5.29973">
        <ele>234.2</ele>
        <time>2022-03-28T12:30:00Z</time>
      </trkpt>
      <trkpt lat="46.41086" lon="5.29982">
        <ele>234.2</ele>
        <time>2022-03-28T12:30:08Z</time>
      </trkpt>
      <trkpt lat="46.41039" lon="5.29989">
        <ele>234.2</ele>
        <time>2022-03-28T12:30:15Z</time>
      </trkpt>
      <trkpt lat="46.40997" lon="5.29994">
        <ele>234</ele>
        <time>2022-03-28T12:30:22Z</time>
      </trkpt>
      <trkpt lat="46.40985" lon="5.29996">
        <ele>234.2</ele>
        <time>2022-03-28T12:30:24Z</time>
      </trkpt>
      <trkpt lat="46.40969" lon="5.29996">
        <ele>234.2</ele>
        <time>2022-03-28T12:30:27Z</time>
      </trkpt>
      <trkpt lat="46.40963" lon="5.29996">
        <ele>234.4</ele>
        <time>2022-03-28T12:30:28Z</time>
      </trkpt>
      <trkpt lat="46.40909" lon="5.29994">
        <ele>234.4</ele>
        <time>2022-03-28T12:30:37Z</time>
      </trkpt>
      <trkpt lat="46.4089" lon="5.29994">
        <ele>234.6</ele>
        <time>2022-03-28T12:30:40Z</time>
      </trkpt>
      <trkpt lat="46.40876" lon="5.29996">
        <ele>234.6</ele>
        <time>2022-03-28T12:30:42Z</time>
      </trkpt>
      <trkpt lat="46.40871" lon="5.29995">
        <ele>234.6</ele>
        <time>2022-03-28T12:30:43Z</time>
      </trkpt>
      <trkpt lat="46.40862" lon="5.29995">
        <ele>234.8</ele>
        <time>2022-03-28T12:30:45Z</time>
      </trkpt>
      <trkpt lat="46.40857" lon="5.29994">
        <ele>235</ele>
        <time>2022-03-28T12:30:46Z</time>
      </trkpt>
      <trkpt lat="46.40826" lon="5.2999">
        <ele>235</ele>
        <time>2022-03-28T12:30:50Z</time>
      </trkpt>
      <trkpt lat="46.40811" lon="5.29985">
        <ele>235</ele>
        <time>2022-03-28T12:30:52Z</time>
      </trkpt>
      <trkpt lat="46.40787" lon="5.29974">
        <ele>235.2</ele>
        <time>2022-03-28T12:30:56Z</time>
      </trkpt>
      <trkpt lat="46.40766" lon="5.29961">
        <ele>235</ele>
        <time>2022-03-28T12:31:00Z</time>
      </trkpt>
      <trkpt lat="46.40719" lon="5.29939">
        <ele>235</ele>
        <time>2022-03-28T12:31:08Z</time>
      </trkpt>
      <trkpt lat="46.40693" lon="5.29923">
        <ele>235.2</ele>
        <time>2022-03-28T12:31:13Z</time>
      </trkpt>
      <trkpt lat="46.40675" lon="5.29908">
        <ele>235.6</ele>
        <time>2022-03-28T12:31:17Z</time>
      </trkpt>
      <trkpt lat="46.40666" lon="5.29899">
        <ele>235.8</ele>
        <time>2022-03-28T12:31:19Z</time>
      </trkpt>
      <trkpt lat="46.40624" lon="5.29853">
        <ele>236.2</ele>
        <time>2022-03-28T12:31:28Z</time>
      </trkpt>
      <trkpt lat="46.40601" lon="5.29833">
        <ele>236.8</ele>
        <time>2022-03-28T12:31:33Z</time>
      </trkpt>
      <trkpt lat="46.40596" lon="5.2983">
        <ele>236.8</ele>
        <time>2022-03-28T12:31:34Z</time>
      </trkpt>
      <trkpt lat="46.40562" lon="5.29822">
        <ele>236.4</ele>
        <time>2022-03-28T12:31:40Z</time>
      </trkpt>
      <trkpt lat="46.40506" lon="5.29819">
        <ele>236.2</ele>
        <time>2022-03-28T12:31:50Z</time>
      </trkpt>
      <trkpt lat="46.40456" lon="5.29815">
        <ele>236.6</ele>
        <time>2022-03-28T12:31:59Z</time>
      </trkpt>
      <trkpt lat="46.40412" lon="5.2981">
        <ele>236.4</ele>
        <time>2022-03-28T12:32:07Z</time>
      </trkpt>
      <trkpt lat="46.40407" lon="5.29809">
        <ele>236.4</ele>
        <time>2022-03-28T12:32:08Z</time>
      </trkpt>
      <trkpt lat="46.40355" lon="5.298">
        <ele>236.8</ele>
        <time>2022-03-28T12:32:17Z</time>
      </trkpt>
      <trkpt lat="46.4031" lon="5.29794">
        <ele>236.2</ele>
        <time>2022-03-28T12:32:25Z</time>
      </trkpt>
      <trkpt lat="46.40261" lon="5.29788">
        <ele>236.2</ele>
        <time>2022-03-28T12:32:34Z</time>
      </trkpt>
      <trkpt lat="46.40211" lon="5.29781">
        <ele>236.4</ele>
        <time>2022-03-28T12:32:43Z</time>
      </trkpt>
      <trkpt lat="46.40186" lon="5.29778">
        <ele>236.2</ele>
        <time>2022-03-28T12:32:48Z</time>
      </trkpt>
      <trkpt lat="46.40149" lon="5.29777">
        <ele>236</ele>
        <time>2022-03-28T12:32:54Z</time>
      </trkpt>
      <trkpt lat="46.40106" lon="5.29782">
        <ele>236.4</ele>
        <time>2022-03-28T12:33:01Z</time>
      </trkpt>
      <trkpt lat="46.40048" lon="5.29791">
        <ele>236.6</ele>
        <time>2022-03-28T12:33:10Z</time>
      </trkpt>
      <trkpt lat="46.4001" lon="5.29795">
        <ele>236.8</ele>
        <time>2022-03-28T12:33:16Z</time>
      </trkpt>
      <trkpt lat="46.39963" lon="5.29799">
        <ele>236.2</ele>
        <time>2022-03-28T12:33:23Z</time>
      </trkpt>
      <trkpt lat="46.3993" lon="5.29804">
        <ele>235.2</ele>
        <time>2022-03-28T12:33:28Z</time>
      </trkpt>
      <trkpt lat="46.39915" lon="5.29806">
        <ele>234.6</ele>
        <time>2022-03-28T12:33:30Z</time>
      </trkpt>
      <trkpt lat="46.3989" lon="5.2981">
        <ele>234</ele>
        <time>2022-03-28T12:33:33Z</time>
      </trkpt>
      <trkpt lat="46.39858" lon="5.29812">
        <ele>233</ele>
        <time>2022-03-28T12:33:37Z</time>
      </trkpt>
      <trkpt lat="46.39849" lon="5.29812">
        <ele>232.6</ele>
        <time>2022-03-28T12:33:38Z</time>
      </trkpt>
      <trkpt lat="46.3982" lon="5.29813">
        <ele>231.4</ele>
        <time>2022-03-28T12:33:41Z</time>
      </trkpt>
      <trkpt lat="46.39789" lon="5.29818">
        <ele>230.2</ele>
        <time>2022-03-28T12:33:44Z</time>
      </trkpt>
      <trkpt lat="46.39766" lon="5.29822">
        <ele>229.2</ele>
        <time>2022-03-28T12:33:46Z</time>
      </trkpt>
      <trkpt lat="46.39742" lon="5.29825">
        <ele>227.8</ele>
        <time>2022-03-28T12:33:48Z</time>
      </trkpt>
      <trkpt lat="46.3973" lon="5.29826">
        <ele>226.8</ele>
        <time>2022-03-28T12:33:49Z</time>
      </trkpt>
      <trkpt lat="46.39717" lon="5.29827">
        <ele>225.4</ele>
        <time>2022-03-28T12:33:50Z</time>
      </trkpt>
      <trkpt lat="46.39705" lon="5.29827">
        <ele>224.8</ele>
        <time>2022-03-28T12:33:51Z</time>
      </trkpt>
      <trkpt lat="46.39692" lon="5.29827">
        <ele>223.8</ele>
        <time>2022-03-28T12:33:52Z</time>
      </trkpt>
      <trkpt lat="46.3968" lon="5.29825">
        <ele>223.4</ele>
        <time>2022-03-28T12:33:53Z</time>
      </trkpt>
      <trkpt lat="46.39667" lon="5.29821">
        <ele>222.2</ele>
        <time>2022-03-28T12:33:54Z</time>
      </trkpt>
      <trkpt lat="46.39655" lon="5.29812">
        <ele>221.8</ele>
        <time>2022-03-28T12:33:55Z</time>
      </trkpt>
      <trkpt lat="46.39645" lon="5.298">
        <ele>220.8</ele>
        <time>2022-03-28T12:33:56Z</time>
      </trkpt>
      <trkpt lat="46.39635" lon="5.29788">
        <ele>218.4</ele>
        <time>2022-03-28T12:33:57Z</time>
      </trkpt>
      <trkpt lat="46.39618" lon="5.29762">
        <ele>216.6</ele>
        <time>2022-03-28T12:33:59Z</time>
      </trkpt>
      <trkpt lat="46.39601" lon="5.29738">
        <ele>214.8</ele>
        <time>2022-03-28T12:34:01Z</time>
      </trkpt>
      <trkpt lat="46.39582" lon="5.2972">
        <ele>212.6</ele>
        <time>2022-03-28T12:34:03Z</time>
      </trkpt>
      <trkpt lat="46.39572" lon="5.29714">
        <ele>211.6</ele>
        <time>2022-03-28T12:34:04Z</time>
      </trkpt>
      <trkpt lat="46.39543" lon="5.29709">
        <ele>210.6</ele>
        <time>2022-03-28T12:34:07Z</time>
      </trkpt>
      <trkpt lat="46.39493" lon="5.29709">
        <ele>210.8</ele>
        <time>2022-03-28T12:34:13Z</time>
      </trkpt>
      <trkpt lat="46.39468" lon="5.29706">
        <ele>211.8</ele>
        <time>2022-03-28T12:34:17Z</time>
      </trkpt>
      <trkpt lat="46.39462" lon="5.29705">
        <ele>212</ele>
        <time>2022-03-28T12:34:18Z</time>
      </trkpt>
      <trkpt lat="46.39438" lon="5.29704">
        <ele>213</ele>
        <time>2022-03-28T12:34:23Z</time>
      </trkpt>
      <trkpt lat="46.39421" lon="5.29708">
        <ele>214</ele>
        <time>2022-03-28T12:34:27Z</time>
      </trkpt>
      <trkpt lat="46.39417" lon="5.29711">
        <ele>214.4</ele>
        <time>2022-03-28T12:34:28Z</time>
      </trkpt>
      <trkpt lat="46.39408" lon="5.29718">
        <ele>215.4</ele>
        <time>2022-03-28T12:34:31Z</time>
      </trkpt>
      <trkpt lat="46.39404" lon="5.29724">
        <ele>216</ele>
        <time>2022-03-28T12:34:33Z</time>
      </trkpt>
      <trkpt lat="46.39402" lon="5.29727">
        <ele>216.4</ele>
        <time>2022-03-28T12:34:34Z</time>
      </trkpt>
      <trkpt lat="46.39392" lon="5.29739">
        <ele>217.8</ele>
        <time>2022-03-28T12:34:38Z</time>
      </trkpt>
      <trkpt lat="46.39387" lon="5.29745">
        <ele>218.2</ele>
        <time>2022-03-28T12:34:40Z</time>
      </trkpt>
      <trkpt lat="46.39382" lon="5.29751">
        <ele>218.8</ele>
        <time>2022-03-28T12:34:42Z</time>
      </trkpt>
      <trkpt lat="46.39368" lon="5.29764">
        <ele>220</ele>
        <time>2022-03-28T12:34:46Z</time>
      </trkpt>
      <trkpt lat="46.39366" lon="5.29767">
        <ele>220.4</ele>
        <time>2022-03-28T12:34:47Z</time>
      </trkpt>
      <trkpt lat="46.39358" lon="5.29782">
        <ele>221</ele>
        <time>2022-03-28T12:34:50Z</time>
      </trkpt>
      <trkpt lat="46.39354" lon="5.29793">
        <ele>221.6</ele>
        <time>2022-03-28T12:34:52Z</time>
      </trkpt>
      <trkpt lat="46.3935" lon="5.29805">
        <ele>222.2</ele>
        <time>2022-03-28T12:34:54Z</time>
      </trkpt>
      <trkpt lat="46.39342" lon="5.29834">
        <ele>222.8</ele>
        <time>2022-03-28T12:34:59Z</time>
      </trkpt>
      <trkpt lat="46.39337" lon="5.2985">
        <ele>223.4</ele>
        <time>2022-03-28T12:35:02Z</time>
      </trkpt>
      <trkpt lat="46.3933" lon="5.29864">
        <ele>223.6</ele>
        <time>2022-03-28T12:35:05Z</time>
      </trkpt>
      <trkpt lat="46.39314" lon="5.29888">
        <ele>224.4</ele>
        <time>2022-03-28T12:35:11Z</time>
      </trkpt>
      <trkpt lat="46.39307" lon="5.29895">
        <ele>224.8</ele>
        <time>2022-03-28T12:35:13Z</time>
      </trkpt>
      <trkpt lat="46.39292" lon="5.29903">
        <ele>225.4</ele>
        <time>2022-03-28T12:35:17Z</time>
      </trkpt>
      <trkpt lat="46.39283" lon="5.29906">
        <ele>225.8</ele>
        <time>2022-03-28T12:35:19Z</time>
      </trkpt>
      <trkpt lat="46.39257" lon="5.29913">
        <ele>226.2</ele>
        <time>2022-03-28T12:35:24Z</time>
      </trkpt>
      <trkpt lat="46.39212" lon="5.29925">
        <ele>226</ele>
        <time>2022-03-28T12:35:31Z</time>
      </trkpt>
      <trkpt lat="46.39161" lon="5.2993">
        <ele>225.4</ele>
        <time>2022-03-28T12:35:38Z</time>
      </trkpt>
      <trkpt lat="46.39138" lon="5.2992">
        <ele>225</ele>
        <time>2022-03-28T12:35:41Z</time>
      </trkpt>
      <trkpt lat="46.39131" lon="5.29915">
        <ele>225</ele>
        <time>2022-03-28T12:35:42Z</time>
      </trkpt>
      <trkpt lat="46.39116" lon="5.29902">
        <ele>224.4</ele>
        <time>2022-03-28T12:35:44Z</time>
      </trkpt>
      <trkpt lat="46.39101" lon="5.2989">
        <ele>223.2</ele>
        <time>2022-03-28T12:35:46Z</time>
      </trkpt>
      <trkpt lat="46.39092" lon="5.29885">
        <ele>223.2</ele>
        <time>2022-03-28T12:35:47Z</time>
      </trkpt>
      <trkpt lat="46.39065" lon="5.29872">
        <ele>222.2</ele>
        <time>2022-03-28T12:35:50Z</time>
      </trkpt>
      <trkpt lat="46.39055" lon="5.29869">
        <ele>221.6</ele>
        <time>2022-03-28T12:35:51Z</time>
      </trkpt>
      <trkpt lat="46.39045" lon="5.29866">
        <ele>220.8</ele>
        <time>2022-03-28T12:35:52Z</time>
      </trkpt>
      <trkpt lat="46.39024" lon="5.2986">
        <ele>219.4</ele>
        <time>2022-03-28T12:35:54Z</time>
      </trkpt>
      <trkpt lat="46.39001" lon="5.29856">
        <ele>218.4</ele>
        <time>2022-03-28T12:35:56Z</time>
      </trkpt>
      <trkpt lat="46.3899" lon="5.29856">
        <ele>217.4</ele>
        <time>2022-03-28T12:35:57Z</time>
      </trkpt>
      <trkpt lat="46.38968" lon="5.29855">
        <ele>215.8</ele>
        <time>2022-03-28T12:35:59Z</time>
      </trkpt>
      <trkpt lat="46.38945" lon="5.29854">
        <ele>214.6</ele>
        <time>2022-03-28T12:36:01Z</time>
      </trkpt>
      <trkpt lat="46.38935" lon="5.29854">
        <ele>213.2</ele>
        <time>2022-03-28T12:36:02Z</time>
      </trkpt>
      <trkpt lat="46.38915" lon="5.29853">
        <ele>211.8</ele>
        <time>2022-03-28T12:36:04Z</time>
      </trkpt>
      <trkpt lat="46.38896" lon="5.29852">
        <ele>210.8</ele>
        <time>2022-03-28T12:36:06Z</time>
      </trkpt>
      <trkpt lat="46.38861" lon="5.29851">
        <ele>209.8</ele>
        <time>2022-03-28T12:36:10Z</time>
      </trkpt>
      <trkpt lat="46.38805" lon="5.29848">
        <ele>209.2</ele>
        <time>2022-03-28T12:36:17Z</time>
      </trkpt>
      <trkpt lat="46.38761" lon="5.29849">
        <ele>208.8</ele>
        <time>2022-03-28T12:36:23Z</time>
      </trkpt>
      <trkpt lat="46.38755" lon="5.29847">
        <ele>208.6</ele>
        <time>2022-03-28T12:36:24Z</time>
      </trkpt>
      <trkpt lat="46.38746" lon="5.29839">
        <ele>208.4</ele>
        <time>2022-03-28T12:36:26Z</time>
      </trkpt>
      <trkpt lat="46.38744" lon="5.29824">
        <ele>208.4</ele>
        <time>2022-03-28T12:36:28Z</time>
      </trkpt>
      <trkpt lat="46.38746" lon="5.29818">
        <ele>208.4</ele>
        <time>2022-03-28T12:36:29Z</time>
      </trkpt>
      <trkpt lat="46.38748" lon="5.29811">
        <ele>208.4</ele>
        <time>2022-03-28T12:36:30Z</time>
      </trkpt>
      <trkpt lat="46.38753" lon="5.29795">
        <ele>208.4</ele>
        <time>2022-03-28T12:36:32Z</time>
      </trkpt>
      <trkpt lat="46.38755" lon="5.29787">
        <ele>208.4</ele>
        <time>2022-03-28T12:36:33Z</time>
      </trkpt>
      <trkpt lat="46.38759" lon="5.2977">
        <ele>208.6</ele>
        <time>2022-03-28T12:36:35Z</time>
      </trkpt>
      <trkpt lat="46.38759" lon="5.29753">
        <ele>208.8</ele>
        <time>2022-03-28T12:36:37Z</time>
      </trkpt>
      <trkpt lat="46.38756" lon="5.29737">
        <ele>208.6</ele>
        <time>2022-03-28T12:36:39Z</time>
      </trkpt>
      <trkpt lat="46.38754" lon="5.29729">
        <ele>208.6</ele>
        <time>2022-03-28T12:36:40Z</time>
      </trkpt>
      <trkpt lat="46.38747" lon="5.29715">
        <ele>208.4</ele>
        <time>2022-03-28T12:36:42Z</time>
      </trkpt>
      <trkpt lat="46.38738" lon="5.29703">
        <ele>208.4</ele>
        <time>2022-03-28T12:36:44Z</time>
      </trkpt>
      <trkpt lat="46.38717" lon="5.29686">
        <ele>208.8</ele>
        <time>2022-03-28T12:36:49Z</time>
      </trkpt>
      <trkpt lat="46.38705" lon="5.29675">
        <ele>210</ele>
        <time>2022-03-28T12:36:53Z</time>
      </trkpt>
      <trkpt lat="46.38698" lon="5.29668">
        <ele>210.2</ele>
        <time>2022-03-28T12:36:55Z</time>
      </trkpt>
      <trkpt lat="46.38693" lon="5.29661">
        <ele>211</ele>
        <time>2022-03-28T12:36:57Z</time>
      </trkpt>
      <trkpt lat="46.38685" lon="5.29644">
        <ele>212</ele>
        <time>2022-03-28T12:37:01Z</time>
      </trkpt>
      <trkpt lat="46.38684" lon="5.2964">
        <ele>212.2</ele>
        <time>2022-03-28T12:37:02Z</time>
      </trkpt>
      <trkpt lat="46.38682" lon="5.29619">
        <ele>213.4</ele>
        <time>2022-03-28T12:37:06Z</time>
      </trkpt>
      <trkpt lat="46.38681" lon="5.29588">
        <ele>214.6</ele>
        <time>2022-03-28T12:37:12Z</time>
      </trkpt>
      <trkpt lat="46.38679" lon="5.29573">
        <ele>215</ele>
        <time>2022-03-28T12:37:15Z</time>
      </trkpt>
      <trkpt lat="46.38679" lon="5.29568">
        <ele>215.6</ele>
        <time>2022-03-28T12:37:16Z</time>
      </trkpt>
      <trkpt lat="46.38677" lon="5.29546">
        <ele>216.6</ele>
        <time>2022-03-28T12:37:20Z</time>
      </trkpt>
      <trkpt lat="46.38677" lon="5.29536">
        <ele>217.4</ele>
        <time>2022-03-28T12:37:22Z</time>
      </trkpt>
      <trkpt lat="46.38677" lon="5.2953">
        <ele>218</ele>
        <time>2022-03-28T12:37:23Z</time>
      </trkpt>
      <trkpt lat="46.38678" lon="5.29506">
        <ele>219.2</ele>
        <time>2022-03-28T12:37:28Z</time>
      </trkpt>
      <trkpt lat="46.38678" lon="5.29501">
        <ele>219.2</ele>
        <time>2022-03-28T12:37:29Z</time>
      </trkpt>
      <trkpt lat="46.3868" lon="5.29475">
        <ele>220.4</ele>
        <time>2022-03-28T12:37:35Z</time>
      </trkpt>
      <trkpt lat="46.38681" lon="5.29471">
        <ele>220.4</ele>
        <time>2022-03-28T12:37:36Z</time>
      </trkpt>
      <trkpt lat="46.38683" lon="5.29453">
        <ele>221.6</ele>
        <time>2022-03-28T12:37:40Z</time>
      </trkpt>
      <trkpt lat="46.38685" lon="5.2943">
        <ele>222.6</ele>
        <time>2022-03-28T12:37:45Z</time>
      </trkpt>
      <trkpt lat="46.38685" lon="5.29426">
        <ele>222.8</ele>
        <time>2022-03-28T12:37:46Z</time>
      </trkpt>
      <trkpt lat="46.38685" lon="5.29399">
        <ele>223.8</ele>
        <time>2022-03-28T12:37:52Z</time>
      </trkpt>
      <trkpt lat="46.38685" lon="5.29385">
        <ele>224.8</ele>
        <time>2022-03-28T12:37:55Z</time>
      </trkpt>
      <trkpt lat="46.38685" lon="5.2938">
        <ele>225.2</ele>
        <time>2022-03-28T12:37:56Z</time>
      </trkpt>
      <trkpt lat="46.38684" lon="5.29339">
        <ele>226.2</ele>
        <time>2022-03-28T12:38:04Z</time>
      </trkpt>
      <trkpt lat="46.38684" lon="5.29334">
        <ele>226.2</ele>
        <time>2022-03-28T12:38:05Z</time>
      </trkpt>
      <trkpt lat="46.38686" lon="5.29313">
        <ele>226.8</ele>
        <time>2022-03-28T12:38:11Z</time>
      </trkpt>
      <trkpt lat="46.38687" lon="5.29312">
        <ele>227</ele>
        <time>2022-03-28T12:38:13Z</time>
      </trkpt>
      <trkpt lat="46.38685" lon="5.29312">
        <ele>227</ele>
        <time>2022-03-28T12:38:58Z</time>
      </trkpt>
      <trkpt lat="46.38676" lon="5.29314">
        <ele>227</ele>
        <time>2022-03-28T12:39:01Z</time>
      </trkpt>
      <trkpt lat="46.38672" lon="5.29311">
        <ele>227</ele>
        <time>2022-03-28T12:39:02Z</time>
      </trkpt>
      <trkpt lat="46.38668" lon="5.29308">
        <ele>227</ele>
        <time>2022-03-28T12:39:03Z</time>
      </trkpt>
      <trkpt lat="46.38652" lon="5.293">
        <ele>227</ele>
        <time>2022-03-28T12:39:06Z</time>
      </trkpt>
      <trkpt lat="46.38628" lon="5.29299">
        <ele>227</ele>
        <time>2022-03-28T12:39:09Z</time>
      </trkpt>
      <trkpt lat="46.38579" lon="5.29294">
        <ele>225.2</ele>
        <time>2022-03-28T12:39:14Z</time>
      </trkpt>
      <trkpt lat="46.38568" lon="5.29289">
        <ele>224</ele>
        <time>2022-03-28T12:39:15Z</time>
      </trkpt>
      <trkpt lat="46.38558" lon="5.29283">
        <ele>223.6</ele>
        <time>2022-03-28T12:39:16Z</time>
      </trkpt>
      <trkpt lat="46.38548" lon="5.29275">
        <ele>222.6</ele>
        <time>2022-03-28T12:39:17Z</time>
      </trkpt>
      <trkpt lat="46.38531" lon="5.29257">
        <ele>220.6</ele>
        <time>2022-03-28T12:39:19Z</time>
      </trkpt>
      <trkpt lat="46.38522" lon="5.2925">
        <ele>219.6</ele>
        <time>2022-03-28T12:39:20Z</time>
      </trkpt>
      <trkpt lat="46.38512" lon="5.29248">
        <ele>219</ele>
        <time>2022-03-28T12:39:21Z</time>
      </trkpt>
      <trkpt lat="46.38503" lon="5.29251">
        <ele>217.8</ele>
        <time>2022-03-28T12:39:22Z</time>
      </trkpt>
      <trkpt lat="46.38497" lon="5.29258">
        <ele>217.4</ele>
        <time>2022-03-28T12:39:23Z</time>
      </trkpt>
      <trkpt lat="46.38491" lon="5.29268">
        <ele>216</ele>
        <time>2022-03-28T12:39:24Z</time>
      </trkpt>
      <trkpt lat="46.3848" lon="5.2929">
        <ele>214.8</ele>
        <time>2022-03-28T12:39:26Z</time>
      </trkpt>
      <trkpt lat="46.38467" lon="5.29306">
        <ele>214</ele>
        <time>2022-03-28T12:39:28Z</time>
      </trkpt>
      <trkpt lat="46.3846" lon="5.2931">
        <ele>213.8</ele>
        <time>2022-03-28T12:39:29Z</time>
      </trkpt>
      <trkpt lat="46.38452" lon="5.2931">
        <ele>213.6</ele>
        <time>2022-03-28T12:39:30Z</time>
      </trkpt>
      <trkpt lat="46.38438" lon="5.29299">
        <ele>213.2</ele>
        <time>2022-03-28T12:39:32Z</time>
      </trkpt>
      <trkpt lat="46.3842" lon="5.29273">
        <ele>212.6</ele>
        <time>2022-03-28T12:39:35Z</time>
      </trkpt>
      <trkpt lat="46.38402" lon="5.29249">
        <ele>212.2</ele>
        <time>2022-03-28T12:39:38Z</time>
      </trkpt>
      <trkpt lat="46.38396" lon="5.29242">
        <ele>212</ele>
        <time>2022-03-28T12:39:39Z</time>
      </trkpt>
      <trkpt lat="46.38376" lon="5.29227">
        <ele>211.8</ele>
        <time>2022-03-28T12:39:42Z</time>
      </trkpt>
      <trkpt lat="46.38362" lon="5.29217">
        <ele>211.6</ele>
        <time>2022-03-28T12:39:44Z</time>
      </trkpt>
      <trkpt lat="46.38323" lon="5.29189">
        <ele>211.6</ele>
        <time>2022-03-28T12:39:50Z</time>
      </trkpt>
      <trkpt lat="46.3829" lon="5.29171">
        <ele>211.4</ele>
        <time>2022-03-28T12:39:55Z</time>
      </trkpt>
      <trkpt lat="46.38282" lon="5.2917">
        <ele>211.4</ele>
        <time>2022-03-28T12:39:56Z</time>
      </trkpt>
      <trkpt lat="46.38275" lon="5.2917">
        <ele>211.4</ele>
        <time>2022-03-28T12:39:57Z</time>
      </trkpt>
      <trkpt lat="46.38261" lon="5.29175">
        <ele>211.4</ele>
        <time>2022-03-28T12:39:59Z</time>
      </trkpt>
      <trkpt lat="46.38254" lon="5.29178">
        <ele>211.4</ele>
        <time>2022-03-28T12:40:00Z</time>
      </trkpt>
      <trkpt lat="46.38207" lon="5.29204">
        <ele>211.4</ele>
        <time>2022-03-28T12:40:07Z</time>
      </trkpt>
      <trkpt lat="46.382" lon="5.29208">
        <ele>211.4</ele>
        <time>2022-03-28T12:40:08Z</time>
      </trkpt>
      <trkpt lat="46.38187" lon="5.29218">
        <ele>211.4</ele>
        <time>2022-03-28T12:40:10Z</time>
      </trkpt>
      <trkpt lat="46.38181" lon="5.29224">
        <ele>211.6</ele>
        <time>2022-03-28T12:40:11Z</time>
      </trkpt>
      <trkpt lat="46.38164" lon="5.29242">
        <ele>211.6</ele>
        <time>2022-03-28T12:40:14Z</time>
      </trkpt>
      <trkpt lat="46.3815" lon="5.29251">
        <ele>211.6</ele>
        <time>2022-03-28T12:40:16Z</time>
      </trkpt>
      <trkpt lat="46.3813" lon="5.29255">
        <ele>211.6</ele>
        <time>2022-03-28T12:40:19Z</time>
      </trkpt>
      <trkpt lat="46.38123" lon="5.29255">
        <ele>211.8</ele>
        <time>2022-03-28T12:40:20Z</time>
      </trkpt>
      <trkpt lat="46.38102" lon="5.29253">
        <ele>212</ele>
        <time>2022-03-28T12:40:23Z</time>
      </trkpt>
      <trkpt lat="46.38091" lon="5.29256">
        <ele>212.2</ele>
        <time>2022-03-28T12:40:25Z</time>
      </trkpt>
      <trkpt lat="46.38072" lon="5.29264">
        <ele>212.4</ele>
        <time>2022-03-28T12:40:28Z</time>
      </trkpt>
      <trkpt lat="46.38063" lon="5.2927">
        <ele>212.6</ele>
        <time>2022-03-28T12:40:30Z</time>
      </trkpt>
      <trkpt lat="46.38058" lon="5.29273">
        <ele>212.8</ele>
        <time>2022-03-28T12:40:31Z</time>
      </trkpt>
      <trkpt lat="46.38039" lon="5.29289">
        <ele>214</ele>
        <time>2022-03-28T12:40:36Z</time>
      </trkpt>
      <trkpt lat="46.38026" lon="5.29301">
        <ele>215.2</ele>
        <time>2022-03-28T12:40:40Z</time>
      </trkpt>
      <trkpt lat="46.38017" lon="5.2931">
        <ele>216.2</ele>
        <time>2022-03-28T12:40:43Z</time>
      </trkpt>
      <trkpt lat="46.38014" lon="5.29314">
        <ele>216.4</ele>
        <time>2022-03-28T12:40:44Z</time>
      </trkpt>
      <trkpt lat="46.38001" lon="5.29326">
        <ele>217.6</ele>
        <time>2022-03-28T12:40:48Z</time>
      </trkpt>
      <trkpt lat="46.37991" lon="5.29334">
        <ele>218.2</ele>
        <time>2022-03-28T12:40:51Z</time>
      </trkpt>
      <trkpt lat="46.37983" lon="5.29339">
        <ele>218.6</ele>
        <time>2022-03-28T12:40:53Z</time>
      </trkpt>
      <trkpt lat="46.37961" lon="5.29348">
        <ele>219.6</ele>
        <time>2022-03-28T12:40:59Z</time>
      </trkpt>
      <trkpt lat="46.37957" lon="5.29349">
        <ele>219.6</ele>
        <time>2022-03-28T12:41:00Z</time>
      </trkpt>
      <trkpt lat="46.37942" lon="5.29353">
        <ele>220.8</ele>
        <time>2022-03-28T12:41:04Z</time>
      </trkpt>
      <trkpt lat="46.37927" lon="5.29358">
        <ele>221.8</ele>
        <time>2022-03-28T12:41:08Z</time>
      </trkpt>
      <trkpt lat="46.37911" lon="5.29362">
        <ele>223</ele>
        <time>2022-03-28T12:41:12Z</time>
      </trkpt>
      <trkpt lat="46.37895" lon="5.29367">
        <ele>224.4</ele>
        <time>2022-03-28T12:41:16Z</time>
      </trkpt>
      <trkpt lat="46.37885" lon="5.29371">
        <ele>224.8</ele>
        <time>2022-03-28T12:41:19Z</time>
      </trkpt>
      <trkpt lat="46.37877" lon="5.29374">
        <ele>225.4</ele>
        <time>2022-03-28T12:41:21Z</time>
      </trkpt>
      <trkpt lat="46.37857" lon="5.29382">
        <ele>226.4</ele>
        <time>2022-03-28T12:41:26Z</time>
      </trkpt>
      <trkpt lat="46.37835" lon="5.29396">
        <ele>227.4</ele>
        <time>2022-03-28T12:41:32Z</time>
      </trkpt>
      <trkpt lat="46.37821" lon="5.29408">
        <ele>228.4</ele>
        <time>2022-03-28T12:41:36Z</time>
      </trkpt>
      <trkpt lat="46.37818" lon="5.29411">
        <ele>228.8</ele>
        <time>2022-03-28T12:41:37Z</time>
      </trkpt>
      <trkpt lat="46.37798" lon="5.29428">
        <ele>229.4</ele>
        <time>2022-03-28T12:41:42Z</time>
      </trkpt>
      <trkpt lat="46.37781" lon="5.29445">
        <ele>229.8</ele>
        <time>2022-03-28T12:41:46Z</time>
      </trkpt>
      <trkpt lat="46.37765" lon="5.29462">
        <ele>230.2</ele>
        <time>2022-03-28T12:41:50Z</time>
      </trkpt>
      <trkpt lat="46.37761" lon="5.29466">
        <ele>230.2</ele>
        <time>2022-03-28T12:41:51Z</time>
      </trkpt>
      <trkpt lat="46.37745" lon="5.29475">
        <ele>230.6</ele>
        <time>2022-03-28T12:41:55Z</time>
      </trkpt>
      <trkpt lat="46.37738" lon="5.29477">
        <ele>230.8</ele>
        <time>2022-03-28T12:41:57Z</time>
      </trkpt>
      <trkpt lat="46.3772" lon="5.2948">
        <ele>232.4</ele>
        <time>2022-03-28T12:42:02Z</time>
      </trkpt>
      <trkpt lat="46.37703" lon="5.2948">
        <ele>233.4</ele>
        <time>2022-03-28T12:42:06Z</time>
      </trkpt>
      <trkpt lat="46.37688" lon="5.2948">
        <ele>234.6</ele>
        <time>2022-03-28T12:42:10Z</time>
      </trkpt>
      <trkpt lat="46.37672" lon="5.2948">
        <ele>235.8</ele>
        <time>2022-03-28T12:42:14Z</time>
      </trkpt>
      <trkpt lat="46.37652" lon="5.29475">
        <ele>237</ele>
        <time>2022-03-28T12:42:19Z</time>
      </trkpt>
      <trkpt lat="46.37643" lon="5.2947">
        <ele>237.4</ele>
        <time>2022-03-28T12:42:21Z</time>
      </trkpt>
      <trkpt lat="46.37613" lon="5.29455">
        <ele>237.8</ele>
        <time>2022-03-28T12:42:27Z</time>
      </trkpt>
      <trkpt lat="46.37568" lon="5.29442">
        <ele>237.6</ele>
        <time>2022-03-28T12:42:34Z</time>
      </trkpt>
      <trkpt lat="46.37549" lon="5.29434">
        <ele>237.2</ele>
        <time>2022-03-28T12:42:37Z</time>
      </trkpt>
      <trkpt lat="46.37537" lon="5.29425">
        <ele>237.2</ele>
        <time>2022-03-28T12:42:39Z</time>
      </trkpt>
      <trkpt lat="46.37508" lon="5.2939">
        <ele>237</ele>
        <time>2022-03-28T12:42:45Z</time>
      </trkpt>
      <trkpt lat="46.37478" lon="5.29346">
        <ele>237.2</ele>
        <time>2022-03-28T12:42:52Z</time>
      </trkpt>
      <trkpt lat="46.37452" lon="5.29289">
        <ele>238</ele>
        <time>2022-03-28T12:43:00Z</time>
      </trkpt>
      <trkpt lat="46.3743" lon="5.29255">
        <ele>238</ele>
        <time>2022-03-28T12:43:05Z</time>
      </trkpt>
      <trkpt lat="46.37417" lon="5.29235">
        <ele>237.8</ele>
        <time>2022-03-28T12:43:08Z</time>
      </trkpt>
      <trkpt lat="46.37411" lon="5.29218">
        <ele>237.8</ele>
        <time>2022-03-28T12:43:10Z</time>
      </trkpt>
      <trkpt lat="46.37407" lon="5.29201">
        <ele>238</ele>
        <time>2022-03-28T12:43:12Z</time>
      </trkpt>
      <trkpt lat="46.37401" lon="5.29184">
        <ele>238</ele>
        <time>2022-03-28T12:43:14Z</time>
      </trkpt>
      <trkpt lat="46.37398" lon="5.29177">
        <ele>238</ele>
        <time>2022-03-28T12:43:15Z</time>
      </trkpt>
      <trkpt lat="46.37394" lon="5.2917">
        <ele>238</ele>
        <time>2022-03-28T12:43:16Z</time>
      </trkpt>
      <trkpt lat="46.37377" lon="5.29144">
        <ele>238.2</ele>
        <time>2022-03-28T12:43:20Z</time>
      </trkpt>
      <trkpt lat="46.37361" lon="5.29119">
        <ele>238.2</ele>
        <time>2022-03-28T12:43:24Z</time>
      </trkpt>
      <trkpt lat="46.37358" lon="5.29111">
        <ele>238.2</ele>
        <time>2022-03-28T12:43:25Z</time>
      </trkpt>
      <trkpt lat="46.37356" lon="5.29104">
        <ele>238.4</ele>
        <time>2022-03-28T12:43:26Z</time>
      </trkpt>
      <trkpt lat="46.37349" lon="5.29074">
        <ele>238.8</ele>
        <time>2022-03-28T12:43:30Z</time>
      </trkpt>
      <trkpt lat="46.37347" lon="5.29068">
        <ele>239</ele>
        <time>2022-03-28T12:43:31Z</time>
      </trkpt>
      <trkpt lat="46.37344" lon="5.29062">
        <ele>239</ele>
        <time>2022-03-28T12:43:32Z</time>
      </trkpt>
      <trkpt lat="46.37336" lon="5.29052">
        <ele>239.2</ele>
        <time>2022-03-28T12:43:34Z</time>
      </trkpt>
      <trkpt lat="46.37332" lon="5.29047">
        <ele>239.4</ele>
        <time>2022-03-28T12:43:35Z</time>
      </trkpt>
      <trkpt lat="46.37328" lon="5.29044">
        <ele>239.4</ele>
        <time>2022-03-28T12:43:36Z</time>
      </trkpt>
      <trkpt lat="46.3731" lon="5.29034">
        <ele>239.8</ele>
        <time>2022-03-28T12:43:40Z</time>
      </trkpt>
      <trkpt lat="46.3729" lon="5.29028">
        <ele>240.2</ele>
        <time>2022-03-28T12:43:44Z</time>
      </trkpt>
      <trkpt lat="46.37281" lon="5.29027">
        <ele>240.4</ele>
        <time>2022-03-28T12:43:46Z</time>
      </trkpt>
      <trkpt lat="46.37275" lon="5.29027">
        <ele>240.6</ele>
        <time>2022-03-28T12:43:47Z</time>
      </trkpt>
      <trkpt lat="46.37266" lon="5.29031">
        <ele>240.6</ele>
        <time>2022-03-28T12:43:49Z</time>
      </trkpt>
      <trkpt lat="46.37256" lon="5.29037">
        <ele>241</ele>
        <time>2022-03-28T12:43:51Z</time>
      </trkpt>
      <trkpt lat="46.37251" lon="5.29041">
        <ele>241</ele>
        <time>2022-03-28T12:43:52Z</time>
      </trkpt>
      <trkpt lat="46.37238" lon="5.29053">
        <ele>241.2</ele>
        <time>2022-03-28T12:43:55Z</time>
      </trkpt>
      <trkpt lat="46.37228" lon="5.29058">
        <ele>241.2</ele>
        <time>2022-03-28T12:43:57Z</time>
      </trkpt>
      <trkpt lat="46.37223" lon="5.2906">
        <ele>241.4</ele>
        <time>2022-03-28T12:43:58Z</time>
      </trkpt>
      <trkpt lat="46.37217" lon="5.2906">
        <ele>241.6</ele>
        <time>2022-03-28T12:43:59Z</time>
      </trkpt>
      <trkpt lat="46.37176" lon="5.29059">
        <ele>242.2</ele>
        <time>2022-03-28T12:44:07Z</time>
      </trkpt>
      <trkpt lat="46.37171" lon="5.29058">
        <ele>242.4</ele>
        <time>2022-03-28T12:44:08Z</time>
      </trkpt>
      <trkpt lat="46.37161" lon="5.29048">
        <ele>242.4</ele>
        <time>2022-03-28T12:44:10Z</time>
      </trkpt>
      <trkpt lat="46.37155" lon="5.29025">
        <ele>242.4</ele>
        <time>2022-03-28T12:44:13Z</time>
      </trkpt>
      <trkpt lat="46.37148" lon="5.29013">
        <ele>242.4</ele>
        <time>2022-03-28T12:44:15Z</time>
      </trkpt>
      <trkpt lat="46.37142" lon="5.29009">
        <ele>242.4</ele>
        <time>2022-03-28T12:44:16Z</time>
      </trkpt>
      <trkpt lat="46.37136" lon="5.29007">
        <ele>242.4</ele>
        <time>2022-03-28T12:44:17Z</time>
      </trkpt>
      <trkpt lat="46.37118" lon="5.29004">
        <ele>242.2</ele>
        <time>2022-03-28T12:44:20Z</time>
      </trkpt>
      <trkpt lat="46.37112" lon="5.29005">
        <ele>242.2</ele>
        <time>2022-03-28T12:44:21Z</time>
      </trkpt>
      <trkpt lat="46.37059" lon="5.29013">
        <ele>242.2</ele>
        <time>2022-03-28T12:44:30Z</time>
      </trkpt>
      <trkpt lat="46.37046" lon="5.29016">
        <ele>242.2</ele>
        <time>2022-03-28T12:44:32Z</time>
      </trkpt>
      <trkpt lat="46.3704" lon="5.29018">
        <ele>242</ele>
        <time>2022-03-28T12:44:33Z</time>
      </trkpt>
      <trkpt lat="46.37035" lon="5.29024">
        <ele>242</ele>
        <time>2022-03-28T12:44:34Z</time>
      </trkpt>
      <trkpt lat="46.3703" lon="5.29039">
        <ele>242</ele>
        <time>2022-03-28T12:44:36Z</time>
      </trkpt>
      <trkpt lat="46.37032" lon="5.29057">
        <ele>242</ele>
        <time>2022-03-28T12:44:38Z</time>
      </trkpt>
      <trkpt lat="46.37034" lon="5.29066">
        <ele>242</ele>
        <time>2022-03-28T12:44:39Z</time>
      </trkpt>
      <trkpt lat="46.37049" lon="5.2913">
        <ele>242</ele>
        <time>2022-03-28T12:44:46Z</time>
      </trkpt>
      <trkpt lat="46.37049" lon="5.29139">
        <ele>241.6</ele>
        <time>2022-03-28T12:44:47Z</time>
      </trkpt>
      <trkpt lat="46.37048" lon="5.29149">
        <ele>241.6</ele>
        <time>2022-03-28T12:44:48Z</time>
      </trkpt>
      <trkpt lat="46.37039" lon="5.29161">
        <ele>241.8</ele>
        <time>2022-03-28T12:44:50Z</time>
      </trkpt>
      <trkpt lat="46.37014" lon="5.29163">
        <ele>241.8</ele>
        <time>2022-03-28T12:44:54Z</time>
      </trkpt>
      <trkpt lat="46.36961" lon="5.29161">
        <ele>241.4</ele>
        <time>2022-03-28T12:45:02Z</time>
      </trkpt>
      <trkpt lat="46.36948" lon="5.29156">
        <ele>241.4</ele>
        <time>2022-03-28T12:45:04Z</time>
      </trkpt>
      <trkpt lat="46.36936" lon="5.29148">
        <ele>241.2</ele>
        <time>2022-03-28T12:45:06Z</time>
      </trkpt>
      <trkpt lat="46.36931" lon="5.29143">
        <ele>241.2</ele>
        <time>2022-03-28T12:45:07Z</time>
      </trkpt>
      <trkpt lat="46.369" lon="5.29106">
        <ele>240.8</ele>
        <time>2022-03-28T12:45:13Z</time>
      </trkpt>
      <trkpt lat="46.36885" lon="5.29092">
        <ele>240.8</ele>
        <time>2022-03-28T12:45:16Z</time>
      </trkpt>
      <trkpt lat="46.36869" lon="5.2908">
        <ele>240.8</ele>
        <time>2022-03-28T12:45:19Z</time>
      </trkpt>
      <trkpt lat="46.36863" lon="5.29076">
        <ele>241</ele>
        <time>2022-03-28T12:45:20Z</time>
      </trkpt>
      <trkpt lat="46.36839" lon="5.29068">
        <ele>240.6</ele>
        <time>2022-03-28T12:45:24Z</time>
      </trkpt>
      <trkpt lat="46.36801" lon="5.29068">
        <ele>240.2</ele>
        <time>2022-03-28T12:45:30Z</time>
      </trkpt>
      <trkpt lat="46.36783" lon="5.29074">
        <ele>239.6</ele>
        <time>2022-03-28T12:45:33Z</time>
      </trkpt>
      <trkpt lat="46.36779" lon="5.29074">
        <ele>239.2</ele>
        <time>2022-03-28T12:45:34Z</time>
      </trkpt>
      <trkpt lat="46.36774" lon="5.29074">
        <ele>239.2</ele>
        <time>2022-03-28T12:45:35Z</time>
      </trkpt>
      <trkpt lat="46.36768" lon="5.29072">
        <ele>239</ele>
        <time>2022-03-28T12:45:36Z</time>
      </trkpt>
      <trkpt lat="46.36761" lon="5.29063">
        <ele>238.8</ele>
        <time>2022-03-28T12:45:38Z</time>
      </trkpt>
      <trkpt lat="46.36749" lon="5.29046">
        <ele>238.6</ele>
        <time>2022-03-28T12:45:41Z</time>
      </trkpt>
      <trkpt lat="46.3674" lon="5.29034">
        <ele>238.6</ele>
        <time>2022-03-28T12:45:43Z</time>
      </trkpt>
      <trkpt lat="46.36735" lon="5.29026">
        <ele>238.6</ele>
        <time>2022-03-28T12:45:44Z</time>
      </trkpt>
      <trkpt lat="46.36723" lon="5.29018">
        <ele>238.6</ele>
        <time>2022-03-28T12:45:46Z</time>
      </trkpt>
      <trkpt lat="46.36716" lon="5.29016">
        <ele>238.6</ele>
        <time>2022-03-28T12:45:47Z</time>
      </trkpt>
      <trkpt lat="46.3668" lon="5.29017">
        <ele>238.4</ele>
        <time>2022-03-28T12:45:52Z</time>
      </trkpt>
      <trkpt lat="46.36621" lon="5.29025">
        <ele>238.4</ele>
        <time>2022-03-28T12:46:01Z</time>
      </trkpt>
      <trkpt lat="46.36562" lon="5.29034">
        <ele>238.2</ele>
        <time>2022-03-28T12:46:10Z</time>
      </trkpt>
      <trkpt lat="46.36556" lon="5.29035">
        <ele>238.2</ele>
        <time>2022-03-28T12:46:11Z</time>
      </trkpt>
      <trkpt lat="46.36542" lon="5.29036">
        <ele>238.2</ele>
        <time>2022-03-28T12:46:13Z</time>
      </trkpt>
      <trkpt lat="46.36484" lon="5.2904">
        <ele>238.2</ele>
        <time>2022-03-28T12:46:22Z</time>
      </trkpt>
      <trkpt lat="46.36425" lon="5.29045">
        <ele>238.8</ele>
        <time>2022-03-28T12:46:31Z</time>
      </trkpt>
      <trkpt lat="46.36412" lon="5.29046">
        <ele>238.8</ele>
        <time>2022-03-28T12:46:33Z</time>
      </trkpt>
      <trkpt lat="46.3636" lon="5.29053">
        <ele>238.8</ele>
        <time>2022-03-28T12:46:41Z</time>
      </trkpt>
      <trkpt lat="46.36306" lon="5.29065">
        <ele>239</ele>
        <time>2022-03-28T12:46:50Z</time>
      </trkpt>
      <trkpt lat="46.363" lon="5.29066">
        <ele>239</ele>
        <time>2022-03-28T12:46:51Z</time>
      </trkpt>
      <trkpt lat="46.36262" lon="5.29075">
        <ele>240</ele>
        <time>2022-03-28T12:46:58Z</time>
      </trkpt>
      <trkpt lat="46.36252" lon="5.29082">
        <ele>240.4</ele>
        <time>2022-03-28T12:47:00Z</time>
      </trkpt>
      <trkpt lat="46.36244" lon="5.29094">
        <ele>240.6</ele>
        <time>2022-03-28T12:47:02Z</time>
      </trkpt>
      <trkpt lat="46.36238" lon="5.29107">
        <ele>240.6</ele>
        <time>2022-03-28T12:47:04Z</time>
      </trkpt>
      <trkpt lat="46.3623" lon="5.29117">
        <ele>240.8</ele>
        <time>2022-03-28T12:47:06Z</time>
      </trkpt>
      <trkpt lat="46.36225" lon="5.2912">
        <ele>240.8</ele>
        <time>2022-03-28T12:47:07Z</time>
      </trkpt>
      <trkpt lat="46.3622" lon="5.29121">
        <ele>241</ele>
        <time>2022-03-28T12:47:08Z</time>
      </trkpt>
      <trkpt lat="46.36209" lon="5.29125">
        <ele>241</ele>
        <time>2022-03-28T12:47:10Z</time>
      </trkpt>
      <trkpt lat="46.36205" lon="5.29129">
        <ele>241</ele>
        <time>2022-03-28T12:47:11Z</time>
      </trkpt>
      <trkpt lat="46.36198" lon="5.29142">
        <ele>241.2</ele>
        <time>2022-03-28T12:47:13Z</time>
      </trkpt>
      <trkpt lat="46.36198" lon="5.29151">
        <ele>241.2</ele>
        <time>2022-03-28T12:47:14Z</time>
      </trkpt>
      <trkpt lat="46.362" lon="5.2917">
        <ele>241.2</ele>
        <time>2022-03-28T12:47:16Z</time>
      </trkpt>
      <trkpt lat="46.36209" lon="5.29201">
        <ele>241</ele>
        <time>2022-03-28T12:47:19Z</time>
      </trkpt>
      <trkpt lat="46.36222" lon="5.29237">
        <ele>240.6</ele>
        <time>2022-03-28T12:47:22Z</time>
      </trkpt>
      <trkpt lat="46.36226" lon="5.29252">
        <ele>240.2</ele>
        <time>2022-03-28T12:47:23Z</time>
      </trkpt>
      <trkpt lat="46.36229" lon="5.29267">
        <ele>240</ele>
        <time>2022-03-28T12:47:24Z</time>
      </trkpt>
      <trkpt lat="46.36234" lon="5.29299">
        <ele>238.8</ele>
        <time>2022-03-28T12:47:26Z</time>
      </trkpt>
      <trkpt lat="46.36238" lon="5.2933">
        <ele>237.6</ele>
        <time>2022-03-28T12:47:28Z</time>
      </trkpt>
      <trkpt lat="46.36241" lon="5.29359">
        <ele>236.2</ele>
        <time>2022-03-28T12:47:30Z</time>
      </trkpt>
      <trkpt lat="46.36245" lon="5.29386">
        <ele>235.2</ele>
        <time>2022-03-28T12:47:32Z</time>
      </trkpt>
      <trkpt lat="46.36251" lon="5.29448">
        <ele>234.8</ele>
        <time>2022-03-28T12:47:37Z</time>
      </trkpt>
      <trkpt lat="46.36247" lon="5.29466">
        <ele>235</ele>
        <time>2022-03-28T12:47:39Z</time>
      </trkpt>
      <trkpt lat="46.36243" lon="5.29471">
        <ele>235.2</ele>
        <time>2022-03-28T12:47:40Z</time>
      </trkpt>
      <trkpt lat="46.36237" lon="5.29474">
        <ele>235.2</ele>
        <time>2022-03-28T12:47:41Z</time>
      </trkpt>
      <trkpt lat="46.36223" lon="5.2948">
        <ele>235.8</ele>
        <time>2022-03-28T12:47:43Z</time>
      </trkpt>
      <trkpt lat="46.36217" lon="5.29484">
        <ele>236.6</ele>
        <time>2022-03-28T12:47:44Z</time>
      </trkpt>
      <trkpt lat="46.362" lon="5.29499">
        <ele>237.8</ele>
        <time>2022-03-28T12:47:47Z</time>
      </trkpt>
      <trkpt lat="46.36195" lon="5.29504">
        <ele>238.4</ele>
        <time>2022-03-28T12:47:48Z</time>
      </trkpt>
      <trkpt lat="46.36184" lon="5.29513">
        <ele>239</ele>
        <time>2022-03-28T12:47:50Z</time>
      </trkpt>
      <trkpt lat="46.36172" lon="5.29521">
        <ele>239.8</ele>
        <time>2022-03-28T12:47:52Z</time>
      </trkpt>
      <trkpt lat="46.36159" lon="5.29526">
        <ele>240.2</ele>
        <time>2022-03-28T12:47:54Z</time>
      </trkpt>
      <trkpt lat="46.3612" lon="5.29532">
        <ele>240.8</ele>
        <time>2022-03-28T12:47:59Z</time>
      </trkpt>
      <trkpt lat="46.36065" lon="5.29537">
        <ele>240.2</ele>
        <time>2022-03-28T12:48:06Z</time>
      </trkpt>
      <trkpt lat="46.36057" lon="5.29538">
        <ele>240</ele>
        <time>2022-03-28T12:48:07Z</time>
      </trkpt>
      <trkpt lat="46.36002" lon="5.29545">
        <ele>239.4</ele>
        <time>2022-03-28T12:48:14Z</time>
      </trkpt>
      <trkpt lat="46.35988" lon="5.29547">
        <ele>239.2</ele>
        <time>2022-03-28T12:48:16Z</time>
      </trkpt>
      <trkpt lat="46.3598" lon="5.29548">
        <ele>239.2</ele>
        <time>2022-03-28T12:48:17Z</time>
      </trkpt>
      <trkpt lat="46.35924" lon="5.29553">
        <ele>239.2</ele>
        <time>2022-03-28T12:48:25Z</time>
      </trkpt>
      <trkpt lat="46.35917" lon="5.29553">
        <ele>239.2</ele>
        <time>2022-03-28T12:48:26Z</time>
      </trkpt>
      <trkpt lat="46.35892" lon="5.29551">
        <ele>239.4</ele>
        <time>2022-03-28T12:48:30Z</time>
      </trkpt>
      <trkpt lat="46.35886" lon="5.29551">
        <ele>239.6</ele>
        <time>2022-03-28T12:48:31Z</time>
      </trkpt>
      <trkpt lat="46.35854" lon="5.29545">
        <ele>240.4</ele>
        <time>2022-03-28T12:48:37Z</time>
      </trkpt>
      <trkpt lat="46.35832" lon="5.29544">
        <ele>241.2</ele>
        <time>2022-03-28T12:48:41Z</time>
      </trkpt>
      <trkpt lat="46.35814" lon="5.29543">
        <ele>241.6</ele>
        <time>2022-03-28T12:48:44Z</time>
      </trkpt>
      <trkpt lat="46.35802" lon="5.29542">
        <ele>241.8</ele>
        <time>2022-03-28T12:48:46Z</time>
      </trkpt>
      <trkpt lat="46.35796" lon="5.29542">
        <ele>242</ele>
        <time>2022-03-28T12:48:47Z</time>
      </trkpt>
      <trkpt lat="46.3578" lon="5.29541">
        <ele>242.6</ele>
        <time>2022-03-28T12:48:50Z</time>
      </trkpt>
      <trkpt lat="46.35765" lon="5.29542">
        <ele>243.2</ele>
        <time>2022-03-28T12:48:53Z</time>
      </trkpt>
      <trkpt lat="46.35743" lon="5.29542">
        <ele>243.6</ele>
        <time>2022-03-28T12:48:57Z</time>
      </trkpt>
      <trkpt lat="46.35733" lon="5.29543">
        <ele>244</ele>
        <time>2022-03-28T12:48:59Z</time>
      </trkpt>
      <trkpt lat="46.35715" lon="5.29546">
        <ele>244.2</ele>
        <time>2022-03-28T12:49:02Z</time>
      </trkpt>
      <trkpt lat="46.35704" lon="5.2955">
        <ele>244.4</ele>
        <time>2022-03-28T12:49:04Z</time>
      </trkpt>
      <trkpt lat="46.35698" lon="5.29552">
        <ele>244.4</ele>
        <time>2022-03-28T12:49:05Z</time>
      </trkpt>
      <trkpt lat="46.35687" lon="5.29559">
        <ele>244.8</ele>
        <time>2022-03-28T12:49:07Z</time>
      </trkpt>
      <trkpt lat="46.35672" lon="5.29575">
        <ele>245.2</ele>
        <time>2022-03-28T12:49:10Z</time>
      </trkpt>
      <trkpt lat="46.35628" lon="5.29606">
        <ele>245.4</ele>
        <time>2022-03-28T12:49:18Z</time>
      </trkpt>
      <trkpt lat="46.35577" lon="5.29633">
        <ele>245.8</ele>
        <time>2022-03-28T12:49:27Z</time>
      </trkpt>
      <trkpt lat="46.35571" lon="5.29635">
        <ele>245.8</ele>
        <time>2022-03-28T12:49:28Z</time>
      </trkpt>
      <trkpt lat="46.35521" lon="5.29647">
        <ele>245.8</ele>
        <time>2022-03-28T12:49:36Z</time>
      </trkpt>
      <trkpt lat="46.355" lon="5.29651">
        <ele>245.8</ele>
        <time>2022-03-28T12:49:39Z</time>
      </trkpt>
      <trkpt lat="46.35494" lon="5.29655">
        <ele>245.8</ele>
        <time>2022-03-28T12:49:40Z</time>
      </trkpt>
      <trkpt lat="46.35489" lon="5.29661">
        <ele>245.6</ele>
        <time>2022-03-28T12:49:41Z</time>
      </trkpt>
      <trkpt lat="46.3548" lon="5.29677">
        <ele>245.4</ele>
        <time>2022-03-28T12:49:43Z</time>
      </trkpt>
      <trkpt lat="46.35476" lon="5.29685">
        <ele>245.2</ele>
        <time>2022-03-28T12:49:44Z</time>
      </trkpt>
      <trkpt lat="46.35465" lon="5.29694">
        <ele>245.2</ele>
        <time>2022-03-28T12:49:46Z</time>
      </trkpt>
      <trkpt lat="46.35441" lon="5.29689">
        <ele>245</ele>
        <time>2022-03-28T12:49:50Z</time>
      </trkpt>
      <trkpt lat="46.35391" lon="5.29673">
        <ele>245.8</ele>
        <time>2022-03-28T12:49:58Z</time>
      </trkpt>
      <trkpt lat="46.35346" lon="5.29658">
        <ele>246.4</ele>
        <time>2022-03-28T12:50:05Z</time>
      </trkpt>
      <trkpt lat="46.35287" lon="5.29643">
        <ele>246.6</ele>
        <time>2022-03-28T12:50:14Z</time>
      </trkpt>
      <trkpt lat="46.3528" lon="5.29642">
        <ele>246.6</ele>
        <time>2022-03-28T12:50:15Z</time>
      </trkpt>
      <trkpt lat="46.35226" lon="5.29642">
        <ele>246.4</ele>
        <time>2022-03-28T12:50:23Z</time>
      </trkpt>
      <trkpt lat="46.35219" lon="5.29643">
        <ele>246.4</ele>
        <time>2022-03-28T12:50:24Z</time>
      </trkpt>
      <trkpt lat="46.35164" lon="5.29652">
        <ele>245.6</ele>
        <time>2022-03-28T12:50:32Z</time>
      </trkpt>
      <trkpt lat="46.35132" lon="5.29656">
        <ele>245</ele>
        <time>2022-03-28T12:50:36Z</time>
      </trkpt>
      <trkpt lat="46.35109" lon="5.29658">
        <ele>244.4</ele>
        <time>2022-03-28T12:50:39Z</time>
      </trkpt>
      <trkpt lat="46.35086" lon="5.29659">
        <ele>243.8</ele>
        <time>2022-03-28T12:50:42Z</time>
      </trkpt>
      <trkpt lat="46.35072" lon="5.29657">
        <ele>243.4</ele>
        <time>2022-03-28T12:50:44Z</time>
      </trkpt>
      <trkpt lat="46.35058" lon="5.29651">
        <ele>243.2</ele>
        <time>2022-03-28T12:50:46Z</time>
      </trkpt>
      <trkpt lat="46.35046" lon="5.29644">
        <ele>243</ele>
        <time>2022-03-28T12:50:48Z</time>
      </trkpt>
      <trkpt lat="46.35017" lon="5.29634">
        <ele>243.2</ele>
        <time>2022-03-28T12:50:53Z</time>
      </trkpt>
      <trkpt lat="46.34987" lon="5.29631">
        <ele>244</ele>
        <time>2022-03-28T12:50:59Z</time>
      </trkpt>
      <trkpt lat="46.34977" lon="5.29633">
        <ele>244.6</ele>
        <time>2022-03-28T12:51:01Z</time>
      </trkpt>
      <trkpt lat="46.34962" lon="5.2964">
        <ele>245</ele>
        <time>2022-03-28T12:51:04Z</time>
      </trkpt>
      <trkpt lat="46.34957" lon="5.29644">
        <ele>245</ele>
        <time>2022-03-28T12:51:05Z</time>
      </trkpt>
      <trkpt lat="46.34942" lon="5.29658">
        <ele>245.2</ele>
        <time>2022-03-28T12:51:08Z</time>
      </trkpt>
      <trkpt lat="46.34936" lon="5.29662">
        <ele>245.2</ele>
        <time>2022-03-28T12:51:09Z</time>
      </trkpt>
      <trkpt lat="46.3493" lon="5.29664">
        <ele>245.2</ele>
        <time>2022-03-28T12:51:10Z</time>
      </trkpt>
      <trkpt lat="46.34918" lon="5.29663">
        <ele>245.2</ele>
        <time>2022-03-28T12:51:12Z</time>
      </trkpt>
      <trkpt lat="46.34906" lon="5.29657">
        <ele>245.2</ele>
        <time>2022-03-28T12:51:14Z</time>
      </trkpt>
      <trkpt lat="46.34896" lon="5.2965">
        <ele>245.2</ele>
        <time>2022-03-28T12:51:16Z</time>
      </trkpt>
      <trkpt lat="46.34856" lon="5.29624">
        <ele>245.6</ele>
        <time>2022-03-28T12:51:24Z</time>
      </trkpt>
      <trkpt lat="46.34812" lon="5.29611">
        <ele>245.8</ele>
        <time>2022-03-28T12:51:32Z</time>
      </trkpt>
      <trkpt lat="46.34759" lon="5.29616">
        <ele>245.6</ele>
        <time>2022-03-28T12:51:41Z</time>
      </trkpt>
      <trkpt lat="46.34732" lon="5.29629">
        <ele>245.4</ele>
        <time>2022-03-28T12:51:45Z</time>
      </trkpt>
      <trkpt lat="46.3472" lon="5.29638">
        <ele>245.2</ele>
        <time>2022-03-28T12:51:47Z</time>
      </trkpt>
      <trkpt lat="46.34706" lon="5.29643">
        <ele>245</ele>
        <time>2022-03-28T12:51:49Z</time>
      </trkpt>
      <trkpt lat="46.34699" lon="5.29642">
        <ele>244.8</ele>
        <time>2022-03-28T12:51:50Z</time>
      </trkpt>
      <trkpt lat="46.34656" lon="5.29634">
        <ele>244</ele>
        <time>2022-03-28T12:51:56Z</time>
      </trkpt>
      <trkpt lat="46.34641" lon="5.29632">
        <ele>243.8</ele>
        <time>2022-03-28T12:51:58Z</time>
      </trkpt>
      <trkpt lat="46.34585" lon="5.29618">
        <ele>243.2</ele>
        <time>2022-03-28T12:52:06Z</time>
      </trkpt>
      <trkpt lat="46.34578" lon="5.29617">
        <ele>243.2</ele>
        <time>2022-03-28T12:52:07Z</time>
      </trkpt>
      <trkpt lat="46.3455" lon="5.29613">
        <ele>243</ele>
        <time>2022-03-28T12:52:11Z</time>
      </trkpt>
      <trkpt lat="46.34511" lon="5.29605">
        <ele>242.8</ele>
        <time>2022-03-28T12:52:17Z</time>
      </trkpt>
      <trkpt lat="46.34473" lon="5.29597">
        <ele>243</ele>
        <time>2022-03-28T12:52:23Z</time>
      </trkpt>
      <trkpt lat="46.34467" lon="5.29593">
        <ele>243</ele>
        <time>2022-03-28T12:52:24Z</time>
      </trkpt>
      <trkpt lat="46.34462" lon="5.29588">
        <ele>243</ele>
        <time>2022-03-28T12:52:25Z</time>
      </trkpt>
      <trkpt lat="46.34456" lon="5.29573">
        <ele>243.2</ele>
        <time>2022-03-28T12:52:27Z</time>
      </trkpt>
      <trkpt lat="46.34456" lon="5.29556">
        <ele>243.4</ele>
        <time>2022-03-28T12:52:29Z</time>
      </trkpt>
      <trkpt lat="46.34457" lon="5.29549">
        <ele>243.6</ele>
        <time>2022-03-28T12:52:30Z</time>
      </trkpt>
      <trkpt lat="46.34463" lon="5.29517">
        <ele>244.2</ele>
        <time>2022-03-28T12:52:34Z</time>
      </trkpt>
      <trkpt lat="46.34469" lon="5.29484">
        <ele>245</ele>
        <time>2022-03-28T12:52:38Z</time>
      </trkpt>
      <trkpt lat="46.3447" lon="5.29476">
        <ele>245.2</ele>
        <time>2022-03-28T12:52:39Z</time>
      </trkpt>
      <trkpt lat="46.3447" lon="5.29469">
        <ele>245.4</ele>
        <time>2022-03-28T12:52:40Z</time>
      </trkpt>
      <trkpt lat="46.34467" lon="5.29454">
        <ele>245.6</ele>
        <time>2022-03-28T12:52:42Z</time>
      </trkpt>
      <trkpt lat="46.3446" lon="5.29443">
        <ele>246</ele>
        <time>2022-03-28T12:52:44Z</time>
      </trkpt>
      <trkpt lat="46.34456" lon="5.29438">
        <ele>246.4</ele>
        <time>2022-03-28T12:52:45Z</time>
      </trkpt>
      <trkpt lat="46.34434" lon="5.29404">
        <ele>247.4</ele>
        <time>2022-03-28T12:52:51Z</time>
      </trkpt>
      <trkpt lat="46.34431" lon="5.29397">
        <ele>247.4</ele>
        <time>2022-03-28T12:52:52Z</time>
      </trkpt>
      <trkpt lat="46.34409" lon="5.29358">
        <ele>247.4</ele>
        <time>2022-03-28T12:52:58Z</time>
      </trkpt>
      <trkpt lat="46.34404" lon="5.29353">
        <ele>247.4</ele>
        <time>2022-03-28T12:52:59Z</time>
      </trkpt>
      <trkpt lat="46.34399" lon="5.29348">
        <ele>247.4</ele>
        <time>2022-03-28T12:53:00Z</time>
      </trkpt>
      <trkpt lat="46.3438" lon="5.29338">
        <ele>247.2</ele>
        <time>2022-03-28T12:53:03Z</time>
      </trkpt>
      <trkpt lat="46.34347" lon="5.29325">
        <ele>246.8</ele>
        <time>2022-03-28T12:53:08Z</time>
      </trkpt>
      <trkpt lat="46.34323" lon="5.29307">
        <ele>246.4</ele>
        <time>2022-03-28T12:53:12Z</time>
      </trkpt>
      <trkpt lat="46.34316" lon="5.29303">
        <ele>246.2</ele>
        <time>2022-03-28T12:53:13Z</time>
      </trkpt>
      <trkpt lat="46.34309" lon="5.29299">
        <ele>246.2</ele>
        <time>2022-03-28T12:53:14Z</time>
      </trkpt>
      <trkpt lat="46.3426" lon="5.29285">
        <ele>245.6</ele>
        <time>2022-03-28T12:53:21Z</time>
      </trkpt>
      <trkpt lat="46.34204" lon="5.29264">
        <ele>245.2</ele>
        <time>2022-03-28T12:53:29Z</time>
      </trkpt>
      <trkpt lat="46.34197" lon="5.29261">
        <ele>245.2</ele>
        <time>2022-03-28T12:53:30Z</time>
      </trkpt>
      <trkpt lat="46.34181" lon="5.29259">
        <ele>245.2</ele>
        <time>2022-03-28T12:53:32Z</time>
      </trkpt>
      <trkpt lat="46.34173" lon="5.2926">
        <ele>245.2</ele>
        <time>2022-03-28T12:53:33Z</time>
      </trkpt>
      <trkpt lat="46.34119" lon="5.29269">
        <ele>244.6</ele>
        <time>2022-03-28T12:53:40Z</time>
      </trkpt>
      <trkpt lat="46.34111" lon="5.29273">
        <ele>244.6</ele>
        <time>2022-03-28T12:53:41Z</time>
      </trkpt>
      <trkpt lat="46.34105" lon="5.29277">
        <ele>244.6</ele>
        <time>2022-03-28T12:53:42Z</time>
      </trkpt>
      <trkpt lat="46.34098" lon="5.29284">
        <ele>244.4</ele>
        <time>2022-03-28T12:53:43Z</time>
      </trkpt>
      <trkpt lat="46.34093" lon="5.29292">
        <ele>244.4</ele>
        <time>2022-03-28T12:53:44Z</time>
      </trkpt>
      <trkpt lat="46.34084" lon="5.2931">
        <ele>244.4</ele>
        <time>2022-03-28T12:53:46Z</time>
      </trkpt>
      <trkpt lat="46.34077" lon="5.29328">
        <ele>244.4</ele>
        <time>2022-03-28T12:53:48Z</time>
      </trkpt>
      <trkpt lat="46.34072" lon="5.29337">
        <ele>244.2</ele>
        <time>2022-03-28T12:53:49Z</time>
      </trkpt>
      <trkpt lat="46.34061" lon="5.29354">
        <ele>244.2</ele>
        <time>2022-03-28T12:53:51Z</time>
      </trkpt>
      <trkpt lat="46.34056" lon="5.29359">
        <ele>244.2</ele>
        <time>2022-03-28T12:53:52Z</time>
      </trkpt>
      <trkpt lat="46.34049" lon="5.29364">
        <ele>244.2</ele>
        <time>2022-03-28T12:53:53Z</time>
      </trkpt>
      <trkpt lat="46.34028" lon="5.29374">
        <ele>244.2</ele>
        <time>2022-03-28T12:53:56Z</time>
      </trkpt>
      <trkpt lat="46.33997" lon="5.29393">
        <ele>244.8</ele>
        <time>2022-03-28T12:54:01Z</time>
      </trkpt>
      <trkpt lat="46.33988" lon="5.29402">
        <ele>245</ele>
        <time>2022-03-28T12:54:03Z</time>
      </trkpt>
      <trkpt lat="46.33973" lon="5.29422">
        <ele>245.4</ele>
        <time>2022-03-28T12:54:06Z</time>
      </trkpt>
      <trkpt lat="46.33969" lon="5.29429">
        <ele>245.4</ele>
        <time>2022-03-28T12:54:07Z</time>
      </trkpt>
      <trkpt lat="46.33962" lon="5.29445">
        <ele>245.8</ele>
        <time>2022-03-28T12:54:09Z</time>
      </trkpt>
      <trkpt lat="46.33956" lon="5.29461">
        <ele>246</ele>
        <time>2022-03-28T12:54:11Z</time>
      </trkpt>
      <trkpt lat="46.33951" lon="5.29479">
        <ele>246.6</ele>
        <time>2022-03-28T12:54:13Z</time>
      </trkpt>
      <trkpt lat="46.33945" lon="5.29496">
        <ele>247</ele>
        <time>2022-03-28T12:54:15Z</time>
      </trkpt>
      <trkpt lat="46.3394" lon="5.29503">
        <ele>247.2</ele>
        <time>2022-03-28T12:54:16Z</time>
      </trkpt>
      <trkpt lat="46.33934" lon="5.29508">
        <ele>247.2</ele>
        <time>2022-03-28T12:54:17Z</time>
      </trkpt>
      <trkpt lat="46.3392" lon="5.29513">
        <ele>247.6</ele>
        <time>2022-03-28T12:54:19Z</time>
      </trkpt>
      <trkpt lat="46.33876" lon="5.29515">
        <ele>247.6</ele>
        <time>2022-03-28T12:54:25Z</time>
      </trkpt>
      <trkpt lat="46.33821" lon="5.29515">
        <ele>247.6</ele>
        <time>2022-03-28T12:54:33Z</time>
      </trkpt>
      <trkpt lat="46.33814" lon="5.29514">
        <ele>247.6</ele>
        <time>2022-03-28T12:54:34Z</time>
      </trkpt>
      <trkpt lat="46.33783" lon="5.295">
        <ele>247.8</ele>
        <time>2022-03-28T12:54:39Z</time>
      </trkpt>
      <trkpt lat="46.33752" lon="5.29472">
        <ele>248</ele>
        <time>2022-03-28T12:54:45Z</time>
      </trkpt>
      <trkpt lat="46.33722" lon="5.29436">
        <ele>248</ele>
        <time>2022-03-28T12:54:52Z</time>
      </trkpt>
      <trkpt lat="46.33684" lon="5.29381">
        <ele>248.4</ele>
        <time>2022-03-28T12:55:01Z</time>
      </trkpt>
      <trkpt lat="46.33674" lon="5.29371">
        <ele>248.6</ele>
        <time>2022-03-28T12:55:03Z</time>
      </trkpt>
      <trkpt lat="46.33663" lon="5.29365">
        <ele>248.6</ele>
        <time>2022-03-28T12:55:05Z</time>
      </trkpt>
      <trkpt lat="46.33651" lon="5.29362">
        <ele>248.8</ele>
        <time>2022-03-28T12:55:07Z</time>
      </trkpt>
      <trkpt lat="46.33639" lon="5.29363">
        <ele>248.8</ele>
        <time>2022-03-28T12:55:09Z</time>
      </trkpt>
      <trkpt lat="46.33633" lon="5.29364">
        <ele>248.8</ele>
        <time>2022-03-28T12:55:10Z</time>
      </trkpt>
      <trkpt lat="46.33602" lon="5.2937">
        <ele>248.8</ele>
        <time>2022-03-28T12:55:15Z</time>
      </trkpt>
      <trkpt lat="46.3359" lon="5.29368">
        <ele>249</ele>
        <time>2022-03-28T12:55:17Z</time>
      </trkpt>
      <trkpt lat="46.33542" lon="5.29354">
        <ele>249.8</ele>
        <time>2022-03-28T12:55:25Z</time>
      </trkpt>
      <trkpt lat="46.3353" lon="5.2935">
        <ele>249.8</ele>
        <time>2022-03-28T12:55:27Z</time>
      </trkpt>
      <trkpt lat="46.33482" lon="5.29331">
        <ele>250.2</ele>
        <time>2022-03-28T12:55:35Z</time>
      </trkpt>
      <trkpt lat="46.33459" lon="5.29317">
        <ele>250.2</ele>
        <time>2022-03-28T12:55:39Z</time>
      </trkpt>
      <trkpt lat="46.33442" lon="5.29305">
        <ele>250</ele>
        <time>2022-03-28T12:55:42Z</time>
      </trkpt>
      <trkpt lat="46.33432" lon="5.29296">
        <ele>249.6</ele>
        <time>2022-03-28T12:55:44Z</time>
      </trkpt>
      <trkpt lat="46.33423" lon="5.29282">
        <ele>249.2</ele>
        <time>2022-03-28T12:55:47Z</time>
      </trkpt>
      <trkpt lat="46.33421" lon="5.29276">
        <ele>249.2</ele>
        <time>2022-03-28T12:55:48Z</time>
      </trkpt>
      <trkpt lat="46.33422" lon="5.29271">
        <ele>249</ele>
        <time>2022-03-28T12:55:49Z</time>
      </trkpt>
      <trkpt lat="46.33422" lon="5.29265">
        <ele>248.8</ele>
        <time>2022-03-28T12:55:50Z</time>
      </trkpt>
      <trkpt lat="46.33422" lon="5.29258">
        <ele>248.8</ele>
        <time>2022-03-28T12:55:51Z</time>
      </trkpt>
      <trkpt lat="46.33417" lon="5.29247">
        <ele>248.6</ele>
        <time>2022-03-28T12:55:53Z</time>
      </trkpt>
      <trkpt lat="46.33399" lon="5.29239">
        <ele>248.4</ele>
        <time>2022-03-28T12:55:56Z</time>
      </trkpt>
      <trkpt lat="46.33367" lon="5.29227">
        <ele>248</ele>
        <time>2022-03-28T12:56:01Z</time>
      </trkpt>
      <trkpt lat="46.33348" lon="5.29221">
        <ele>247.6</ele>
        <time>2022-03-28T12:56:04Z</time>
      </trkpt>
      <trkpt lat="46.33329" lon="5.29212">
        <ele>247.4</ele>
        <time>2022-03-28T12:56:07Z</time>
      </trkpt>
      <trkpt lat="46.33312" lon="5.29197">
        <ele>247</ele>
        <time>2022-03-28T12:56:10Z</time>
      </trkpt>
      <trkpt lat="46.33307" lon="5.29191">
        <ele>247</ele>
        <time>2022-03-28T12:56:11Z</time>
      </trkpt>
      <trkpt lat="46.33268" lon="5.2915">
        <ele>246.8</ele>
        <time>2022-03-28T12:56:18Z</time>
      </trkpt>
      <trkpt lat="46.3325" lon="5.29139">
        <ele>247</ele>
        <time>2022-03-28T12:56:21Z</time>
      </trkpt>
      <trkpt lat="46.33231" lon="5.29135">
        <ele>247</ele>
        <time>2022-03-28T12:56:24Z</time>
      </trkpt>
      <trkpt lat="46.33219" lon="5.29134">
        <ele>247</ele>
        <time>2022-03-28T12:56:26Z</time>
      </trkpt>
      <trkpt lat="46.33207" lon="5.29131">
        <ele>246.8</ele>
        <time>2022-03-28T12:56:28Z</time>
      </trkpt>
      <trkpt lat="46.33158" lon="5.29122">
        <ele>246</ele>
        <time>2022-03-28T12:56:36Z</time>
      </trkpt>
      <trkpt lat="46.33117" lon="5.29104">
        <ele>247.2</ele>
        <time>2022-03-28T12:56:44Z</time>
      </trkpt>
      <trkpt lat="46.33091" lon="5.29085">
        <ele>248</ele>
        <time>2022-03-28T12:56:49Z</time>
      </trkpt>
      <trkpt lat="46.3307" lon="5.29071">
        <ele>248.4</ele>
        <time>2022-03-28T12:56:53Z</time>
      </trkpt>
      <trkpt lat="46.3302" lon="5.2904">
        <ele>248.6</ele>
        <time>2022-03-28T12:57:02Z</time>
      </trkpt>
      <trkpt lat="46.33004" lon="5.29029">
        <ele>248.4</ele>
        <time>2022-03-28T12:57:05Z</time>
      </trkpt>
      <trkpt lat="46.32961" lon="5.29002">
        <ele>248.4</ele>
        <time>2022-03-28T12:57:13Z</time>
      </trkpt>
      <trkpt lat="46.32912" lon="5.28975">
        <ele>248.6</ele>
        <time>2022-03-28T12:57:22Z</time>
      </trkpt>
      <trkpt lat="46.32858" lon="5.28948">
        <ele>248.4</ele>
        <time>2022-03-28T12:57:31Z</time>
      </trkpt>
      <trkpt lat="46.32808" lon="5.28923">
        <ele>248</ele>
        <time>2022-03-28T12:57:39Z</time>
      </trkpt>
      <trkpt lat="46.3275" lon="5.28897">
        <ele>247.4</ele>
        <time>2022-03-28T12:57:48Z</time>
      </trkpt>
      <trkpt lat="46.32744" lon="5.28894">
        <ele>247.4</ele>
        <time>2022-03-28T12:57:49Z</time>
      </trkpt>
      <trkpt lat="46.32693" lon="5.28877">
        <ele>247</ele>
        <time>2022-03-28T12:57:57Z</time>
      </trkpt>
      <trkpt lat="46.3264" lon="5.28855">
        <ele>247</ele>
        <time>2022-03-28T12:58:06Z</time>
      </trkpt>
      <trkpt lat="46.32633" lon="5.28853">
        <ele>247</ele>
        <time>2022-03-28T12:58:07Z</time>
      </trkpt>
      <trkpt lat="46.32579" lon="5.28829">
        <ele>246.6</ele>
        <time>2022-03-28T12:58:15Z</time>
      </trkpt>
      <trkpt lat="46.32543" lon="5.28811">
        <ele>246</ele>
        <time>2022-03-28T12:58:20Z</time>
      </trkpt>
      <trkpt lat="46.32537" lon="5.28806">
        <ele>245.8</ele>
        <time>2022-03-28T12:58:21Z</time>
      </trkpt>
      <trkpt lat="46.32532" lon="5.28801">
        <ele>245.8</ele>
        <time>2022-03-28T12:58:22Z</time>
      </trkpt>
      <trkpt lat="46.32496" lon="5.28757">
        <ele>246</ele>
        <time>2022-03-28T12:58:29Z</time>
      </trkpt>
      <trkpt lat="46.32461" lon="5.2872">
        <ele>246.2</ele>
        <time>2022-03-28T12:58:36Z</time>
      </trkpt>
      <trkpt lat="46.32424" lon="5.28681">
        <ele>246.6</ele>
        <time>2022-03-28T12:58:44Z</time>
      </trkpt>
      <trkpt lat="46.32415" lon="5.28668">
        <ele>246.8</ele>
        <time>2022-03-28T12:58:46Z</time>
      </trkpt>
      <trkpt lat="46.32401" lon="5.28639">
        <ele>246.8</ele>
        <time>2022-03-28T12:58:50Z</time>
      </trkpt>
      <trkpt lat="46.32393" lon="5.28626">
        <ele>246.8</ele>
        <time>2022-03-28T12:58:52Z</time>
      </trkpt>
      <trkpt lat="46.32382" lon="5.28614">
        <ele>246.8</ele>
        <time>2022-03-28T12:58:54Z</time>
      </trkpt>
      <trkpt lat="46.3235" lon="5.28592">
        <ele>247</ele>
        <time>2022-03-28T12:59:00Z</time>
      </trkpt>
      <trkpt lat="46.32344" lon="5.28589">
        <ele>247</ele>
        <time>2022-03-28T12:59:01Z</time>
      </trkpt>
      <trkpt lat="46.32329" lon="5.28579">
        <ele>247.2</ele>
        <time>2022-03-28T12:59:04Z</time>
      </trkpt>
      <trkpt lat="46.32309" lon="5.28564">
        <ele>247.2</ele>
        <time>2022-03-28T12:59:08Z</time>
      </trkpt>
      <trkpt lat="46.32288" lon="5.28546">
        <ele>247.2</ele>
        <time>2022-03-28T12:59:12Z</time>
      </trkpt>
      <trkpt lat="46.32277" lon="5.28536">
        <ele>247.2</ele>
        <time>2022-03-28T12:59:14Z</time>
      </trkpt>
      <trkpt lat="46.32243" lon="5.28516">
        <ele>246.8</ele>
        <time>2022-03-28T12:59:20Z</time>
      </trkpt>
      <trkpt lat="46.32237" lon="5.28515">
        <ele>246.8</ele>
        <time>2022-03-28T12:59:21Z</time>
      </trkpt>
      <trkpt lat="46.32178" lon="5.28508">
        <ele>246.2</ele>
        <time>2022-03-28T12:59:30Z</time>
      </trkpt>
      <trkpt lat="46.32172" lon="5.28507">
        <ele>246.2</ele>
        <time>2022-03-28T12:59:31Z</time>
      </trkpt>
      <trkpt lat="46.32136" lon="5.28491">
        <ele>245.8</ele>
        <time>2022-03-28T12:59:37Z</time>
      </trkpt>
      <trkpt lat="46.32084" lon="5.2847">
        <ele>245.6</ele>
        <time>2022-03-28T12:59:45Z</time>
      </trkpt>
      <trkpt lat="46.32057" lon="5.28464">
        <ele>245.2</ele>
        <time>2022-03-28T12:59:49Z</time>
      </trkpt>
      <trkpt lat="46.3205" lon="5.28462">
        <ele>245.2</ele>
        <time>2022-03-28T12:59:50Z</time>
      </trkpt>
      <trkpt lat="46.32038" lon="5.28457">
        <ele>244.8</ele>
        <time>2022-03-28T12:59:52Z</time>
      </trkpt>
      <trkpt lat="46.32003" lon="5.28429">
        <ele>244.6</ele>
        <time>2022-03-28T12:59:58Z</time>
      </trkpt>
      <trkpt lat="46.31997" lon="5.28424">
        <ele>244.6</ele>
        <time>2022-03-28T12:59:59Z</time>
      </trkpt>
      <trkpt lat="46.31978" lon="5.28417">
        <ele>244.4</ele>
        <time>2022-03-28T13:00:02Z</time>
      </trkpt>
      <trkpt lat="46.31956" lon="5.28412">
        <ele>244.2</ele>
        <time>2022-03-28T13:00:05Z</time>
      </trkpt>
      <trkpt lat="46.3192" lon="5.28403">
        <ele>243.8</ele>
        <time>2022-03-28T13:00:10Z</time>
      </trkpt>
      <trkpt lat="46.31887" lon="5.28388">
        <ele>243</ele>
        <time>2022-03-28T13:00:15Z</time>
      </trkpt>
      <trkpt lat="46.31867" lon="5.28381">
        <ele>242.4</ele>
        <time>2022-03-28T13:00:18Z</time>
      </trkpt>
      <trkpt lat="46.31853" lon="5.28378">
        <ele>242</ele>
        <time>2022-03-28T13:00:20Z</time>
      </trkpt>
      <trkpt lat="46.31824" lon="5.28376">
        <ele>241.6</ele>
        <time>2022-03-28T13:00:24Z</time>
      </trkpt>
      <trkpt lat="46.31795" lon="5.28373">
        <ele>241</ele>
        <time>2022-03-28T13:00:28Z</time>
      </trkpt>
      <trkpt lat="46.31788" lon="5.28375">
        <ele>241</ele>
        <time>2022-03-28T13:00:29Z</time>
      </trkpt>
      <trkpt lat="46.31781" lon="5.28379">
        <ele>240.8</ele>
        <time>2022-03-28T13:00:30Z</time>
      </trkpt>
      <trkpt lat="46.31765" lon="5.28385">
        <ele>240.4</ele>
        <time>2022-03-28T13:00:32Z</time>
      </trkpt>
      <trkpt lat="46.31757" lon="5.28386">
        <ele>240</ele>
        <time>2022-03-28T13:00:33Z</time>
      </trkpt>
      <trkpt lat="46.31749" lon="5.28385">
        <ele>239.4</ele>
        <time>2022-03-28T13:00:34Z</time>
      </trkpt>
      <trkpt lat="46.31732" lon="5.28378">
        <ele>238.4</ele>
        <time>2022-03-28T13:00:36Z</time>
      </trkpt>
      <trkpt lat="46.31696" lon="5.28366">
        <ele>236.6</ele>
        <time>2022-03-28T13:00:40Z</time>
      </trkpt>
      <trkpt lat="46.31677" lon="5.28358">
        <ele>235.2</ele>
        <time>2022-03-28T13:00:42Z</time>
      </trkpt>
      <trkpt lat="46.31668" lon="5.28353">
        <ele>234.4</ele>
        <time>2022-03-28T13:00:43Z</time>
      </trkpt>
      <trkpt lat="46.31659" lon="5.28349">
        <ele>234.2</ele>
        <time>2022-03-28T13:00:44Z</time>
      </trkpt>
      <trkpt lat="46.31633" lon="5.28338">
        <ele>232.8</ele>
        <time>2022-03-28T13:00:47Z</time>
      </trkpt>
      <trkpt lat="46.31606" lon="5.28326">
        <ele>231.4</ele>
        <time>2022-03-28T13:00:50Z</time>
      </trkpt>
      <trkpt lat="46.3159" lon="5.28321">
        <ele>230</ele>
        <time>2022-03-28T13:00:52Z</time>
      </trkpt>
      <trkpt lat="46.31562" lon="5.28312">
        <ele>229</ele>
        <time>2022-03-28T13:00:55Z</time>
      </trkpt>
      <trkpt lat="46.31543" lon="5.28305">
        <ele>228</ele>
        <time>2022-03-28T13:00:57Z</time>
      </trkpt>
      <trkpt lat="46.31516" lon="5.28292">
        <ele>226.6</ele>
        <time>2022-03-28T13:01:00Z</time>
      </trkpt>
      <trkpt lat="46.31498" lon="5.28282">
        <ele>225.4</ele>
        <time>2022-03-28T13:01:02Z</time>
      </trkpt>
      <trkpt lat="46.31482" lon="5.28274">
        <ele>225</ele>
        <time>2022-03-28T13:01:04Z</time>
      </trkpt>
      <trkpt lat="46.31465" lon="5.28266">
        <ele>224.4</ele>
        <time>2022-03-28T13:01:06Z</time>
      </trkpt>
      <trkpt lat="46.31439" lon="5.28259">
        <ele>223.8</ele>
        <time>2022-03-28T13:01:09Z</time>
      </trkpt>
      <trkpt lat="46.31409" lon="5.2826">
        <ele>223.6</ele>
        <time>2022-03-28T13:01:13Z</time>
      </trkpt>
      <trkpt lat="46.31372" lon="5.28265">
        <ele>223.4</ele>
        <time>2022-03-28T13:01:18Z</time>
      </trkpt>
      <trkpt lat="46.31365" lon="5.28268">
        <ele>223.4</ele>
        <time>2022-03-28T13:01:19Z</time>
      </trkpt>
      <trkpt lat="46.31352" lon="5.28275">
        <ele>223.2</ele>
        <time>2022-03-28T13:01:21Z</time>
      </trkpt>
      <trkpt lat="46.31345" lon="5.28276">
        <ele>223.2</ele>
        <time>2022-03-28T13:01:22Z</time>
      </trkpt>
      <trkpt lat="46.31339" lon="5.28274">
        <ele>223.2</ele>
        <time>2022-03-28T13:01:23Z</time>
      </trkpt>
      <trkpt lat="46.31334" lon="5.28269">
        <ele>223</ele>
        <time>2022-03-28T13:01:24Z</time>
      </trkpt>
      <trkpt lat="46.31324" lon="5.28255">
        <ele>223</ele>
        <time>2022-03-28T13:01:26Z</time>
      </trkpt>
      <trkpt lat="46.31312" lon="5.2825">
        <ele>223</ele>
        <time>2022-03-28T13:01:28Z</time>
      </trkpt>
      <trkpt lat="46.31271" lon="5.28254">
        <ele>223</ele>
        <time>2022-03-28T13:01:34Z</time>
      </trkpt>
      <trkpt lat="46.31211" lon="5.2826">
        <ele>223.6</ele>
        <time>2022-03-28T13:01:43Z</time>
      </trkpt>
      <trkpt lat="46.31181" lon="5.28263">
        <ele>223.8</ele>
        <time>2022-03-28T13:01:48Z</time>
      </trkpt>
      <trkpt lat="46.31169" lon="5.28264">
        <ele>223.8</ele>
        <time>2022-03-28T13:01:50Z</time>
      </trkpt>
      <trkpt lat="46.31135" lon="5.28266">
        <ele>224.4</ele>
        <time>2022-03-28T13:01:56Z</time>
      </trkpt>
      <trkpt lat="46.3113" lon="5.28267">
        <ele>224.6</ele>
        <time>2022-03-28T13:01:57Z</time>
      </trkpt>
      <trkpt lat="46.31124" lon="5.28267">
        <ele>224.6</ele>
        <time>2022-03-28T13:01:58Z</time>
      </trkpt>
      <trkpt lat="46.31096" lon="5.28269">
        <ele>225.4</ele>
        <time>2022-03-28T13:02:04Z</time>
      </trkpt>
      <trkpt lat="46.31066" lon="5.28271">
        <ele>226.8</ele>
        <time>2022-03-28T13:02:11Z</time>
      </trkpt>
      <trkpt lat="46.31062" lon="5.28272">
        <ele>227</ele>
        <time>2022-03-28T13:02:12Z</time>
      </trkpt>
      <trkpt lat="46.31042" lon="5.28273">
        <ele>228</ele>
        <time>2022-03-28T13:02:17Z</time>
      </trkpt>
      <trkpt lat="46.31028" lon="5.28275">
        <ele>229</ele>
        <time>2022-03-28T13:02:21Z</time>
      </trkpt>
      <trkpt lat="46.31012" lon="5.28276">
        <ele>230.2</ele>
        <time>2022-03-28T13:02:26Z</time>
      </trkpt>
      <trkpt lat="46.31006" lon="5.28276">
        <ele>231</ele>
        <time>2022-03-28T13:02:28Z</time>
      </trkpt>
      <trkpt lat="46.31001" lon="5.28277">
        <ele>231.2</ele>
        <time>2022-03-28T13:02:30Z</time>
      </trkpt>
      <trkpt lat="46.30985" lon="5.28276">
        <ele>232.4</ele>
        <time>2022-03-28T13:02:35Z</time>
      </trkpt>
      <trkpt lat="46.30968" lon="5.28274">
        <ele>233.4</ele>
        <time>2022-03-28T13:02:40Z</time>
      </trkpt>
      <trkpt lat="46.30962" lon="5.28273">
        <ele>234</ele>
        <time>2022-03-28T13:02:42Z</time>
      </trkpt>
      <trkpt lat="46.30955" lon="5.28272">
        <ele>234.6</ele>
        <time>2022-03-28T13:02:44Z</time>
      </trkpt>
      <trkpt lat="46.30944" lon="5.28272">
        <ele>235.6</ele>
        <time>2022-03-28T13:02:47Z</time>
      </trkpt>
      <trkpt lat="46.3094" lon="5.28272">
        <ele>236</ele>
        <time>2022-03-28T13:02:48Z</time>
      </trkpt>
      <trkpt lat="46.30926" lon="5.2827">
        <ele>236.8</ele>
        <time>2022-03-28T13:02:52Z</time>
      </trkpt>
      <trkpt lat="46.30919" lon="5.2827">
        <ele>237.4</ele>
        <time>2022-03-28T13:02:54Z</time>
      </trkpt>
      <trkpt lat="46.30912" lon="5.28269">
        <ele>238</ele>
        <time>2022-03-28T13:02:56Z</time>
      </trkpt>
      <trkpt lat="46.30894" lon="5.28267">
        <ele>239</ele>
        <time>2022-03-28T13:03:01Z</time>
      </trkpt>
      <trkpt lat="46.30884" lon="5.28264">
        <ele>239.8</ele>
        <time>2022-03-28T13:03:04Z</time>
      </trkpt>
      <trkpt lat="46.30881" lon="5.28264">
        <ele>240.2</ele>
        <time>2022-03-28T13:03:05Z</time>
      </trkpt>
      <trkpt lat="46.30854" lon="5.2826">
        <ele>241.4</ele>
        <time>2022-03-28T13:03:12Z</time>
      </trkpt>
      <trkpt lat="46.30842" lon="5.28258">
        <ele>241.8</ele>
        <time>2022-03-28T13:03:15Z</time>
      </trkpt>
      <trkpt lat="46.30828" lon="5.28255">
        <ele>242.6</ele>
        <time>2022-03-28T13:03:19Z</time>
      </trkpt>
      <trkpt lat="46.30805" lon="5.28252">
        <ele>243.2</ele>
        <time>2022-03-28T13:03:25Z</time>
      </trkpt>
      <trkpt lat="46.30789" lon="5.2825">
        <ele>243.6</ele>
        <time>2022-03-28T13:03:29Z</time>
      </trkpt>
      <trkpt lat="46.30765" lon="5.28245">
        <ele>244.4</ele>
        <time>2022-03-28T13:03:35Z</time>
      </trkpt>
      <trkpt lat="46.30757" lon="5.28244">
        <ele>244.6</ele>
        <time>2022-03-28T13:03:37Z</time>
      </trkpt>
      <trkpt lat="46.30727" lon="5.28239">
        <ele>245.4</ele>
        <time>2022-03-28T13:03:44Z</time>
      </trkpt>
      <trkpt lat="46.30714" lon="5.28237">
        <ele>245.8</ele>
        <time>2022-03-28T13:03:47Z</time>
      </trkpt>
      <trkpt lat="46.30688" lon="5.28232">
        <ele>246.6</ele>
        <time>2022-03-28T13:03:53Z</time>
      </trkpt>
      <trkpt lat="46.30674" lon="5.28229">
        <ele>247</ele>
        <time>2022-03-28T13:03:56Z</time>
      </trkpt>
      <trkpt lat="46.30651" lon="5.28225">
        <ele>247.2</ele>
        <time>2022-03-28T13:04:01Z</time>
      </trkpt>
      <trkpt lat="46.3061" lon="5.28222">
        <ele>247.8</ele>
        <time>2022-03-28T13:04:10Z</time>
      </trkpt>
      <trkpt lat="46.30605" lon="5.28223">
        <ele>247.8</ele>
        <time>2022-03-28T13:04:11Z</time>
      </trkpt>
      <trkpt lat="46.30584" lon="5.28227">
        <ele>248</ele>
        <time>2022-03-28T13:04:15Z</time>
      </trkpt>
      <trkpt lat="46.30567" lon="5.28231">
        <ele>248</ele>
        <time>2022-03-28T13:04:18Z</time>
      </trkpt>
      <trkpt lat="46.30528" lon="5.28243">
        <ele>248.2</ele>
        <time>2022-03-28T13:04:25Z</time>
      </trkpt>
      <trkpt lat="46.30489" lon="5.28258">
        <ele>248.4</ele>
        <time>2022-03-28T13:04:32Z</time>
      </trkpt>
      <trkpt lat="46.30444" lon="5.28266">
        <ele>248.6</ele>
        <time>2022-03-28T13:04:40Z</time>
      </trkpt>
      <trkpt lat="46.30415" lon="5.28266">
        <ele>249</ele>
        <time>2022-03-28T13:04:45Z</time>
      </trkpt>
      <trkpt lat="46.30388" lon="5.28265">
        <ele>249.2</ele>
        <time>2022-03-28T13:04:50Z</time>
      </trkpt>
      <trkpt lat="46.30382" lon="5.28264">
        <ele>249.2</ele>
        <time>2022-03-28T13:04:51Z</time>
      </trkpt>
      <trkpt lat="46.30365" lon="5.28258">
        <ele>249.2</ele>
        <time>2022-03-28T13:04:54Z</time>
      </trkpt>
      <trkpt lat="46.30322" lon="5.28236">
        <ele>248.2</ele>
        <time>2022-03-28T13:05:01Z</time>
      </trkpt>
      <trkpt lat="46.30311" lon="5.2823">
        <ele>247.8</ele>
        <time>2022-03-28T13:05:03Z</time>
      </trkpt>
      <trkpt lat="46.30307" lon="5.2823">
        <ele>247.8</ele>
        <time>2022-03-28T13:05:04Z</time>
      </trkpt>
      <trkpt lat="46.30303" lon="5.28234">
        <ele>247.4</ele>
        <time>2022-03-28T13:05:05Z</time>
      </trkpt>
      <trkpt lat="46.30301" lon="5.28242">
        <ele>247.2</ele>
        <time>2022-03-28T13:05:06Z</time>
      </trkpt>
      <trkpt lat="46.30299" lon="5.28253">
        <ele>247.2</ele>
        <time>2022-03-28T13:05:07Z</time>
      </trkpt>
      <trkpt lat="46.30298" lon="5.28265">
        <ele>246.8</ele>
        <time>2022-03-28T13:05:08Z</time>
      </trkpt>
      <trkpt lat="46.30296" lon="5.28279">
        <ele>246.6</ele>
        <time>2022-03-28T13:05:09Z</time>
      </trkpt>
      <trkpt lat="46.30287" lon="5.28321">
        <ele>245.6</ele>
        <time>2022-03-28T13:05:12Z</time>
      </trkpt>
      <trkpt lat="46.3028" lon="5.28353">
        <ele>244.2</ele>
        <time>2022-03-28T13:05:14Z</time>
      </trkpt>
      <trkpt lat="46.30273" lon="5.28386">
        <ele>243</ele>
        <time>2022-03-28T13:05:16Z</time>
      </trkpt>
      <trkpt lat="46.30269" lon="5.28404">
        <ele>242</ele>
        <time>2022-03-28T13:05:17Z</time>
      </trkpt>
      <trkpt lat="46.3026" lon="5.28439">
        <ele>240.8</ele>
        <time>2022-03-28T13:05:19Z</time>
      </trkpt>
      <trkpt lat="46.30256" lon="5.28456">
        <ele>240</ele>
        <time>2022-03-28T13:05:20Z</time>
      </trkpt>
      <trkpt lat="46.30252" lon="5.28473">
        <ele>239.2</ele>
        <time>2022-03-28T13:05:21Z</time>
      </trkpt>
      <trkpt lat="46.30243" lon="5.28507">
        <ele>238</ele>
        <time>2022-03-28T13:05:23Z</time>
      </trkpt>
      <trkpt lat="46.30239" lon="5.28523">
        <ele>237</ele>
        <time>2022-03-28T13:05:24Z</time>
      </trkpt>
      <trkpt lat="46.3023" lon="5.28557">
        <ele>235.6</ele>
        <time>2022-03-28T13:05:26Z</time>
      </trkpt>
      <trkpt lat="46.30223" lon="5.2859">
        <ele>234.2</ele>
        <time>2022-03-28T13:05:28Z</time>
      </trkpt>
      <trkpt lat="46.30216" lon="5.28622">
        <ele>233.2</ele>
        <time>2022-03-28T13:05:30Z</time>
      </trkpt>
      <trkpt lat="46.30212" lon="5.28638">
        <ele>232.2</ele>
        <time>2022-03-28T13:05:31Z</time>
      </trkpt>
      <trkpt lat="46.30204" lon="5.28667">
        <ele>231</ele>
        <time>2022-03-28T13:05:33Z</time>
      </trkpt>
      <trkpt lat="46.30199" lon="5.28679">
        <ele>230.8</ele>
        <time>2022-03-28T13:05:34Z</time>
      </trkpt>
      <trkpt lat="46.30177" lon="5.28726">
        <ele>230</ele>
        <time>2022-03-28T13:05:38Z</time>
      </trkpt>
      <trkpt lat="46.3016" lon="5.28761">
        <ele>229.8</ele>
        <time>2022-03-28T13:05:41Z</time>
      </trkpt>
      <trkpt lat="46.3014" lon="5.28805">
        <ele>229.8</ele>
        <time>2022-03-28T13:05:45Z</time>
      </trkpt>
      <trkpt lat="46.30136" lon="5.28816">
        <ele>229.8</ele>
        <time>2022-03-28T13:05:46Z</time>
      </trkpt>
      <trkpt lat="46.30126" lon="5.28871">
        <ele>229.2</ele>
        <time>2022-03-28T13:05:51Z</time>
      </trkpt>
      <trkpt lat="46.30124" lon="5.2888">
        <ele>229.2</ele>
        <time>2022-03-28T13:05:52Z</time>
      </trkpt>
      <trkpt lat="46.30118" lon="5.28896">
        <ele>229.2</ele>
        <time>2022-03-28T13:05:54Z</time>
      </trkpt>
      <trkpt lat="46.301" lon="5.28921">
        <ele>230.4</ele>
        <time>2022-03-28T13:05:59Z</time>
      </trkpt>
      <trkpt lat="46.30097" lon="5.28925">
        <ele>230.6</ele>
        <time>2022-03-28T13:06:00Z</time>
      </trkpt>
      <trkpt lat="46.3009" lon="5.28931">
        <ele>231.4</ele>
        <time>2022-03-28T13:06:02Z</time>
      </trkpt>
      <trkpt lat="46.30081" lon="5.28937">
        <ele>231.8</ele>
        <time>2022-03-28T13:06:04Z</time>
      </trkpt>
      <trkpt lat="46.30077" lon="5.28939">
        <ele>231.8</ele>
        <time>2022-03-28T13:06:05Z</time>
      </trkpt>
      <trkpt lat="46.30064" lon="5.28943">
        <ele>232.4</ele>
        <time>2022-03-28T13:06:08Z</time>
      </trkpt>
      <trkpt lat="46.30046" lon="5.28949">
        <ele>233.8</ele>
        <time>2022-03-28T13:06:13Z</time>
      </trkpt>
      <trkpt lat="46.30032" lon="5.28952">
        <ele>234.8</ele>
        <time>2022-03-28T13:06:17Z</time>
      </trkpt>
      <trkpt lat="46.30016" lon="5.28957">
        <ele>235.8</ele>
        <time>2022-03-28T13:06:22Z</time>
      </trkpt>
      <trkpt lat="46.30012" lon="5.28958">
        <ele>236</ele>
        <time>2022-03-28T13:06:23Z</time>
      </trkpt>
      <trkpt lat="46.29996" lon="5.28965">
        <ele>237.2</ele>
        <time>2022-03-28T13:06:28Z</time>
      </trkpt>
      <trkpt lat="46.29993" lon="5.2897">
        <ele>237.4</ele>
        <time>2022-03-28T13:06:29Z</time>
      </trkpt>
      <trkpt lat="46.29991" lon="5.28987">
        <ele>238</ele>
        <time>2022-03-28T13:06:33Z</time>
      </trkpt>
      <trkpt lat="46.29993" lon="5.29001">
        <ele>238.4</ele>
        <time>2022-03-28T13:06:36Z</time>
      </trkpt>
      <trkpt lat="46.29991" lon="5.29006">
        <ele>238.4</ele>
        <time>2022-03-28T13:06:37Z</time>
      </trkpt>
      <trkpt lat="46.29988" lon="5.2901">
        <ele>238.4</ele>
        <time>2022-03-28T13:06:38Z</time>
      </trkpt>
      <trkpt lat="46.2998" lon="5.29015">
        <ele>238.8</ele>
        <time>2022-03-28T13:06:40Z</time>
      </trkpt>
      <trkpt lat="46.29948" lon="5.2903">
        <ele>239.4</ele>
        <time>2022-03-28T13:06:48Z</time>
      </trkpt>
      <trkpt lat="46.29944" lon="5.29032">
        <ele>239.4</ele>
        <time>2022-03-28T13:06:49Z</time>
      </trkpt>
      <trkpt lat="46.29922" lon="5.29045">
        <ele>240.4</ele>
        <time>2022-03-28T13:06:55Z</time>
      </trkpt>
      <trkpt lat="46.2991" lon="5.29052">
        <ele>240.8</ele>
        <time>2022-03-28T13:06:58Z</time>
      </trkpt>
      <trkpt lat="46.29877" lon="5.29075">
        <ele>241.6</ele>
        <time>2022-03-28T13:07:06Z</time>
      </trkpt>
      <trkpt lat="46.2987" lon="5.29081">
        <ele>242</ele>
        <time>2022-03-28T13:07:08Z</time>
      </trkpt>
      <trkpt lat="46.29847" lon="5.29106">
        <ele>242.8</ele>
        <time>2022-03-28T13:07:14Z</time>
      </trkpt>
      <trkpt lat="46.29844" lon="5.2911">
        <ele>242.8</ele>
        <time>2022-03-28T13:07:15Z</time>
      </trkpt>
      <trkpt lat="46.29815" lon="5.29144">
        <ele>243.8</ele>
        <time>2022-03-28T13:07:23Z</time>
      </trkpt>
      <trkpt lat="46.29811" lon="5.29148">
        <ele>243.8</ele>
        <time>2022-03-28T13:07:24Z</time>
      </trkpt>
      <trkpt lat="46.29778" lon="5.29185">
        <ele>244.4</ele>
        <time>2022-03-28T13:07:32Z</time>
      </trkpt>
      <trkpt lat="46.29769" lon="5.29202">
        <ele>245</ele>
        <time>2022-03-28T13:07:35Z</time>
      </trkpt>
      <trkpt lat="46.29767" lon="5.29209">
        <ele>245</ele>
        <time>2022-03-28T13:07:36Z</time>
      </trkpt>
      <trkpt lat="46.29765" lon="5.29216">
        <ele>245.2</ele>
        <time>2022-03-28T13:07:37Z</time>
      </trkpt>
      <trkpt lat="46.29757" lon="5.29242">
        <ele>245.4</ele>
        <time>2022-03-28T13:07:41Z</time>
      </trkpt>
      <trkpt lat="46.29749" lon="5.29274">
        <ele>245.8</ele>
        <time>2022-03-28T13:07:46Z</time>
      </trkpt>
      <trkpt lat="46.29746" lon="5.29287">
        <ele>246</ele>
        <time>2022-03-28T13:07:48Z</time>
      </trkpt>
      <trkpt lat="46.29737" lon="5.29318">
        <ele>247.2</ele>
        <time>2022-03-28T13:07:53Z</time>
      </trkpt>
      <trkpt lat="46.29734" lon="5.29331">
        <ele>247.4</ele>
        <time>2022-03-28T13:07:55Z</time>
      </trkpt>
      <trkpt lat="46.29728" lon="5.29352">
        <ele>248.4</ele>
        <time>2022-03-28T13:07:58Z</time>
      </trkpt>
      <trkpt lat="46.2972" lon="5.29384">
        <ele>249.6</ele>
        <time>2022-03-28T13:08:03Z</time>
      </trkpt>
      <trkpt lat="46.29715" lon="5.29395">
        <ele>250</ele>
        <time>2022-03-28T13:08:05Z</time>
      </trkpt>
      <trkpt lat="46.29708" lon="5.29408">
        <ele>250.6</ele>
        <time>2022-03-28T13:08:07Z</time>
      </trkpt>
      <trkpt lat="46.29702" lon="5.29419">
        <ele>251</ele>
        <time>2022-03-28T13:08:09Z</time>
      </trkpt>
      <trkpt lat="46.29681" lon="5.29451">
        <ele>251.4</ele>
        <time>2022-03-28T13:08:15Z</time>
      </trkpt>
      <trkpt lat="46.29677" lon="5.29458">
        <ele>251.6</ele>
        <time>2022-03-28T13:08:16Z</time>
      </trkpt>
      <trkpt lat="46.29669" lon="5.29468">
        <ele>251.6</ele>
        <time>2022-03-28T13:08:18Z</time>
      </trkpt>
      <trkpt lat="46.29662" lon="5.29477">
        <ele>251.8</ele>
        <time>2022-03-28T13:08:20Z</time>
      </trkpt>
      <trkpt lat="46.29658" lon="5.29482">
        <ele>252</ele>
        <time>2022-03-28T13:08:21Z</time>
      </trkpt>
      <trkpt lat="46.29634" lon="5.29519">
        <ele>252.4</ele>
        <time>2022-03-28T13:08:28Z</time>
      </trkpt>
      <trkpt lat="46.29627" lon="5.29532">
        <ele>252.4</ele>
        <time>2022-03-28T13:08:30Z</time>
      </trkpt>
      <trkpt lat="46.29617" lon="5.29554">
        <ele>252.6</ele>
        <time>2022-03-28T13:08:34Z</time>
      </trkpt>
      <trkpt lat="46.29614" lon="5.2956">
        <ele>252.6</ele>
        <time>2022-03-28T13:08:35Z</time>
      </trkpt>
      <trkpt lat="46.29609" lon="5.29574">
        <ele>253</ele>
        <time>2022-03-28T13:08:37Z</time>
      </trkpt>
      <trkpt lat="46.29604" lon="5.29586">
        <ele>253.6</ele>
        <time>2022-03-28T13:08:39Z</time>
      </trkpt>
      <trkpt lat="46.29602" lon="5.29593">
        <ele>253.8</ele>
        <time>2022-03-28T13:08:40Z</time>
      </trkpt>
      <trkpt lat="46.29591" lon="5.29639">
        <ele>253.6</ele>
        <time>2022-03-28T13:08:46Z</time>
      </trkpt>
      <trkpt lat="46.29575" lon="5.29709">
        <ele>253.4</ele>
        <time>2022-03-28T13:08:55Z</time>
      </trkpt>
      <trkpt lat="46.29559" lon="5.29787">
        <ele>254</ele>
        <time>2022-03-28T13:09:05Z</time>
      </trkpt>
      <trkpt lat="46.29545" lon="5.29851">
        <ele>254</ele>
        <time>2022-03-28T13:09:13Z</time>
      </trkpt>
      <trkpt lat="46.29534" lon="5.29901">
        <ele>254.4</ele>
        <time>2022-03-28T13:09:19Z</time>
      </trkpt>
      <trkpt lat="46.29519" lon="5.29958">
        <ele>254.8</ele>
        <time>2022-03-28T13:09:26Z</time>
      </trkpt>
      <trkpt lat="46.29512" lon="5.29971">
        <ele>255</ele>
        <time>2022-03-28T13:09:28Z</time>
      </trkpt>
      <trkpt lat="46.29503" lon="5.29974">
        <ele>255</ele>
        <time>2022-03-28T13:09:30Z</time>
      </trkpt>
      <trkpt lat="46.29503" lon="5.29974">
        <ele>255</ele>
        <time>2022-03-28T13:09:31Z</time>
      </trkpt>
      <trkpt lat="46.29492" lon="5.29971">
        <ele>255</ele>
        <time>2022-03-28T13:09:32Z</time>
      </trkpt>
      <trkpt lat="46.29474" lon="5.29965">
        <ele>255.2</ele>
        <time>2022-03-28T13:09:35Z</time>
      </trkpt>
      <trkpt lat="46.2945" lon="5.29955">
        <ele>255.4</ele>
        <time>2022-03-28T13:09:39Z</time>
      </trkpt>
      <trkpt lat="46.29444" lon="5.29955">
        <ele>255.4</ele>
        <time>2022-03-28T13:09:40Z</time>
      </trkpt>
      <trkpt lat="46.29438" lon="5.29957">
        <ele>255.4</ele>
        <time>2022-03-28T13:09:41Z</time>
      </trkpt>
      <trkpt lat="46.29421" lon="5.29971">
        <ele>255.6</ele>
        <time>2022-03-28T13:09:44Z</time>
      </trkpt>
      <trkpt lat="46.29377" lon="5.30018">
        <ele>255.6</ele>
        <time>2022-03-28T13:09:52Z</time>
      </trkpt>
      <trkpt lat="46.29332" lon="5.30066">
        <ele>256</ele>
        <time>2022-03-28T13:10:01Z</time>
      </trkpt>
      <trkpt lat="46.29327" lon="5.30071">
        <ele>256</ele>
        <time>2022-03-28T13:10:02Z</time>
      </trkpt>
      <trkpt lat="46.29294" lon="5.30107">
        <ele>256.6</ele>
        <time>2022-03-28T13:10:09Z</time>
      </trkpt>
      <trkpt lat="46.29274" lon="5.30127">
        <ele>257</ele>
        <time>2022-03-28T13:10:13Z</time>
      </trkpt>
      <trkpt lat="46.29256" lon="5.30146">
        <ele>257.2</ele>
        <time>2022-03-28T13:10:17Z</time>
      </trkpt>
      <trkpt lat="46.29214" lon="5.30191">
        <ele>257.4</ele>
        <time>2022-03-28T13:10:26Z</time>
      </trkpt>
      <trkpt lat="46.29182" lon="5.30226">
        <ele>257.8</ele>
        <time>2022-03-28T13:10:33Z</time>
      </trkpt>
      <trkpt lat="46.29144" lon="5.30266">
        <ele>258</ele>
        <time>2022-03-28T13:10:41Z</time>
      </trkpt>
      <trkpt lat="46.2912" lon="5.30293">
        <ele>258.2</ele>
        <time>2022-03-28T13:10:46Z</time>
      </trkpt>
      <trkpt lat="46.29098" lon="5.30316">
        <ele>258.2</ele>
        <time>2022-03-28T13:10:50Z</time>
      </trkpt>
      <trkpt lat="46.29061" lon="5.30353">
        <ele>258.2</ele>
        <time>2022-03-28T13:10:57Z</time>
      </trkpt>
      <trkpt lat="46.29056" lon="5.30358">
        <ele>258.2</ele>
        <time>2022-03-28T13:10:58Z</time>
      </trkpt>
      <trkpt lat="46.29039" lon="5.30369">
        <ele>258.4</ele>
        <time>2022-03-28T13:11:01Z</time>
      </trkpt>
      <trkpt lat="46.29027" lon="5.30373">
        <ele>258.4</ele>
        <time>2022-03-28T13:11:03Z</time>
      </trkpt>
      <trkpt lat="46.28985" lon="5.30385">
        <ele>259</ele>
        <time>2022-03-28T13:11:10Z</time>
      </trkpt>
      <trkpt lat="46.28973" lon="5.30388">
        <ele>259.4</ele>
        <time>2022-03-28T13:11:12Z</time>
      </trkpt>
      <trkpt lat="46.28941" lon="5.30396">
        <ele>260</ele>
        <time>2022-03-28T13:11:18Z</time>
      </trkpt>
      <trkpt lat="46.28929" lon="5.30399">
        <ele>260.4</ele>
        <time>2022-03-28T13:11:20Z</time>
      </trkpt>
      <trkpt lat="46.2889" lon="5.30409">
        <ele>261</ele>
        <time>2022-03-28T13:11:27Z</time>
      </trkpt>
      <trkpt lat="46.28854" lon="5.3042">
        <ele>261.6</ele>
        <time>2022-03-28T13:11:34Z</time>
      </trkpt>
      <trkpt lat="46.28841" lon="5.30424">
        <ele>262</ele>
        <time>2022-03-28T13:11:36Z</time>
      </trkpt>
      <trkpt lat="46.28819" lon="5.30428">
        <ele>262.4</ele>
        <time>2022-03-28T13:11:40Z</time>
      </trkpt>
      <trkpt lat="46.28799" lon="5.30431">
        <ele>262</ele>
        <time>2022-03-28T13:11:43Z</time>
      </trkpt>
      <trkpt lat="46.28748" lon="5.3044">
        <ele>261.4</ele>
        <time>2022-03-28T13:11:51Z</time>
      </trkpt>
      <trkpt lat="46.28707" lon="5.30447">
        <ele>260.8</ele>
        <time>2022-03-28T13:11:58Z</time>
      </trkpt>
      <trkpt lat="46.28701" lon="5.30447">
        <ele>260.6</ele>
        <time>2022-03-28T13:11:59Z</time>
      </trkpt>
      <trkpt lat="46.28698" lon="5.30447">
        <ele>260.6</ele>
        <time>2022-03-28T13:12:00Z</time>
      </trkpt>
      <trkpt lat="46.28694" lon="5.30446">
        <ele>260.4</ele>
        <time>2022-03-28T13:12:01Z</time>
      </trkpt>
      <trkpt lat="46.2869" lon="5.30441">
        <ele>260.4</ele>
        <time>2022-03-28T13:12:03Z</time>
      </trkpt>
      <trkpt lat="46.28689" lon="5.30432">
        <ele>260.8</ele>
        <time>2022-03-28T13:12:06Z</time>
      </trkpt>
      <trkpt lat="46.28687" lon="5.30431">
        <ele>261</ele>
        <time>2022-03-28T13:12:07Z</time>
      </trkpt>
      <trkpt lat="46.28686" lon="5.30438">
        <ele>261</ele>
        <time>2022-03-28T13:12:09Z</time>
      </trkpt>
      <trkpt lat="46.28685" lon="5.30457">
        <ele>261</ele>
        <time>2022-03-28T13:12:12Z</time>
      </trkpt>
      <trkpt lat="46.28682" lon="5.3051">
        <ele>261</ele>
        <time>2022-03-28T13:12:18Z</time>
      </trkpt>
      <trkpt lat="46.28677" lon="5.30579">
        <ele>261.4</ele>
        <time>2022-03-28T13:12:25Z</time>
      </trkpt>
      <trkpt lat="46.28675" lon="5.30599">
        <ele>261.8</ele>
        <time>2022-03-28T13:12:27Z</time>
      </trkpt>
      <trkpt lat="46.28671" lon="5.30667">
        <ele>262.2</ele>
        <time>2022-03-28T13:12:34Z</time>
      </trkpt>
      <trkpt lat="46.28666" lon="5.30735">
        <ele>262.8</ele>
        <time>2022-03-28T13:12:41Z</time>
      </trkpt>
      <trkpt lat="46.28664" lon="5.30754">
        <ele>263</ele>
        <time>2022-03-28T13:12:43Z</time>
      </trkpt>
      <trkpt lat="46.28659" lon="5.30835">
        <ele>263.6</ele>
        <time>2022-03-28T13:12:52Z</time>
      </trkpt>
      <trkpt lat="46.28658" lon="5.30854">
        <ele>263.8</ele>
        <time>2022-03-28T13:12:54Z</time>
      </trkpt>
      <trkpt lat="46.28653" lon="5.30926">
        <ele>264.6</ele>
        <time>2022-03-28T13:13:02Z</time>
      </trkpt>
      <trkpt lat="46.28651" lon="5.30953">
        <ele>264.8</ele>
        <time>2022-03-28T13:13:05Z</time>
      </trkpt>
      <trkpt lat="46.28647" lon="5.31038">
        <ele>265.6</ele>
        <time>2022-03-28T13:13:14Z</time>
      </trkpt>
      <trkpt lat="46.28646" lon="5.31118">
        <ele>265.8</ele>
        <time>2022-03-28T13:13:22Z</time>
      </trkpt>
      <trkpt lat="46.28646" lon="5.31128">
        <ele>265.8</ele>
        <time>2022-03-28T13:13:23Z</time>
      </trkpt>
      <trkpt lat="46.28645" lon="5.3114">
        <ele>265.8</ele>
        <time>2022-03-28T13:13:24Z</time>
      </trkpt>
      <trkpt lat="46.28644" lon="5.31181">
        <ele>266</ele>
        <time>2022-03-28T13:13:28Z</time>
      </trkpt>
      <trkpt lat="46.28644" lon="5.31252">
        <ele>266.2</ele>
        <time>2022-03-28T13:13:34Z</time>
      </trkpt>
      <trkpt lat="46.28641" lon="5.31332">
        <ele>266</ele>
        <time>2022-03-28T13:13:41Z</time>
      </trkpt>
      <trkpt lat="46.28635" lon="5.31372">
        <ele>266</ele>
        <time>2022-03-28T13:13:45Z</time>
      </trkpt>
      <trkpt lat="46.28633" lon="5.31381">
        <ele>266</ele>
        <time>2022-03-28T13:13:46Z</time>
      </trkpt>
      <trkpt lat="46.28611" lon="5.31434">
        <ele>267.2</ele>
        <time>2022-03-28T13:13:52Z</time>
      </trkpt>
      <trkpt lat="46.2858" lon="5.3148">
        <ele>267.6</ele>
        <time>2022-03-28T13:13:58Z</time>
      </trkpt>
      <trkpt lat="46.28542" lon="5.31541">
        <ele>268</ele>
        <time>2022-03-28T13:14:06Z</time>
      </trkpt>
      <trkpt lat="46.28523" lon="5.31577">
        <ele>268.2</ele>
        <time>2022-03-28T13:14:10Z</time>
      </trkpt>
      <trkpt lat="46.28507" lon="5.31612">
        <ele>268.2</ele>
        <time>2022-03-28T13:14:14Z</time>
      </trkpt>
      <trkpt lat="46.28494" lon="5.3164">
        <ele>268.2</ele>
        <time>2022-03-28T13:14:17Z</time>
      </trkpt>
      <trkpt lat="46.28465" lon="5.317">
        <ele>268.4</ele>
        <time>2022-03-28T13:14:24Z</time>
      </trkpt>
      <trkpt lat="46.28437" lon="5.31764">
        <ele>268.4</ele>
        <time>2022-03-28T13:14:31Z</time>
      </trkpt>
      <trkpt lat="46.28406" lon="5.31835">
        <ele>269</ele>
        <time>2022-03-28T13:14:39Z</time>
      </trkpt>
      <trkpt lat="46.28402" lon="5.31845">
        <ele>269</ele>
        <time>2022-03-28T13:14:40Z</time>
      </trkpt>
      <trkpt lat="46.28388" lon="5.3188">
        <ele>269.2</ele>
        <time>2022-03-28T13:14:44Z</time>
      </trkpt>
      <trkpt lat="46.28374" lon="5.31919">
        <ele>269.2</ele>
        <time>2022-03-28T13:14:48Z</time>
      </trkpt>
      <trkpt lat="46.28346" lon="5.31992">
        <ele>269.2</ele>
        <time>2022-03-28T13:14:56Z</time>
      </trkpt>
      <trkpt lat="46.28342" lon="5.32002">
        <ele>269.2</ele>
        <time>2022-03-28T13:14:57Z</time>
      </trkpt>
      <trkpt lat="46.28316" lon="5.32073">
        <ele>268.8</ele>
        <time>2022-03-28T13:15:04Z</time>
      </trkpt>
      <trkpt lat="46.28309" lon="5.32094">
        <ele>268.4</ele>
        <time>2022-03-28T13:15:06Z</time>
      </trkpt>
      <trkpt lat="46.28301" lon="5.32116">
        <ele>267.8</ele>
        <time>2022-03-28T13:15:08Z</time>
      </trkpt>
      <trkpt lat="46.28297" lon="5.32128">
        <ele>267.4</ele>
        <time>2022-03-28T13:15:09Z</time>
      </trkpt>
      <trkpt lat="46.2829" lon="5.32152">
        <ele>266.6</ele>
        <time>2022-03-28T13:15:11Z</time>
      </trkpt>
      <trkpt lat="46.28283" lon="5.32176">
        <ele>266</ele>
        <time>2022-03-28T13:15:13Z</time>
      </trkpt>
      <trkpt lat="46.28277" lon="5.32201">
        <ele>265.4</ele>
        <time>2022-03-28T13:15:15Z</time>
      </trkpt>
      <trkpt lat="46.28265" lon="5.32267">
        <ele>264.6</ele>
        <time>2022-03-28T13:15:21Z</time>
      </trkpt>
      <trkpt lat="46.28264" lon="5.32277">
        <ele>264.4</ele>
        <time>2022-03-28T13:15:22Z</time>
      </trkpt>
      <trkpt lat="46.28259" lon="5.32318">
        <ele>264</ele>
        <time>2022-03-28T13:15:26Z</time>
      </trkpt>
      <trkpt lat="46.28257" lon="5.32392">
        <ele>263.8</ele>
        <time>2022-03-28T13:15:33Z</time>
      </trkpt>
      <trkpt lat="46.28254" lon="5.32476">
        <ele>263.8</ele>
        <time>2022-03-28T13:15:41Z</time>
      </trkpt>
      <trkpt lat="46.28251" lon="5.32539">
        <ele>263.4</ele>
        <time>2022-03-28T13:15:47Z</time>
      </trkpt>
      <trkpt lat="46.28249" lon="5.3256">
        <ele>263.2</ele>
        <time>2022-03-28T13:15:49Z</time>
      </trkpt>
      <trkpt lat="46.28239" lon="5.32611">
        <ele>263</ele>
        <time>2022-03-28T13:15:54Z</time>
      </trkpt>
      <trkpt lat="46.28234" lon="5.32619">
        <ele>263</ele>
        <time>2022-03-28T13:15:55Z</time>
      </trkpt>
      <trkpt lat="46.28227" lon="5.32623">
        <ele>263</ele>
        <time>2022-03-28T13:15:56Z</time>
      </trkpt>
      <trkpt lat="46.28211" lon="5.32627">
        <ele>262.8</ele>
        <time>2022-03-28T13:15:58Z</time>
      </trkpt>
      <trkpt lat="46.28196" lon="5.32633">
        <ele>262.2</ele>
        <time>2022-03-28T13:16:00Z</time>
      </trkpt>
      <trkpt lat="46.28145" lon="5.32652">
        <ele>261.6</ele>
        <time>2022-03-28T13:16:07Z</time>
      </trkpt>
      <trkpt lat="46.2809" lon="5.3267">
        <ele>261.8</ele>
        <time>2022-03-28T13:16:15Z</time>
      </trkpt>
      <trkpt lat="46.28084" lon="5.32672">
        <ele>261.8</ele>
        <time>2022-03-28T13:16:16Z</time>
      </trkpt>
      <trkpt lat="46.2804" lon="5.32686">
        <ele>262.4</ele>
        <time>2022-03-28T13:16:23Z</time>
      </trkpt>
      <trkpt lat="46.28015" lon="5.32695">
        <ele>263.6</ele>
        <time>2022-03-28T13:16:28Z</time>
      </trkpt>
      <trkpt lat="46.28011" lon="5.32697">
        <ele>263.8</ele>
        <time>2022-03-28T13:16:29Z</time>
      </trkpt>
      <trkpt lat="46.27992" lon="5.32704">
        <ele>265</ele>
        <time>2022-03-28T13:16:33Z</time>
      </trkpt>
      <trkpt lat="46.2797" lon="5.32712">
        <ele>266</ele>
        <time>2022-03-28T13:16:38Z</time>
      </trkpt>
      <trkpt lat="46.27965" lon="5.32714">
        <ele>266.2</ele>
        <time>2022-03-28T13:16:39Z</time>
      </trkpt>
      <trkpt lat="46.27944" lon="5.32724">
        <ele>267</ele>
        <time>2022-03-28T13:16:44Z</time>
      </trkpt>
      <trkpt lat="46.27939" lon="5.32726">
        <ele>267</ele>
        <time>2022-03-28T13:16:45Z</time>
      </trkpt>
      <trkpt lat="46.27918" lon="5.32733">
        <ele>268</ele>
        <time>2022-03-28T13:16:50Z</time>
      </trkpt>
      <trkpt lat="46.27905" lon="5.32738">
        <ele>268.8</ele>
        <time>2022-03-28T13:16:53Z</time>
      </trkpt>
      <trkpt lat="46.27897" lon="5.32741">
        <ele>269.4</ele>
        <time>2022-03-28T13:16:55Z</time>
      </trkpt>
      <trkpt lat="46.27877" lon="5.32748">
        <ele>270.2</ele>
        <time>2022-03-28T13:17:00Z</time>
      </trkpt>
      <trkpt lat="46.27873" lon="5.32749">
        <ele>270.4</ele>
        <time>2022-03-28T13:17:01Z</time>
      </trkpt>
      <trkpt lat="46.27837" lon="5.32765">
        <ele>271.6</ele>
        <time>2022-03-28T13:17:09Z</time>
      </trkpt>
      <trkpt lat="46.27824" lon="5.32769">
        <ele>272.2</ele>
        <time>2022-03-28T13:17:12Z</time>
      </trkpt>
      <trkpt lat="46.27807" lon="5.32773">
        <ele>272.6</ele>
        <time>2022-03-28T13:17:16Z</time>
      </trkpt>
      <trkpt lat="46.27775" lon="5.32785">
        <ele>273.2</ele>
        <time>2022-03-28T13:17:23Z</time>
      </trkpt>
      <trkpt lat="46.27752" lon="5.32792">
        <ele>273.6</ele>
        <time>2022-03-28T13:17:28Z</time>
      </trkpt>
      <trkpt lat="46.27741" lon="5.32796">
        <ele>273.8</ele>
        <time>2022-03-28T13:17:31Z</time>
      </trkpt>
      <trkpt lat="46.27733" lon="5.32797">
        <ele>274</ele>
        <time>2022-03-28T13:17:34Z</time>
      </trkpt>
      <trkpt lat="46.27731" lon="5.32799">
        <ele>274</ele>
        <time>2022-03-28T13:17:35Z</time>
      </trkpt>
      <trkpt lat="46.27731" lon="5.32801">
        <ele>274</ele>
        <time>2022-03-28T13:17:36Z</time>
      </trkpt>
      <trkpt lat="46.27732" lon="5.3281">
        <ele>274</ele>
        <time>2022-03-28T13:17:38Z</time>
      </trkpt>
      <trkpt lat="46.27736" lon="5.32831">
        <ele>274.2</ele>
        <time>2022-03-28T13:17:43Z</time>
      </trkpt>
      <trkpt lat="46.27736" lon="5.32831">
        <ele>274.2</ele>
        <time>2022-03-28T13:17:45Z</time>
      </trkpt>
      <trkpt lat="46.27736" lon="5.32818">
        <ele>274.4</ele>
        <time>2022-03-28T13:19:20Z</time>
      </trkpt>
      <trkpt lat="46.27732" lon="5.32793">
        <ele>274.4</ele>
        <time>2022-03-28T13:19:24Z</time>
      </trkpt>
      <trkpt lat="46.27723" lon="5.32741">
        <ele>274.4</ele>
        <time>2022-03-28T13:19:30Z</time>
      </trkpt>
      <trkpt lat="46.27711" lon="5.32678">
        <ele>273.2</ele>
        <time>2022-03-28T13:19:37Z</time>
      </trkpt>
      <trkpt lat="46.27701" lon="5.32631">
        <ele>272.8</ele>
        <time>2022-03-28T13:19:42Z</time>
      </trkpt>
      <trkpt lat="46.27699" lon="5.3262">
        <ele>272.8</ele>
        <time>2022-03-28T13:19:43Z</time>
      </trkpt>
      <trkpt lat="46.27694" lon="5.32602">
        <ele>272.6</ele>
        <time>2022-03-28T13:19:45Z</time>
      </trkpt>
      <trkpt lat="46.27689" lon="5.32595">
        <ele>272.6</ele>
        <time>2022-03-28T13:19:46Z</time>
      </trkpt>
      <trkpt lat="46.27684" lon="5.32592">
        <ele>272.4</ele>
        <time>2022-03-28T13:19:47Z</time>
      </trkpt>
      <trkpt lat="46.27678" lon="5.32592">
        <ele>272</ele>
        <time>2022-03-28T13:19:48Z</time>
      </trkpt>
      <trkpt lat="46.27672" lon="5.32595">
        <ele>271.8</ele>
        <time>2022-03-28T13:19:49Z</time>
      </trkpt>
      <trkpt lat="46.27667" lon="5.32601">
        <ele>271.6</ele>
        <time>2022-03-28T13:19:50Z</time>
      </trkpt>
      <trkpt lat="46.27663" lon="5.32608">
        <ele>271.6</ele>
        <time>2022-03-28T13:19:51Z</time>
      </trkpt>
      <trkpt lat="46.2765" lon="5.32631">
        <ele>271.2</ele>
        <time>2022-03-28T13:19:54Z</time>
      </trkpt>
      <trkpt lat="46.2762" lon="5.32688">
        <ele>271.6</ele>
        <time>2022-03-28T13:20:01Z</time>
      </trkpt>
      <trkpt lat="46.27601" lon="5.32725">
        <ele>272.2</ele>
        <time>2022-03-28T13:20:06Z</time>
      </trkpt>
      <trkpt lat="46.27594" lon="5.32738">
        <ele>272.4</ele>
        <time>2022-03-28T13:20:08Z</time>
      </trkpt>
      <trkpt lat="46.27574" lon="5.32772">
        <ele>272.6</ele>
        <time>2022-03-28T13:20:13Z</time>
      </trkpt>
      <trkpt lat="46.2756" lon="5.32789">
        <ele>273</ele>
        <time>2022-03-28T13:20:16Z</time>
      </trkpt>
      <trkpt lat="46.27519" lon="5.32831">
        <ele>273.2</ele>
        <time>2022-03-28T13:20:24Z</time>
      </trkpt>
      <trkpt lat="46.27476" lon="5.3286">
        <ele>273</ele>
        <time>2022-03-28T13:20:31Z</time>
      </trkpt>
      <trkpt lat="46.27435" lon="5.32901">
        <ele>272.6</ele>
        <time>2022-03-28T13:20:38Z</time>
      </trkpt>
      <trkpt lat="46.27421" lon="5.32908">
        <ele>272.6</ele>
        <time>2022-03-28T13:20:40Z</time>
      </trkpt>
      <trkpt lat="46.27414" lon="5.32908">
        <ele>272.6</ele>
        <time>2022-03-28T13:20:41Z</time>
      </trkpt>
      <trkpt lat="46.27406" lon="5.32906">
        <ele>272.2</ele>
        <time>2022-03-28T13:20:42Z</time>
      </trkpt>
      <trkpt lat="46.27384" lon="5.32895">
        <ele>272</ele>
        <time>2022-03-28T13:20:45Z</time>
      </trkpt>
      <trkpt lat="46.27377" lon="5.32892">
        <ele>271.8</ele>
        <time>2022-03-28T13:20:46Z</time>
      </trkpt>
      <trkpt lat="46.27334" lon="5.32872">
        <ele>271.4</ele>
        <time>2022-03-28T13:20:52Z</time>
      </trkpt>
      <trkpt lat="46.27276" lon="5.32858">
        <ele>270.6</ele>
        <time>2022-03-28T13:21:00Z</time>
      </trkpt>
      <trkpt lat="46.27267" lon="5.32857">
        <ele>270.4</ele>
        <time>2022-03-28T13:21:01Z</time>
      </trkpt>
      <trkpt lat="46.27239" lon="5.3286">
        <ele>269.4</ele>
        <time>2022-03-28T13:21:05Z</time>
      </trkpt>
      <trkpt lat="46.27231" lon="5.32867">
        <ele>269.2</ele>
        <time>2022-03-28T13:21:06Z</time>
      </trkpt>
      <trkpt lat="46.27226" lon="5.32872">
        <ele>269.2</ele>
        <time>2022-03-28T13:21:07Z</time>
      </trkpt>
      <trkpt lat="46.27209" lon="5.32897">
        <ele>268.8</ele>
        <time>2022-03-28T13:21:10Z</time>
      </trkpt>
      <trkpt lat="46.27192" lon="5.32919">
        <ele>268.4</ele>
        <time>2022-03-28T13:21:13Z</time>
      </trkpt>
      <trkpt lat="46.27177" lon="5.32943">
        <ele>268</ele>
        <time>2022-03-28T13:21:16Z</time>
      </trkpt>
      <trkpt lat="46.27153" lon="5.3299">
        <ele>267.2</ele>
        <time>2022-03-28T13:21:21Z</time>
      </trkpt>
      <trkpt lat="46.27138" lon="5.3302">
        <ele>267</ele>
        <time>2022-03-28T13:21:24Z</time>
      </trkpt>
      <trkpt lat="46.27118" lon="5.33063">
        <ele>266</ele>
        <time>2022-03-28T13:21:28Z</time>
      </trkpt>
      <trkpt lat="46.27107" lon="5.33086">
        <ele>265.2</ele>
        <time>2022-03-28T13:21:30Z</time>
      </trkpt>
      <trkpt lat="46.27101" lon="5.33098">
        <ele>264.8</ele>
        <time>2022-03-28T13:21:31Z</time>
      </trkpt>
      <trkpt lat="46.27076" lon="5.33145">
        <ele>263.2</ele>
        <time>2022-03-28T13:21:35Z</time>
      </trkpt>
      <trkpt lat="46.27071" lon="5.33154">
        <ele>262.8</ele>
        <time>2022-03-28T13:21:36Z</time>
      </trkpt>
      <trkpt lat="46.27063" lon="5.33164">
        <ele>261.6</ele>
        <time>2022-03-28T13:21:37Z</time>
      </trkpt>
      <trkpt lat="46.27054" lon="5.33172">
        <ele>261.2</ele>
        <time>2022-03-28T13:21:38Z</time>
      </trkpt>
      <trkpt lat="46.27045" lon="5.33177">
        <ele>260.8</ele>
        <time>2022-03-28T13:21:39Z</time>
      </trkpt>
      <trkpt lat="46.27033" lon="5.33182">
        <ele>260.2</ele>
        <time>2022-03-28T13:21:40Z</time>
      </trkpt>
      <trkpt lat="46.27005" lon="5.33191">
        <ele>259</ele>
        <time>2022-03-28T13:21:43Z</time>
      </trkpt>
      <trkpt lat="46.26986" lon="5.33199">
        <ele>258</ele>
        <time>2022-03-28T13:21:45Z</time>
      </trkpt>
      <trkpt lat="46.2698" lon="5.33202">
        <ele>257.4</ele>
        <time>2022-03-28T13:21:46Z</time>
      </trkpt>
      <trkpt lat="46.26956" lon="5.3321">
        <ele>256.4</ele>
        <time>2022-03-28T13:21:49Z</time>
      </trkpt>
      <trkpt lat="46.26947" lon="5.33213">
        <ele>256</ele>
        <time>2022-03-28T13:21:50Z</time>
      </trkpt>
      <trkpt lat="46.2692" lon="5.33225">
        <ele>255.2</ele>
        <time>2022-03-28T13:21:54Z</time>
      </trkpt>
      <trkpt lat="46.26907" lon="5.3323">
        <ele>254.8</ele>
        <time>2022-03-28T13:21:56Z</time>
      </trkpt>
      <trkpt lat="46.26857" lon="5.33249">
        <ele>254.8</ele>
        <time>2022-03-28T13:22:03Z</time>
      </trkpt>
      <trkpt lat="46.26818" lon="5.33265">
        <ele>255.8</ele>
        <time>2022-03-28T13:22:10Z</time>
      </trkpt>
      <trkpt lat="46.26809" lon="5.33269">
        <ele>256.2</ele>
        <time>2022-03-28T13:22:12Z</time>
      </trkpt>
      <trkpt lat="46.26793" lon="5.33276">
        <ele>257.4</ele>
        <time>2022-03-28T13:22:15Z</time>
      </trkpt>
      <trkpt lat="46.26783" lon="5.33279">
        <ele>258.2</ele>
        <time>2022-03-28T13:22:17Z</time>
      </trkpt>
      <trkpt lat="46.26778" lon="5.33281">
        <ele>258.4</ele>
        <time>2022-03-28T13:22:18Z</time>
      </trkpt>
      <trkpt lat="46.26742" lon="5.33293">
        <ele>259.6</ele>
        <time>2022-03-28T13:22:26Z</time>
      </trkpt>
      <trkpt lat="46.26732" lon="5.33296">
        <ele>260.2</ele>
        <time>2022-03-28T13:22:28Z</time>
      </trkpt>
      <trkpt lat="46.26717" lon="5.33301">
        <ele>260.6</ele>
        <time>2022-03-28T13:22:31Z</time>
      </trkpt>
      <trkpt lat="46.26709" lon="5.33304">
        <ele>261</ele>
        <time>2022-03-28T13:22:33Z</time>
      </trkpt>
      <trkpt lat="46.26705" lon="5.33304">
        <ele>261.2</ele>
        <time>2022-03-28T13:22:34Z</time>
      </trkpt>
      <trkpt lat="46.26701" lon="5.33303">
        <ele>261.4</ele>
        <time>2022-03-28T13:22:35Z</time>
      </trkpt>
      <trkpt lat="46.26695" lon="5.33296">
        <ele>261.8</ele>
        <time>2022-03-28T13:22:37Z</time>
      </trkpt>
      <trkpt lat="46.26687" lon="5.33286">
        <ele>261.8</ele>
        <time>2022-03-28T13:22:39Z</time>
      </trkpt>
      <trkpt lat="46.26673" lon="5.33262">
        <ele>262</ele>
        <time>2022-03-28T13:22:43Z</time>
      </trkpt>
      <trkpt lat="46.26659" lon="5.33241">
        <ele>262</ele>
        <time>2022-03-28T13:22:46Z</time>
      </trkpt>
      <trkpt lat="46.26646" lon="5.3323">
        <ele>262</ele>
        <time>2022-03-28T13:22:48Z</time>
      </trkpt>
      <trkpt lat="46.2664" lon="5.33226">
        <ele>261.8</ele>
        <time>2022-03-28T13:22:49Z</time>
      </trkpt>
      <trkpt lat="46.26619" lon="5.3322">
        <ele>260.8</ele>
        <time>2022-03-28T13:22:52Z</time>
      </trkpt>
      <trkpt lat="46.26605" lon="5.33217">
        <ele>260.6</ele>
        <time>2022-03-28T13:22:54Z</time>
      </trkpt>
      <trkpt lat="46.26554" lon="5.33209">
        <ele>260.2</ele>
        <time>2022-03-28T13:23:01Z</time>
      </trkpt>
      <trkpt lat="46.26532" lon="5.3321">
        <ele>259.6</ele>
        <time>2022-03-28T13:23:04Z</time>
      </trkpt>
      <trkpt lat="46.26523" lon="5.3321">
        <ele>259.4</ele>
        <time>2022-03-28T13:23:05Z</time>
      </trkpt>
      <trkpt lat="46.26507" lon="5.33203">
        <ele>259</ele>
        <time>2022-03-28T13:23:07Z</time>
      </trkpt>
      <trkpt lat="46.26494" lon="5.33188">
        <ele>258.4</ele>
        <time>2022-03-28T13:23:09Z</time>
      </trkpt>
      <trkpt lat="46.2649" lon="5.33179">
        <ele>258</ele>
        <time>2022-03-28T13:23:10Z</time>
      </trkpt>
      <trkpt lat="46.26476" lon="5.3314">
        <ele>257.4</ele>
        <time>2022-03-28T13:23:14Z</time>
      </trkpt>
      <trkpt lat="46.26468" lon="5.33118">
        <ele>257.2</ele>
        <time>2022-03-28T13:23:16Z</time>
      </trkpt>
      <trkpt lat="46.26447" lon="5.33063">
        <ele>257.2</ele>
        <time>2022-03-28T13:23:22Z</time>
      </trkpt>
      <trkpt lat="46.2644" lon="5.33043">
        <ele>257.2</ele>
        <time>2022-03-28T13:23:24Z</time>
      </trkpt>
      <trkpt lat="46.26438" lon="5.33025">
        <ele>257.2</ele>
        <time>2022-03-28T13:23:26Z</time>
      </trkpt>
      <trkpt lat="46.26434" lon="5.32988">
        <ele>257.8</ele>
        <time>2022-03-28T13:23:31Z</time>
      </trkpt>
      <trkpt lat="46.26432" lon="5.32974">
        <ele>258</ele>
        <time>2022-03-28T13:23:33Z</time>
      </trkpt>
      <trkpt lat="46.26428" lon="5.32956">
        <ele>258.4</ele>
        <time>2022-03-28T13:23:36Z</time>
      </trkpt>
      <trkpt lat="46.26426" lon="5.32952">
        <ele>258.6</ele>
        <time>2022-03-28T13:23:37Z</time>
      </trkpt>
      <trkpt lat="46.26416" lon="5.32932">
        <ele>259.8</ele>
        <time>2022-03-28T13:23:41Z</time>
      </trkpt>
      <trkpt lat="46.26408" lon="5.32918">
        <ele>260.4</ele>
        <time>2022-03-28T13:23:44Z</time>
      </trkpt>
      <trkpt lat="46.26403" lon="5.32908">
        <ele>261</ele>
        <time>2022-03-28T13:23:46Z</time>
      </trkpt>
      <trkpt lat="46.26396" lon="5.32888">
        <ele>262.4</ele>
        <time>2022-03-28T13:23:50Z</time>
      </trkpt>
      <trkpt lat="46.2639" lon="5.32868">
        <ele>263.4</ele>
        <time>2022-03-28T13:23:54Z</time>
      </trkpt>
      <trkpt lat="46.26386" lon="5.32858">
        <ele>264.4</ele>
        <time>2022-03-28T13:23:56Z</time>
      </trkpt>
      <trkpt lat="46.26384" lon="5.32852">
        <ele>265</ele>
        <time>2022-03-28T13:23:57Z</time>
      </trkpt>
      <trkpt lat="46.26378" lon="5.3283">
        <ele>266.2</ele>
        <time>2022-03-28T13:24:01Z</time>
      </trkpt>
      <trkpt lat="46.26371" lon="5.32812">
        <ele>266.6</ele>
        <time>2022-03-28T13:24:04Z</time>
      </trkpt>
      <trkpt lat="46.26364" lon="5.32796">
        <ele>267.2</ele>
        <time>2022-03-28T13:24:07Z</time>
      </trkpt>
      <trkpt lat="46.26361" lon="5.32789">
        <ele>267.8</ele>
        <time>2022-03-28T13:24:08Z</time>
      </trkpt>
      <trkpt lat="46.26355" lon="5.3278">
        <ele>268.2</ele>
        <time>2022-03-28T13:24:10Z</time>
      </trkpt>
      <trkpt lat="46.26351" lon="5.32775">
        <ele>268.6</ele>
        <time>2022-03-28T13:24:11Z</time>
      </trkpt>
      <trkpt lat="46.26338" lon="5.32756">
        <ele>269.4</ele>
        <time>2022-03-28T13:24:15Z</time>
      </trkpt>
      <trkpt lat="46.26328" lon="5.32744">
        <ele>270</ele>
        <time>2022-03-28T13:24:18Z</time>
      </trkpt>
      <trkpt lat="46.26324" lon="5.3274">
        <ele>270.2</ele>
        <time>2022-03-28T13:24:19Z</time>
      </trkpt>
      <trkpt lat="46.2632" lon="5.32738">
        <ele>270.4</ele>
        <time>2022-03-28T13:24:20Z</time>
      </trkpt>
      <trkpt lat="46.26311" lon="5.32735">
        <ele>270.6</ele>
        <time>2022-03-28T13:24:22Z</time>
      </trkpt>
      <trkpt lat="46.26306" lon="5.32736">
        <ele>270.6</ele>
        <time>2022-03-28T13:24:23Z</time>
      </trkpt>
      <trkpt lat="46.26272" lon="5.32744">
        <ele>271</ele>
        <time>2022-03-28T13:24:30Z</time>
      </trkpt>
      <trkpt lat="46.26225" lon="5.32743">
        <ele>271.4</ele>
        <time>2022-03-28T13:24:39Z</time>
      </trkpt>
      <trkpt lat="46.26204" lon="5.32743">
        <ele>271.6</ele>
        <time>2022-03-28T13:24:43Z</time>
      </trkpt>
      <trkpt lat="46.26184" lon="5.32744">
        <ele>271.8</ele>
        <time>2022-03-28T13:24:47Z</time>
      </trkpt>
      <trkpt lat="46.26131" lon="5.32751">
        <ele>272.4</ele>
        <time>2022-03-28T13:24:57Z</time>
      </trkpt>
      <trkpt lat="46.26093" lon="5.32758">
        <ele>272.4</ele>
        <time>2022-03-28T13:25:04Z</time>
      </trkpt>
      <trkpt lat="46.26048" lon="5.32771">
        <ele>272.6</ele>
        <time>2022-03-28T13:25:12Z</time>
      </trkpt>
      <trkpt lat="46.26033" lon="5.32778">
        <ele>273</ele>
        <time>2022-03-28T13:25:15Z</time>
      </trkpt>
      <trkpt lat="46.26006" lon="5.32793">
        <ele>273.2</ele>
        <time>2022-03-28T13:25:20Z</time>
      </trkpt>
      <trkpt lat="46.25978" lon="5.32811">
        <ele>273.6</ele>
        <time>2022-03-28T13:25:25Z</time>
      </trkpt>
      <trkpt lat="46.25956" lon="5.32825">
        <ele>273.6</ele>
        <time>2022-03-28T13:25:29Z</time>
      </trkpt>
      <trkpt lat="46.25917" lon="5.3285">
        <ele>273.6</ele>
        <time>2022-03-28T13:25:37Z</time>
      </trkpt>
      <trkpt lat="46.25912" lon="5.32852">
        <ele>273.6</ele>
        <time>2022-03-28T13:25:38Z</time>
      </trkpt>
      <trkpt lat="46.25905" lon="5.32857">
        <ele>273.6</ele>
        <time>2022-03-28T13:25:40Z</time>
      </trkpt>
      <trkpt lat="46.25899" lon="5.32866">
        <ele>273.6</ele>
        <time>2022-03-28T13:25:42Z</time>
      </trkpt>
      <trkpt lat="46.25889" lon="5.32876">
        <ele>273.6</ele>
        <time>2022-03-28T13:25:44Z</time>
      </trkpt>
      <trkpt lat="46.25858" lon="5.32903">
        <ele>273.6</ele>
        <time>2022-03-28T13:25:50Z</time>
      </trkpt>
      <trkpt lat="46.25854" lon="5.32909">
        <ele>273.6</ele>
        <time>2022-03-28T13:25:51Z</time>
      </trkpt>
      <trkpt lat="46.25847" lon="5.32924">
        <ele>273.8</ele>
        <time>2022-03-28T13:25:53Z</time>
      </trkpt>
      <trkpt lat="46.25846" lon="5.32941">
        <ele>274</ele>
        <time>2022-03-28T13:25:55Z</time>
      </trkpt>
      <trkpt lat="46.25847" lon="5.3295">
        <ele>274.2</ele>
        <time>2022-03-28T13:25:56Z</time>
      </trkpt>
      <trkpt lat="46.25851" lon="5.32985">
        <ele>274.8</ele>
        <time>2022-03-28T13:26:00Z</time>
      </trkpt>
      <trkpt lat="46.25852" lon="5.33002">
        <ele>274.8</ele>
        <time>2022-03-28T13:26:02Z</time>
      </trkpt>
      <trkpt lat="46.25853" lon="5.3302">
        <ele>275.2</ele>
        <time>2022-03-28T13:26:04Z</time>
      </trkpt>
      <trkpt lat="46.25857" lon="5.33057">
        <ele>276</ele>
        <time>2022-03-28T13:26:08Z</time>
      </trkpt>
      <trkpt lat="46.25862" lon="5.33128">
        <ele>276.4</ele>
        <time>2022-03-28T13:26:16Z</time>
      </trkpt>
      <trkpt lat="46.2587" lon="5.33195">
        <ele>276.8</ele>
        <time>2022-03-28T13:26:23Z</time>
      </trkpt>
      <trkpt lat="46.25866" lon="5.33243">
        <ele>276.4</ele>
        <time>2022-03-28T13:26:27Z</time>
      </trkpt>
      <trkpt lat="46.25866" lon="5.33295">
        <ele>274.8</ele>
        <time>2022-03-28T13:26:31Z</time>
      </trkpt>
      <trkpt lat="46.25867" lon="5.33309">
        <ele>274.6</ele>
        <time>2022-03-28T13:26:32Z</time>
      </trkpt>
      <trkpt lat="46.25867" lon="5.33324">
        <ele>274.2</ele>
        <time>2022-03-28T13:26:33Z</time>
      </trkpt>
      <trkpt lat="46.25863" lon="5.33351">
        <ele>273.8</ele>
        <time>2022-03-28T13:26:35Z</time>
      </trkpt>
      <trkpt lat="46.25858" lon="5.33363">
        <ele>273.4</ele>
        <time>2022-03-28T13:26:36Z</time>
      </trkpt>
      <trkpt lat="46.25851" lon="5.33374">
        <ele>272.4</ele>
        <time>2022-03-28T13:26:37Z</time>
      </trkpt>
      <trkpt lat="46.25843" lon="5.33382">
        <ele>271.4</ele>
        <time>2022-03-28T13:26:38Z</time>
      </trkpt>
      <trkpt lat="46.25835" lon="5.3339">
        <ele>271.2</ele>
        <time>2022-03-28T13:26:39Z</time>
      </trkpt>
      <trkpt lat="46.25811" lon="5.33411">
        <ele>269.8</ele>
        <time>2022-03-28T13:26:42Z</time>
      </trkpt>
      <trkpt lat="46.2578" lon="5.3344">
        <ele>268.8</ele>
        <time>2022-03-28T13:26:46Z</time>
      </trkpt>
      <trkpt lat="46.25735" lon="5.33486">
        <ele>267.8</ele>
        <time>2022-03-28T13:26:52Z</time>
      </trkpt>
      <trkpt lat="46.25727" lon="5.33495">
        <ele>267.6</ele>
        <time>2022-03-28T13:26:53Z</time>
      </trkpt>
      <trkpt lat="46.25685" lon="5.33535">
        <ele>266.6</ele>
        <time>2022-03-28T13:26:58Z</time>
      </trkpt>
      <trkpt lat="46.25676" lon="5.33541">
        <ele>266.2</ele>
        <time>2022-03-28T13:26:59Z</time>
      </trkpt>
      <trkpt lat="46.25649" lon="5.33557">
        <ele>265.6</ele>
        <time>2022-03-28T13:27:02Z</time>
      </trkpt>
      <trkpt lat="46.2564" lon="5.33562">
        <ele>265.2</ele>
        <time>2022-03-28T13:27:03Z</time>
      </trkpt>
      <trkpt lat="46.25631" lon="5.33569">
        <ele>265</ele>
        <time>2022-03-28T13:27:04Z</time>
      </trkpt>
      <trkpt lat="46.25606" lon="5.33586">
        <ele>264.4</ele>
        <time>2022-03-28T13:27:07Z</time>
      </trkpt>
      <trkpt lat="46.2558" lon="5.33601">
        <ele>264</ele>
        <time>2022-03-28T13:27:10Z</time>
      </trkpt>
      <trkpt lat="46.25524" lon="5.3363">
        <ele>263.8</ele>
        <time>2022-03-28T13:27:17Z</time>
      </trkpt>
      <trkpt lat="46.25473" lon="5.33658">
        <ele>264</ele>
        <time>2022-03-28T13:27:24Z</time>
      </trkpt>
      <trkpt lat="46.25466" lon="5.33662">
        <ele>264</ele>
        <time>2022-03-28T13:27:25Z</time>
      </trkpt>
      <trkpt lat="46.25411" lon="5.33689">
        <ele>264.2</ele>
        <time>2022-03-28T13:27:33Z</time>
      </trkpt>
      <trkpt lat="46.25357" lon="5.33718">
        <ele>264</ele>
        <time>2022-03-28T13:27:41Z</time>
      </trkpt>
      <trkpt lat="46.2535" lon="5.33721">
        <ele>264</ele>
        <time>2022-03-28T13:27:42Z</time>
      </trkpt>
      <trkpt lat="46.25344" lon="5.33723">
        <ele>264</ele>
        <time>2022-03-28T13:27:43Z</time>
      </trkpt>
      <trkpt lat="46.25325" lon="5.33732">
        <ele>264</ele>
        <time>2022-03-28T13:27:46Z</time>
      </trkpt>
      <trkpt lat="46.25318" lon="5.33736">
        <ele>264</ele>
        <time>2022-03-28T13:27:47Z</time>
      </trkpt>
      <trkpt lat="46.25301" lon="5.33753">
        <ele>264.2</ele>
        <time>2022-03-28T13:27:50Z</time>
      </trkpt>
      <trkpt lat="46.25277" lon="5.33789">
        <ele>264.4</ele>
        <time>2022-03-28T13:27:55Z</time>
      </trkpt>
      <trkpt lat="46.2525" lon="5.33845">
        <ele>264.6</ele>
        <time>2022-03-28T13:28:02Z</time>
      </trkpt>
      <trkpt lat="46.25221" lon="5.33905">
        <ele>265</ele>
        <time>2022-03-28T13:28:10Z</time>
      </trkpt>
      <trkpt lat="46.25202" lon="5.33944">
        <ele>265.4</ele>
        <time>2022-03-28T13:28:16Z</time>
      </trkpt>
      <trkpt lat="46.252" lon="5.33951">
        <ele>265.4</ele>
        <time>2022-03-28T13:28:17Z</time>
      </trkpt>
      <trkpt lat="46.25192" lon="5.33985">
        <ele>266.4</ele>
        <time>2022-03-28T13:28:21Z</time>
      </trkpt>
      <trkpt lat="46.25188" lon="5.33994">
        <ele>266.8</ele>
        <time>2022-03-28T13:28:22Z</time>
      </trkpt>
      <trkpt lat="46.25179" lon="5.34007">
        <ele>266.8</ele>
        <time>2022-03-28T13:28:24Z</time>
      </trkpt>
      <trkpt lat="46.25173" lon="5.34012">
        <ele>267</ele>
        <time>2022-03-28T13:28:25Z</time>
      </trkpt>
      <trkpt lat="46.2515" lon="5.34034">
        <ele>267</ele>
        <time>2022-03-28T13:28:29Z</time>
      </trkpt>
      <trkpt lat="46.2514" lon="5.34048">
        <ele>267</ele>
        <time>2022-03-28T13:28:31Z</time>
      </trkpt>
      <trkpt lat="46.25133" lon="5.34064">
        <ele>267</ele>
        <time>2022-03-28T13:28:33Z</time>
      </trkpt>
      <trkpt lat="46.25128" lon="5.34082">
        <ele>267.2</ele>
        <time>2022-03-28T13:28:35Z</time>
      </trkpt>
      <trkpt lat="46.25105" lon="5.34152">
        <ele>267.2</ele>
        <time>2022-03-28T13:28:43Z</time>
      </trkpt>
      <trkpt lat="46.25075" lon="5.34224">
        <ele>267.4</ele>
        <time>2022-03-28T13:28:52Z</time>
      </trkpt>
      <trkpt lat="46.25072" lon="5.34232">
        <ele>267.6</ele>
        <time>2022-03-28T13:28:53Z</time>
      </trkpt>
      <trkpt lat="46.25053" lon="5.34288">
        <ele>267.8</ele>
        <time>2022-03-28T13:29:00Z</time>
      </trkpt>
      <trkpt lat="46.25041" lon="5.34319">
        <ele>268</ele>
        <time>2022-03-28T13:29:04Z</time>
      </trkpt>
      <trkpt lat="46.25017" lon="5.34379">
        <ele>268.8</ele>
        <time>2022-03-28T13:29:12Z</time>
      </trkpt>
      <trkpt lat="46.25014" lon="5.34387">
        <ele>268.8</ele>
        <time>2022-03-28T13:29:13Z</time>
      </trkpt>
      <trkpt lat="46.2501" lon="5.34394">
        <ele>268.8</ele>
        <time>2022-03-28T13:29:14Z</time>
      </trkpt>
      <trkpt lat="46.25001" lon="5.34404">
        <ele>269</ele>
        <time>2022-03-28T13:29:16Z</time>
      </trkpt>
      <trkpt lat="46.24989" lon="5.34408">
        <ele>269</ele>
        <time>2022-03-28T13:29:18Z</time>
      </trkpt>
      <trkpt lat="46.24983" lon="5.34407">
        <ele>269.2</ele>
        <time>2022-03-28T13:29:19Z</time>
      </trkpt>
      <trkpt lat="46.24977" lon="5.34404">
        <ele>269.2</ele>
        <time>2022-03-28T13:29:20Z</time>
      </trkpt>
      <trkpt lat="46.24966" lon="5.34399">
        <ele>269.4</ele>
        <time>2022-03-28T13:29:22Z</time>
      </trkpt>
      <trkpt lat="46.24962" lon="5.34398">
        <ele>269.6</ele>
        <time>2022-03-28T13:29:23Z</time>
      </trkpt>
      <trkpt lat="46.24957" lon="5.34399">
        <ele>269.6</ele>
        <time>2022-03-28T13:29:24Z</time>
      </trkpt>
      <trkpt lat="46.2495" lon="5.34401">
        <ele>269.8</ele>
        <time>2022-03-28T13:29:25Z</time>
      </trkpt>
      <trkpt lat="46.24946" lon="5.34405">
        <ele>269.8</ele>
        <time>2022-03-28T13:29:26Z</time>
      </trkpt>
      <trkpt lat="46.24924" lon="5.3443">
        <ele>270.8</ele>
        <time>2022-03-28T13:29:31Z</time>
      </trkpt>
      <trkpt lat="46.24889" lon="5.34472">
        <ele>271.6</ele>
        <time>2022-03-28T13:29:39Z</time>
      </trkpt>
      <trkpt lat="46.24869" lon="5.34497">
        <ele>272</ele>
        <time>2022-03-28T13:29:44Z</time>
      </trkpt>
      <trkpt lat="46.2486" lon="5.34502">
        <ele>272.4</ele>
        <time>2022-03-28T13:29:46Z</time>
      </trkpt>
      <trkpt lat="46.2485" lon="5.34502">
        <ele>272.8</ele>
        <time>2022-03-28T13:29:48Z</time>
      </trkpt>
      <trkpt lat="46.24844" lon="5.345">
        <ele>273.2</ele>
        <time>2022-03-28T13:29:49Z</time>
      </trkpt>
      <trkpt lat="46.24839" lon="5.34497">
        <ele>273.2</ele>
        <time>2022-03-28T13:29:50Z</time>
      </trkpt>
      <trkpt lat="46.24824" lon="5.3449">
        <ele>273.6</ele>
        <time>2022-03-28T13:29:53Z</time>
      </trkpt>
      <trkpt lat="46.24814" lon="5.34489">
        <ele>273.8</ele>
        <time>2022-03-28T13:29:55Z</time>
      </trkpt>
      <trkpt lat="46.2481" lon="5.3449">
        <ele>274</ele>
        <time>2022-03-28T13:29:56Z</time>
      </trkpt>
      <trkpt lat="46.24805" lon="5.34492">
        <ele>274.2</ele>
        <time>2022-03-28T13:29:57Z</time>
      </trkpt>
      <trkpt lat="46.24801" lon="5.34494">
        <ele>274.4</ele>
        <time>2022-03-28T13:29:58Z</time>
      </trkpt>
      <trkpt lat="46.24788" lon="5.34503">
        <ele>274.8</ele>
        <time>2022-03-28T13:30:01Z</time>
      </trkpt>
      <trkpt lat="46.2478" lon="5.34509">
        <ele>275.8</ele>
        <time>2022-03-28T13:30:03Z</time>
      </trkpt>
      <trkpt lat="46.24766" lon="5.34514">
        <ele>276.4</ele>
        <time>2022-03-28T13:30:06Z</time>
      </trkpt>
      <trkpt lat="46.24761" lon="5.34513">
        <ele>276.6</ele>
        <time>2022-03-28T13:30:07Z</time>
      </trkpt>
      <trkpt lat="46.24756" lon="5.34511">
        <ele>276.6</ele>
        <time>2022-03-28T13:30:08Z</time>
      </trkpt>
      <trkpt lat="46.24752" lon="5.34508">
        <ele>276.8</ele>
        <time>2022-03-28T13:30:09Z</time>
      </trkpt>
      <trkpt lat="46.24745" lon="5.34503">
        <ele>277</ele>
        <time>2022-03-28T13:30:11Z</time>
      </trkpt>
      <trkpt lat="46.24742" lon="5.34502">
        <ele>277</ele>
        <time>2022-03-28T13:30:12Z</time>
      </trkpt>
      <trkpt lat="46.24736" lon="5.34509">
        <ele>277.2</ele>
        <time>2022-03-28T13:30:14Z</time>
      </trkpt>
      <trkpt lat="46.24727" lon="5.34538">
        <ele>277.4</ele>
        <time>2022-03-28T13:30:18Z</time>
      </trkpt>
      <trkpt lat="46.24708" lon="5.34589">
        <ele>277.6</ele>
        <time>2022-03-28T13:30:24Z</time>
      </trkpt>
      <trkpt lat="46.24689" lon="5.34631">
        <ele>278</ele>
        <time>2022-03-28T13:30:29Z</time>
      </trkpt>
      <trkpt lat="46.24682" lon="5.34647">
        <ele>278.2</ele>
        <time>2022-03-28T13:30:31Z</time>
      </trkpt>
      <trkpt lat="46.24659" lon="5.34708">
        <ele>277.8</ele>
        <time>2022-03-28T13:30:38Z</time>
      </trkpt>
      <trkpt lat="46.24653" lon="5.34735">
        <ele>277.8</ele>
        <time>2022-03-28T13:30:41Z</time>
      </trkpt>
      <trkpt lat="46.24649" lon="5.34764">
        <ele>278</ele>
        <time>2022-03-28T13:30:44Z</time>
      </trkpt>
      <trkpt lat="46.24645" lon="5.34801">
        <ele>278.2</ele>
        <time>2022-03-28T13:30:48Z</time>
      </trkpt>
      <trkpt lat="46.2464" lon="5.34818">
        <ele>278.2</ele>
        <time>2022-03-28T13:30:50Z</time>
      </trkpt>
      <trkpt lat="46.24631" lon="5.34852">
        <ele>279</ele>
        <time>2022-03-28T13:30:54Z</time>
      </trkpt>
      <trkpt lat="46.24627" lon="5.34867">
        <ele>279.2</ele>
        <time>2022-03-28T13:30:56Z</time>
      </trkpt>
      <trkpt lat="46.24616" lon="5.34899">
        <ele>280</ele>
        <time>2022-03-28T13:31:01Z</time>
      </trkpt>
      <trkpt lat="46.24613" lon="5.34905">
        <ele>280</ele>
        <time>2022-03-28T13:31:02Z</time>
      </trkpt>
      <trkpt lat="46.24609" lon="5.34916">
        <ele>280.4</ele>
        <time>2022-03-28T13:31:04Z</time>
      </trkpt>
      <trkpt lat="46.24604" lon="5.34935">
        <ele>281.4</ele>
        <time>2022-03-28T13:31:07Z</time>
      </trkpt>
      <trkpt lat="46.2459" lon="5.3499">
        <ele>282.4</ele>
        <time>2022-03-28T13:31:15Z</time>
      </trkpt>
      <trkpt lat="46.24587" lon="5.34997">
        <ele>282.4</ele>
        <time>2022-03-28T13:31:16Z</time>
      </trkpt>
      <trkpt lat="46.24564" lon="5.35046">
        <ele>282.4</ele>
        <time>2022-03-28T13:31:23Z</time>
      </trkpt>
      <trkpt lat="46.2455" lon="5.35071">
        <ele>282</ele>
        <time>2022-03-28T13:31:27Z</time>
      </trkpt>
      <trkpt lat="46.24545" lon="5.35074">
        <ele>282</ele>
        <time>2022-03-28T13:31:28Z</time>
      </trkpt>
      <trkpt lat="46.2454" lon="5.35075">
        <ele>281.8</ele>
        <time>2022-03-28T13:31:29Z</time>
      </trkpt>
      <trkpt lat="46.24535" lon="5.35073">
        <ele>281.6</ele>
        <time>2022-03-28T13:31:30Z</time>
      </trkpt>
      <trkpt lat="46.2452" lon="5.35063">
        <ele>281.2</ele>
        <time>2022-03-28T13:31:33Z</time>
      </trkpt>
      <trkpt lat="46.24495" lon="5.35044">
        <ele>281.4</ele>
        <time>2022-03-28T13:31:38Z</time>
      </trkpt>
      <trkpt lat="46.24475" lon="5.35029">
        <ele>281.8</ele>
        <time>2022-03-28T13:31:42Z</time>
      </trkpt>
      <trkpt lat="46.24469" lon="5.35025">
        <ele>281.8</ele>
        <time>2022-03-28T13:31:43Z</time>
      </trkpt>
      <trkpt lat="46.24451" lon="5.35008">
        <ele>282.4</ele>
        <time>2022-03-28T13:31:47Z</time>
      </trkpt>
      <trkpt lat="46.24426" lon="5.34987">
        <ele>283.6</ele>
        <time>2022-03-28T13:31:52Z</time>
      </trkpt>
      <trkpt lat="46.24421" lon="5.34985">
        <ele>283.8</ele>
        <time>2022-03-28T13:31:53Z</time>
      </trkpt>
      <trkpt lat="46.24411" lon="5.34982">
        <ele>284.2</ele>
        <time>2022-03-28T13:31:55Z</time>
      </trkpt>
      <trkpt lat="46.24401" lon="5.34982">
        <ele>284.6</ele>
        <time>2022-03-28T13:31:57Z</time>
      </trkpt>
      <trkpt lat="46.24396" lon="5.34983">
        <ele>284.8</ele>
        <time>2022-03-28T13:31:58Z</time>
      </trkpt>
      <trkpt lat="46.24386" lon="5.34985">
        <ele>285.4</ele>
        <time>2022-03-28T13:32:00Z</time>
      </trkpt>
      <trkpt lat="46.24378" lon="5.34985">
        <ele>285.8</ele>
        <time>2022-03-28T13:32:02Z</time>
      </trkpt>
      <trkpt lat="46.24373" lon="5.34985">
        <ele>286</ele>
        <time>2022-03-28T13:32:03Z</time>
      </trkpt>
      <trkpt lat="46.24351" lon="5.34982">
        <ele>286.8</ele>
        <time>2022-03-28T13:32:08Z</time>
      </trkpt>
      <trkpt lat="46.24333" lon="5.3498">
        <ele>287.2</ele>
        <time>2022-03-28T13:32:12Z</time>
      </trkpt>
      <trkpt lat="46.24314" lon="5.34978">
        <ele>287.8</ele>
        <time>2022-03-28T13:32:16Z</time>
      </trkpt>
      <trkpt lat="46.24289" lon="5.34973">
        <ele>288.8</ele>
        <time>2022-03-28T13:32:21Z</time>
      </trkpt>
      <trkpt lat="46.24279" lon="5.34972">
        <ele>288.8</ele>
        <time>2022-03-28T13:32:23Z</time>
      </trkpt>
      <trkpt lat="46.24249" lon="5.34964">
        <ele>289.2</ele>
        <time>2022-03-28T13:32:29Z</time>
      </trkpt>
      <trkpt lat="46.24244" lon="5.34962">
        <ele>289.2</ele>
        <time>2022-03-28T13:32:30Z</time>
      </trkpt>
      <trkpt lat="46.24209" lon="5.34942">
        <ele>289.4</ele>
        <time>2022-03-28T13:32:37Z</time>
      </trkpt>
      <trkpt lat="46.24205" lon="5.3494">
        <ele>289.4</ele>
        <time>2022-03-28T13:32:38Z</time>
      </trkpt>
      <trkpt lat="46.24197" lon="5.3494">
        <ele>289.6</ele>
        <time>2022-03-28T13:32:40Z</time>
      </trkpt>
      <trkpt lat="46.24195" lon="5.34945">
        <ele>289.6</ele>
        <time>2022-03-28T13:32:41Z</time>
      </trkpt>
      <trkpt lat="46.24193" lon="5.34951">
        <ele>289.6</ele>
        <time>2022-03-28T13:32:42Z</time>
      </trkpt>
      <trkpt lat="46.24187" lon="5.34975">
        <ele>290</ele>
        <time>2022-03-28T13:32:45Z</time>
      </trkpt>
      <trkpt lat="46.24181" lon="5.35009">
        <ele>290.4</ele>
        <time>2022-03-28T13:32:50Z</time>
      </trkpt>
      <trkpt lat="46.24176" lon="5.35038">
        <ele>290.8</ele>
        <time>2022-03-28T13:32:55Z</time>
      </trkpt>
      <trkpt lat="46.24171" lon="5.3505">
        <ele>291.2</ele>
        <time>2022-03-28T13:32:57Z</time>
      </trkpt>
      <trkpt lat="46.24164" lon="5.35056">
        <ele>292</ele>
        <time>2022-03-28T13:32:59Z</time>
      </trkpt>
      <trkpt lat="46.24159" lon="5.35057">
        <ele>292.2</ele>
        <time>2022-03-28T13:33:00Z</time>
      </trkpt>
      <trkpt lat="46.24156" lon="5.35059">
        <ele>292.4</ele>
        <time>2022-03-28T13:33:01Z</time>
      </trkpt>
      <trkpt lat="46.24146" lon="5.35062">
        <ele>292.8</ele>
        <time>2022-03-28T13:33:03Z</time>
      </trkpt>
      <trkpt lat="46.24138" lon="5.35064">
        <ele>293.2</ele>
        <time>2022-03-28T13:33:05Z</time>
      </trkpt>
      <trkpt lat="46.24134" lon="5.35065">
        <ele>293.4</ele>
        <time>2022-03-28T13:33:06Z</time>
      </trkpt>
      <trkpt lat="46.24114" lon="5.35073">
        <ele>294.6</ele>
        <time>2022-03-28T13:33:11Z</time>
      </trkpt>
      <trkpt lat="46.24109" lon="5.35076">
        <ele>294.6</ele>
        <time>2022-03-28T13:33:12Z</time>
      </trkpt>
      <trkpt lat="46.24105" lon="5.35079">
        <ele>294.8</ele>
        <time>2022-03-28T13:33:13Z</time>
      </trkpt>
      <trkpt lat="46.24094" lon="5.35094">
        <ele>296</ele>
        <time>2022-03-28T13:33:17Z</time>
      </trkpt>
      <trkpt lat="46.24089" lon="5.35103">
        <ele>296.2</ele>
        <time>2022-03-28T13:33:19Z</time>
      </trkpt>
      <trkpt lat="46.24081" lon="5.35117">
        <ele>296.8</ele>
        <time>2022-03-28T13:33:23Z</time>
      </trkpt>
      <trkpt lat="46.24079" lon="5.3512">
        <ele>297.2</ele>
        <time>2022-03-28T13:33:24Z</time>
      </trkpt>
      <trkpt lat="46.24073" lon="5.35129">
        <ele>298.6</ele>
        <time>2022-03-28T13:33:27Z</time>
      </trkpt>
      <trkpt lat="46.24059" lon="5.35149">
        <ele>300</ele>
        <time>2022-03-28T13:33:32Z</time>
      </trkpt>
      <trkpt lat="46.24044" lon="5.3517">
        <ele>300.8</ele>
        <time>2022-03-28T13:33:37Z</time>
      </trkpt>
      <trkpt lat="46.24038" lon="5.35178">
        <ele>301.2</ele>
        <time>2022-03-28T13:33:39Z</time>
      </trkpt>
      <trkpt lat="46.2403" lon="5.35192">
        <ele>301.8</ele>
        <time>2022-03-28T13:33:43Z</time>
      </trkpt>
      <trkpt lat="46.24024" lon="5.35199">
        <ele>302.2</ele>
        <time>2022-03-28T13:33:45Z</time>
      </trkpt>
      <trkpt lat="46.24011" lon="5.35214">
        <ele>303.2</ele>
        <time>2022-03-28T13:33:49Z</time>
      </trkpt>
      <trkpt lat="46.24007" lon="5.35217">
        <ele>303.4</ele>
        <time>2022-03-28T13:33:50Z</time>
      </trkpt>
      <trkpt lat="46.23991" lon="5.35234">
        <ele>303.8</ele>
        <time>2022-03-28T13:33:54Z</time>
      </trkpt>
      <trkpt lat="46.23968" lon="5.35253">
        <ele>304.2</ele>
        <time>2022-03-28T13:33:59Z</time>
      </trkpt>
      <trkpt lat="46.23934" lon="5.35262">
        <ele>304.4</ele>
        <time>2022-03-28T13:34:05Z</time>
      </trkpt>
      <trkpt lat="46.2389" lon="5.35268">
        <ele>304.2</ele>
        <time>2022-03-28T13:34:12Z</time>
      </trkpt>
      <trkpt lat="46.23882" lon="5.3527">
        <ele>304.2</ele>
        <time>2022-03-28T13:34:13Z</time>
      </trkpt>
      <trkpt lat="46.23862" lon="5.35275">
        <ele>303.8</ele>
        <time>2022-03-28T13:34:16Z</time>
      </trkpt>
      <trkpt lat="46.23823" lon="5.35295">
        <ele>303.2</ele>
        <time>2022-03-28T13:34:22Z</time>
      </trkpt>
      <trkpt lat="46.23818" lon="5.353">
        <ele>303</ele>
        <time>2022-03-28T13:34:23Z</time>
      </trkpt>
      <trkpt lat="46.23813" lon="5.35307">
        <ele>303</ele>
        <time>2022-03-28T13:34:24Z</time>
      </trkpt>
      <trkpt lat="46.2381" lon="5.35325">
        <ele>303</ele>
        <time>2022-03-28T13:34:26Z</time>
      </trkpt>
      <trkpt lat="46.23808" lon="5.35353">
        <ele>302.6</ele>
        <time>2022-03-28T13:34:29Z</time>
      </trkpt>
      <trkpt lat="46.23804" lon="5.35371">
        <ele>302.2</ele>
        <time>2022-03-28T13:34:31Z</time>
      </trkpt>
      <trkpt lat="46.23789" lon="5.35398">
        <ele>302.4</ele>
        <time>2022-03-28T13:34:35Z</time>
      </trkpt>
      <trkpt lat="46.23768" lon="5.35433">
        <ele>303</ele>
        <time>2022-03-28T13:34:41Z</time>
      </trkpt>
      <trkpt lat="46.23749" lon="5.35464">
        <ele>303.8</ele>
        <time>2022-03-28T13:34:47Z</time>
      </trkpt>
      <trkpt lat="46.23736" lon="5.35481">
        <ele>304.6</ele>
        <time>2022-03-28T13:34:51Z</time>
      </trkpt>
      <trkpt lat="46.23729" lon="5.35489">
        <ele>305</ele>
        <time>2022-03-28T13:34:53Z</time>
      </trkpt>
      <trkpt lat="46.23722" lon="5.35498">
        <ele>305.4</ele>
        <time>2022-03-28T13:34:55Z</time>
      </trkpt>
      <trkpt lat="46.23718" lon="5.35502">
        <ele>305.8</ele>
        <time>2022-03-28T13:34:56Z</time>
      </trkpt>
      <trkpt lat="46.23714" lon="5.35507">
        <ele>306</ele>
        <time>2022-03-28T13:34:57Z</time>
      </trkpt>
      <trkpt lat="46.2371" lon="5.35511">
        <ele>306.2</ele>
        <time>2022-03-28T13:34:58Z</time>
      </trkpt>
      <trkpt lat="46.23688" lon="5.35544">
        <ele>306.6</ele>
        <time>2022-03-28T13:35:04Z</time>
      </trkpt>
      <trkpt lat="46.23682" lon="5.35556">
        <ele>307</ele>
        <time>2022-03-28T13:35:06Z</time>
      </trkpt>
      <trkpt lat="46.23677" lon="5.3557">
        <ele>307.4</ele>
        <time>2022-03-28T13:35:08Z</time>
      </trkpt>
      <trkpt lat="46.23674" lon="5.35584">
        <ele>307.6</ele>
        <time>2022-03-28T13:35:10Z</time>
      </trkpt>
      <trkpt lat="46.23673" lon="5.35591">
        <ele>307.6</ele>
        <time>2022-03-28T13:35:11Z</time>
      </trkpt>
      <trkpt lat="46.23673" lon="5.35598">
        <ele>307.8</ele>
        <time>2022-03-28T13:35:12Z</time>
      </trkpt>
      <trkpt lat="46.23676" lon="5.35614">
        <ele>308</ele>
        <time>2022-03-28T13:35:14Z</time>
      </trkpt>
      <trkpt lat="46.23682" lon="5.35653">
        <ele>309</ele>
        <time>2022-03-28T13:35:19Z</time>
      </trkpt>
      <trkpt lat="46.23686" lon="5.35686">
        <ele>309.2</ele>
        <time>2022-03-28T13:35:23Z</time>
      </trkpt>
      <trkpt lat="46.23698" lon="5.35731">
        <ele>310</ele>
        <time>2022-03-28T13:35:29Z</time>
      </trkpt>
      <trkpt lat="46.237" lon="5.35739">
        <ele>310</ele>
        <time>2022-03-28T13:35:30Z</time>
      </trkpt>
      <trkpt lat="46.23705" lon="5.35753">
        <ele>310.2</ele>
        <time>2022-03-28T13:35:32Z</time>
      </trkpt>
      <trkpt lat="46.23717" lon="5.3578">
        <ele>310.6</ele>
        <time>2022-03-28T13:35:36Z</time>
      </trkpt>
      <trkpt lat="46.23731" lon="5.35806">
        <ele>311.4</ele>
        <time>2022-03-28T13:35:40Z</time>
      </trkpt>
      <trkpt lat="46.23742" lon="5.35824">
        <ele>311.8</ele>
        <time>2022-03-28T13:35:43Z</time>
      </trkpt>
      <trkpt lat="46.23752" lon="5.35838">
        <ele>312.4</ele>
        <time>2022-03-28T13:35:46Z</time>
      </trkpt>
      <trkpt lat="46.23759" lon="5.35848">
        <ele>312.8</ele>
        <time>2022-03-28T13:35:48Z</time>
      </trkpt>
      <trkpt lat="46.23763" lon="5.35854">
        <ele>313</ele>
        <time>2022-03-28T13:35:49Z</time>
      </trkpt>
      <trkpt lat="46.23767" lon="5.35858">
        <ele>313.2</ele>
        <time>2022-03-28T13:35:50Z</time>
      </trkpt>
      <trkpt lat="46.23785" lon="5.35877">
        <ele>313.8</ele>
        <time>2022-03-28T13:35:54Z</time>
      </trkpt>
      <trkpt lat="46.23794" lon="5.35884">
        <ele>314.2</ele>
        <time>2022-03-28T13:35:56Z</time>
      </trkpt>
      <trkpt lat="46.2381" lon="5.35898">
        <ele>315.2</ele>
        <time>2022-03-28T13:36:00Z</time>
      </trkpt>
      <trkpt lat="46.23813" lon="5.35901">
        <ele>315.4</ele>
        <time>2022-03-28T13:36:01Z</time>
      </trkpt>
      <trkpt lat="46.23817" lon="5.35904">
        <ele>315.6</ele>
        <time>2022-03-28T13:36:02Z</time>
      </trkpt>
      <trkpt lat="46.23826" lon="5.35908">
        <ele>316</ele>
        <time>2022-03-28T13:36:04Z</time>
      </trkpt>
      <trkpt lat="46.23831" lon="5.35909">
        <ele>316.2</ele>
        <time>2022-03-28T13:36:05Z</time>
      </trkpt>
      <trkpt lat="46.23846" lon="5.35912">
        <ele>316.6</ele>
        <time>2022-03-28T13:36:08Z</time>
      </trkpt>
      <trkpt lat="46.23872" lon="5.35915">
        <ele>317.2</ele>
        <time>2022-03-28T13:36:13Z</time>
      </trkpt>
      <trkpt lat="46.23892" lon="5.35921">
        <ele>317.8</ele>
        <time>2022-03-28T13:36:17Z</time>
      </trkpt>
      <trkpt lat="46.23906" lon="5.35929">
        <ele>318.4</ele>
        <time>2022-03-28T13:36:20Z</time>
      </trkpt>
      <trkpt lat="46.23932" lon="5.35952">
        <ele>318.8</ele>
        <time>2022-03-28T13:36:26Z</time>
      </trkpt>
      <trkpt lat="46.23944" lon="5.35964">
        <ele>319.4</ele>
        <time>2022-03-28T13:36:29Z</time>
      </trkpt>
      <trkpt lat="46.23959" lon="5.3598">
        <ele>320.2</ele>
        <time>2022-03-28T13:36:33Z</time>
      </trkpt>
      <trkpt lat="46.23971" lon="5.35992">
        <ele>320.8</ele>
        <time>2022-03-28T13:36:36Z</time>
      </trkpt>
      <trkpt lat="46.23986" lon="5.3601">
        <ele>321.2</ele>
        <time>2022-03-28T13:36:40Z</time>
      </trkpt>
      <trkpt lat="46.23988" lon="5.36016">
        <ele>321.4</ele>
        <time>2022-03-28T13:36:41Z</time>
      </trkpt>
      <trkpt lat="46.2399" lon="5.36022">
        <ele>321.6</ele>
        <time>2022-03-28T13:36:42Z</time>
      </trkpt>
      <trkpt lat="46.2399" lon="5.36035">
        <ele>322</ele>
        <time>2022-03-28T13:36:44Z</time>
      </trkpt>
      <trkpt lat="46.23985" lon="5.36047">
        <ele>322.2</ele>
        <time>2022-03-28T13:36:46Z</time>
      </trkpt>
      <trkpt lat="46.23977" lon="5.36055">
        <ele>322.4</ele>
        <time>2022-03-28T13:36:48Z</time>
      </trkpt>
      <trkpt lat="46.23968" lon="5.3606">
        <ele>322.8</ele>
        <time>2022-03-28T13:36:50Z</time>
      </trkpt>
      <trkpt lat="46.2396" lon="5.36062">
        <ele>323</ele>
        <time>2022-03-28T13:36:52Z</time>
      </trkpt>
      <trkpt lat="46.23953" lon="5.36061">
        <ele>323.4</ele>
        <time>2022-03-28T13:36:54Z</time>
      </trkpt>
      <trkpt lat="46.23942" lon="5.36055">
        <ele>324.4</ele>
        <time>2022-03-28T13:36:57Z</time>
      </trkpt>
      <trkpt lat="46.23939" lon="5.36053">
        <ele>324.4</ele>
        <time>2022-03-28T13:36:58Z</time>
      </trkpt>
      <trkpt lat="46.23922" lon="5.36044">
        <ele>325.2</ele>
        <time>2022-03-28T13:37:03Z</time>
      </trkpt>
      <trkpt lat="46.23915" lon="5.36041">
        <ele>325.6</ele>
        <time>2022-03-28T13:37:05Z</time>
      </trkpt>
      <trkpt lat="46.23897" lon="5.36033">
        <ele>326.8</ele>
        <time>2022-03-28T13:37:10Z</time>
      </trkpt>
      <trkpt lat="46.2388" lon="5.36026">
        <ele>327.8</ele>
        <time>2022-03-28T13:37:15Z</time>
      </trkpt>
      <trkpt lat="46.23863" lon="5.36016">
        <ele>329</ele>
        <time>2022-03-28T13:37:20Z</time>
      </trkpt>
      <trkpt lat="46.23847" lon="5.36007">
        <ele>330.2</ele>
        <time>2022-03-28T13:37:25Z</time>
      </trkpt>
      <trkpt lat="46.2384" lon="5.36005">
        <ele>330.8</ele>
        <time>2022-03-28T13:37:27Z</time>
      </trkpt>
      <trkpt lat="46.23829" lon="5.36002">
        <ele>331.4</ele>
        <time>2022-03-28T13:37:30Z</time>
      </trkpt>
      <trkpt lat="46.23816" lon="5.35998">
        <ele>332.4</ele>
        <time>2022-03-28T13:37:34Z</time>
      </trkpt>
      <trkpt lat="46.23809" lon="5.35995">
        <ele>332.8</ele>
        <time>2022-03-28T13:37:36Z</time>
      </trkpt>
      <trkpt lat="46.23803" lon="5.35993">
        <ele>333.6</ele>
        <time>2022-03-28T13:37:38Z</time>
      </trkpt>
      <trkpt lat="46.23787" lon="5.35984">
        <ele>334.6</ele>
        <time>2022-03-28T13:37:43Z</time>
      </trkpt>
      <trkpt lat="46.23777" lon="5.35978">
        <ele>335.2</ele>
        <time>2022-03-28T13:37:46Z</time>
      </trkpt>
      <trkpt lat="46.23766" lon="5.35977">
        <ele>335.8</ele>
        <time>2022-03-28T13:37:49Z</time>
      </trkpt>
      <trkpt lat="46.23759" lon="5.35979">
        <ele>336.2</ele>
        <time>2022-03-28T13:37:51Z</time>
      </trkpt>
      <trkpt lat="46.23753" lon="5.35983">
        <ele>336.8</ele>
        <time>2022-03-28T13:37:53Z</time>
      </trkpt>
      <trkpt lat="46.23736" lon="5.35991">
        <ele>338</ele>
        <time>2022-03-28T13:37:58Z</time>
      </trkpt>
      <trkpt lat="46.23733" lon="5.35992">
        <ele>338.2</ele>
        <time>2022-03-28T13:37:59Z</time>
      </trkpt>
      <trkpt lat="46.23722" lon="5.3599">
        <ele>339.2</ele>
        <time>2022-03-28T13:38:02Z</time>
      </trkpt>
      <trkpt lat="46.23712" lon="5.35986">
        <ele>339.6</ele>
        <time>2022-03-28T13:38:05Z</time>
      </trkpt>
      <trkpt lat="46.23703" lon="5.3598">
        <ele>340.2</ele>
        <time>2022-03-28T13:38:08Z</time>
      </trkpt>
      <trkpt lat="46.23694" lon="5.35971">
        <ele>340.8</ele>
        <time>2022-03-28T13:38:11Z</time>
      </trkpt>
      <trkpt lat="46.23687" lon="5.35966">
        <ele>341.4</ele>
        <time>2022-03-28T13:38:13Z</time>
      </trkpt>
      <trkpt lat="46.23675" lon="5.35956">
        <ele>342.4</ele>
        <time>2022-03-28T13:38:17Z</time>
      </trkpt>
      <trkpt lat="46.23673" lon="5.35953">
        <ele>342.6</ele>
        <time>2022-03-28T13:38:18Z</time>
      </trkpt>
      <trkpt lat="46.23653" lon="5.35931">
        <ele>343.8</ele>
        <time>2022-03-28T13:38:25Z</time>
      </trkpt>
      <trkpt lat="46.23647" lon="5.35925">
        <ele>344.4</ele>
        <time>2022-03-28T13:38:27Z</time>
      </trkpt>
      <trkpt lat="46.23638" lon="5.35917">
        <ele>345</ele>
        <time>2022-03-28T13:38:30Z</time>
      </trkpt>
      <trkpt lat="46.23626" lon="5.35903">
        <ele>346</ele>
        <time>2022-03-28T13:38:34Z</time>
      </trkpt>
      <trkpt lat="46.23613" lon="5.35884">
        <ele>347.2</ele>
        <time>2022-03-28T13:38:39Z</time>
      </trkpt>
      <trkpt lat="46.23605" lon="5.35875">
        <ele>347.6</ele>
        <time>2022-03-28T13:38:42Z</time>
      </trkpt>
      <trkpt lat="46.23597" lon="5.35865">
        <ele>348.2</ele>
        <time>2022-03-28T13:38:45Z</time>
      </trkpt>
      <trkpt lat="46.23588" lon="5.35855">
        <ele>349.4</ele>
        <time>2022-03-28T13:38:48Z</time>
      </trkpt>
      <trkpt lat="46.23579" lon="5.35846">
        <ele>350</ele>
        <time>2022-03-28T13:38:51Z</time>
      </trkpt>
      <trkpt lat="46.23573" lon="5.35841">
        <ele>350.6</ele>
        <time>2022-03-28T13:38:53Z</time>
      </trkpt>
      <trkpt lat="46.23561" lon="5.3583">
        <ele>351.6</ele>
        <time>2022-03-28T13:38:57Z</time>
      </trkpt>
      <trkpt lat="46.23555" lon="5.35825">
        <ele>352</ele>
        <time>2022-03-28T13:38:59Z</time>
      </trkpt>
      <trkpt lat="46.23546" lon="5.35818">
        <ele>352.6</ele>
        <time>2022-03-28T13:39:02Z</time>
      </trkpt>
      <trkpt lat="46.23533" lon="5.35812">
        <ele>353.6</ele>
        <time>2022-03-28T13:39:06Z</time>
      </trkpt>
      <trkpt lat="46.2353" lon="5.3581">
        <ele>353.8</ele>
        <time>2022-03-28T13:39:07Z</time>
      </trkpt>
      <trkpt lat="46.23517" lon="5.35802">
        <ele>355.2</ele>
        <time>2022-03-28T13:39:11Z</time>
      </trkpt>
      <trkpt lat="46.2351" lon="5.35798">
        <ele>355.8</ele>
        <time>2022-03-28T13:39:13Z</time>
      </trkpt>
      <trkpt lat="46.23503" lon="5.35792">
        <ele>356.2</ele>
        <time>2022-03-28T13:39:15Z</time>
      </trkpt>
      <trkpt lat="46.23487" lon="5.3578">
        <ele>357</ele>
        <time>2022-03-28T13:39:20Z</time>
      </trkpt>
      <trkpt lat="46.23484" lon="5.35777">
        <ele>357.4</ele>
        <time>2022-03-28T13:39:21Z</time>
      </trkpt>
      <trkpt lat="46.23468" lon="5.35765">
        <ele>358.6</ele>
        <time>2022-03-28T13:39:26Z</time>
      </trkpt>
      <trkpt lat="46.23458" lon="5.35757">
        <ele>359.4</ele>
        <time>2022-03-28T13:39:29Z</time>
      </trkpt>
      <trkpt lat="46.23452" lon="5.35753">
        <ele>359.6</ele>
        <time>2022-03-28T13:39:31Z</time>
      </trkpt>
      <trkpt lat="46.23438" lon="5.35745">
        <ele>360.6</ele>
        <time>2022-03-28T13:39:35Z</time>
      </trkpt>
      <trkpt lat="46.23428" lon="5.3574">
        <ele>361.4</ele>
        <time>2022-03-28T13:39:38Z</time>
      </trkpt>
      <trkpt lat="46.23422" lon="5.35736">
        <ele>361.6</ele>
        <time>2022-03-28T13:39:40Z</time>
      </trkpt>
      <trkpt lat="46.2342" lon="5.35733">
        <ele>361.8</ele>
        <time>2022-03-28T13:39:41Z</time>
      </trkpt>
      <trkpt lat="46.23413" lon="5.3573">
        <ele>362.4</ele>
        <time>2022-03-28T13:39:43Z</time>
      </trkpt>
      <trkpt lat="46.2341" lon="5.35729">
        <ele>363</ele>
        <time>2022-03-28T13:39:44Z</time>
      </trkpt>
      <trkpt lat="46.23398" lon="5.35724">
        <ele>364</ele>
        <time>2022-03-28T13:39:48Z</time>
      </trkpt>
      <trkpt lat="46.23388" lon="5.35721">
        <ele>364.8</ele>
        <time>2022-03-28T13:39:51Z</time>
      </trkpt>
      <trkpt lat="46.23382" lon="5.35719">
        <ele>365</ele>
        <time>2022-03-28T13:39:53Z</time>
      </trkpt>
      <trkpt lat="46.23362" lon="5.35715">
        <ele>366</ele>
        <time>2022-03-28T13:39:59Z</time>
      </trkpt>
      <trkpt lat="46.23359" lon="5.35714">
        <ele>366.2</ele>
        <time>2022-03-28T13:40:00Z</time>
      </trkpt>
      <trkpt lat="46.23339" lon="5.35707">
        <ele>367.2</ele>
        <time>2022-03-28T13:40:06Z</time>
      </trkpt>
      <trkpt lat="46.23326" lon="5.35705">
        <ele>368.2</ele>
        <time>2022-03-28T13:40:10Z</time>
      </trkpt>
      <trkpt lat="46.23311" lon="5.35703">
        <ele>369.4</ele>
        <time>2022-03-28T13:40:15Z</time>
      </trkpt>
      <trkpt lat="46.233" lon="5.35703">
        <ele>370.6</ele>
        <time>2022-03-28T13:40:19Z</time>
      </trkpt>
      <trkpt lat="46.23295" lon="5.35705">
        <ele>371</ele>
        <time>2022-03-28T13:40:21Z</time>
      </trkpt>
      <trkpt lat="46.23289" lon="5.35709">
        <ele>371.8</ele>
        <time>2022-03-28T13:40:23Z</time>
      </trkpt>
      <trkpt lat="46.23278" lon="5.35721">
        <ele>372.4</ele>
        <time>2022-03-28T13:40:27Z</time>
      </trkpt>
      <trkpt lat="46.23273" lon="5.35729">
        <ele>372.8</ele>
        <time>2022-03-28T13:40:29Z</time>
      </trkpt>
      <trkpt lat="46.23259" lon="5.35743">
        <ele>373.6</ele>
        <time>2022-03-28T13:40:34Z</time>
      </trkpt>
      <trkpt lat="46.23256" lon="5.35744">
        <ele>373.8</ele>
        <time>2022-03-28T13:40:35Z</time>
      </trkpt>
      <trkpt lat="46.23243" lon="5.35746">
        <ele>375.2</ele>
        <time>2022-03-28T13:40:40Z</time>
      </trkpt>
      <trkpt lat="46.23237" lon="5.35746">
        <ele>375.8</ele>
        <time>2022-03-28T13:40:42Z</time>
      </trkpt>
      <trkpt lat="46.23233" lon="5.35747">
        <ele>376.4</ele>
        <time>2022-03-28T13:40:44Z</time>
      </trkpt>
      <trkpt lat="46.23224" lon="5.35751">
        <ele>377.6</ele>
        <time>2022-03-28T13:40:47Z</time>
      </trkpt>
      <trkpt lat="46.23212" lon="5.35756">
        <ele>378.4</ele>
        <time>2022-03-28T13:40:51Z</time>
      </trkpt>
      <trkpt lat="46.23208" lon="5.35757">
        <ele>378.6</ele>
        <time>2022-03-28T13:40:52Z</time>
      </trkpt>
      <trkpt lat="46.23189" lon="5.35768">
        <ele>379.8</ele>
        <time>2022-03-28T13:40:57Z</time>
      </trkpt>
      <trkpt lat="46.23186" lon="5.3577">
        <ele>380.2</ele>
        <time>2022-03-28T13:40:58Z</time>
      </trkpt>
      <trkpt lat="46.23176" lon="5.35781">
        <ele>381.2</ele>
        <time>2022-03-28T13:41:01Z</time>
      </trkpt>
      <trkpt lat="46.23168" lon="5.35786">
        <ele>381.8</ele>
        <time>2022-03-28T13:41:03Z</time>
      </trkpt>
      <trkpt lat="46.23155" lon="5.35786">
        <ele>382.4</ele>
        <time>2022-03-28T13:41:07Z</time>
      </trkpt>
      <trkpt lat="46.23139" lon="5.35793">
        <ele>382.8</ele>
        <time>2022-03-28T13:41:11Z</time>
      </trkpt>
      <trkpt lat="46.23132" lon="5.35805">
        <ele>382.8</ele>
        <time>2022-03-28T13:41:13Z</time>
      </trkpt>
      <trkpt lat="46.23129" lon="5.35813">
        <ele>382.8</ele>
        <time>2022-03-28T13:41:14Z</time>
      </trkpt>
      <trkpt lat="46.23115" lon="5.35861">
        <ele>382.4</ele>
        <time>2022-03-28T13:41:19Z</time>
      </trkpt>
      <trkpt lat="46.23094" lon="5.35926">
        <ele>381.2</ele>
        <time>2022-03-28T13:41:25Z</time>
      </trkpt>
      <trkpt lat="46.23084" lon="5.35959">
        <ele>380</ele>
        <time>2022-03-28T13:41:28Z</time>
      </trkpt>
      <trkpt lat="46.23077" lon="5.35981">
        <ele>379.8</ele>
        <time>2022-03-28T13:41:30Z</time>
      </trkpt>
      <trkpt lat="46.23066" lon="5.36014">
        <ele>378.6</ele>
        <time>2022-03-28T13:41:33Z</time>
      </trkpt>
      <trkpt lat="46.23055" lon="5.36048">
        <ele>377.2</ele>
        <time>2022-03-28T13:41:36Z</time>
      </trkpt>
      <trkpt lat="46.23044" lon="5.36084">
        <ele>376.2</ele>
        <time>2022-03-28T13:41:39Z</time>
      </trkpt>
      <trkpt lat="46.23036" lon="5.36107">
        <ele>375</ele>
        <time>2022-03-28T13:41:41Z</time>
      </trkpt>
      <trkpt lat="46.23028" lon="5.36132">
        <ele>373.4</ele>
        <time>2022-03-28T13:41:43Z</time>
      </trkpt>
      <trkpt lat="46.23021" lon="5.36157">
        <ele>372</ele>
        <time>2022-03-28T13:41:45Z</time>
      </trkpt>
      <trkpt lat="46.23012" lon="5.36182">
        <ele>371</ele>
        <time>2022-03-28T13:41:47Z</time>
      </trkpt>
      <trkpt lat="46.22996" lon="5.36235">
        <ele>370.4</ele>
        <time>2022-03-28T13:41:51Z</time>
      </trkpt>
      <trkpt lat="46.22991" lon="5.36248">
        <ele>369.8</ele>
        <time>2022-03-28T13:41:52Z</time>
      </trkpt>
      <trkpt lat="46.22983" lon="5.36276">
        <ele>368.8</ele>
        <time>2022-03-28T13:41:54Z</time>
      </trkpt>
      <trkpt lat="46.22969" lon="5.36318">
        <ele>367.6</ele>
        <time>2022-03-28T13:41:57Z</time>
      </trkpt>
      <trkpt lat="46.2296" lon="5.36346">
        <ele>366.2</ele>
        <time>2022-03-28T13:41:59Z</time>
      </trkpt>
      <trkpt lat="46.22956" lon="5.3636">
        <ele>366</ele>
        <time>2022-03-28T13:42:00Z</time>
      </trkpt>
      <trkpt lat="46.22947" lon="5.36386">
        <ele>365</ele>
        <time>2022-03-28T13:42:02Z</time>
      </trkpt>
      <trkpt lat="46.22932" lon="5.36432">
        <ele>363.6</ele>
        <time>2022-03-28T13:42:05Z</time>
      </trkpt>
      <trkpt lat="46.22919" lon="5.36473">
        <ele>362.4</ele>
        <time>2022-03-28T13:42:08Z</time>
      </trkpt>
      <trkpt lat="46.2291" lon="5.36501">
        <ele>361.2</ele>
        <time>2022-03-28T13:42:10Z</time>
      </trkpt>
      <trkpt lat="46.22897" lon="5.36541">
        <ele>360</ele>
        <time>2022-03-28T13:42:13Z</time>
      </trkpt>
      <trkpt lat="46.22888" lon="5.36568">
        <ele>359</ele>
        <time>2022-03-28T13:42:15Z</time>
      </trkpt>
      <trkpt lat="46.22884" lon="5.36581">
        <ele>358.8</ele>
        <time>2022-03-28T13:42:16Z</time>
      </trkpt>
      <trkpt lat="46.22871" lon="5.36621">
        <ele>357.8</ele>
        <time>2022-03-28T13:42:19Z</time>
      </trkpt>
      <trkpt lat="46.22858" lon="5.3666">
        <ele>356.6</ele>
        <time>2022-03-28T13:42:22Z</time>
      </trkpt>
      <trkpt lat="46.22845" lon="5.367">
        <ele>355.6</ele>
        <time>2022-03-28T13:42:25Z</time>
      </trkpt>
      <trkpt lat="46.22837" lon="5.36726">
        <ele>355</ele>
        <time>2022-03-28T13:42:27Z</time>
      </trkpt>
      <trkpt lat="46.22829" lon="5.36751">
        <ele>354.6</ele>
        <time>2022-03-28T13:42:29Z</time>
      </trkpt>
      <trkpt lat="46.22813" lon="5.36801">
        <ele>353.2</ele>
        <time>2022-03-28T13:42:33Z</time>
      </trkpt>
      <trkpt lat="46.22798" lon="5.36846">
        <ele>352.4</ele>
        <time>2022-03-28T13:42:37Z</time>
      </trkpt>
      <trkpt lat="46.22786" lon="5.36883">
        <ele>352</ele>
        <time>2022-03-28T13:42:40Z</time>
      </trkpt>
      <trkpt lat="46.2277" lon="5.36931">
        <ele>350.8</ele>
        <time>2022-03-28T13:42:44Z</time>
      </trkpt>
      <trkpt lat="46.22749" lon="5.36994">
        <ele>349.6</ele>
        <time>2022-03-28T13:42:49Z</time>
      </trkpt>
      <trkpt lat="46.22741" lon="5.3702">
        <ele>348.6</ele>
        <time>2022-03-28T13:42:51Z</time>
      </trkpt>
      <trkpt lat="46.22736" lon="5.37033">
        <ele>347.8</ele>
        <time>2022-03-28T13:42:52Z</time>
      </trkpt>
      <trkpt lat="46.22724" lon="5.37075">
        <ele>346.8</ele>
        <time>2022-03-28T13:42:55Z</time>
      </trkpt>
      <trkpt lat="46.22716" lon="5.37103">
        <ele>346</ele>
        <time>2022-03-28T13:42:57Z</time>
      </trkpt>
      <trkpt lat="46.22711" lon="5.37117">
        <ele>345.6</ele>
        <time>2022-03-28T13:42:58Z</time>
      </trkpt>
      <trkpt lat="46.22703" lon="5.37143">
        <ele>344.6</ele>
        <time>2022-03-28T13:43:00Z</time>
      </trkpt>
      <trkpt lat="46.22695" lon="5.37168">
        <ele>343</ele>
        <time>2022-03-28T13:43:02Z</time>
      </trkpt>
      <trkpt lat="46.22684" lon="5.37203">
        <ele>342.4</ele>
        <time>2022-03-28T13:43:05Z</time>
      </trkpt>
      <trkpt lat="46.22681" lon="5.37212">
        <ele>342</ele>
        <time>2022-03-28T13:43:06Z</time>
      </trkpt>
      <trkpt lat="46.22658" lon="5.3728">
        <ele>341.8</ele>
        <time>2022-03-28T13:43:12Z</time>
      </trkpt>
      <trkpt lat="46.22633" lon="5.37355">
        <ele>341.4</ele>
        <time>2022-03-28T13:43:19Z</time>
      </trkpt>
      <trkpt lat="46.22626" lon="5.37375">
        <ele>341.4</ele>
        <time>2022-03-28T13:43:21Z</time>
      </trkpt>
      <trkpt lat="46.2262" lon="5.37395">
        <ele>341.2</ele>
        <time>2022-03-28T13:43:23Z</time>
      </trkpt>
      <trkpt lat="46.22601" lon="5.37453">
        <ele>340.8</ele>
        <time>2022-03-28T13:43:29Z</time>
      </trkpt>
      <trkpt lat="46.22586" lon="5.37513">
        <ele>340.6</ele>
        <time>2022-03-28T13:43:35Z</time>
      </trkpt>
      <trkpt lat="46.22571" lon="5.37574">
        <ele>340.2</ele>
        <time>2022-03-28T13:43:41Z</time>
      </trkpt>
      <trkpt lat="46.22564" lon="5.37607">
        <ele>340</ele>
        <time>2022-03-28T13:43:44Z</time>
      </trkpt>
      <trkpt lat="46.2255" lon="5.37691">
        <ele>339.6</ele>
        <time>2022-03-28T13:43:52Z</time>
      </trkpt>
      <trkpt lat="46.22548" lon="5.37711">
        <ele>339.6</ele>
        <time>2022-03-28T13:43:54Z</time>
      </trkpt>
      <trkpt lat="46.22537" lon="5.37776">
        <ele>339.8</ele>
        <time>2022-03-28T13:44:01Z</time>
      </trkpt>
      <trkpt lat="46.22523" lon="5.37839">
        <ele>340.2</ele>
        <time>2022-03-28T13:44:08Z</time>
      </trkpt>
      <trkpt lat="46.22512" lon="5.37895">
        <ele>340.8</ele>
        <time>2022-03-28T13:44:15Z</time>
      </trkpt>
      <trkpt lat="46.2251" lon="5.37909">
        <ele>340.8</ele>
        <time>2022-03-28T13:44:17Z</time>
      </trkpt>
      <trkpt lat="46.22509" lon="5.37918">
        <ele>340.8</ele>
        <time>2022-03-28T13:44:18Z</time>
      </trkpt>
      <trkpt lat="46.22509" lon="5.37933">
        <ele>341</ele>
        <time>2022-03-28T13:44:20Z</time>
      </trkpt>
      <trkpt lat="46.2251" lon="5.3794">
        <ele>341.2</ele>
        <time>2022-03-28T13:44:21Z</time>
      </trkpt>
      <trkpt lat="46.22512" lon="5.37946">
        <ele>341.2</ele>
        <time>2022-03-28T13:44:22Z</time>
      </trkpt>
      <trkpt lat="46.22517" lon="5.3796">
        <ele>341.4</ele>
        <time>2022-03-28T13:44:24Z</time>
      </trkpt>
      <trkpt lat="46.2252" lon="5.37966">
        <ele>341.4</ele>
        <time>2022-03-28T13:44:25Z</time>
      </trkpt>
      <trkpt lat="46.22535" lon="5.37989">
        <ele>342.6</ele>
        <time>2022-03-28T13:44:30Z</time>
      </trkpt>
      <trkpt lat="46.22538" lon="5.37993">
        <ele>342.8</ele>
        <time>2022-03-28T13:44:31Z</time>
      </trkpt>
      <trkpt lat="46.22547" lon="5.38004">
        <ele>344</ele>
        <time>2022-03-28T13:44:34Z</time>
      </trkpt>
      <trkpt lat="46.2256" lon="5.38018">
        <ele>345</ele>
        <time>2022-03-28T13:44:38Z</time>
      </trkpt>
      <trkpt lat="46.22577" lon="5.38039">
        <ele>346.2</ele>
        <time>2022-03-28T13:44:44Z</time>
      </trkpt>
      <trkpt lat="46.22586" lon="5.38048">
        <ele>347</ele>
        <time>2022-03-28T13:44:47Z</time>
      </trkpt>
      <trkpt lat="46.2259" lon="5.38052">
        <ele>347.2</ele>
        <time>2022-03-28T13:44:48Z</time>
      </trkpt>
      <trkpt lat="46.22614" lon="5.3807">
        <ele>348.4</ele>
        <time>2022-03-28T13:44:55Z</time>
      </trkpt>
      <trkpt lat="46.22633" lon="5.38077">
        <ele>349.6</ele>
        <time>2022-03-28T13:45:00Z</time>
      </trkpt>
      <trkpt lat="46.22643" lon="5.38079">
        <ele>350</ele>
        <time>2022-03-28T13:45:03Z</time>
      </trkpt>
      <trkpt lat="46.22655" lon="5.38081">
        <ele>350.6</ele>
        <time>2022-03-28T13:45:06Z</time>
      </trkpt>
      <trkpt lat="46.22672" lon="5.38078">
        <ele>351.8</ele>
        <time>2022-03-28T13:45:11Z</time>
      </trkpt>
      <trkpt lat="46.22676" lon="5.38077">
        <ele>352.2</ele>
        <time>2022-03-28T13:45:12Z</time>
      </trkpt>
      <trkpt lat="46.22689" lon="5.38072">
        <ele>353.2</ele>
        <time>2022-03-28T13:45:16Z</time>
      </trkpt>
      <trkpt lat="46.22708" lon="5.38068">
        <ele>354.2</ele>
        <time>2022-03-28T13:45:21Z</time>
      </trkpt>
      <trkpt lat="46.22726" lon="5.3807">
        <ele>355.4</ele>
        <time>2022-03-28T13:45:26Z</time>
      </trkpt>
      <trkpt lat="46.22737" lon="5.3807">
        <ele>356</ele>
        <time>2022-03-28T13:45:29Z</time>
      </trkpt>
      <trkpt lat="46.22744" lon="5.3807">
        <ele>356.6</ele>
        <time>2022-03-28T13:45:31Z</time>
      </trkpt>
      <trkpt lat="46.22761" lon="5.38072">
        <ele>357.6</ele>
        <time>2022-03-28T13:45:36Z</time>
      </trkpt>
      <trkpt lat="46.22772" lon="5.38073">
        <ele>358.6</ele>
        <time>2022-03-28T13:45:39Z</time>
      </trkpt>
      <trkpt lat="46.22775" lon="5.38073">
        <ele>358.8</ele>
        <time>2022-03-28T13:45:40Z</time>
      </trkpt>
      <trkpt lat="46.22793" lon="5.38074">
        <ele>359.8</ele>
        <time>2022-03-28T13:45:45Z</time>
      </trkpt>
      <trkpt lat="46.22803" lon="5.38078">
        <ele>360.6</ele>
        <time>2022-03-28T13:45:48Z</time>
      </trkpt>
      <trkpt lat="46.22805" lon="5.38082">
        <ele>361</ele>
        <time>2022-03-28T13:45:49Z</time>
      </trkpt>
      <trkpt lat="46.22804" lon="5.38091">
        <ele>361.4</ele>
        <time>2022-03-28T13:45:51Z</time>
      </trkpt>
      <trkpt lat="46.22796" lon="5.38104">
        <ele>362.2</ele>
        <time>2022-03-28T13:45:54Z</time>
      </trkpt>
      <trkpt lat="46.22792" lon="5.38107">
        <ele>362.4</ele>
        <time>2022-03-28T13:45:55Z</time>
      </trkpt>
      <trkpt lat="46.2278" lon="5.38113">
        <ele>363.4</ele>
        <time>2022-03-28T13:45:58Z</time>
      </trkpt>
      <trkpt lat="46.2277" lon="5.3812">
        <ele>364.6</ele>
        <time>2022-03-28T13:46:01Z</time>
      </trkpt>
      <trkpt lat="46.22767" lon="5.38123">
        <ele>364.8</ele>
        <time>2022-03-28T13:46:02Z</time>
      </trkpt>
      <trkpt lat="46.22753" lon="5.38139">
        <ele>365.8</ele>
        <time>2022-03-28T13:46:07Z</time>
      </trkpt>
      <trkpt lat="46.22746" lon="5.38149">
        <ele>366.4</ele>
        <time>2022-03-28T13:46:10Z</time>
      </trkpt>
      <trkpt lat="46.22742" lon="5.38155">
        <ele>367</ele>
        <time>2022-03-28T13:46:12Z</time>
      </trkpt>
      <trkpt lat="46.22735" lon="5.38172">
        <ele>368</ele>
        <time>2022-03-28T13:46:16Z</time>
      </trkpt>
      <trkpt lat="46.22734" lon="5.38177">
        <ele>368.2</ele>
        <time>2022-03-28T13:46:17Z</time>
      </trkpt>
      <trkpt lat="46.22732" lon="5.38202">
        <ele>368.8</ele>
        <time>2022-03-28T13:46:22Z</time>
      </trkpt>
      <trkpt lat="46.22734" lon="5.38222">
        <ele>369.4</ele>
        <time>2022-03-28T13:46:26Z</time>
      </trkpt>
      <trkpt lat="46.22733" lon="5.38244">
        <ele>370.2</ele>
        <time>2022-03-28T13:46:30Z</time>
      </trkpt>
      <trkpt lat="46.22729" lon="5.38257">
        <ele>370.6</ele>
        <time>2022-03-28T13:46:33Z</time>
      </trkpt>
      <trkpt lat="46.22724" lon="5.38264">
        <ele>371.2</ele>
        <time>2022-03-28T13:46:35Z</time>
      </trkpt>
      <trkpt lat="46.22716" lon="5.38272">
        <ele>372</ele>
        <time>2022-03-28T13:46:38Z</time>
      </trkpt>
      <trkpt lat="46.22709" lon="5.38274">
        <ele>372.4</ele>
        <time>2022-03-28T13:46:40Z</time>
      </trkpt>
      <trkpt lat="46.22702" lon="5.38275">
        <ele>373</ele>
        <time>2022-03-28T13:46:42Z</time>
      </trkpt>
      <trkpt lat="46.22684" lon="5.38279">
        <ele>374.2</ele>
        <time>2022-03-28T13:46:47Z</time>
      </trkpt>
      <trkpt lat="46.22674" lon="5.38281">
        <ele>374.8</ele>
        <time>2022-03-28T13:46:50Z</time>
      </trkpt>
      <trkpt lat="46.22671" lon="5.38282">
        <ele>375.2</ele>
        <time>2022-03-28T13:46:51Z</time>
      </trkpt>
      <trkpt lat="46.22653" lon="5.38287">
        <ele>376.4</ele>
        <time>2022-03-28T13:46:56Z</time>
      </trkpt>
      <trkpt lat="46.22646" lon="5.38289">
        <ele>376.8</ele>
        <time>2022-03-28T13:46:58Z</time>
      </trkpt>
      <trkpt lat="46.22635" lon="5.3829">
        <ele>377.6</ele>
        <time>2022-03-28T13:47:01Z</time>
      </trkpt>
      <trkpt lat="46.22617" lon="5.38293">
        <ele>378.8</ele>
        <time>2022-03-28T13:47:06Z</time>
      </trkpt>
      <trkpt lat="46.2261" lon="5.38295">
        <ele>379.2</ele>
        <time>2022-03-28T13:47:08Z</time>
      </trkpt>
      <trkpt lat="46.22596" lon="5.383">
        <ele>380.2</ele>
        <time>2022-03-28T13:47:12Z</time>
      </trkpt>
      <trkpt lat="46.22585" lon="5.38303">
        <ele>381.2</ele>
        <time>2022-03-28T13:47:15Z</time>
      </trkpt>
      <trkpt lat="46.22575" lon="5.38308">
        <ele>381.6</ele>
        <time>2022-03-28T13:47:18Z</time>
      </trkpt>
      <trkpt lat="46.22562" lon="5.38315">
        <ele>382.6</ele>
        <time>2022-03-28T13:47:22Z</time>
      </trkpt>
      <trkpt lat="46.22549" lon="5.38323">
        <ele>383.2</ele>
        <time>2022-03-28T13:47:26Z</time>
      </trkpt>
      <trkpt lat="46.22546" lon="5.38324">
        <ele>383.6</ele>
        <time>2022-03-28T13:47:27Z</time>
      </trkpt>
      <trkpt lat="46.22533" lon="5.38331">
        <ele>385</ele>
        <time>2022-03-28T13:47:31Z</time>
      </trkpt>
      <trkpt lat="46.22518" lon="5.38338">
        <ele>385.8</ele>
        <time>2022-03-28T13:47:36Z</time>
      </trkpt>
      <trkpt lat="46.22508" lon="5.38343">
        <ele>386.2</ele>
        <time>2022-03-28T13:47:39Z</time>
      </trkpt>
      <trkpt lat="46.22483" lon="5.38357">
        <ele>387.4</ele>
        <time>2022-03-28T13:47:46Z</time>
      </trkpt>
      <trkpt lat="46.22471" lon="5.38363">
        <ele>388.6</ele>
        <time>2022-03-28T13:47:49Z</time>
      </trkpt>
      <trkpt lat="46.22457" lon="5.3837">
        <ele>389.4</ele>
        <time>2022-03-28T13:47:53Z</time>
      </trkpt>
      <trkpt lat="46.22454" lon="5.38371">
        <ele>390</ele>
        <time>2022-03-28T13:47:54Z</time>
      </trkpt>
      <trkpt lat="46.22447" lon="5.38375">
        <ele>390.6</ele>
        <time>2022-03-28T13:47:56Z</time>
      </trkpt>
      <trkpt lat="46.22437" lon="5.38379">
        <ele>391.2</ele>
        <time>2022-03-28T13:47:59Z</time>
      </trkpt>
      <trkpt lat="46.22421" lon="5.38387">
        <ele>392.4</ele>
        <time>2022-03-28T13:48:04Z</time>
      </trkpt>
      <trkpt lat="46.22401" lon="5.38394">
        <ele>393.6</ele>
        <time>2022-03-28T13:48:10Z</time>
      </trkpt>
      <trkpt lat="46.22387" lon="5.38398">
        <ele>394.4</ele>
        <time>2022-03-28T13:48:14Z</time>
      </trkpt>
      <trkpt lat="46.22384" lon="5.384">
        <ele>394.6</ele>
        <time>2022-03-28T13:48:15Z</time>
      </trkpt>
      <trkpt lat="46.22371" lon="5.38403">
        <ele>395.8</ele>
        <time>2022-03-28T13:48:19Z</time>
      </trkpt>
      <trkpt lat="46.22364" lon="5.38405">
        <ele>396.4</ele>
        <time>2022-03-28T13:48:21Z</time>
      </trkpt>
      <trkpt lat="46.22355" lon="5.38409">
        <ele>397</ele>
        <time>2022-03-28T13:48:24Z</time>
      </trkpt>
      <trkpt lat="46.22335" lon="5.38416">
        <ele>398.2</ele>
        <time>2022-03-28T13:48:30Z</time>
      </trkpt>
      <trkpt lat="46.22332" lon="5.38418">
        <ele>398.4</ele>
        <time>2022-03-28T13:48:31Z</time>
      </trkpt>
      <trkpt lat="46.22322" lon="5.38421">
        <ele>399.2</ele>
        <time>2022-03-28T13:48:34Z</time>
      </trkpt>
      <trkpt lat="46.22306" lon="5.38429">
        <ele>400.4</ele>
        <time>2022-03-28T13:48:39Z</time>
      </trkpt>
      <trkpt lat="46.22297" lon="5.38433">
        <ele>401</ele>
        <time>2022-03-28T13:48:42Z</time>
      </trkpt>
      <trkpt lat="46.2229" lon="5.38436">
        <ele>401.4</ele>
        <time>2022-03-28T13:48:44Z</time>
      </trkpt>
      <trkpt lat="46.22275" lon="5.38447">
        <ele>402.6</ele>
        <time>2022-03-28T13:48:49Z</time>
      </trkpt>
      <trkpt lat="46.22273" lon="5.38451">
        <ele>402.8</ele>
        <time>2022-03-28T13:48:50Z</time>
      </trkpt>
      <trkpt lat="46.22262" lon="5.38467">
        <ele>403.6</ele>
        <time>2022-03-28T13:48:54Z</time>
      </trkpt>
      <trkpt lat="46.22246" lon="5.38486">
        <ele>404.2</ele>
        <time>2022-03-28T13:48:59Z</time>
      </trkpt>
      <trkpt lat="46.22231" lon="5.38497">
        <ele>404.4</ele>
        <time>2022-03-28T13:49:03Z</time>
      </trkpt>
      <trkpt lat="46.22224" lon="5.38505">
        <ele>404.6</ele>
        <time>2022-03-28T13:49:05Z</time>
      </trkpt>
      <trkpt lat="46.22221" lon="5.3851">
        <ele>404.6</ele>
        <time>2022-03-28T13:49:06Z</time>
      </trkpt>
      <trkpt lat="46.22218" lon="5.38516">
        <ele>404.6</ele>
        <time>2022-03-28T13:49:07Z</time>
      </trkpt>
      <trkpt lat="46.22211" lon="5.38542">
        <ele>404.4</ele>
        <time>2022-03-28T13:49:10Z</time>
      </trkpt>
      <trkpt lat="46.22204" lon="5.38562">
        <ele>404.4</ele>
        <time>2022-03-28T13:49:12Z</time>
      </trkpt>
      <trkpt lat="46.22197" lon="5.38571">
        <ele>404</ele>
        <time>2022-03-28T13:49:13Z</time>
      </trkpt>
      <trkpt lat="46.2219" lon="5.38578">
        <ele>403.6</ele>
        <time>2022-03-28T13:49:14Z</time>
      </trkpt>
      <trkpt lat="46.22174" lon="5.3858">
        <ele>402.8</ele>
        <time>2022-03-28T13:49:16Z</time>
      </trkpt>
      <trkpt lat="46.22166" lon="5.38576">
        <ele>402.6</ele>
        <time>2022-03-28T13:49:17Z</time>
      </trkpt>
      <trkpt lat="46.22158" lon="5.38574">
        <ele>402</ele>
        <time>2022-03-28T13:49:18Z</time>
      </trkpt>
      <trkpt lat="46.22146" lon="5.38575">
        <ele>401.8</ele>
        <time>2022-03-28T13:49:19Z</time>
      </trkpt>
      <trkpt lat="46.22137" lon="5.38576">
        <ele>401.2</ele>
        <time>2022-03-28T13:49:20Z</time>
      </trkpt>
      <trkpt lat="46.22106" lon="5.38579">
        <ele>400</ele>
        <time>2022-03-28T13:49:23Z</time>
      </trkpt>
      <trkpt lat="46.22095" lon="5.38582">
        <ele>400</ele>
        <time>2022-03-28T13:49:24Z</time>
      </trkpt>
      <trkpt lat="46.22063" lon="5.38596">
        <ele>398.8</ele>
        <time>2022-03-28T13:49:27Z</time>
      </trkpt>
      <trkpt lat="46.22052" lon="5.38602">
        <ele>398.2</ele>
        <time>2022-03-28T13:49:28Z</time>
      </trkpt>
      <trkpt lat="46.22041" lon="5.38608">
        <ele>397.2</ele>
        <time>2022-03-28T13:49:29Z</time>
      </trkpt>
      <trkpt lat="46.22019" lon="5.38615">
        <ele>396.2</ele>
        <time>2022-03-28T13:49:31Z</time>
      </trkpt>
      <trkpt lat="46.22008" lon="5.38618">
        <ele>395.2</ele>
        <time>2022-03-28T13:49:32Z</time>
      </trkpt>
      <trkpt lat="46.21984" lon="5.38623">
        <ele>394</ele>
        <time>2022-03-28T13:49:34Z</time>
      </trkpt>
      <trkpt lat="46.21961" lon="5.38629">
        <ele>392.6</ele>
        <time>2022-03-28T13:49:36Z</time>
      </trkpt>
      <trkpt lat="46.21937" lon="5.38633">
        <ele>391.4</ele>
        <time>2022-03-28T13:49:38Z</time>
      </trkpt>
      <trkpt lat="46.21925" lon="5.38634">
        <ele>390.6</ele>
        <time>2022-03-28T13:49:39Z</time>
      </trkpt>
      <trkpt lat="46.21913" lon="5.38634">
        <ele>389.8</ele>
        <time>2022-03-28T13:49:40Z</time>
      </trkpt>
      <trkpt lat="46.21901" lon="5.38634">
        <ele>388.2</ele>
        <time>2022-03-28T13:49:41Z</time>
      </trkpt>
      <trkpt lat="46.21877" lon="5.38631">
        <ele>386.6</ele>
        <time>2022-03-28T13:49:43Z</time>
      </trkpt>
      <trkpt lat="46.21865" lon="5.38629">
        <ele>385.8</ele>
        <time>2022-03-28T13:49:44Z</time>
      </trkpt>
      <trkpt lat="46.21854" lon="5.38627">
        <ele>385.6</ele>
        <time>2022-03-28T13:49:45Z</time>
      </trkpt>
      <trkpt lat="46.2182" lon="5.38627">
        <ele>384.4</ele>
        <time>2022-03-28T13:49:48Z</time>
      </trkpt>
      <trkpt lat="46.21788" lon="5.3863">
        <ele>383.2</ele>
        <time>2022-03-28T13:49:51Z</time>
      </trkpt>
      <trkpt lat="46.21752" lon="5.38635">
        <ele>382.4</ele>
        <time>2022-03-28T13:49:54Z</time>
      </trkpt>
      <trkpt lat="46.2174" lon="5.38636">
        <ele>381</ele>
        <time>2022-03-28T13:49:55Z</time>
      </trkpt>
      <trkpt lat="46.21714" lon="5.38637">
        <ele>379.4</ele>
        <time>2022-03-28T13:49:57Z</time>
      </trkpt>
      <trkpt lat="46.21688" lon="5.38634">
        <ele>377.8</ele>
        <time>2022-03-28T13:49:59Z</time>
      </trkpt>
      <trkpt lat="46.21675" lon="5.38632">
        <ele>376.4</ele>
        <time>2022-03-28T13:50:00Z</time>
      </trkpt>
      <trkpt lat="46.2165" lon="5.38632">
        <ele>375.2</ele>
        <time>2022-03-28T13:50:02Z</time>
      </trkpt>
      <trkpt lat="46.21638" lon="5.38635">
        <ele>374.4</ele>
        <time>2022-03-28T13:50:03Z</time>
      </trkpt>
      <trkpt lat="46.21624" lon="5.38638">
        <ele>373.4</ele>
        <time>2022-03-28T13:50:04Z</time>
      </trkpt>
      <trkpt lat="46.21611" lon="5.38639">
        <ele>372.2</ele>
        <time>2022-03-28T13:50:05Z</time>
      </trkpt>
      <trkpt lat="46.21585" lon="5.3864">
        <ele>370.6</ele>
        <time>2022-03-28T13:50:07Z</time>
      </trkpt>
      <trkpt lat="46.21559" lon="5.38641">
        <ele>369</ele>
        <time>2022-03-28T13:50:09Z</time>
      </trkpt>
      <trkpt lat="46.21533" lon="5.38646">
        <ele>367.2</ele>
        <time>2022-03-28T13:50:11Z</time>
      </trkpt>
      <trkpt lat="46.21521" lon="5.38651">
        <ele>366</ele>
        <time>2022-03-28T13:50:12Z</time>
      </trkpt>
      <trkpt lat="46.21509" lon="5.38658">
        <ele>365.2</ele>
        <time>2022-03-28T13:50:13Z</time>
      </trkpt>
      <trkpt lat="46.21498" lon="5.38666">
        <ele>364</ele>
        <time>2022-03-28T13:50:14Z</time>
      </trkpt>
      <trkpt lat="46.21477" lon="5.38683">
        <ele>362.6</ele>
        <time>2022-03-28T13:50:16Z</time>
      </trkpt>
      <trkpt lat="46.21455" lon="5.38697">
        <ele>360.6</ele>
        <time>2022-03-28T13:50:18Z</time>
      </trkpt>
      <trkpt lat="46.21444" lon="5.38702">
        <ele>359.8</ele>
        <time>2022-03-28T13:50:19Z</time>
      </trkpt>
      <trkpt lat="46.21433" lon="5.38707">
        <ele>359.2</ele>
        <time>2022-03-28T13:50:20Z</time>
      </trkpt>
      <trkpt lat="46.21423" lon="5.38713">
        <ele>358.4</ele>
        <time>2022-03-28T13:50:21Z</time>
      </trkpt>
      <trkpt lat="46.21413" lon="5.3872">
        <ele>357.8</ele>
        <time>2022-03-28T13:50:22Z</time>
      </trkpt>
      <trkpt lat="46.21403" lon="5.38728">
        <ele>356.8</ele>
        <time>2022-03-28T13:50:23Z</time>
      </trkpt>
      <trkpt lat="46.21395" lon="5.38735">
        <ele>356.4</ele>
        <time>2022-03-28T13:50:24Z</time>
      </trkpt>
      <trkpt lat="46.21375" lon="5.38753">
        <ele>355</ele>
        <time>2022-03-28T13:50:26Z</time>
      </trkpt>
      <trkpt lat="46.21357" lon="5.38766">
        <ele>353</ele>
        <time>2022-03-28T13:50:28Z</time>
      </trkpt>
      <trkpt lat="46.21347" lon="5.3877">
        <ele>352.6</ele>
        <time>2022-03-28T13:50:29Z</time>
      </trkpt>
      <trkpt lat="46.21337" lon="5.38773">
        <ele>351.8</ele>
        <time>2022-03-28T13:50:30Z</time>
      </trkpt>
      <trkpt lat="46.21326" lon="5.38775">
        <ele>351.6</ele>
        <time>2022-03-28T13:50:31Z</time>
      </trkpt>
      <trkpt lat="46.21307" lon="5.38777">
        <ele>350.6</ele>
        <time>2022-03-28T13:50:33Z</time>
      </trkpt>
      <trkpt lat="46.21291" lon="5.38778">
        <ele>349.8</ele>
        <time>2022-03-28T13:50:35Z</time>
      </trkpt>
      <trkpt lat="46.21274" lon="5.38784">
        <ele>349.6</ele>
        <time>2022-03-28T13:50:37Z</time>
      </trkpt>
      <trkpt lat="46.21253" lon="5.38791">
        <ele>349.4</ele>
        <time>2022-03-28T13:50:39Z</time>
      </trkpt>
      <trkpt lat="46.21203" lon="5.38813">
        <ele>348.4</ele>
        <time>2022-03-28T13:50:44Z</time>
      </trkpt>
      <trkpt lat="46.21148" lon="5.38841">
        <ele>347.4</ele>
        <time>2022-03-28T13:50:50Z</time>
      </trkpt>
      <trkpt lat="46.2114" lon="5.38845">
        <ele>347.4</ele>
        <time>2022-03-28T13:50:51Z</time>
      </trkpt>
      <trkpt lat="46.21104" lon="5.38862">
        <ele>347.2</ele>
        <time>2022-03-28T13:50:56Z</time>
      </trkpt>
      <trkpt lat="46.21078" lon="5.38861">
        <ele>347.8</ele>
        <time>2022-03-28T13:51:00Z</time>
      </trkpt>
      <trkpt lat="46.21059" lon="5.38857">
        <ele>348.6</ele>
        <time>2022-03-28T13:51:03Z</time>
      </trkpt>
      <trkpt lat="46.21051" lon="5.38856">
        <ele>348.6</ele>
        <time>2022-03-28T13:51:04Z</time>
      </trkpt>
      <trkpt lat="46.21013" lon="5.38855">
        <ele>348.8</ele>
        <time>2022-03-28T13:51:09Z</time>
      </trkpt>
      <trkpt lat="46.2098" lon="5.38858">
        <ele>348.6</ele>
        <time>2022-03-28T13:51:13Z</time>
      </trkpt>
      <trkpt lat="46.20972" lon="5.3886">
        <ele>348.4</ele>
        <time>2022-03-28T13:51:14Z</time>
      </trkpt>
      <trkpt lat="46.20964" lon="5.38864">
        <ele>348.2</ele>
        <time>2022-03-28T13:51:15Z</time>
      </trkpt>
      <trkpt lat="46.20941" lon="5.38875">
        <ele>347.8</ele>
        <time>2022-03-28T13:51:18Z</time>
      </trkpt>
      <trkpt lat="46.20927" lon="5.38884">
        <ele>347.6</ele>
        <time>2022-03-28T13:51:20Z</time>
      </trkpt>
      <trkpt lat="46.20906" lon="5.38896">
        <ele>347.4</ele>
        <time>2022-03-28T13:51:23Z</time>
      </trkpt>
      <trkpt lat="46.20889" lon="5.38906">
        <ele>348</ele>
        <time>2022-03-28T13:51:26Z</time>
      </trkpt>
      <trkpt lat="46.2088" lon="5.38908">
        <ele>348</ele>
        <time>2022-03-28T13:51:28Z</time>
      </trkpt>
      <trkpt lat="46.20875" lon="5.38909">
        <ele>348.2</ele>
        <time>2022-03-28T13:51:29Z</time>
      </trkpt>
      <trkpt lat="46.2087" lon="5.38909">
        <ele>348.6</ele>
        <time>2022-03-28T13:51:30Z</time>
      </trkpt>
      <trkpt lat="46.20852" lon="5.38911">
        <ele>349.2</ele>
        <time>2022-03-28T13:51:33Z</time>
      </trkpt>
      <trkpt lat="46.20839" lon="5.38916">
        <ele>349.8</ele>
        <time>2022-03-28T13:51:35Z</time>
      </trkpt>
      <trkpt lat="46.20825" lon="5.38922">
        <ele>350</ele>
        <time>2022-03-28T13:51:37Z</time>
      </trkpt>
      <trkpt lat="46.20819" lon="5.38926">
        <ele>350</ele>
        <time>2022-03-28T13:51:38Z</time>
      </trkpt>
      <trkpt lat="46.20783" lon="5.38935">
        <ele>350</ele>
        <time>2022-03-28T13:51:43Z</time>
      </trkpt>
      <trkpt lat="46.20723" lon="5.38934">
        <ele>349</ele>
        <time>2022-03-28T13:51:51Z</time>
      </trkpt>
      <trkpt lat="46.20699" lon="5.38929">
        <ele>348.6</ele>
        <time>2022-03-28T13:51:54Z</time>
      </trkpt>
      <trkpt lat="46.20682" lon="5.38925">
        <ele>348.2</ele>
        <time>2022-03-28T13:51:56Z</time>
      </trkpt>
      <trkpt lat="46.20674" lon="5.38924">
        <ele>348</ele>
        <time>2022-03-28T13:51:57Z</time>
      </trkpt>
      <trkpt lat="46.20665" lon="5.38921">
        <ele>347.4</ele>
        <time>2022-03-28T13:51:58Z</time>
      </trkpt>
      <trkpt lat="46.20648" lon="5.38916">
        <ele>346.6</ele>
        <time>2022-03-28T13:52:00Z</time>
      </trkpt>
      <trkpt lat="46.2064" lon="5.38916">
        <ele>346</ele>
        <time>2022-03-28T13:52:01Z</time>
      </trkpt>
      <trkpt lat="46.20632" lon="5.38919">
        <ele>345.8</ele>
        <time>2022-03-28T13:52:02Z</time>
      </trkpt>
      <trkpt lat="46.20621" lon="5.38935">
        <ele>345.2</ele>
        <time>2022-03-28T13:52:04Z</time>
      </trkpt>
      <trkpt lat="46.20616" lon="5.38948">
        <ele>344.6</ele>
        <time>2022-03-28T13:52:05Z</time>
      </trkpt>
      <trkpt lat="46.20602" lon="5.38984">
        <ele>343.2</ele>
        <time>2022-03-28T13:52:08Z</time>
      </trkpt>
      <trkpt lat="46.20587" lon="5.39015">
        <ele>342</ele>
        <time>2022-03-28T13:52:11Z</time>
      </trkpt>
      <trkpt lat="46.20575" lon="5.39036">
        <ele>341</ele>
        <time>2022-03-28T13:52:13Z</time>
      </trkpt>
      <trkpt lat="46.20569" lon="5.39044">
        <ele>340</ele>
        <time>2022-03-28T13:52:14Z</time>
      </trkpt>
      <trkpt lat="46.20561" lon="5.39051">
        <ele>339.4</ele>
        <time>2022-03-28T13:52:15Z</time>
      </trkpt>
      <trkpt lat="46.20547" lon="5.39064">
        <ele>338.2</ele>
        <time>2022-03-28T13:52:17Z</time>
      </trkpt>
      <trkpt lat="46.20532" lon="5.39079">
        <ele>336.8</ele>
        <time>2022-03-28T13:52:19Z</time>
      </trkpt>
      <trkpt lat="46.20526" lon="5.39088">
        <ele>336.6</ele>
        <time>2022-03-28T13:52:20Z</time>
      </trkpt>
      <trkpt lat="46.20516" lon="5.3911">
        <ele>336</ele>
        <time>2022-03-28T13:52:22Z</time>
      </trkpt>
      <trkpt lat="46.2051" lon="5.39134">
        <ele>335.4</ele>
        <time>2022-03-28T13:52:24Z</time>
      </trkpt>
      <trkpt lat="46.20504" lon="5.39157">
        <ele>334.8</ele>
        <time>2022-03-28T13:52:26Z</time>
      </trkpt>
      <trkpt lat="46.20495" lon="5.3919">
        <ele>334.4</ele>
        <time>2022-03-28T13:52:29Z</time>
      </trkpt>
      <trkpt lat="46.2049" lon="5.39201">
        <ele>334.2</ele>
        <time>2022-03-28T13:52:30Z</time>
      </trkpt>
      <trkpt lat="46.20485" lon="5.39209">
        <ele>334.2</ele>
        <time>2022-03-28T13:52:31Z</time>
      </trkpt>
      <trkpt lat="46.20471" lon="5.39223">
        <ele>334</ele>
        <time>2022-03-28T13:52:33Z</time>
      </trkpt>
      <trkpt lat="46.20455" lon="5.39236">
        <ele>333.8</ele>
        <time>2022-03-28T13:52:35Z</time>
      </trkpt>
      <trkpt lat="46.20421" lon="5.39266">
        <ele>332.6</ele>
        <time>2022-03-28T13:52:39Z</time>
      </trkpt>
      <trkpt lat="46.20396" lon="5.39292">
        <ele>331.4</ele>
        <time>2022-03-28T13:52:42Z</time>
      </trkpt>
      <trkpt lat="46.20381" lon="5.3931">
        <ele>330.2</ele>
        <time>2022-03-28T13:52:44Z</time>
      </trkpt>
      <trkpt lat="46.20374" lon="5.39319">
        <ele>329.6</ele>
        <time>2022-03-28T13:52:45Z</time>
      </trkpt>
      <trkpt lat="46.20362" lon="5.39339">
        <ele>328.6</ele>
        <time>2022-03-28T13:52:47Z</time>
      </trkpt>
      <trkpt lat="46.20357" lon="5.39349">
        <ele>328.4</ele>
        <time>2022-03-28T13:52:48Z</time>
      </trkpt>
      <trkpt lat="46.20353" lon="5.39361">
        <ele>328</ele>
        <time>2022-03-28T13:52:49Z</time>
      </trkpt>
      <trkpt lat="46.20349" lon="5.39374">
        <ele>327.6</ele>
        <time>2022-03-28T13:52:50Z</time>
      </trkpt>
      <trkpt lat="46.20346" lon="5.39387">
        <ele>327.2</ele>
        <time>2022-03-28T13:52:51Z</time>
      </trkpt>
      <trkpt lat="46.20335" lon="5.39429">
        <ele>326</ele>
        <time>2022-03-28T13:52:54Z</time>
      </trkpt>
      <trkpt lat="46.20324" lon="5.39473">
        <ele>324.8</ele>
        <time>2022-03-28T13:52:57Z</time>
      </trkpt>
      <trkpt lat="46.20316" lon="5.395">
        <ele>324</ele>
        <time>2022-03-28T13:52:59Z</time>
      </trkpt>
      <trkpt lat="46.20312" lon="5.39508">
        <ele>323.4</ele>
        <time>2022-03-28T13:53:00Z</time>
      </trkpt>
      <trkpt lat="46.20306" lon="5.39517">
        <ele>322.8</ele>
        <time>2022-03-28T13:53:01Z</time>
      </trkpt>
      <trkpt lat="46.20301" lon="5.39522">
        <ele>322.4</ele>
        <time>2022-03-28T13:53:02Z</time>
      </trkpt>
      <trkpt lat="46.20298" lon="5.39526">
        <ele>321.6</ele>
        <time>2022-03-28T13:53:03Z</time>
      </trkpt>
      <trkpt lat="46.20296" lon="5.39532">
        <ele>321</ele>
        <time>2022-03-28T13:53:04Z</time>
      </trkpt>
      <trkpt lat="46.20296" lon="5.39538">
        <ele>320.6</ele>
        <time>2022-03-28T13:53:05Z</time>
      </trkpt>
      <trkpt lat="46.20298" lon="5.3955">
        <ele>319.8</ele>
        <time>2022-03-28T13:53:07Z</time>
      </trkpt>
      <trkpt lat="46.20298" lon="5.39557">
        <ele>319.2</ele>
        <time>2022-03-28T13:53:08Z</time>
      </trkpt>
      <trkpt lat="46.20298" lon="5.39564">
        <ele>319</ele>
        <time>2022-03-28T13:53:09Z</time>
      </trkpt>
      <trkpt lat="46.20297" lon="5.39581">
        <ele>318.6</ele>
        <time>2022-03-28T13:53:11Z</time>
      </trkpt>
      <trkpt lat="46.20295" lon="5.39611">
        <ele>318.2</ele>
        <time>2022-03-28T13:53:14Z</time>
      </trkpt>
      <trkpt lat="46.20294" lon="5.39633">
        <ele>317.8</ele>
        <time>2022-03-28T13:53:16Z</time>
      </trkpt>
      <trkpt lat="46.20295" lon="5.39654">
        <ele>317.8</ele>
        <time>2022-03-28T13:53:18Z</time>
      </trkpt>
      <trkpt lat="46.20301" lon="5.39675">
        <ele>317.8</ele>
        <time>2022-03-28T13:53:20Z</time>
      </trkpt>
      <trkpt lat="46.20322" lon="5.39707">
        <ele>317.6</ele>
        <time>2022-03-28T13:53:24Z</time>
      </trkpt>
      <trkpt lat="46.20331" lon="5.39724">
        <ele>317.6</ele>
        <time>2022-03-28T13:53:26Z</time>
      </trkpt>
      <trkpt lat="46.20337" lon="5.39743">
        <ele>317.6</ele>
        <time>2022-03-28T13:53:28Z</time>
      </trkpt>
      <trkpt lat="46.20345" lon="5.39808">
        <ele>317.8</ele>
        <time>2022-03-28T13:53:35Z</time>
      </trkpt>
      <trkpt lat="46.2034" lon="5.39822">
        <ele>317.8</ele>
        <time>2022-03-28T13:53:37Z</time>
      </trkpt>
      <trkpt lat="46.20333" lon="5.39829">
        <ele>317.8</ele>
        <time>2022-03-28T13:53:38Z</time>
      </trkpt>
      <trkpt lat="46.20326" lon="5.39832">
        <ele>317.8</ele>
        <time>2022-03-28T13:53:39Z</time>
      </trkpt>
      <trkpt lat="46.20305" lon="5.39841">
        <ele>317.6</ele>
        <time>2022-03-28T13:53:42Z</time>
      </trkpt>
      <trkpt lat="46.20296" lon="5.39846">
        <ele>317.4</ele>
        <time>2022-03-28T13:53:43Z</time>
      </trkpt>
      <trkpt lat="46.20281" lon="5.39858">
        <ele>317</ele>
        <time>2022-03-28T13:53:45Z</time>
      </trkpt>
      <trkpt lat="46.20276" lon="5.39863">
        <ele>316.8</ele>
        <time>2022-03-28T13:53:46Z</time>
      </trkpt>
      <trkpt lat="46.20262" lon="5.39877">
        <ele>316</ele>
        <time>2022-03-28T13:53:48Z</time>
      </trkpt>
      <trkpt lat="46.20241" lon="5.39905">
        <ele>315</ele>
        <time>2022-03-28T13:53:52Z</time>
      </trkpt>
      <trkpt lat="46.20231" lon="5.39921">
        <ele>314.4</ele>
        <time>2022-03-28T13:53:54Z</time>
      </trkpt>
      <trkpt lat="46.20227" lon="5.39934">
        <ele>314</ele>
        <time>2022-03-28T13:53:56Z</time>
      </trkpt>
      <trkpt lat="46.20232" lon="5.39941">
        <ele>313.6</ele>
        <time>2022-03-28T13:53:58Z</time>
      </trkpt>
      <trkpt lat="46.20256" lon="5.39951">
        <ele>313.2</ele>
        <time>2022-03-28T13:54:02Z</time>
      </trkpt>
      <trkpt lat="46.20301" lon="5.39968">
        <ele>313.6</ele>
        <time>2022-03-28T13:54:09Z</time>
      </trkpt>
      <trkpt lat="46.20355" lon="5.39989">
        <ele>314.8</ele>
        <time>2022-03-28T13:54:17Z</time>
      </trkpt>
      <trkpt lat="46.20366" lon="5.39994">
        <ele>315</ele>
        <time>2022-03-28T13:54:19Z</time>
      </trkpt>
      <trkpt lat="46.20398" lon="5.40006">
        <ele>315.6</ele>
        <time>2022-03-28T13:54:24Z</time>
      </trkpt>
      <trkpt lat="46.20414" lon="5.40012">
        <ele>316</ele>
        <time>2022-03-28T13:54:27Z</time>
      </trkpt>
      <trkpt lat="46.20431" lon="5.40019">
        <ele>316.6</ele>
        <time>2022-03-28T13:54:30Z</time>
      </trkpt>
      <trkpt lat="46.20448" lon="5.40026">
        <ele>317.2</ele>
        <time>2022-03-28T13:54:33Z</time>
      </trkpt>
      <trkpt lat="46.2048" lon="5.40042">
        <ele>318</ele>
        <time>2022-03-28T13:54:39Z</time>
      </trkpt>
      <trkpt lat="46.20492" lon="5.40049">
        <ele>318.2</ele>
        <time>2022-03-28T13:54:41Z</time>
      </trkpt>
      <trkpt lat="46.20526" lon="5.40073">
        <ele>319</ele>
        <time>2022-03-28T13:54:47Z</time>
      </trkpt>
      <trkpt lat="46.20567" lon="5.40102">
        <ele>319.4</ele>
        <time>2022-03-28T13:54:54Z</time>
      </trkpt>
      <trkpt lat="46.20595" lon="5.40124">
        <ele>319.6</ele>
        <time>2022-03-28T13:54:59Z</time>
      </trkpt>
      <trkpt lat="46.20637" lon="5.40169">
        <ele>320</ele>
        <time>2022-03-28T13:55:07Z</time>
      </trkpt>
      <trkpt lat="46.20655" lon="5.40195">
        <ele>320.6</ele>
        <time>2022-03-28T13:55:11Z</time>
      </trkpt>
      <trkpt lat="46.20664" lon="5.40209">
        <ele>320.8</ele>
        <time>2022-03-28T13:55:13Z</time>
      </trkpt>
      <trkpt lat="46.20671" lon="5.40224">
        <ele>320.8</ele>
        <time>2022-03-28T13:55:15Z</time>
      </trkpt>
      <trkpt lat="46.20694" lon="5.40288">
        <ele>321.4</ele>
        <time>2022-03-28T13:55:22Z</time>
      </trkpt>
      <trkpt lat="46.20703" lon="5.4035">
        <ele>321.4</ele>
        <time>2022-03-28T13:55:28Z</time>
      </trkpt>
      <trkpt lat="46.20712" lon="5.40388">
        <ele>321.8</ele>
        <time>2022-03-28T13:55:32Z</time>
      </trkpt>
      <trkpt lat="46.20716" lon="5.40405">
        <ele>322</ele>
        <time>2022-03-28T13:55:34Z</time>
      </trkpt>
      <trkpt lat="46.20733" lon="5.40468">
        <ele>322.8</ele>
        <time>2022-03-28T13:55:41Z</time>
      </trkpt>
      <trkpt lat="46.20735" lon="5.40478">
        <ele>322.8</ele>
        <time>2022-03-28T13:55:42Z</time>
      </trkpt>
      <trkpt lat="46.20742" lon="5.40517">
        <ele>323</ele>
        <time>2022-03-28T13:55:46Z</time>
      </trkpt>
      <trkpt lat="46.20745" lon="5.40536">
        <ele>323</ele>
        <time>2022-03-28T13:55:48Z</time>
      </trkpt>
      <trkpt lat="46.20754" lon="5.4061">
        <ele>323.2</ele>
        <time>2022-03-28T13:55:55Z</time>
      </trkpt>
      <trkpt lat="46.20766" lon="5.40683">
        <ele>323.6</ele>
        <time>2022-03-28T13:56:02Z</time>
      </trkpt>
      <trkpt lat="46.20774" lon="5.40711">
        <ele>323.6</ele>
        <time>2022-03-28T13:56:05Z</time>
      </trkpt>
      <trkpt lat="46.20784" lon="5.4073">
        <ele>323.8</ele>
        <time>2022-03-28T13:56:07Z</time>
      </trkpt>
      <trkpt lat="46.20798" lon="5.40753">
        <ele>324</ele>
        <time>2022-03-28T13:56:10Z</time>
      </trkpt>
      <trkpt lat="46.20817" lon="5.40777">
        <ele>324</ele>
        <time>2022-03-28T13:56:13Z</time>
      </trkpt>
      <trkpt lat="46.20863" lon="5.40821">
        <ele>324</ele>
        <time>2022-03-28T13:56:20Z</time>
      </trkpt>
      <trkpt lat="46.2087" lon="5.40826">
        <ele>324.2</ele>
        <time>2022-03-28T13:56:21Z</time>
      </trkpt>
      <trkpt lat="46.20916" lon="5.40865">
        <ele>325</ele>
        <time>2022-03-28T13:56:28Z</time>
      </trkpt>
      <trkpt lat="46.20935" lon="5.40881">
        <ele>325.4</ele>
        <time>2022-03-28T13:56:31Z</time>
      </trkpt>
      <trkpt lat="46.20986" lon="5.40923">
        <ele>326</ele>
        <time>2022-03-28T13:56:39Z</time>
      </trkpt>
      <trkpt lat="46.21" lon="5.40933">
        <ele>326</ele>
        <time>2022-03-28T13:56:41Z</time>
      </trkpt>
      <trkpt lat="46.21007" lon="5.40938">
        <ele>326</ele>
        <time>2022-03-28T13:56:42Z</time>
      </trkpt>
      <trkpt lat="46.21051" lon="5.40963">
        <ele>326</ele>
        <time>2022-03-28T13:56:48Z</time>
      </trkpt>
      <trkpt lat="46.21107" lon="5.40987">
        <ele>326</ele>
        <time>2022-03-28T13:56:56Z</time>
      </trkpt>
      <trkpt lat="46.21116" lon="5.4099">
        <ele>326</ele>
        <time>2022-03-28T13:56:57Z</time>
      </trkpt>
      <trkpt lat="46.21172" lon="5.41004">
        <ele>326.4</ele>
        <time>2022-03-28T13:57:05Z</time>
      </trkpt>
      <trkpt lat="46.21178" lon="5.41005">
        <ele>326.6</ele>
        <time>2022-03-28T13:57:06Z</time>
      </trkpt>
      <trkpt lat="46.21231" lon="5.41014">
        <ele>327</ele>
        <time>2022-03-28T13:57:13Z</time>
      </trkpt>
      <trkpt lat="46.21286" lon="5.41022">
        <ele>326</ele>
        <time>2022-03-28T13:57:19Z</time>
      </trkpt>
      <trkpt lat="46.21314" lon="5.41027">
        <ele>325</ele>
        <time>2022-03-28T13:57:22Z</time>
      </trkpt>
      <trkpt lat="46.21336" lon="5.41032">
        <ele>323.4</ele>
        <time>2022-03-28T13:57:24Z</time>
      </trkpt>
      <trkpt lat="46.21354" lon="5.41035">
        <ele>322.6</ele>
        <time>2022-03-28T13:57:26Z</time>
      </trkpt>
      <trkpt lat="46.21376" lon="5.4104">
        <ele>322.4</ele>
        <time>2022-03-28T13:57:28Z</time>
      </trkpt>
      <trkpt lat="46.21408" lon="5.41048">
        <ele>322.2</ele>
        <time>2022-03-28T13:57:32Z</time>
      </trkpt>
      <trkpt lat="46.21417" lon="5.41051">
        <ele>322.2</ele>
        <time>2022-03-28T13:57:33Z</time>
      </trkpt>
      <trkpt lat="46.21437" lon="5.41062">
        <ele>322.8</ele>
        <time>2022-03-28T13:57:36Z</time>
      </trkpt>
      <trkpt lat="46.21452" lon="5.41074">
        <ele>323.4</ele>
        <time>2022-03-28T13:57:38Z</time>
      </trkpt>
      <trkpt lat="46.21458" lon="5.41078">
        <ele>323.6</ele>
        <time>2022-03-28T13:57:39Z</time>
      </trkpt>
      <trkpt lat="46.2147" lon="5.41088">
        <ele>324</ele>
        <time>2022-03-28T13:57:41Z</time>
      </trkpt>
      <trkpt lat="46.21485" lon="5.411">
        <ele>324.6</ele>
        <time>2022-03-28T13:57:43Z</time>
      </trkpt>
      <trkpt lat="46.21516" lon="5.41127">
        <ele>325.8</ele>
        <time>2022-03-28T13:57:48Z</time>
      </trkpt>
      <trkpt lat="46.21528" lon="5.41137">
        <ele>326.4</ele>
        <time>2022-03-28T13:57:50Z</time>
      </trkpt>
      <trkpt lat="46.21563" lon="5.4116">
        <ele>326.8</ele>
        <time>2022-03-28T13:57:56Z</time>
      </trkpt>
      <trkpt lat="46.21574" lon="5.41168">
        <ele>327.2</ele>
        <time>2022-03-28T13:57:58Z</time>
      </trkpt>
      <trkpt lat="46.21602" lon="5.41186">
        <ele>328</ele>
        <time>2022-03-28T13:58:03Z</time>
      </trkpt>
      <trkpt lat="46.21638" lon="5.41207">
        <ele>328.8</ele>
        <time>2022-03-28T13:58:09Z</time>
      </trkpt>
      <trkpt lat="46.21694" lon="5.41233">
        <ele>329</ele>
        <time>2022-03-28T13:58:18Z</time>
      </trkpt>
      <trkpt lat="46.21742" lon="5.41259">
        <ele>328.4</ele>
        <time>2022-03-28T13:58:24Z</time>
      </trkpt>
      <trkpt lat="46.21795" lon="5.41289">
        <ele>327.4</ele>
        <time>2022-03-28T13:58:30Z</time>
      </trkpt>
      <trkpt lat="46.21802" lon="5.41293">
        <ele>326.8</ele>
        <time>2022-03-28T13:58:31Z</time>
      </trkpt>
      <trkpt lat="46.21857" lon="5.41323">
        <ele>325.8</ele>
        <time>2022-03-28T13:58:37Z</time>
      </trkpt>
      <trkpt lat="46.21866" lon="5.41328">
        <ele>325.8</ele>
        <time>2022-03-28T13:58:38Z</time>
      </trkpt>
      <trkpt lat="46.21923" lon="5.41353">
        <ele>325.6</ele>
        <time>2022-03-28T13:58:45Z</time>
      </trkpt>
      <trkpt lat="46.21968" lon="5.41366">
        <ele>326.4</ele>
        <time>2022-03-28T13:58:51Z</time>
      </trkpt>
      <trkpt lat="46.22008" lon="5.41371">
        <ele>327</ele>
        <time>2022-03-28T13:58:57Z</time>
      </trkpt>
      <trkpt lat="46.22057" lon="5.41372">
        <ele>327.8</ele>
        <time>2022-03-28T13:59:05Z</time>
      </trkpt>
      <trkpt lat="46.22062" lon="5.41372">
        <ele>328</ele>
        <time>2022-03-28T13:59:06Z</time>
      </trkpt>
      <trkpt lat="46.22068" lon="5.41374">
        <ele>328</ele>
        <time>2022-03-28T13:59:07Z</time>
      </trkpt>
      <trkpt lat="46.22094" lon="5.41383">
        <ele>328.8</ele>
        <time>2022-03-28T13:59:11Z</time>
      </trkpt>
      <trkpt lat="46.22127" lon="5.41405">
        <ele>328.6</ele>
        <time>2022-03-28T13:59:16Z</time>
      </trkpt>
      <trkpt lat="46.22168" lon="5.41438">
        <ele>327.8</ele>
        <time>2022-03-28T13:59:22Z</time>
      </trkpt>
      <trkpt lat="46.22204" lon="5.41466">
        <ele>327</ele>
        <time>2022-03-28T13:59:27Z</time>
      </trkpt>
      <trkpt lat="46.22219" lon="5.41477">
        <ele>326.4</ele>
        <time>2022-03-28T13:59:29Z</time>
      </trkpt>
      <trkpt lat="46.22234" lon="5.41491">
        <ele>326</ele>
        <time>2022-03-28T13:59:31Z</time>
      </trkpt>
      <trkpt lat="46.22257" lon="5.4151">
        <ele>325.4</ele>
        <time>2022-03-28T13:59:34Z</time>
      </trkpt>
      <trkpt lat="46.22284" lon="5.41532">
        <ele>325</ele>
        <time>2022-03-28T13:59:38Z</time>
      </trkpt>
      <trkpt lat="46.223" lon="5.41546">
        <ele>324</ele>
        <time>2022-03-28T13:59:40Z</time>
      </trkpt>
      <trkpt lat="46.22307" lon="5.41552">
        <ele>323.8</ele>
        <time>2022-03-28T13:59:41Z</time>
      </trkpt>
      <trkpt lat="46.2234" lon="5.41582">
        <ele>323.8</ele>
        <time>2022-03-28T13:59:46Z</time>
      </trkpt>
      <trkpt lat="46.22375" lon="5.41605">
        <ele>324</ele>
        <time>2022-03-28T13:59:51Z</time>
      </trkpt>
      <trkpt lat="46.22424" lon="5.4162">
        <ele>324.4</ele>
        <time>2022-03-28T13:59:58Z</time>
      </trkpt>
      <trkpt lat="46.2248" lon="5.41639">
        <ele>324.8</ele>
        <time>2022-03-28T14:00:06Z</time>
      </trkpt>
      <trkpt lat="46.22486" lon="5.41642">
        <ele>324.8</ele>
        <time>2022-03-28T14:00:07Z</time>
      </trkpt>
      <trkpt lat="46.22498" lon="5.41645">
        <ele>324.8</ele>
        <time>2022-03-28T14:00:09Z</time>
      </trkpt>
      <trkpt lat="46.22504" lon="5.41649">
        <ele>324.8</ele>
        <time>2022-03-28T14:00:10Z</time>
      </trkpt>
      <trkpt lat="46.2252" lon="5.41666">
        <ele>324.8</ele>
        <time>2022-03-28T14:00:13Z</time>
      </trkpt>
      <trkpt lat="46.22532" lon="5.41681">
        <ele>324.6</ele>
        <time>2022-03-28T14:00:15Z</time>
      </trkpt>
      <trkpt lat="46.22538" lon="5.41689">
        <ele>324.6</ele>
        <time>2022-03-28T14:00:16Z</time>
      </trkpt>
      <trkpt lat="46.22565" lon="5.41727">
        <ele>324.4</ele>
        <time>2022-03-28T14:00:21Z</time>
      </trkpt>
      <trkpt lat="46.22578" lon="5.41738">
        <ele>324.4</ele>
        <time>2022-03-28T14:00:23Z</time>
      </trkpt>
      <trkpt lat="46.22592" lon="5.41742">
        <ele>324.4</ele>
        <time>2022-03-28T14:00:25Z</time>
      </trkpt>
      <trkpt lat="46.22599" lon="5.41741">
        <ele>324.6</ele>
        <time>2022-03-28T14:00:26Z</time>
      </trkpt>
      <trkpt lat="46.22612" lon="5.41741">
        <ele>325</ele>
        <time>2022-03-28T14:00:28Z</time>
      </trkpt>
      <trkpt lat="46.22647" lon="5.41744">
        <ele>326.4</ele>
        <time>2022-03-28T14:00:33Z</time>
      </trkpt>
      <trkpt lat="46.22665" lon="5.41746">
        <ele>327.6</ele>
        <time>2022-03-28T14:00:36Z</time>
      </trkpt>
      <trkpt lat="46.22692" lon="5.41749">
        <ele>328.8</ele>
        <time>2022-03-28T14:00:40Z</time>
      </trkpt>
      <trkpt lat="46.2271" lon="5.4175">
        <ele>329</ele>
        <time>2022-03-28T14:00:43Z</time>
      </trkpt>
      <trkpt lat="46.22749" lon="5.41752">
        <ele>329.4</ele>
        <time>2022-03-28T14:00:49Z</time>
      </trkpt>
      <trkpt lat="46.22767" lon="5.41754">
        <ele>329.6</ele>
        <time>2022-03-28T14:00:52Z</time>
      </trkpt>
      <trkpt lat="46.2278" lon="5.41756">
        <ele>329.8</ele>
        <time>2022-03-28T14:00:54Z</time>
      </trkpt>
      <trkpt lat="46.2283" lon="5.41765">
        <ele>330</ele>
        <time>2022-03-28T14:01:02Z</time>
      </trkpt>
      <trkpt lat="46.22869" lon="5.41772">
        <ele>330</ele>
        <time>2022-03-28T14:01:08Z</time>
      </trkpt>
      <trkpt lat="46.22875" lon="5.41774">
        <ele>330</ele>
        <time>2022-03-28T14:01:09Z</time>
      </trkpt>
      <trkpt lat="46.229" lon="5.41788">
        <ele>329.8</ele>
        <time>2022-03-28T14:01:13Z</time>
      </trkpt>
      <trkpt lat="46.22906" lon="5.41793">
        <ele>329.8</ele>
        <time>2022-03-28T14:01:14Z</time>
      </trkpt>
      <trkpt lat="46.22937" lon="5.41819">
        <ele>329.8</ele>
        <time>2022-03-28T14:01:19Z</time>
      </trkpt>
      <trkpt lat="46.22984" lon="5.4186">
        <ele>330.6</ele>
        <time>2022-03-28T14:01:27Z</time>
      </trkpt>
      <trkpt lat="46.23002" lon="5.41874">
        <ele>330.8</ele>
        <time>2022-03-28T14:01:30Z</time>
      </trkpt>
      <trkpt lat="46.2302" lon="5.41887">
        <ele>331</ele>
        <time>2022-03-28T14:01:33Z</time>
      </trkpt>
      <trkpt lat="46.23053" lon="5.41909">
        <ele>330.6</ele>
        <time>2022-03-28T14:01:38Z</time>
      </trkpt>
      <trkpt lat="46.23107" lon="5.41945">
        <ele>330.6</ele>
        <time>2022-03-28T14:01:46Z</time>
      </trkpt>
      <trkpt lat="46.23155" lon="5.41974">
        <ele>331.2</ele>
        <time>2022-03-28T14:01:54Z</time>
      </trkpt>
      <trkpt lat="46.23206" lon="5.42002">
        <ele>332</ele>
        <time>2022-03-28T14:02:02Z</time>
      </trkpt>
      <trkpt lat="46.23219" lon="5.4201">
        <ele>332</ele>
        <time>2022-03-28T14:02:04Z</time>
      </trkpt>
      <trkpt lat="46.23231" lon="5.42018">
        <ele>332.4</ele>
        <time>2022-03-28T14:02:06Z</time>
      </trkpt>
      <trkpt lat="46.23277" lon="5.42055">
        <ele>332.8</ele>
        <time>2022-03-28T14:02:14Z</time>
      </trkpt>
      <trkpt lat="46.23292" lon="5.42073">
        <ele>333.4</ele>
        <time>2022-03-28T14:02:17Z</time>
      </trkpt>
      <trkpt lat="46.23318" lon="5.42102">
        <ele>334.2</ele>
        <time>2022-03-28T14:02:22Z</time>
      </trkpt>
      <trkpt lat="46.23339" lon="5.42125">
        <ele>334.4</ele>
        <time>2022-03-28T14:02:26Z</time>
      </trkpt>
      <trkpt lat="46.2336" lon="5.42145">
        <ele>334.4</ele>
        <time>2022-03-28T14:02:29Z</time>
      </trkpt>
      <trkpt lat="46.23408" lon="5.42188">
        <ele>334</ele>
        <time>2022-03-28T14:02:36Z</time>
      </trkpt>
      <trkpt lat="46.23439" lon="5.42215">
        <ele>333.4</ele>
        <time>2022-03-28T14:02:40Z</time>
      </trkpt>
      <trkpt lat="46.2348" lon="5.42245">
        <ele>332.8</ele>
        <time>2022-03-28T14:02:45Z</time>
      </trkpt>
      <trkpt lat="46.23506" lon="5.42257">
        <ele>332.2</ele>
        <time>2022-03-28T14:02:48Z</time>
      </trkpt>
      <trkpt lat="46.23524" lon="5.42263">
        <ele>331.8</ele>
        <time>2022-03-28T14:02:50Z</time>
      </trkpt>
      <trkpt lat="46.23583" lon="5.42283">
        <ele>331.6</ele>
        <time>2022-03-28T14:02:57Z</time>
      </trkpt>
      <trkpt lat="46.23639" lon="5.42307">
        <ele>331.6</ele>
        <time>2022-03-28T14:03:04Z</time>
      </trkpt>
      <trkpt lat="46.23656" lon="5.42314">
        <ele>331.6</ele>
        <time>2022-03-28T14:03:06Z</time>
      </trkpt>
      <trkpt lat="46.23681" lon="5.42325">
        <ele>331.2</ele>
        <time>2022-03-28T14:03:09Z</time>
      </trkpt>
      <trkpt lat="46.2373" lon="5.42345">
        <ele>330.4</ele>
        <time>2022-03-28T14:03:15Z</time>
      </trkpt>
      <trkpt lat="46.23755" lon="5.42352">
        <ele>330.2</ele>
        <time>2022-03-28T14:03:18Z</time>
      </trkpt>
      <trkpt lat="46.23764" lon="5.42353">
        <ele>330.2</ele>
        <time>2022-03-28T14:03:19Z</time>
      </trkpt>
      <trkpt lat="46.2378" lon="5.42356">
        <ele>330</ele>
        <time>2022-03-28T14:03:21Z</time>
      </trkpt>
      <trkpt lat="46.23821" lon="5.42361">
        <ele>329.2</ele>
        <time>2022-03-28T14:03:26Z</time>
      </trkpt>
      <trkpt lat="46.23853" lon="5.42359">
        <ele>329</ele>
        <time>2022-03-28T14:03:30Z</time>
      </trkpt>
      <trkpt lat="46.23898" lon="5.42342">
        <ele>328.8</ele>
        <time>2022-03-28T14:03:36Z</time>
      </trkpt>
      <trkpt lat="46.23944" lon="5.42331">
        <ele>328.8</ele>
        <time>2022-03-28T14:03:42Z</time>
      </trkpt>
      <trkpt lat="46.24" lon="5.42329">
        <ele>329.2</ele>
        <time>2022-03-28T14:03:50Z</time>
      </trkpt>
      <trkpt lat="46.24007" lon="5.42329">
        <ele>329.2</ele>
        <time>2022-03-28T14:03:51Z</time>
      </trkpt>
      <trkpt lat="46.24057" lon="5.42328">
        <ele>329.8</ele>
        <time>2022-03-28T14:03:58Z</time>
      </trkpt>
      <trkpt lat="46.24075" lon="5.42325">
        <ele>330.2</ele>
        <time>2022-03-28T14:04:01Z</time>
      </trkpt>
      <trkpt lat="46.24088" lon="5.42322">
        <ele>330.4</ele>
        <time>2022-03-28T14:04:03Z</time>
      </trkpt>
      <trkpt lat="46.24125" lon="5.42308">
        <ele>331.4</ele>
        <time>2022-03-28T14:04:09Z</time>
      </trkpt>
      <trkpt lat="46.24131" lon="5.42306">
        <ele>331.4</ele>
        <time>2022-03-28T14:04:10Z</time>
      </trkpt>
      <trkpt lat="46.2416" lon="5.42301">
        <ele>332.4</ele>
        <time>2022-03-28T14:04:15Z</time>
      </trkpt>
      <trkpt lat="46.24167" lon="5.42301">
        <ele>332.6</ele>
        <time>2022-03-28T14:04:16Z</time>
      </trkpt>
      <trkpt lat="46.2421" lon="5.42306">
        <ele>333.4</ele>
        <time>2022-03-28T14:04:23Z</time>
      </trkpt>
      <trkpt lat="46.24223" lon="5.42305">
        <ele>333.6</ele>
        <time>2022-03-28T14:04:25Z</time>
      </trkpt>
      <trkpt lat="46.24269" lon="5.42303">
        <ele>333.6</ele>
        <time>2022-03-28T14:04:32Z</time>
      </trkpt>
      <trkpt lat="46.24286" lon="5.42301">
        <ele>333.6</ele>
        <time>2022-03-28T14:04:35Z</time>
      </trkpt>
      <trkpt lat="46.24303" lon="5.423">
        <ele>334</ele>
        <time>2022-03-28T14:04:38Z</time>
      </trkpt>
      <trkpt lat="46.24327" lon="5.42297">
        <ele>334.4</ele>
        <time>2022-03-28T14:04:42Z</time>
      </trkpt>
      <trkpt lat="46.24333" lon="5.42297">
        <ele>334.6</ele>
        <time>2022-03-28T14:04:43Z</time>
      </trkpt>
      <trkpt lat="46.24339" lon="5.42296">
        <ele>334.8</ele>
        <time>2022-03-28T14:04:44Z</time>
      </trkpt>
      <trkpt lat="46.24386" lon="5.42294">
        <ele>335</ele>
        <time>2022-03-28T14:04:51Z</time>
      </trkpt>
      <trkpt lat="46.24445" lon="5.42293">
        <ele>334.2</ele>
        <time>2022-03-28T14:04:59Z</time>
      </trkpt>
      <trkpt lat="46.24495" lon="5.42298">
        <ele>333.8</ele>
        <time>2022-03-28T14:05:06Z</time>
      </trkpt>
      <trkpt lat="46.24532" lon="5.42305">
        <ele>333.4</ele>
        <time>2022-03-28T14:05:11Z</time>
      </trkpt>
      <trkpt lat="46.24547" lon="5.42309">
        <ele>333.4</ele>
        <time>2022-03-28T14:05:13Z</time>
      </trkpt>
      <trkpt lat="46.24598" lon="5.42323">
        <ele>332.8</ele>
        <time>2022-03-28T14:05:20Z</time>
      </trkpt>
      <trkpt lat="46.24634" lon="5.42332">
        <ele>332.6</ele>
        <time>2022-03-28T14:05:26Z</time>
      </trkpt>
      <trkpt lat="46.24648" lon="5.42337">
        <ele>332.4</ele>
        <time>2022-03-28T14:05:29Z</time>
      </trkpt>
      <trkpt lat="46.24659" lon="5.42339">
        <ele>332.4</ele>
        <time>2022-03-28T14:05:31Z</time>
      </trkpt>
      <trkpt lat="46.24695" lon="5.42346">
        <ele>332.6</ele>
        <time>2022-03-28T14:05:36Z</time>
      </trkpt>
      <trkpt lat="46.24743" lon="5.42351">
        <ele>332.4</ele>
        <time>2022-03-28T14:05:42Z</time>
      </trkpt>
      <trkpt lat="46.24792" lon="5.42356">
        <ele>332.4</ele>
        <time>2022-03-28T14:05:48Z</time>
      </trkpt>
      <trkpt lat="46.24841" lon="5.42364">
        <ele>332.4</ele>
        <time>2022-03-28T14:05:54Z</time>
      </trkpt>
      <trkpt lat="46.24881" lon="5.4237">
        <ele>332.4</ele>
        <time>2022-03-28T14:05:59Z</time>
      </trkpt>
      <trkpt lat="46.24938" lon="5.42378">
        <ele>332.6</ele>
        <time>2022-03-28T14:06:06Z</time>
      </trkpt>
      <trkpt lat="46.24946" lon="5.42379">
        <ele>332.6</ele>
        <time>2022-03-28T14:06:07Z</time>
      </trkpt>
      <trkpt lat="46.25002" lon="5.42385">
        <ele>332.8</ele>
        <time>2022-03-28T14:06:14Z</time>
      </trkpt>
      <trkpt lat="46.25034" lon="5.42389">
        <ele>332.8</ele>
        <time>2022-03-28T14:06:18Z</time>
      </trkpt>
      <trkpt lat="46.25093" lon="5.42395">
        <ele>332.6</ele>
        <time>2022-03-28T14:06:25Z</time>
      </trkpt>
      <trkpt lat="46.25116" lon="5.42398">
        <ele>333</ele>
        <time>2022-03-28T14:06:28Z</time>
      </trkpt>
      <trkpt lat="46.25175" lon="5.42405">
        <ele>333.2</ele>
        <time>2022-03-28T14:06:35Z</time>
      </trkpt>
      <trkpt lat="46.25199" lon="5.42408">
        <ele>333.2</ele>
        <time>2022-03-28T14:06:38Z</time>
      </trkpt>
      <trkpt lat="46.25256" lon="5.42417">
        <ele>333.4</ele>
        <time>2022-03-28T14:06:45Z</time>
      </trkpt>
      <trkpt lat="46.25289" lon="5.42423">
        <ele>333.6</ele>
        <time>2022-03-28T14:06:49Z</time>
      </trkpt>
      <trkpt lat="46.25347" lon="5.42432">
        <ele>333.4</ele>
        <time>2022-03-28T14:06:56Z</time>
      </trkpt>
      <trkpt lat="46.25372" lon="5.42436">
        <ele>333.2</ele>
        <time>2022-03-28T14:06:59Z</time>
      </trkpt>
      <trkpt lat="46.2543" lon="5.42446">
        <ele>333.2</ele>
        <time>2022-03-28T14:07:06Z</time>
      </trkpt>
      <trkpt lat="46.25446" lon="5.42448">
        <ele>333.2</ele>
        <time>2022-03-28T14:07:08Z</time>
      </trkpt>
      <trkpt lat="46.25503" lon="5.42457">
        <ele>333.2</ele>
        <time>2022-03-28T14:07:15Z</time>
      </trkpt>
      <trkpt lat="46.25536" lon="5.42462">
        <ele>333.4</ele>
        <time>2022-03-28T14:07:19Z</time>
      </trkpt>
      <trkpt lat="46.25593" lon="5.42472">
        <ele>333.4</ele>
        <time>2022-03-28T14:07:26Z</time>
      </trkpt>
      <trkpt lat="46.25601" lon="5.42473">
        <ele>333.4</ele>
        <time>2022-03-28T14:07:27Z</time>
      </trkpt>
      <trkpt lat="46.2566" lon="5.42482">
        <ele>333.2</ele>
        <time>2022-03-28T14:07:34Z</time>
      </trkpt>
      <trkpt lat="46.25685" lon="5.42486">
        <ele>333.2</ele>
        <time>2022-03-28T14:07:37Z</time>
      </trkpt>
      <trkpt lat="46.2574" lon="5.42495">
        <ele>333.4</ele>
        <time>2022-03-28T14:07:44Z</time>
      </trkpt>
      <trkpt lat="46.2575" lon="5.42497">
        <ele>333.4</ele>
        <time>2022-03-28T14:07:45Z</time>
      </trkpt>
      <trkpt lat="46.25805" lon="5.42505">
        <ele>334</ele>
        <time>2022-03-28T14:07:52Z</time>
      </trkpt>
      <trkpt lat="46.25813" lon="5.42506">
        <ele>334</ele>
        <time>2022-03-28T14:07:53Z</time>
      </trkpt>
      <trkpt lat="46.25852" lon="5.42512">
        <ele>334</ele>
        <time>2022-03-28T14:07:58Z</time>
      </trkpt>
      <trkpt lat="46.25892" lon="5.42518">
        <ele>334.2</ele>
        <time>2022-03-28T14:08:03Z</time>
      </trkpt>
      <trkpt lat="46.25947" lon="5.42526">
        <ele>334.4</ele>
        <time>2022-03-28T14:08:10Z</time>
      </trkpt>
      <trkpt lat="46.25989" lon="5.42533">
        <ele>334.6</ele>
        <time>2022-03-28T14:08:15Z</time>
      </trkpt>
      <trkpt lat="46.26045" lon="5.42542">
        <ele>334.4</ele>
        <time>2022-03-28T14:08:22Z</time>
      </trkpt>
      <trkpt lat="46.26061" lon="5.42545">
        <ele>334.4</ele>
        <time>2022-03-28T14:08:24Z</time>
      </trkpt>
      <trkpt lat="46.26118" lon="5.42554">
        <ele>334.8</ele>
        <time>2022-03-28T14:08:31Z</time>
      </trkpt>
      <trkpt lat="46.26134" lon="5.42557">
        <ele>334.8</ele>
        <time>2022-03-28T14:08:33Z</time>
      </trkpt>
      <trkpt lat="46.26182" lon="5.42565">
        <ele>334.8</ele>
        <time>2022-03-28T14:08:39Z</time>
      </trkpt>
      <trkpt lat="46.26222" lon="5.4257">
        <ele>335</ele>
        <time>2022-03-28T14:08:44Z</time>
      </trkpt>
      <trkpt lat="46.26238" lon="5.42572">
        <ele>335</ele>
        <time>2022-03-28T14:08:46Z</time>
      </trkpt>
      <trkpt lat="46.26294" lon="5.42579">
        <ele>335.2</ele>
        <time>2022-03-28T14:08:53Z</time>
      </trkpt>
      <trkpt lat="46.2631" lon="5.42581">
        <ele>335.2</ele>
        <time>2022-03-28T14:08:55Z</time>
      </trkpt>
      <trkpt lat="46.26326" lon="5.42584">
        <ele>335.4</ele>
        <time>2022-03-28T14:08:57Z</time>
      </trkpt>
      <trkpt lat="46.26342" lon="5.42587">
        <ele>335.4</ele>
        <time>2022-03-28T14:08:59Z</time>
      </trkpt>
      <trkpt lat="46.26357" lon="5.4259">
        <ele>335.4</ele>
        <time>2022-03-28T14:09:01Z</time>
      </trkpt>
      <trkpt lat="46.26404" lon="5.42597">
        <ele>335.4</ele>
        <time>2022-03-28T14:09:07Z</time>
      </trkpt>
      <trkpt lat="46.26445" lon="5.42604">
        <ele>335.6</ele>
        <time>2022-03-28T14:09:12Z</time>
      </trkpt>
      <trkpt lat="46.26453" lon="5.42605">
        <ele>335.6</ele>
        <time>2022-03-28T14:09:13Z</time>
      </trkpt>
      <trkpt lat="46.26502" lon="5.42618">
        <ele>336.2</ele>
        <time>2022-03-28T14:09:20Z</time>
      </trkpt>
      <trkpt lat="46.26529" lon="5.42623">
        <ele>336.6</ele>
        <time>2022-03-28T14:09:24Z</time>
      </trkpt>
      <trkpt lat="46.26552" lon="5.42626">
        <ele>336.8</ele>
        <time>2022-03-28T14:09:27Z</time>
      </trkpt>
      <trkpt lat="46.26606" lon="5.42637">
        <ele>337</ele>
        <time>2022-03-28T14:09:34Z</time>
      </trkpt>
      <trkpt lat="46.26657" lon="5.4265">
        <ele>337</ele>
        <time>2022-03-28T14:09:41Z</time>
      </trkpt>
      <trkpt lat="46.26714" lon="5.42665">
        <ele>337.6</ele>
        <time>2022-03-28T14:09:49Z</time>
      </trkpt>
      <trkpt lat="46.26721" lon="5.42666">
        <ele>337.8</ele>
        <time>2022-03-28T14:09:50Z</time>
      </trkpt>
      <trkpt lat="46.26736" lon="5.4267">
        <ele>337.8</ele>
        <time>2022-03-28T14:09:52Z</time>
      </trkpt>
      <trkpt lat="46.26796" lon="5.42686">
        <ele>337.8</ele>
        <time>2022-03-28T14:10:00Z</time>
      </trkpt>
      <trkpt lat="46.26851" lon="5.42702">
        <ele>338</ele>
        <time>2022-03-28T14:10:08Z</time>
      </trkpt>
      <trkpt lat="46.26903" lon="5.42724">
        <ele>339</ele>
        <time>2022-03-28T14:10:16Z</time>
      </trkpt>
      <trkpt lat="46.2695" lon="5.42743">
        <ele>340</ele>
        <time>2022-03-28T14:10:23Z</time>
      </trkpt>
      <trkpt lat="46.27006" lon="5.42757">
        <ele>340.6</ele>
        <time>2022-03-28T14:10:31Z</time>
      </trkpt>
      <trkpt lat="46.27027" lon="5.42762">
        <ele>340.6</ele>
        <time>2022-03-28T14:10:34Z</time>
      </trkpt>
      <trkpt lat="46.27067" lon="5.4277">
        <ele>341.2</ele>
        <time>2022-03-28T14:10:40Z</time>
      </trkpt>
      <trkpt lat="46.27073" lon="5.4277">
        <ele>341.4</ele>
        <time>2022-03-28T14:10:41Z</time>
      </trkpt>
      <trkpt lat="46.27104" lon="5.42772">
        <ele>342.2</ele>
        <time>2022-03-28T14:10:46Z</time>
      </trkpt>
      <trkpt lat="46.27129" lon="5.42776">
        <ele>343</ele>
        <time>2022-03-28T14:10:50Z</time>
      </trkpt>
      <trkpt lat="46.27149" lon="5.42781">
        <ele>343.4</ele>
        <time>2022-03-28T14:10:53Z</time>
      </trkpt>
      <trkpt lat="46.2718" lon="5.42795">
        <ele>344.2</ele>
        <time>2022-03-28T14:10:58Z</time>
      </trkpt>
      <trkpt lat="46.27206" lon="5.42809">
        <ele>344.6</ele>
        <time>2022-03-28T14:11:02Z</time>
      </trkpt>
      <trkpt lat="46.27234" lon="5.42826">
        <ele>344.6</ele>
        <time>2022-03-28T14:11:06Z</time>
      </trkpt>
      <trkpt lat="46.27286" lon="5.42861">
        <ele>343.8</ele>
        <time>2022-03-28T14:11:13Z</time>
      </trkpt>
      <trkpt lat="46.27311" lon="5.42876">
        <ele>343.2</ele>
        <time>2022-03-28T14:11:16Z</time>
      </trkpt>
      <trkpt lat="46.27336" lon="5.42888">
        <ele>342.8</ele>
        <time>2022-03-28T14:11:19Z</time>
      </trkpt>
      <trkpt lat="46.27352" lon="5.42895">
        <ele>342.2</ele>
        <time>2022-03-28T14:11:21Z</time>
      </trkpt>
      <trkpt lat="46.27412" lon="5.42916">
        <ele>341</ele>
        <time>2022-03-28T14:11:28Z</time>
      </trkpt>
      <trkpt lat="46.27471" lon="5.42934">
        <ele>341</ele>
        <time>2022-03-28T14:11:35Z</time>
      </trkpt>
      <trkpt lat="46.27488" lon="5.4294">
        <ele>341</ele>
        <time>2022-03-28T14:11:37Z</time>
      </trkpt>
      <trkpt lat="46.27544" lon="5.42957">
        <ele>341</ele>
        <time>2022-03-28T14:11:44Z</time>
      </trkpt>
      <trkpt lat="46.27551" lon="5.42959">
        <ele>341</ele>
        <time>2022-03-28T14:11:45Z</time>
      </trkpt>
      <trkpt lat="46.27607" lon="5.42977">
        <ele>341.2</ele>
        <time>2022-03-28T14:11:52Z</time>
      </trkpt>
      <trkpt lat="46.27615" lon="5.4298">
        <ele>341.2</ele>
        <time>2022-03-28T14:11:53Z</time>
      </trkpt>
      <trkpt lat="46.27669" lon="5.42998">
        <ele>341.4</ele>
        <time>2022-03-28T14:12:00Z</time>
      </trkpt>
      <trkpt lat="46.27692" lon="5.43006">
        <ele>341.4</ele>
        <time>2022-03-28T14:12:03Z</time>
      </trkpt>
      <trkpt lat="46.27747" lon="5.43027">
        <ele>341.4</ele>
        <time>2022-03-28T14:12:10Z</time>
      </trkpt>
      <trkpt lat="46.2777" lon="5.43038">
        <ele>341.2</ele>
        <time>2022-03-28T14:12:13Z</time>
      </trkpt>
      <trkpt lat="46.2782" lon="5.4305">
        <ele>340.8</ele>
        <time>2022-03-28T14:12:19Z</time>
      </trkpt>
      <trkpt lat="46.27871" lon="5.43049">
        <ele>340.6</ele>
        <time>2022-03-28T14:12:25Z</time>
      </trkpt>
      <trkpt lat="46.27912" lon="5.43055">
        <ele>340.2</ele>
        <time>2022-03-28T14:12:30Z</time>
      </trkpt>
      <trkpt lat="46.27936" lon="5.4306">
        <ele>339.8</ele>
        <time>2022-03-28T14:12:33Z</time>
      </trkpt>
      <trkpt lat="46.27991" lon="5.43071">
        <ele>340</ele>
        <time>2022-03-28T14:12:40Z</time>
      </trkpt>
      <trkpt lat="46.28051" lon="5.43084">
        <ele>340</ele>
        <time>2022-03-28T14:12:47Z</time>
      </trkpt>
      <trkpt lat="46.28059" lon="5.43086">
        <ele>340</ele>
        <time>2022-03-28T14:12:48Z</time>
      </trkpt>
      <trkpt lat="46.28119" lon="5.43099">
        <ele>340</ele>
        <time>2022-03-28T14:12:55Z</time>
      </trkpt>
      <trkpt lat="46.28144" lon="5.43104">
        <ele>340.2</ele>
        <time>2022-03-28T14:12:58Z</time>
      </trkpt>
      <trkpt lat="46.28204" lon="5.43116">
        <ele>340.2</ele>
        <time>2022-03-28T14:13:05Z</time>
      </trkpt>
      <trkpt lat="46.28229" lon="5.4312">
        <ele>340.2</ele>
        <time>2022-03-28T14:13:08Z</time>
      </trkpt>
      <trkpt lat="46.28288" lon="5.43131">
        <ele>340.4</ele>
        <time>2022-03-28T14:13:15Z</time>
      </trkpt>
      <trkpt lat="46.28312" lon="5.43134">
        <ele>340.4</ele>
        <time>2022-03-28T14:13:18Z</time>
      </trkpt>
      <trkpt lat="46.28362" lon="5.43129">
        <ele>340.8</ele>
        <time>2022-03-28T14:13:24Z</time>
      </trkpt>
      <trkpt lat="46.2842" lon="5.43121">
        <ele>340.8</ele>
        <time>2022-03-28T14:13:31Z</time>
      </trkpt>
      <trkpt lat="46.28461" lon="5.43114">
        <ele>341</ele>
        <time>2022-03-28T14:13:36Z</time>
      </trkpt>
      <trkpt lat="46.28501" lon="5.43111">
        <ele>341.4</ele>
        <time>2022-03-28T14:13:41Z</time>
      </trkpt>
      <trkpt lat="46.28526" lon="5.43111">
        <ele>341.8</ele>
        <time>2022-03-28T14:13:44Z</time>
      </trkpt>
      <trkpt lat="46.28581" lon="5.43109">
        <ele>341.8</ele>
        <time>2022-03-28T14:13:51Z</time>
      </trkpt>
      <trkpt lat="46.28605" lon="5.4311">
        <ele>341.8</ele>
        <time>2022-03-28T14:13:54Z</time>
      </trkpt>
      <trkpt lat="46.2866" lon="5.43115">
        <ele>341.6</ele>
        <time>2022-03-28T14:14:01Z</time>
      </trkpt>
      <trkpt lat="46.28716" lon="5.4312">
        <ele>341.8</ele>
        <time>2022-03-28T14:14:08Z</time>
      </trkpt>
      <trkpt lat="46.28757" lon="5.43126">
        <ele>342</ele>
        <time>2022-03-28T14:14:13Z</time>
      </trkpt>
      <trkpt lat="46.28814" lon="5.43144">
        <ele>342.2</ele>
        <time>2022-03-28T14:14:19Z</time>
      </trkpt>
      <trkpt lat="46.28814" lon="5.43144">
        <ele>342.2</ele>
        <time>2022-03-28T14:14:20Z</time>
      </trkpt>
      <trkpt lat="46.28871" lon="5.43167">
        <ele>342.2</ele>
        <time>2022-03-28T14:14:26Z</time>
      </trkpt>
      <trkpt lat="46.28894" lon="5.43177">
        <ele>342.4</ele>
        <time>2022-03-28T14:14:30Z</time>
      </trkpt>
      <trkpt lat="46.2895" lon="5.43201">
        <ele>342.6</ele>
        <time>2022-03-28T14:14:37Z</time>
      </trkpt>
      <trkpt lat="46.2898" lon="5.43216">
        <ele>342.6</ele>
        <time>2022-03-28T14:14:40Z</time>
      </trkpt>
      <trkpt lat="46.29005" lon="5.43234">
        <ele>342.6</ele>
        <time>2022-03-28T14:14:43Z</time>
      </trkpt>
      <trkpt lat="46.29034" lon="5.4326">
        <ele>342.6</ele>
        <time>2022-03-28T14:14:47Z</time>
      </trkpt>
      <trkpt lat="46.29082" lon="5.43305">
        <ele>342.6</ele>
        <time>2022-03-28T14:14:54Z</time>
      </trkpt>
      <trkpt lat="46.29088" lon="5.43312">
        <ele>342.6</ele>
        <time>2022-03-28T14:14:55Z</time>
      </trkpt>
      <trkpt lat="46.29139" lon="5.43354">
        <ele>343</ele>
        <time>2022-03-28T14:15:02Z</time>
      </trkpt>
      <trkpt lat="46.29152" lon="5.43363">
        <ele>343.2</ele>
        <time>2022-03-28T14:15:04Z</time>
      </trkpt>
      <trkpt lat="46.29205" lon="5.43397">
        <ele>343.6</ele>
        <time>2022-03-28T14:15:11Z</time>
      </trkpt>
      <trkpt lat="46.29212" lon="5.43401">
        <ele>343.6</ele>
        <time>2022-03-28T14:15:12Z</time>
      </trkpt>
      <trkpt lat="46.29266" lon="5.43422">
        <ele>343.8</ele>
        <time>2022-03-28T14:15:19Z</time>
      </trkpt>
      <trkpt lat="46.29276" lon="5.43426">
        <ele>343.8</ele>
        <time>2022-03-28T14:15:20Z</time>
      </trkpt>
      <trkpt lat="46.29316" lon="5.43443">
        <ele>344</ele>
        <time>2022-03-28T14:15:25Z</time>
      </trkpt>
      <trkpt lat="46.29338" lon="5.43455">
        <ele>344</ele>
        <time>2022-03-28T14:15:29Z</time>
      </trkpt>
      <trkpt lat="46.29389" lon="5.43487">
        <ele>344.2</ele>
        <time>2022-03-28T14:15:35Z</time>
      </trkpt>
      <trkpt lat="46.29396" lon="5.43491">
        <ele>344.2</ele>
        <time>2022-03-28T14:15:36Z</time>
      </trkpt>
      <trkpt lat="46.29453" lon="5.43527">
        <ele>345</ele>
        <time>2022-03-28T14:15:44Z</time>
      </trkpt>
      <trkpt lat="46.29461" lon="5.43532">
        <ele>345</ele>
        <time>2022-03-28T14:15:45Z</time>
      </trkpt>
      <trkpt lat="46.29504" lon="5.43555">
        <ele>346</ele>
        <time>2022-03-28T14:15:51Z</time>
      </trkpt>
      <trkpt lat="46.2952" lon="5.43563">
        <ele>346.2</ele>
        <time>2022-03-28T14:15:53Z</time>
      </trkpt>
      <trkpt lat="46.29572" lon="5.43591">
        <ele>346.8</ele>
        <time>2022-03-28T14:16:00Z</time>
      </trkpt>
      <trkpt lat="46.29579" lon="5.43595">
        <ele>347</ele>
        <time>2022-03-28T14:16:01Z</time>
      </trkpt>
      <trkpt lat="46.29631" lon="5.43624">
        <ele>347.2</ele>
        <time>2022-03-28T14:16:08Z</time>
      </trkpt>
      <trkpt lat="46.29645" lon="5.43631">
        <ele>347.4</ele>
        <time>2022-03-28T14:16:10Z</time>
      </trkpt>
      <trkpt lat="46.29652" lon="5.43635">
        <ele>347.4</ele>
        <time>2022-03-28T14:16:11Z</time>
      </trkpt>
      <trkpt lat="46.29708" lon="5.43664">
        <ele>347.6</ele>
        <time>2022-03-28T14:16:18Z</time>
      </trkpt>
      <trkpt lat="46.29729" lon="5.43675">
        <ele>347.8</ele>
        <time>2022-03-28T14:16:22Z</time>
      </trkpt>
      <trkpt lat="46.29785" lon="5.43703">
        <ele>348</ele>
        <time>2022-03-28T14:16:28Z</time>
      </trkpt>
      <trkpt lat="46.29815" lon="5.43718">
        <ele>348.2</ele>
        <time>2022-03-28T14:16:32Z</time>
      </trkpt>
      <trkpt lat="46.29838" lon="5.43729">
        <ele>348.4</ele>
        <time>2022-03-28T14:16:35Z</time>
      </trkpt>
      <trkpt lat="46.29892" lon="5.43752">
        <ele>348.6</ele>
        <time>2022-03-28T14:16:42Z</time>
      </trkpt>
      <trkpt lat="46.29908" lon="5.43759">
        <ele>348.6</ele>
        <time>2022-03-28T14:16:45Z</time>
      </trkpt>
      <trkpt lat="46.29963" lon="5.43782">
        <ele>348.6</ele>
        <time>2022-03-28T14:16:51Z</time>
      </trkpt>
      <trkpt lat="46.29987" lon="5.43792">
        <ele>348.6</ele>
        <time>2022-03-28T14:16:54Z</time>
      </trkpt>
      <trkpt lat="46.30042" lon="5.43819">
        <ele>349</ele>
        <time>2022-03-28T14:17:01Z</time>
      </trkpt>
      <trkpt lat="46.30103" lon="5.43851">
        <ele>349.2</ele>
        <time>2022-03-28T14:17:09Z</time>
      </trkpt>
      <trkpt lat="46.30126" lon="5.43864">
        <ele>349.4</ele>
        <time>2022-03-28T14:17:12Z</time>
      </trkpt>
      <trkpt lat="46.30179" lon="5.43892">
        <ele>349.6</ele>
        <time>2022-03-28T14:17:19Z</time>
      </trkpt>
      <trkpt lat="46.30187" lon="5.43896">
        <ele>349.6</ele>
        <time>2022-03-28T14:17:20Z</time>
      </trkpt>
      <trkpt lat="46.3021" lon="5.43907">
        <ele>349.8</ele>
        <time>2022-03-28T14:17:23Z</time>
      </trkpt>
      <trkpt lat="46.30266" lon="5.43935">
        <ele>350.2</ele>
        <time>2022-03-28T14:17:30Z</time>
      </trkpt>
      <trkpt lat="46.30281" lon="5.43943">
        <ele>350.2</ele>
        <time>2022-03-28T14:17:32Z</time>
      </trkpt>
      <trkpt lat="46.30339" lon="5.4397">
        <ele>350.2</ele>
        <time>2022-03-28T14:17:39Z</time>
      </trkpt>
      <trkpt lat="46.30355" lon="5.43978">
        <ele>350.2</ele>
        <time>2022-03-28T14:17:41Z</time>
      </trkpt>
      <trkpt lat="46.30419" lon="5.44006">
        <ele>350</ele>
        <time>2022-03-28T14:17:49Z</time>
      </trkpt>
      <trkpt lat="46.30436" lon="5.44011">
        <ele>350.2</ele>
        <time>2022-03-28T14:17:51Z</time>
      </trkpt>
      <trkpt lat="46.30493" lon="5.44024">
        <ele>350.4</ele>
        <time>2022-03-28T14:17:58Z</time>
      </trkpt>
      <trkpt lat="46.30514" lon="5.4403">
        <ele>350.6</ele>
        <time>2022-03-28T14:18:01Z</time>
      </trkpt>
      <trkpt lat="46.30552" lon="5.44037">
        <ele>351</ele>
        <time>2022-03-28T14:18:06Z</time>
      </trkpt>
      <trkpt lat="46.30568" lon="5.44038">
        <ele>351.4</ele>
        <time>2022-03-28T14:18:08Z</time>
      </trkpt>
      <trkpt lat="46.3059" lon="5.44041">
        <ele>352.4</ele>
        <time>2022-03-28T14:18:11Z</time>
      </trkpt>
      <trkpt lat="46.30611" lon="5.44046">
        <ele>353.4</ele>
        <time>2022-03-28T14:18:15Z</time>
      </trkpt>
      <trkpt lat="46.30655" lon="5.44052">
        <ele>354.6</ele>
        <time>2022-03-28T14:18:20Z</time>
      </trkpt>
      <trkpt lat="46.30685" lon="5.44053">
        <ele>355.2</ele>
        <time>2022-03-28T14:18:24Z</time>
      </trkpt>
      <trkpt lat="46.30734" lon="5.44042">
        <ele>355.4</ele>
        <time>2022-03-28T14:18:30Z</time>
      </trkpt>
      <trkpt lat="46.30788" lon="5.44023">
        <ele>354.8</ele>
        <time>2022-03-28T14:18:36Z</time>
      </trkpt>
      <trkpt lat="46.30816" lon="5.44024">
        <ele>353.4</ele>
        <time>2022-03-28T14:18:40Z</time>
      </trkpt>
      <trkpt lat="46.30838" lon="5.44029">
        <ele>353</ele>
        <time>2022-03-28T14:18:41Z</time>
      </trkpt>
      <trkpt lat="46.30848" lon="5.44032">
        <ele>352.2</ele>
        <time>2022-03-28T14:18:43Z</time>
      </trkpt>
      <trkpt lat="46.30866" lon="5.44038">
        <ele>352</ele>
        <time>2022-03-28T14:18:44Z</time>
      </trkpt>
      <trkpt lat="46.30902" lon="5.44052">
        <ele>351</ele>
        <time>2022-03-28T14:18:48Z</time>
      </trkpt>
      <trkpt lat="46.30911" lon="5.44057">
        <ele>351</ele>
        <time>2022-03-28T14:18:49Z</time>
      </trkpt>
      <trkpt lat="46.30965" lon="5.44092">
        <ele>350.8</ele>
        <time>2022-03-28T14:18:56Z</time>
      </trkpt>
      <trkpt lat="46.30972" lon="5.44097">
        <ele>350.8</ele>
        <time>2022-03-28T14:18:57Z</time>
      </trkpt>
      <trkpt lat="46.31003" lon="5.44119">
        <ele>351.2</ele>
        <time>2022-03-28T14:19:02Z</time>
      </trkpt>
      <trkpt lat="46.31034" lon="5.44143">
        <ele>352.2</ele>
        <time>2022-03-28T14:19:07Z</time>
      </trkpt>
      <trkpt lat="46.31045" lon="5.44152">
        <ele>352.6</ele>
        <time>2022-03-28T14:19:09Z</time>
      </trkpt>
      <trkpt lat="46.3108" lon="5.44182">
        <ele>353.2</ele>
        <time>2022-03-28T14:19:15Z</time>
      </trkpt>
      <trkpt lat="46.31096" lon="5.44197">
        <ele>353.6</ele>
        <time>2022-03-28T14:19:18Z</time>
      </trkpt>
      <trkpt lat="46.31122" lon="5.44219">
        <ele>354</ele>
        <time>2022-03-28T14:19:23Z</time>
      </trkpt>
      <trkpt lat="46.31147" lon="5.44241">
        <ele>354.2</ele>
        <time>2022-03-28T14:19:27Z</time>
      </trkpt>
      <trkpt lat="46.31153" lon="5.44246">
        <ele>354.2</ele>
        <time>2022-03-28T14:19:28Z</time>
      </trkpt>
      <trkpt lat="46.31194" lon="5.44279">
        <ele>354.2</ele>
        <time>2022-03-28T14:19:35Z</time>
      </trkpt>
      <trkpt lat="46.31236" lon="5.44295">
        <ele>355.4</ele>
        <time>2022-03-28T14:19:42Z</time>
      </trkpt>
      <trkpt lat="46.31289" lon="5.44317">
        <ele>356</ele>
        <time>2022-03-28T14:19:49Z</time>
      </trkpt>
      <trkpt lat="46.31295" lon="5.4432">
        <ele>356</ele>
        <time>2022-03-28T14:19:50Z</time>
      </trkpt>
      <trkpt lat="46.31349" lon="5.44341">
        <ele>356</ele>
        <time>2022-03-28T14:19:57Z</time>
      </trkpt>
      <trkpt lat="46.31371" lon="5.4435">
        <ele>356</ele>
        <time>2022-03-28T14:20:00Z</time>
      </trkpt>
      <trkpt lat="46.3143" lon="5.44374">
        <ele>355.6</ele>
        <time>2022-03-28T14:20:07Z</time>
      </trkpt>
      <trkpt lat="46.31453" lon="5.44383">
        <ele>355.4</ele>
        <time>2022-03-28T14:20:10Z</time>
      </trkpt>
      <trkpt lat="46.31513" lon="5.44406">
        <ele>354.8</ele>
        <time>2022-03-28T14:20:17Z</time>
      </trkpt>
      <trkpt lat="46.31563" lon="5.4442">
        <ele>354.4</ele>
        <time>2022-03-28T14:20:23Z</time>
      </trkpt>
      <trkpt lat="46.3158" lon="5.44422">
        <ele>354.2</ele>
        <time>2022-03-28T14:20:25Z</time>
      </trkpt>
      <trkpt lat="46.31638" lon="5.44427">
        <ele>354.2</ele>
        <time>2022-03-28T14:20:32Z</time>
      </trkpt>
      <trkpt lat="46.31647" lon="5.44428">
        <ele>354.4</ele>
        <time>2022-03-28T14:20:33Z</time>
      </trkpt>
      <trkpt lat="46.31702" lon="5.44431">
        <ele>354.6</ele>
        <time>2022-03-28T14:20:40Z</time>
      </trkpt>
      <trkpt lat="46.31719" lon="5.44429">
        <ele>354.8</ele>
        <time>2022-03-28T14:20:42Z</time>
      </trkpt>
      <trkpt lat="46.31766" lon="5.44413">
        <ele>354.8</ele>
        <time>2022-03-28T14:20:48Z</time>
      </trkpt>
      <trkpt lat="46.31824" lon="5.4439">
        <ele>355.4</ele>
        <time>2022-03-28T14:20:56Z</time>
      </trkpt>
      <trkpt lat="46.31852" lon="5.44378">
        <ele>355.8</ele>
        <time>2022-03-28T14:21:00Z</time>
      </trkpt>
      <trkpt lat="46.31885" lon="5.44364">
        <ele>356.2</ele>
        <time>2022-03-28T14:21:05Z</time>
      </trkpt>
      <trkpt lat="46.31928" lon="5.44346">
        <ele>357</ele>
        <time>2022-03-28T14:21:12Z</time>
      </trkpt>
      <trkpt lat="46.31942" lon="5.4434">
        <ele>357.2</ele>
        <time>2022-03-28T14:21:14Z</time>
      </trkpt>
      <trkpt lat="46.31988" lon="5.44319">
        <ele>358</ele>
        <time>2022-03-28T14:21:22Z</time>
      </trkpt>
      <trkpt lat="46.31994" lon="5.44316">
        <ele>358</ele>
        <time>2022-03-28T14:21:23Z</time>
      </trkpt>
      <trkpt lat="46.3204" lon="5.44296">
        <ele>359</ele>
        <time>2022-03-28T14:21:30Z</time>
      </trkpt>
      <trkpt lat="46.32058" lon="5.44288">
        <ele>359.4</ele>
        <time>2022-03-28T14:21:33Z</time>
      </trkpt>
      <trkpt lat="46.32111" lon="5.44264">
        <ele>360</ele>
        <time>2022-03-28T14:21:41Z</time>
      </trkpt>
      <trkpt lat="46.32119" lon="5.4426">
        <ele>360</ele>
        <time>2022-03-28T14:21:42Z</time>
      </trkpt>
      <trkpt lat="46.32125" lon="5.44257">
        <ele>360.2</ele>
        <time>2022-03-28T14:21:43Z</time>
      </trkpt>
      <trkpt lat="46.32155" lon="5.44236">
        <ele>360.4</ele>
        <time>2022-03-28T14:21:48Z</time>
      </trkpt>
      <trkpt lat="46.32187" lon="5.44208">
        <ele>361.2</ele>
        <time>2022-03-28T14:21:54Z</time>
      </trkpt>
      <trkpt lat="46.32192" lon="5.44203">
        <ele>361.4</ele>
        <time>2022-03-28T14:21:55Z</time>
      </trkpt>
      <trkpt lat="46.32218" lon="5.44179">
        <ele>362.4</ele>
        <time>2022-03-28T14:22:00Z</time>
      </trkpt>
      <trkpt lat="46.32228" lon="5.4417">
        <ele>362.6</ele>
        <time>2022-03-28T14:22:02Z</time>
      </trkpt>
      <trkpt lat="46.32265" lon="5.44136">
        <ele>363.2</ele>
        <time>2022-03-28T14:22:09Z</time>
      </trkpt>
      <trkpt lat="46.3227" lon="5.44131">
        <ele>363.4</ele>
        <time>2022-03-28T14:22:10Z</time>
      </trkpt>
      <trkpt lat="46.32304" lon="5.441">
        <ele>364.4</ele>
        <time>2022-03-28T14:22:17Z</time>
      </trkpt>
      <trkpt lat="46.32314" lon="5.4409">
        <ele>364.6</ele>
        <time>2022-03-28T14:22:19Z</time>
      </trkpt>
      <trkpt lat="46.32338" lon="5.44069">
        <ele>365.8</ele>
        <time>2022-03-28T14:22:24Z</time>
      </trkpt>
      <trkpt lat="46.3235" lon="5.44058">
        <ele>366.4</ele>
        <time>2022-03-28T14:22:27Z</time>
      </trkpt>
      <trkpt lat="46.3236" lon="5.44049">
        <ele>366.8</ele>
        <time>2022-03-28T14:22:29Z</time>
      </trkpt>
      <trkpt lat="46.32373" lon="5.44037">
        <ele>367.8</ele>
        <time>2022-03-28T14:22:33Z</time>
      </trkpt>
      <trkpt lat="46.32382" lon="5.44029">
        <ele>368.2</ele>
        <time>2022-03-28T14:22:34Z</time>
      </trkpt>
      <trkpt lat="46.32386" lon="5.44026">
        <ele>368.4</ele>
        <time>2022-03-28T14:22:35Z</time>
      </trkpt>
      <trkpt lat="46.32391" lon="5.44023">
        <ele>368.6</ele>
        <time>2022-03-28T14:22:36Z</time>
      </trkpt>
      <trkpt lat="46.32398" lon="5.44016">
        <ele>369.2</ele>
        <time>2022-03-28T14:22:38Z</time>
      </trkpt>
      <trkpt lat="46.32424" lon="5.43995">
        <ele>370</ele>
        <time>2022-03-28T14:22:44Z</time>
      </trkpt>
      <trkpt lat="46.32428" lon="5.43991">
        <ele>370.2</ele>
        <time>2022-03-28T14:22:45Z</time>
      </trkpt>
      <trkpt lat="46.32442" lon="5.43978">
        <ele>371.4</ele>
        <time>2022-03-28T14:22:49Z</time>
      </trkpt>
      <trkpt lat="46.32467" lon="5.43955">
        <ele>372.4</ele>
        <time>2022-03-28T14:22:55Z</time>
      </trkpt>
      <trkpt lat="46.32471" lon="5.43951">
        <ele>372.6</ele>
        <time>2022-03-28T14:22:56Z</time>
      </trkpt>
      <trkpt lat="46.32486" lon="5.43938">
        <ele>373.6</ele>
        <time>2022-03-28T14:23:00Z</time>
      </trkpt>
      <trkpt lat="46.32511" lon="5.43916">
        <ele>374.6</ele>
        <time>2022-03-28T14:23:06Z</time>
      </trkpt>
      <trkpt lat="46.32516" lon="5.43912">
        <ele>374.8</ele>
        <time>2022-03-28T14:23:07Z</time>
      </trkpt>
      <trkpt lat="46.32546" lon="5.43887">
        <ele>375.6</ele>
        <time>2022-03-28T14:23:14Z</time>
      </trkpt>
      <trkpt lat="46.3255" lon="5.43883">
        <ele>375.8</ele>
        <time>2022-03-28T14:23:15Z</time>
      </trkpt>
      <trkpt lat="46.32574" lon="5.43866">
        <ele>376.8</ele>
        <time>2022-03-28T14:23:20Z</time>
      </trkpt>
      <trkpt lat="46.32596" lon="5.43853">
        <ele>377</ele>
        <time>2022-03-28T14:23:24Z</time>
      </trkpt>
      <trkpt lat="46.32641" lon="5.43832">
        <ele>377</ele>
        <time>2022-03-28T14:23:31Z</time>
      </trkpt>
      <trkpt lat="46.32686" lon="5.4382">
        <ele>376.8</ele>
        <time>2022-03-28T14:23:37Z</time>
      </trkpt>
      <trkpt lat="46.32695" lon="5.43818">
        <ele>376.6</ele>
        <time>2022-03-28T14:23:38Z</time>
      </trkpt>
      <trkpt lat="46.32756" lon="5.43804">
        <ele>376</ele>
        <time>2022-03-28T14:23:46Z</time>
      </trkpt>
      <trkpt lat="46.32817" lon="5.43788">
        <ele>376.4</ele>
        <time>2022-03-28T14:23:54Z</time>
      </trkpt>
      <trkpt lat="46.32822" lon="5.43787">
        <ele>376.4</ele>
        <time>2022-03-28T14:23:55Z</time>
      </trkpt>
      <trkpt lat="46.32838" lon="5.43784">
        <ele>376.6</ele>
        <time>2022-03-28T14:23:57Z</time>
      </trkpt>
      <trkpt lat="46.32858" lon="5.43778">
        <ele>377</ele>
        <time>2022-03-28T14:24:00Z</time>
      </trkpt>
      <trkpt lat="46.32891" lon="5.43768">
        <ele>377.4</ele>
        <time>2022-03-28T14:24:05Z</time>
      </trkpt>
      <trkpt lat="46.32898" lon="5.43767">
        <ele>377.6</ele>
        <time>2022-03-28T14:24:06Z</time>
      </trkpt>
      <trkpt lat="46.32906" lon="5.43766">
        <ele>377.8</ele>
        <time>2022-03-28T14:24:07Z</time>
      </trkpt>
      <trkpt lat="46.32938" lon="5.43755">
        <ele>378.2</ele>
        <time>2022-03-28T14:24:12Z</time>
      </trkpt>
      <trkpt lat="46.32992" lon="5.43744">
        <ele>378.4</ele>
        <time>2022-03-28T14:24:20Z</time>
      </trkpt>
      <trkpt lat="46.33049" lon="5.43738">
        <ele>377.6</ele>
        <time>2022-03-28T14:24:27Z</time>
      </trkpt>
      <trkpt lat="46.33073" lon="5.43736">
        <ele>377.2</ele>
        <time>2022-03-28T14:24:30Z</time>
      </trkpt>
      <trkpt lat="46.33116" lon="5.43734">
        <ele>376.6</ele>
        <time>2022-03-28T14:24:35Z</time>
      </trkpt>
      <trkpt lat="46.33167" lon="5.43733">
        <ele>376</ele>
        <time>2022-03-28T14:24:41Z</time>
      </trkpt>
      <trkpt lat="46.33186" lon="5.43732">
        <ele>375.6</ele>
        <time>2022-03-28T14:24:43Z</time>
      </trkpt>
      <trkpt lat="46.33202" lon="5.43732">
        <ele>374.8</ele>
        <time>2022-03-28T14:24:45Z</time>
      </trkpt>
      <trkpt lat="46.33239" lon="5.43728">
        <ele>373.2</ele>
        <time>2022-03-28T14:24:49Z</time>
      </trkpt>
      <trkpt lat="46.33255" lon="5.43726">
        <ele>372.8</ele>
        <time>2022-03-28T14:24:51Z</time>
      </trkpt>
      <trkpt lat="46.33284" lon="5.43725">
        <ele>372.2</ele>
        <time>2022-03-28T14:24:54Z</time>
      </trkpt>
      <trkpt lat="46.333" lon="5.43723">
        <ele>371.6</ele>
        <time>2022-03-28T14:24:56Z</time>
      </trkpt>
      <trkpt lat="46.33321" lon="5.4372">
        <ele>371</ele>
        <time>2022-03-28T14:24:58Z</time>
      </trkpt>
      <trkpt lat="46.3336" lon="5.43715">
        <ele>370</ele>
        <time>2022-03-28T14:25:02Z</time>
      </trkpt>
      <trkpt lat="46.3339" lon="5.43709">
        <ele>368.8</ele>
        <time>2022-03-28T14:25:05Z</time>
      </trkpt>
      <trkpt lat="46.33409" lon="5.43705">
        <ele>367.6</ele>
        <time>2022-03-28T14:25:07Z</time>
      </trkpt>
      <trkpt lat="46.33438" lon="5.43698">
        <ele>366.6</ele>
        <time>2022-03-28T14:25:10Z</time>
      </trkpt>
      <trkpt lat="46.33445" lon="5.43696">
        <ele>366.4</ele>
        <time>2022-03-28T14:25:11Z</time>
      </trkpt>
      <trkpt lat="46.33467" lon="5.43692">
        <ele>365.6</ele>
        <time>2022-03-28T14:25:13Z</time>
      </trkpt>
      <trkpt lat="46.33504" lon="5.43686">
        <ele>364</ele>
        <time>2022-03-28T14:25:17Z</time>
      </trkpt>
      <trkpt lat="46.33516" lon="5.43686">
        <ele>364</ele>
        <time>2022-03-28T14:25:18Z</time>
      </trkpt>
      <trkpt lat="46.33526" lon="5.43685">
        <ele>363</ele>
        <time>2022-03-28T14:25:19Z</time>
      </trkpt>
      <trkpt lat="46.33543" lon="5.43683">
        <ele>361.8</ele>
        <time>2022-03-28T14:25:21Z</time>
      </trkpt>
      <trkpt lat="46.33573" lon="5.43681">
        <ele>360.8</ele>
        <time>2022-03-28T14:25:24Z</time>
      </trkpt>
      <trkpt lat="46.33591" lon="5.43681">
        <ele>360.4</ele>
        <time>2022-03-28T14:25:26Z</time>
      </trkpt>
      <trkpt lat="46.33612" lon="5.43683">
        <ele>359.8</ele>
        <time>2022-03-28T14:25:28Z</time>
      </trkpt>
      <trkpt lat="46.33647" lon="5.4369">
        <ele>358.8</ele>
        <time>2022-03-28T14:25:32Z</time>
      </trkpt>
      <trkpt lat="46.33657" lon="5.43695">
        <ele>358.4</ele>
        <time>2022-03-28T14:25:33Z</time>
      </trkpt>
      <trkpt lat="46.33688" lon="5.43709">
        <ele>358</ele>
        <time>2022-03-28T14:25:37Z</time>
      </trkpt>
      <trkpt lat="46.33713" lon="5.43724">
        <ele>357.4</ele>
        <time>2022-03-28T14:25:40Z</time>
      </trkpt>
      <trkpt lat="46.33733" lon="5.43739">
        <ele>357.4</ele>
        <time>2022-03-28T14:25:43Z</time>
      </trkpt>
      <trkpt lat="46.33784" lon="5.43786">
        <ele>357</ele>
        <time>2022-03-28T14:25:51Z</time>
      </trkpt>
      <trkpt lat="46.33833" lon="5.43834">
        <ele>356.6</ele>
        <time>2022-03-28T14:25:59Z</time>
      </trkpt>
      <trkpt lat="46.33879" lon="5.43881">
        <ele>356.8</ele>
        <time>2022-03-28T14:26:07Z</time>
      </trkpt>
      <trkpt lat="46.33891" lon="5.43893">
        <ele>356.8</ele>
        <time>2022-03-28T14:26:09Z</time>
      </trkpt>
      <trkpt lat="46.33931" lon="5.43924">
        <ele>356.8</ele>
        <time>2022-03-28T14:26:15Z</time>
      </trkpt>
      <trkpt lat="46.33964" lon="5.43933">
        <ele>357.2</ele>
        <time>2022-03-28T14:26:20Z</time>
      </trkpt>
      <trkpt lat="46.34003" lon="5.43934">
        <ele>357.8</ele>
        <time>2022-03-28T14:26:26Z</time>
      </trkpt>
      <trkpt lat="46.34059" lon="5.43928">
        <ele>358.2</ele>
        <time>2022-03-28T14:26:35Z</time>
      </trkpt>
      <trkpt lat="46.34081" lon="5.43926">
        <ele>358.2</ele>
        <time>2022-03-28T14:26:38Z</time>
      </trkpt>
      <trkpt lat="46.3414" lon="5.43919">
        <ele>358.4</ele>
        <time>2022-03-28T14:26:47Z</time>
      </trkpt>
      <trkpt lat="46.34145" lon="5.43918">
        <ele>358.6</ele>
        <time>2022-03-28T14:26:48Z</time>
      </trkpt>
      <trkpt lat="46.34153" lon="5.43918">
        <ele>358.6</ele>
        <time>2022-03-28T14:26:49Z</time>
      </trkpt>
      <trkpt lat="46.34214" lon="5.4391">
        <ele>358.8</ele>
        <time>2022-03-28T14:26:58Z</time>
      </trkpt>
      <trkpt lat="46.34226" lon="5.43908">
        <ele>358.8</ele>
        <time>2022-03-28T14:27:00Z</time>
      </trkpt>
      <trkpt lat="46.34284" lon="5.43897">
        <ele>358.8</ele>
        <time>2022-03-28T14:27:09Z</time>
      </trkpt>
      <trkpt lat="46.34291" lon="5.43896">
        <ele>358.8</ele>
        <time>2022-03-28T14:27:10Z</time>
      </trkpt>
      <trkpt lat="46.3434" lon="5.43878">
        <ele>359.4</ele>
        <time>2022-03-28T14:27:18Z</time>
      </trkpt>
      <trkpt lat="46.34391" lon="5.43853">
        <ele>359.4</ele>
        <time>2022-03-28T14:27:26Z</time>
      </trkpt>
      <trkpt lat="46.34437" lon="5.43825">
        <ele>359.8</ele>
        <time>2022-03-28T14:27:34Z</time>
      </trkpt>
      <trkpt lat="46.34471" lon="5.43804">
        <ele>360.2</ele>
        <time>2022-03-28T14:27:40Z</time>
      </trkpt>
      <trkpt lat="46.3452" lon="5.43781">
        <ele>360.8</ele>
        <time>2022-03-28T14:27:48Z</time>
      </trkpt>
      <trkpt lat="46.34526" lon="5.43779">
        <ele>360.8</ele>
        <time>2022-03-28T14:27:49Z</time>
      </trkpt>
      <trkpt lat="46.34579" lon="5.43758">
        <ele>361.2</ele>
        <time>2022-03-28T14:27:57Z</time>
      </trkpt>
      <trkpt lat="46.34632" lon="5.43737">
        <ele>361.4</ele>
        <time>2022-03-28T14:28:05Z</time>
      </trkpt>
      <trkpt lat="46.34647" lon="5.43733">
        <ele>361.6</ele>
        <time>2022-03-28T14:28:07Z</time>
      </trkpt>
      <trkpt lat="46.34687" lon="5.4373">
        <ele>361.8</ele>
        <time>2022-03-28T14:28:13Z</time>
      </trkpt>
      <trkpt lat="46.34694" lon="5.43731">
        <ele>362</ele>
        <time>2022-03-28T14:28:14Z</time>
      </trkpt>
      <trkpt lat="46.34735" lon="5.43742">
        <ele>362.6</ele>
        <time>2022-03-28T14:28:21Z</time>
      </trkpt>
      <trkpt lat="46.34791" lon="5.43766">
        <ele>362.6</ele>
        <time>2022-03-28T14:28:30Z</time>
      </trkpt>
      <trkpt lat="46.34826" lon="5.43788">
        <ele>362.4</ele>
        <time>2022-03-28T14:28:35Z</time>
      </trkpt>
      <trkpt lat="46.3486" lon="5.43811">
        <ele>361.8</ele>
        <time>2022-03-28T14:28:40Z</time>
      </trkpt>
      <trkpt lat="46.34907" lon="5.43829">
        <ele>360.8</ele>
        <time>2022-03-28T14:28:46Z</time>
      </trkpt>
      <trkpt lat="46.34915" lon="5.4383">
        <ele>360.8</ele>
        <time>2022-03-28T14:28:47Z</time>
      </trkpt>
      <trkpt lat="46.34941" lon="5.43835">
        <ele>360.6</ele>
        <time>2022-03-28T14:28:50Z</time>
      </trkpt>
      <trkpt lat="46.34971" lon="5.43836">
        <ele>360.4</ele>
        <time>2022-03-28T14:28:54Z</time>
      </trkpt>
      <trkpt lat="46.34985" lon="5.43836">
        <ele>360.4</ele>
        <time>2022-03-28T14:28:56Z</time>
      </trkpt>
      <trkpt lat="46.34999" lon="5.43837">
        <ele>360.6</ele>
        <time>2022-03-28T14:28:58Z</time>
      </trkpt>
      <trkpt lat="46.35024" lon="5.43842">
        <ele>360.8</ele>
        <time>2022-03-28T14:29:02Z</time>
      </trkpt>
      <trkpt lat="46.35049" lon="5.43844">
        <ele>360.8</ele>
        <time>2022-03-28T14:29:06Z</time>
      </trkpt>
      <trkpt lat="46.35061" lon="5.43843">
        <ele>360.8</ele>
        <time>2022-03-28T14:29:08Z</time>
      </trkpt>
      <trkpt lat="46.35103" lon="5.43833">
        <ele>361</ele>
        <time>2022-03-28T14:29:15Z</time>
      </trkpt>
      <trkpt lat="46.35131" lon="5.43806">
        <ele>361.4</ele>
        <time>2022-03-28T14:29:21Z</time>
      </trkpt>
      <trkpt lat="46.3514" lon="5.43796">
        <ele>361.6</ele>
        <time>2022-03-28T14:29:23Z</time>
      </trkpt>
      <trkpt lat="46.35144" lon="5.43793">
        <ele>361.8</ele>
        <time>2022-03-28T14:29:24Z</time>
      </trkpt>
      <trkpt lat="46.35152" lon="5.43785">
        <ele>362.2</ele>
        <time>2022-03-28T14:29:26Z</time>
      </trkpt>
      <trkpt lat="46.35164" lon="5.43774">
        <ele>362.6</ele>
        <time>2022-03-28T14:29:29Z</time>
      </trkpt>
      <trkpt lat="46.35174" lon="5.43761">
        <ele>362.8</ele>
        <time>2022-03-28T14:29:32Z</time>
      </trkpt>
      <trkpt lat="46.35183" lon="5.43749">
        <ele>363.4</ele>
        <time>2022-03-28T14:29:35Z</time>
      </trkpt>
      <trkpt lat="46.35194" lon="5.43736">
        <ele>364</ele>
        <time>2022-03-28T14:29:38Z</time>
      </trkpt>
      <trkpt lat="46.35213" lon="5.43715">
        <ele>365.2</ele>
        <time>2022-03-28T14:29:43Z</time>
      </trkpt>
      <trkpt lat="46.35223" lon="5.43705">
        <ele>365.8</ele>
        <time>2022-03-28T14:29:46Z</time>
      </trkpt>
      <trkpt lat="46.3523" lon="5.437">
        <ele>366.2</ele>
        <time>2022-03-28T14:29:48Z</time>
      </trkpt>
      <trkpt lat="46.35244" lon="5.43691">
        <ele>367.4</ele>
        <time>2022-03-28T14:29:52Z</time>
      </trkpt>
      <trkpt lat="46.35252" lon="5.43686">
        <ele>367.6</ele>
        <time>2022-03-28T14:29:54Z</time>
      </trkpt>
      <trkpt lat="46.35268" lon="5.43679">
        <ele>368.4</ele>
        <time>2022-03-28T14:29:58Z</time>
      </trkpt>
      <trkpt lat="46.35284" lon="5.43675">
        <ele>369</ele>
        <time>2022-03-28T14:30:02Z</time>
      </trkpt>
      <trkpt lat="46.35295" lon="5.43673">
        <ele>369.6</ele>
        <time>2022-03-28T14:30:05Z</time>
      </trkpt>
      <trkpt lat="46.35322" lon="5.4367">
        <ele>370.6</ele>
        <time>2022-03-28T14:30:12Z</time>
      </trkpt>
      <trkpt lat="46.3535" lon="5.43666">
        <ele>372</ele>
        <time>2022-03-28T14:30:19Z</time>
      </trkpt>
      <trkpt lat="46.35362" lon="5.43664">
        <ele>372.6</ele>
        <time>2022-03-28T14:30:22Z</time>
      </trkpt>
      <trkpt lat="46.35374" lon="5.43663">
        <ele>373</ele>
        <time>2022-03-28T14:30:25Z</time>
      </trkpt>
      <trkpt lat="46.35394" lon="5.43661">
        <ele>374.2</ele>
        <time>2022-03-28T14:30:30Z</time>
      </trkpt>
      <trkpt lat="46.35405" lon="5.43659">
        <ele>375</ele>
        <time>2022-03-28T14:30:33Z</time>
      </trkpt>
      <trkpt lat="46.35414" lon="5.43658">
        <ele>375.2</ele>
        <time>2022-03-28T14:30:35Z</time>
      </trkpt>
      <trkpt lat="46.35437" lon="5.43655">
        <ele>376.4</ele>
        <time>2022-03-28T14:30:41Z</time>
      </trkpt>
      <trkpt lat="46.35441" lon="5.43654">
        <ele>376.6</ele>
        <time>2022-03-28T14:30:42Z</time>
      </trkpt>
      <trkpt lat="46.35455" lon="5.43652">
        <ele>377.4</ele>
        <time>2022-03-28T14:30:45Z</time>
      </trkpt>
      <trkpt lat="46.35481" lon="5.43649">
        <ele>378.4</ele>
        <time>2022-03-28T14:30:51Z</time>
      </trkpt>
      <trkpt lat="46.35489" lon="5.43648">
        <ele>378.8</ele>
        <time>2022-03-28T14:30:53Z</time>
      </trkpt>
      <trkpt lat="46.35507" lon="5.43646">
        <ele>379.8</ele>
        <time>2022-03-28T14:30:57Z</time>
      </trkpt>
      <trkpt lat="46.35534" lon="5.43642">
        <ele>381</ele>
        <time>2022-03-28T14:31:03Z</time>
      </trkpt>
      <trkpt lat="46.35558" lon="5.4364">
        <ele>382.2</ele>
        <time>2022-03-28T14:31:08Z</time>
      </trkpt>
      <trkpt lat="46.35583" lon="5.43636">
        <ele>382.8</ele>
        <time>2022-03-28T14:31:13Z</time>
      </trkpt>
      <trkpt lat="46.35588" lon="5.43635">
        <ele>383</ele>
        <time>2022-03-28T14:31:14Z</time>
      </trkpt>
      <trkpt lat="46.35595" lon="5.43634">
        <ele>383.2</ele>
        <time>2022-03-28T14:31:15Z</time>
      </trkpt>
      <trkpt lat="46.35633" lon="5.43629">
        <ele>384</ele>
        <time>2022-03-28T14:31:22Z</time>
      </trkpt>
      <trkpt lat="46.35643" lon="5.43628">
        <ele>384.2</ele>
        <time>2022-03-28T14:31:24Z</time>
      </trkpt>
      <trkpt lat="46.35679" lon="5.43623">
        <ele>384.4</ele>
        <time>2022-03-28T14:31:30Z</time>
      </trkpt>
      <trkpt lat="46.35738" lon="5.43613">
        <ele>384.8</ele>
        <time>2022-03-28T14:31:39Z</time>
      </trkpt>
      <trkpt lat="46.35797" lon="5.43599">
        <ele>384.2</ele>
        <time>2022-03-28T14:31:47Z</time>
      </trkpt>
      <trkpt lat="46.35811" lon="5.43596">
        <ele>383.6</ele>
        <time>2022-03-28T14:31:49Z</time>
      </trkpt>
      <trkpt lat="46.3585" lon="5.43587">
        <ele>383</ele>
        <time>2022-03-28T14:31:55Z</time>
      </trkpt>
      <trkpt lat="46.3587" lon="5.43582">
        <ele>383</ele>
        <time>2022-03-28T14:31:58Z</time>
      </trkpt>
      <trkpt lat="46.35915" lon="5.43572">
        <ele>382.6</ele>
        <time>2022-03-28T14:32:04Z</time>
      </trkpt>
      <trkpt lat="46.3597" lon="5.43566">
        <ele>382.4</ele>
        <time>2022-03-28T14:32:10Z</time>
      </trkpt>
      <trkpt lat="46.36015" lon="5.43565">
        <ele>382.2</ele>
        <time>2022-03-28T14:32:15Z</time>
      </trkpt>
      <trkpt lat="46.3605" lon="5.43566">
        <ele>381.4</ele>
        <time>2022-03-28T14:32:19Z</time>
      </trkpt>
      <trkpt lat="46.36059" lon="5.43567">
        <ele>381</ele>
        <time>2022-03-28T14:32:20Z</time>
      </trkpt>
      <trkpt lat="46.36104" lon="5.4357">
        <ele>379.8</ele>
        <time>2022-03-28T14:32:25Z</time>
      </trkpt>
      <trkpt lat="46.36114" lon="5.43571">
        <ele>379.8</ele>
        <time>2022-03-28T14:32:26Z</time>
      </trkpt>
      <trkpt lat="46.3615" lon="5.43574">
        <ele>378.6</ele>
        <time>2022-03-28T14:32:30Z</time>
      </trkpt>
      <trkpt lat="46.36184" lon="5.43577">
        <ele>378</ele>
        <time>2022-03-28T14:32:34Z</time>
      </trkpt>
      <trkpt lat="46.36211" lon="5.43579">
        <ele>377.6</ele>
        <time>2022-03-28T14:32:37Z</time>
      </trkpt>
      <trkpt lat="46.36256" lon="5.43585">
        <ele>376.6</ele>
        <time>2022-03-28T14:32:42Z</time>
      </trkpt>
      <trkpt lat="46.36265" lon="5.43587">
        <ele>376.4</ele>
        <time>2022-03-28T14:32:43Z</time>
      </trkpt>
      <trkpt lat="46.36294" lon="5.43594">
        <ele>375.2</ele>
        <time>2022-03-28T14:32:46Z</time>
      </trkpt>
      <trkpt lat="46.36333" lon="5.43603">
        <ele>374.2</ele>
        <time>2022-03-28T14:32:50Z</time>
      </trkpt>
      <trkpt lat="46.36343" lon="5.43605">
        <ele>374.2</ele>
        <time>2022-03-28T14:32:51Z</time>
      </trkpt>
      <trkpt lat="46.36374" lon="5.4361">
        <ele>372.8</ele>
        <time>2022-03-28T14:32:54Z</time>
      </trkpt>
      <trkpt lat="46.36413" lon="5.43615">
        <ele>371.8</ele>
        <time>2022-03-28T14:32:58Z</time>
      </trkpt>
      <trkpt lat="46.36423" lon="5.43615">
        <ele>371.6</ele>
        <time>2022-03-28T14:32:59Z</time>
      </trkpt>
      <trkpt lat="46.36462" lon="5.43616">
        <ele>370.8</ele>
        <time>2022-03-28T14:33:03Z</time>
      </trkpt>
      <trkpt lat="46.36481" lon="5.43614">
        <ele>370.4</ele>
        <time>2022-03-28T14:33:05Z</time>
      </trkpt>
      <trkpt lat="46.36518" lon="5.43609">
        <ele>369.8</ele>
        <time>2022-03-28T14:33:09Z</time>
      </trkpt>
      <trkpt lat="46.36562" lon="5.43602">
        <ele>369.8</ele>
        <time>2022-03-28T14:33:14Z</time>
      </trkpt>
      <trkpt lat="46.36623" lon="5.43592">
        <ele>369.6</ele>
        <time>2022-03-28T14:33:21Z</time>
      </trkpt>
      <trkpt lat="46.3664" lon="5.4359">
        <ele>369.6</ele>
        <time>2022-03-28T14:33:23Z</time>
      </trkpt>
      <trkpt lat="46.36698" lon="5.4358">
        <ele>369.8</ele>
        <time>2022-03-28T14:33:30Z</time>
      </trkpt>
      <trkpt lat="46.36721" lon="5.43577">
        <ele>370.2</ele>
        <time>2022-03-28T14:33:33Z</time>
      </trkpt>
      <trkpt lat="46.3675" lon="5.43574">
        <ele>371</ele>
        <time>2022-03-28T14:33:37Z</time>
      </trkpt>
      <trkpt lat="46.36772" lon="5.43574">
        <ele>371.4</ele>
        <time>2022-03-28T14:33:40Z</time>
      </trkpt>
      <trkpt lat="46.36785" lon="5.43573">
        <ele>372</ele>
        <time>2022-03-28T14:33:42Z</time>
      </trkpt>
      <trkpt lat="46.36819" lon="5.43572">
        <ele>372.6</ele>
        <time>2022-03-28T14:33:47Z</time>
      </trkpt>
      <trkpt lat="46.36854" lon="5.43573">
        <ele>373</ele>
        <time>2022-03-28T14:33:52Z</time>
      </trkpt>
      <trkpt lat="46.36881" lon="5.43574">
        <ele>373.4</ele>
        <time>2022-03-28T14:33:56Z</time>
      </trkpt>
      <trkpt lat="46.36931" lon="5.43576">
        <ele>374.2</ele>
        <time>2022-03-28T14:34:04Z</time>
      </trkpt>
      <trkpt lat="46.36937" lon="5.43576">
        <ele>374.4</ele>
        <time>2022-03-28T14:34:05Z</time>
      </trkpt>
      <trkpt lat="46.36967" lon="5.43578">
        <ele>375.2</ele>
        <time>2022-03-28T14:34:10Z</time>
      </trkpt>
      <trkpt lat="46.36983" lon="5.43581">
        <ele>376.2</ele>
        <time>2022-03-28T14:34:13Z</time>
      </trkpt>
      <trkpt lat="46.3702" lon="5.43592">
        <ele>377.2</ele>
        <time>2022-03-28T14:34:20Z</time>
      </trkpt>
      <trkpt lat="46.37025" lon="5.43593">
        <ele>377.4</ele>
        <time>2022-03-28T14:34:21Z</time>
      </trkpt>
      <trkpt lat="46.37031" lon="5.43595">
        <ele>377.6</ele>
        <time>2022-03-28T14:34:22Z</time>
      </trkpt>
      <trkpt lat="46.37052" lon="5.43605">
        <ele>378.6</ele>
        <time>2022-03-28T14:34:26Z</time>
      </trkpt>
      <trkpt lat="46.37057" lon="5.43607">
        <ele>378.6</ele>
        <time>2022-03-28T14:34:27Z</time>
      </trkpt>
      <trkpt lat="46.3709" lon="5.43622">
        <ele>379.6</ele>
        <time>2022-03-28T14:34:33Z</time>
      </trkpt>
      <trkpt lat="46.37095" lon="5.43624">
        <ele>379.6</ele>
        <time>2022-03-28T14:34:34Z</time>
      </trkpt>
      <trkpt lat="46.37134" lon="5.43641">
        <ele>380.6</ele>
        <time>2022-03-28T14:34:41Z</time>
      </trkpt>
      <trkpt lat="46.37144" lon="5.43646">
        <ele>381</ele>
        <time>2022-03-28T14:34:43Z</time>
      </trkpt>
      <trkpt lat="46.37184" lon="5.43662">
        <ele>382</ele>
        <time>2022-03-28T14:34:51Z</time>
      </trkpt>
      <trkpt lat="46.37225" lon="5.43681">
        <ele>383</ele>
        <time>2022-03-28T14:34:59Z</time>
      </trkpt>
      <trkpt lat="46.37265" lon="5.43705">
        <ele>384.2</ele>
        <time>2022-03-28T14:35:07Z</time>
      </trkpt>
      <trkpt lat="46.3727" lon="5.43709">
        <ele>384.4</ele>
        <time>2022-03-28T14:35:08Z</time>
      </trkpt>
      <trkpt lat="46.37318" lon="5.43746">
        <ele>384.8</ele>
        <time>2022-03-28T14:35:17Z</time>
      </trkpt>
      <trkpt lat="46.37324" lon="5.4375">
        <ele>384.8</ele>
        <time>2022-03-28T14:35:18Z</time>
      </trkpt>
      <trkpt lat="46.37377" lon="5.43791">
        <ele>384.2</ele>
        <time>2022-03-28T14:35:26Z</time>
      </trkpt>
      <trkpt lat="46.37422" lon="5.43833">
        <ele>383.2</ele>
        <time>2022-03-28T14:35:32Z</time>
      </trkpt>
      <trkpt lat="46.37457" lon="5.43862">
        <ele>382</ele>
        <time>2022-03-28T14:35:36Z</time>
      </trkpt>
      <trkpt lat="46.37475" lon="5.43874">
        <ele>380.8</ele>
        <time>2022-03-28T14:35:38Z</time>
      </trkpt>
      <trkpt lat="46.37524" lon="5.43898">
        <ele>379.6</ele>
        <time>2022-03-28T14:35:43Z</time>
      </trkpt>
      <trkpt lat="46.37534" lon="5.43901">
        <ele>379.4</ele>
        <time>2022-03-28T14:35:44Z</time>
      </trkpt>
      <trkpt lat="46.37554" lon="5.43909">
        <ele>378.6</ele>
        <time>2022-03-28T14:35:46Z</time>
      </trkpt>
      <trkpt lat="46.37602" lon="5.43932">
        <ele>377.6</ele>
        <time>2022-03-28T14:35:51Z</time>
      </trkpt>
      <trkpt lat="46.37612" lon="5.43937">
        <ele>377.4</ele>
        <time>2022-03-28T14:35:52Z</time>
      </trkpt>
      <trkpt lat="46.3765" lon="5.43958">
        <ele>376.2</ele>
        <time>2022-03-28T14:35:56Z</time>
      </trkpt>
      <trkpt lat="46.37696" lon="5.43983">
        <ele>375.2</ele>
        <time>2022-03-28T14:36:01Z</time>
      </trkpt>
      <trkpt lat="46.37714" lon="5.43993">
        <ele>374.8</ele>
        <time>2022-03-28T14:36:03Z</time>
      </trkpt>
      <trkpt lat="46.37733" lon="5.44003">
        <ele>374.4</ele>
        <time>2022-03-28T14:36:05Z</time>
      </trkpt>
      <trkpt lat="46.37766" lon="5.44024">
        <ele>374.2</ele>
        <time>2022-03-28T14:36:09Z</time>
      </trkpt>
      <trkpt lat="46.37777" lon="5.44031">
        <ele>374</ele>
        <time>2022-03-28T14:36:10Z</time>
      </trkpt>
      <trkpt lat="46.37828" lon="5.44068">
        <ele>373.6</ele>
        <time>2022-03-28T14:36:16Z</time>
      </trkpt>
      <trkpt lat="46.37853" lon="5.44088">
        <ele>373.6</ele>
        <time>2022-03-28T14:36:19Z</time>
      </trkpt>
      <trkpt lat="46.37903" lon="5.44129">
        <ele>373.4</ele>
        <time>2022-03-28T14:36:25Z</time>
      </trkpt>
      <trkpt lat="46.37952" lon="5.44171">
        <ele>373.4</ele>
        <time>2022-03-28T14:36:31Z</time>
      </trkpt>
      <trkpt lat="46.37999" lon="5.44212">
        <ele>373.6</ele>
        <time>2022-03-28T14:36:37Z</time>
      </trkpt>
      <trkpt lat="46.38039" lon="5.44249">
        <ele>373.6</ele>
        <time>2022-03-28T14:36:42Z</time>
      </trkpt>
      <trkpt lat="46.38084" lon="5.44291">
        <ele>373.4</ele>
        <time>2022-03-28T14:36:48Z</time>
      </trkpt>
      <trkpt lat="46.38109" lon="5.44314">
        <ele>373.2</ele>
        <time>2022-03-28T14:36:51Z</time>
      </trkpt>
      <trkpt lat="46.38148" lon="5.44349">
        <ele>373</ele>
        <time>2022-03-28T14:36:56Z</time>
      </trkpt>
      <trkpt lat="46.38192" lon="5.44389">
        <ele>373.4</ele>
        <time>2022-03-28T14:37:02Z</time>
      </trkpt>
      <trkpt lat="46.3824" lon="5.44433">
        <ele>374</ele>
        <time>2022-03-28T14:37:09Z</time>
      </trkpt>
      <trkpt lat="46.38266" lon="5.44458">
        <ele>374.4</ele>
        <time>2022-03-28T14:37:13Z</time>
      </trkpt>
      <trkpt lat="46.38304" lon="5.44493">
        <ele>375</ele>
        <time>2022-03-28T14:37:19Z</time>
      </trkpt>
      <trkpt lat="46.38334" lon="5.44521">
        <ele>375.6</ele>
        <time>2022-03-28T14:37:24Z</time>
      </trkpt>
      <trkpt lat="46.38363" lon="5.44547">
        <ele>376</ele>
        <time>2022-03-28T14:37:29Z</time>
      </trkpt>
      <trkpt lat="46.38409" lon="5.44591">
        <ele>376</ele>
        <time>2022-03-28T14:37:37Z</time>
      </trkpt>
      <trkpt lat="46.38421" lon="5.44602">
        <ele>376</ele>
        <time>2022-03-28T14:37:39Z</time>
      </trkpt>
      <trkpt lat="46.38471" lon="5.44648">
        <ele>377</ele>
        <time>2022-03-28T14:37:48Z</time>
      </trkpt>
      <trkpt lat="46.38481" lon="5.44658">
        <ele>377.2</ele>
        <time>2022-03-28T14:37:50Z</time>
      </trkpt>
      <trkpt lat="46.38509" lon="5.44683">
        <ele>378</ele>
        <time>2022-03-28T14:37:55Z</time>
      </trkpt>
      <trkpt lat="46.38519" lon="5.44694">
        <ele>378.2</ele>
        <time>2022-03-28T14:37:57Z</time>
      </trkpt>
      <trkpt lat="46.38564" lon="5.44752">
        <ele>379</ele>
        <time>2022-03-28T14:38:06Z</time>
      </trkpt>
      <trkpt lat="46.38607" lon="5.44809">
        <ele>379.4</ele>
        <time>2022-03-28T14:38:14Z</time>
      </trkpt>
      <trkpt lat="46.38651" lon="5.44866">
        <ele>379.4</ele>
        <time>2022-03-28T14:38:22Z</time>
      </trkpt>
      <trkpt lat="46.3866" lon="5.44878">
        <ele>379.6</ele>
        <time>2022-03-28T14:38:24Z</time>
      </trkpt>
      <trkpt lat="46.38694" lon="5.44922">
        <ele>380.2</ele>
        <time>2022-03-28T14:38:30Z</time>
      </trkpt>
      <trkpt lat="46.38715" lon="5.44949">
        <ele>380</ele>
        <time>2022-03-28T14:38:34Z</time>
      </trkpt>
      <trkpt lat="46.3876" lon="5.45007">
        <ele>380</ele>
        <time>2022-03-28T14:38:42Z</time>
      </trkpt>
      <trkpt lat="46.38775" lon="5.45027">
        <ele>380</ele>
        <time>2022-03-28T14:38:45Z</time>
      </trkpt>
      <trkpt lat="46.38814" lon="5.45077">
        <ele>381.2</ele>
        <time>2022-03-28T14:38:53Z</time>
      </trkpt>
      <trkpt lat="46.38829" lon="5.45096">
        <ele>381.4</ele>
        <time>2022-03-28T14:38:56Z</time>
      </trkpt>
      <trkpt lat="46.38846" lon="5.45117">
        <ele>382.2</ele>
        <time>2022-03-28T14:39:00Z</time>
      </trkpt>
      <trkpt lat="46.3885" lon="5.45122">
        <ele>382.4</ele>
        <time>2022-03-28T14:39:01Z</time>
      </trkpt>
      <trkpt lat="46.38867" lon="5.4514">
        <ele>383</ele>
        <time>2022-03-28T14:39:05Z</time>
      </trkpt>
      <trkpt lat="46.38872" lon="5.45144">
        <ele>383.4</ele>
        <time>2022-03-28T14:39:06Z</time>
      </trkpt>
      <trkpt lat="46.38877" lon="5.45147">
        <ele>383.6</ele>
        <time>2022-03-28T14:39:07Z</time>
      </trkpt>
      <trkpt lat="46.38896" lon="5.45161">
        <ele>384.6</ele>
        <time>2022-03-28T14:39:11Z</time>
      </trkpt>
      <trkpt lat="46.38905" lon="5.45167">
        <ele>385.2</ele>
        <time>2022-03-28T14:39:13Z</time>
      </trkpt>
      <trkpt lat="46.38913" lon="5.45173">
        <ele>385.8</ele>
        <time>2022-03-28T14:39:15Z</time>
      </trkpt>
      <trkpt lat="46.38934" lon="5.45188">
        <ele>387</ele>
        <time>2022-03-28T14:39:20Z</time>
      </trkpt>
      <trkpt lat="46.3896" lon="5.45202">
        <ele>388</ele>
        <time>2022-03-28T14:39:26Z</time>
      </trkpt>
      <trkpt lat="46.38979" lon="5.45212">
        <ele>389</ele>
        <time>2022-03-28T14:39:30Z</time>
      </trkpt>
      <trkpt lat="46.39002" lon="5.4522">
        <ele>390.2</ele>
        <time>2022-03-28T14:39:35Z</time>
      </trkpt>
      <trkpt lat="46.39007" lon="5.45222">
        <ele>390.4</ele>
        <time>2022-03-28T14:39:36Z</time>
      </trkpt>
      <trkpt lat="46.39015" lon="5.45226">
        <ele>390.8</ele>
        <time>2022-03-28T14:39:38Z</time>
      </trkpt>
      <trkpt lat="46.39028" lon="5.45231">
        <ele>391.4</ele>
        <time>2022-03-28T14:39:41Z</time>
      </trkpt>
      <trkpt lat="46.39049" lon="5.4524">
        <ele>392.6</ele>
        <time>2022-03-28T14:39:46Z</time>
      </trkpt>
      <trkpt lat="46.39053" lon="5.45241">
        <ele>392.8</ele>
        <time>2022-03-28T14:39:47Z</time>
      </trkpt>
      <trkpt lat="46.39074" lon="5.45249">
        <ele>393.8</ele>
        <time>2022-03-28T14:39:52Z</time>
      </trkpt>
      <trkpt lat="46.39091" lon="5.45255">
        <ele>395</ele>
        <time>2022-03-28T14:39:56Z</time>
      </trkpt>
      <trkpt lat="46.39114" lon="5.45261">
        <ele>396</ele>
        <time>2022-03-28T14:40:02Z</time>
      </trkpt>
      <trkpt lat="46.39119" lon="5.45262">
        <ele>396.4</ele>
        <time>2022-03-28T14:40:03Z</time>
      </trkpt>
      <trkpt lat="46.39134" lon="5.45266">
        <ele>397.2</ele>
        <time>2022-03-28T14:40:07Z</time>
      </trkpt>
      <trkpt lat="46.39158" lon="5.45274">
        <ele>398</ele>
        <time>2022-03-28T14:40:12Z</time>
      </trkpt>
      <trkpt lat="46.39167" lon="5.45276">
        <ele>398.4</ele>
        <time>2022-03-28T14:40:14Z</time>
      </trkpt>
      <trkpt lat="46.39175" lon="5.45277">
        <ele>398.8</ele>
        <time>2022-03-28T14:40:16Z</time>
      </trkpt>
      <trkpt lat="46.39188" lon="5.45279">
        <ele>399.6</ele>
        <time>2022-03-28T14:40:19Z</time>
      </trkpt>
      <trkpt lat="46.39193" lon="5.4528">
        <ele>399.6</ele>
        <time>2022-03-28T14:40:20Z</time>
      </trkpt>
      <trkpt lat="46.39214" lon="5.45286">
        <ele>400.6</ele>
        <time>2022-03-28T14:40:25Z</time>
      </trkpt>
      <trkpt lat="46.39223" lon="5.45287">
        <ele>401</ele>
        <time>2022-03-28T14:40:27Z</time>
      </trkpt>
      <trkpt lat="46.39236" lon="5.45288">
        <ele>402</ele>
        <time>2022-03-28T14:40:30Z</time>
      </trkpt>
      <trkpt lat="46.39254" lon="5.45292">
        <ele>402.4</ele>
        <time>2022-03-28T14:40:34Z</time>
      </trkpt>
      <trkpt lat="46.39263" lon="5.45294">
        <ele>403</ele>
        <time>2022-03-28T14:40:36Z</time>
      </trkpt>
      <trkpt lat="46.3929" lon="5.45295">
        <ele>404.4</ele>
        <time>2022-03-28T14:40:42Z</time>
      </trkpt>
      <trkpt lat="46.39324" lon="5.45291">
        <ele>405</ele>
        <time>2022-03-28T14:40:48Z</time>
      </trkpt>
      <trkpt lat="46.39337" lon="5.45286">
        <ele>405</ele>
        <time>2022-03-28T14:40:50Z</time>
      </trkpt>
      <trkpt lat="46.39352" lon="5.4528">
        <ele>405</ele>
        <time>2022-03-28T14:40:52Z</time>
      </trkpt>
      <trkpt lat="46.39402" lon="5.45257">
        <ele>403.2</ele>
        <time>2022-03-28T14:40:58Z</time>
      </trkpt>
      <trkpt lat="46.39411" lon="5.45253">
        <ele>403.2</ele>
        <time>2022-03-28T14:40:59Z</time>
      </trkpt>
      <trkpt lat="46.3943" lon="5.45245">
        <ele>402</ele>
        <time>2022-03-28T14:41:01Z</time>
      </trkpt>
      <trkpt lat="46.39469" lon="5.45227">
        <ele>400.4</ele>
        <time>2022-03-28T14:41:05Z</time>
      </trkpt>
      <trkpt lat="46.3949" lon="5.45217">
        <ele>399</ele>
        <time>2022-03-28T14:41:07Z</time>
      </trkpt>
      <trkpt lat="46.39512" lon="5.45208">
        <ele>397.8</ele>
        <time>2022-03-28T14:41:09Z</time>
      </trkpt>
      <trkpt lat="46.39534" lon="5.452">
        <ele>396.8</ele>
        <time>2022-03-28T14:41:11Z</time>
      </trkpt>
      <trkpt lat="46.39545" lon="5.45197">
        <ele>396</ele>
        <time>2022-03-28T14:41:12Z</time>
      </trkpt>
      <trkpt lat="46.39556" lon="5.45195">
        <ele>395.4</ele>
        <time>2022-03-28T14:41:13Z</time>
      </trkpt>
      <trkpt lat="46.39567" lon="5.45196">
        <ele>394.6</ele>
        <time>2022-03-28T14:41:14Z</time>
      </trkpt>
      <trkpt lat="46.39578" lon="5.45197">
        <ele>394</ele>
        <time>2022-03-28T14:41:15Z</time>
      </trkpt>
      <trkpt lat="46.39601" lon="5.45203">
        <ele>393.4</ele>
        <time>2022-03-28T14:41:17Z</time>
      </trkpt>
      <trkpt lat="46.39622" lon="5.45211">
        <ele>392.4</ele>
        <time>2022-03-28T14:41:19Z</time>
      </trkpt>
      <trkpt lat="46.39633" lon="5.45216">
        <ele>392.2</ele>
        <time>2022-03-28T14:41:20Z</time>
      </trkpt>
      <trkpt lat="46.39654" lon="5.45227">
        <ele>391</ele>
        <time>2022-03-28T14:41:22Z</time>
      </trkpt>
      <trkpt lat="46.39697" lon="5.45248">
        <ele>389.4</ele>
        <time>2022-03-28T14:41:26Z</time>
      </trkpt>
      <trkpt lat="46.39707" lon="5.45253">
        <ele>389</ele>
        <time>2022-03-28T14:41:27Z</time>
      </trkpt>
      <trkpt lat="46.39718" lon="5.45258">
        <ele>388.2</ele>
        <time>2022-03-28T14:41:28Z</time>
      </trkpt>
      <trkpt lat="46.39751" lon="5.45277">
        <ele>386.6</ele>
        <time>2022-03-28T14:41:31Z</time>
      </trkpt>
      <trkpt lat="46.39774" lon="5.45288">
        <ele>385.4</ele>
        <time>2022-03-28T14:41:33Z</time>
      </trkpt>
      <trkpt lat="46.39797" lon="5.45296">
        <ele>384</ele>
        <time>2022-03-28T14:41:35Z</time>
      </trkpt>
      <trkpt lat="46.39833" lon="5.45299">
        <ele>382.6</ele>
        <time>2022-03-28T14:41:38Z</time>
      </trkpt>
      <trkpt lat="46.39844" lon="5.45299">
        <ele>382.2</ele>
        <time>2022-03-28T14:41:39Z</time>
      </trkpt>
      <trkpt lat="46.39856" lon="5.45298">
        <ele>381.4</ele>
        <time>2022-03-28T14:41:40Z</time>
      </trkpt>
      <trkpt lat="46.39879" lon="5.45295">
        <ele>380.4</ele>
        <time>2022-03-28T14:41:42Z</time>
      </trkpt>
      <trkpt lat="46.39911" lon="5.45291">
        <ele>379.2</ele>
        <time>2022-03-28T14:41:45Z</time>
      </trkpt>
      <trkpt lat="46.3996" lon="5.45284">
        <ele>378.6</ele>
        <time>2022-03-28T14:41:50Z</time>
      </trkpt>
      <trkpt lat="46.39989" lon="5.45283">
        <ele>378.2</ele>
        <time>2022-03-28T14:41:53Z</time>
      </trkpt>
      <trkpt lat="46.39998" lon="5.45282">
        <ele>378</ele>
        <time>2022-03-28T14:41:54Z</time>
      </trkpt>
      <trkpt lat="46.40007" lon="5.4528">
        <ele>378</ele>
        <time>2022-03-28T14:41:55Z</time>
      </trkpt>
      <trkpt lat="46.40068" lon="5.4527">
        <ele>378</ele>
        <time>2022-03-28T14:42:02Z</time>
      </trkpt>
      <trkpt lat="46.40127" lon="5.45262">
        <ele>378</ele>
        <time>2022-03-28T14:42:09Z</time>
      </trkpt>
      <trkpt lat="46.40142" lon="5.45256">
        <ele>378.2</ele>
        <time>2022-03-28T14:42:11Z</time>
      </trkpt>
      <trkpt lat="46.40156" lon="5.45248">
        <ele>378.2</ele>
        <time>2022-03-28T14:42:13Z</time>
      </trkpt>
      <trkpt lat="46.40171" lon="5.45241">
        <ele>378.4</ele>
        <time>2022-03-28T14:42:15Z</time>
      </trkpt>
      <trkpt lat="46.40187" lon="5.4524">
        <ele>378.8</ele>
        <time>2022-03-28T14:42:17Z</time>
      </trkpt>
      <trkpt lat="46.40201" lon="5.45239">
        <ele>379</ele>
        <time>2022-03-28T14:42:19Z</time>
      </trkpt>
      <trkpt lat="46.40225" lon="5.4523">
        <ele>378.8</ele>
        <time>2022-03-28T14:42:22Z</time>
      </trkpt>
      <trkpt lat="46.40269" lon="5.45206">
        <ele>379.2</ele>
        <time>2022-03-28T14:42:29Z</time>
      </trkpt>
      <trkpt lat="46.40274" lon="5.45202">
        <ele>379.2</ele>
        <time>2022-03-28T14:42:30Z</time>
      </trkpt>
      <trkpt lat="46.40328" lon="5.45174">
        <ele>379.4</ele>
        <time>2022-03-28T14:42:38Z</time>
      </trkpt>
      <trkpt lat="46.40334" lon="5.45172">
        <ele>379.4</ele>
        <time>2022-03-28T14:42:39Z</time>
      </trkpt>
      <trkpt lat="46.40387" lon="5.45144">
        <ele>379.6</ele>
        <time>2022-03-28T14:42:47Z</time>
      </trkpt>
      <trkpt lat="46.40393" lon="5.45141">
        <ele>379.6</ele>
        <time>2022-03-28T14:42:48Z</time>
      </trkpt>
      <trkpt lat="46.40427" lon="5.45123">
        <ele>380.2</ele>
        <time>2022-03-28T14:42:54Z</time>
      </trkpt>
      <trkpt lat="46.40439" lon="5.45117">
        <ele>380.4</ele>
        <time>2022-03-28T14:42:56Z</time>
      </trkpt>
      <trkpt lat="46.40477" lon="5.45096">
        <ele>381.2</ele>
        <time>2022-03-28T14:43:03Z</time>
      </trkpt>
      <trkpt lat="46.40507" lon="5.4508">
        <ele>382</ele>
        <time>2022-03-28T14:43:08Z</time>
      </trkpt>
      <trkpt lat="46.40525" lon="5.45071">
        <ele>382.2</ele>
        <time>2022-03-28T14:43:11Z</time>
      </trkpt>
      <trkpt lat="46.40567" lon="5.45048">
        <ele>382.4</ele>
        <time>2022-03-28T14:43:18Z</time>
      </trkpt>
      <trkpt lat="46.40619" lon="5.45021">
        <ele>382.4</ele>
        <time>2022-03-28T14:43:26Z</time>
      </trkpt>
      <trkpt lat="46.40626" lon="5.45017">
        <ele>382.4</ele>
        <time>2022-03-28T14:43:27Z</time>
      </trkpt>
      <trkpt lat="46.40674" lon="5.45">
        <ele>382.4</ele>
        <time>2022-03-28T14:43:34Z</time>
      </trkpt>
      <trkpt lat="46.40709" lon="5.44999">
        <ele>382.2</ele>
        <time>2022-03-28T14:43:39Z</time>
      </trkpt>
      <trkpt lat="46.40758" lon="5.45012">
        <ele>382.2</ele>
        <time>2022-03-28T14:43:46Z</time>
      </trkpt>
      <trkpt lat="46.40813" lon="5.45035">
        <ele>383.2</ele>
        <time>2022-03-28T14:43:55Z</time>
      </trkpt>
      <trkpt lat="46.4082" lon="5.45038">
        <ele>383.2</ele>
        <time>2022-03-28T14:43:56Z</time>
      </trkpt>
      <trkpt lat="46.40832" lon="5.45045">
        <ele>383.4</ele>
        <time>2022-03-28T14:43:58Z</time>
      </trkpt>
      <trkpt lat="46.40848" lon="5.45056">
        <ele>383.8</ele>
        <time>2022-03-28T14:44:01Z</time>
      </trkpt>
      <trkpt lat="46.40858" lon="5.45065">
        <ele>384</ele>
        <time>2022-03-28T14:44:03Z</time>
      </trkpt>
      <trkpt lat="46.40888" lon="5.45088">
        <ele>384.6</ele>
        <time>2022-03-28T14:44:09Z</time>
      </trkpt>
      <trkpt lat="46.40898" lon="5.45096">
        <ele>384.8</ele>
        <time>2022-03-28T14:44:11Z</time>
      </trkpt>
      <trkpt lat="46.40917" lon="5.4511">
        <ele>385.6</ele>
        <time>2022-03-28T14:44:15Z</time>
      </trkpt>
      <trkpt lat="46.40943" lon="5.4513">
        <ele>386.6</ele>
        <time>2022-03-28T14:44:20Z</time>
      </trkpt>
      <trkpt lat="46.40949" lon="5.45134">
        <ele>386.6</ele>
        <time>2022-03-28T14:44:21Z</time>
      </trkpt>
      <trkpt lat="46.40983" lon="5.45157">
        <ele>387.6</ele>
        <time>2022-03-28T14:44:27Z</time>
      </trkpt>
      <trkpt lat="46.40993" lon="5.45163">
        <ele>387.8</ele>
        <time>2022-03-28T14:44:29Z</time>
      </trkpt>
      <trkpt lat="46.41043" lon="5.45183">
        <ele>388.8</ele>
        <time>2022-03-28T14:44:37Z</time>
      </trkpt>
      <trkpt lat="46.41049" lon="5.45185">
        <ele>389</ele>
        <time>2022-03-28T14:44:38Z</time>
      </trkpt>
      <trkpt lat="46.41088" lon="5.45195">
        <ele>390</ele>
        <time>2022-03-28T14:44:45Z</time>
      </trkpt>
      <trkpt lat="46.41117" lon="5.45201">
        <ele>391</ele>
        <time>2022-03-28T14:44:50Z</time>
      </trkpt>
      <trkpt lat="46.41148" lon="5.45207">
        <ele>391.6</ele>
        <time>2022-03-28T14:44:55Z</time>
      </trkpt>
      <trkpt lat="46.41192" lon="5.45214">
        <ele>392</ele>
        <time>2022-03-28T14:45:02Z</time>
      </trkpt>
      <trkpt lat="46.41225" lon="5.45222">
        <ele>392.2</ele>
        <time>2022-03-28T14:45:07Z</time>
      </trkpt>
      <trkpt lat="46.41285" lon="5.45235">
        <ele>392.6</ele>
        <time>2022-03-28T14:45:16Z</time>
      </trkpt>
      <trkpt lat="46.41344" lon="5.4525">
        <ele>392.2</ele>
        <time>2022-03-28T14:45:24Z</time>
      </trkpt>
      <trkpt lat="46.41352" lon="5.45252">
        <ele>392.2</ele>
        <time>2022-03-28T14:45:25Z</time>
      </trkpt>
      <trkpt lat="46.41405" lon="5.45264">
        <ele>392.4</ele>
        <time>2022-03-28T14:45:32Z</time>
      </trkpt>
      <trkpt lat="46.41437" lon="5.45271">
        <ele>392.6</ele>
        <time>2022-03-28T14:45:36Z</time>
      </trkpt>
      <trkpt lat="46.41491" lon="5.45284">
        <ele>393</ele>
        <time>2022-03-28T14:45:43Z</time>
      </trkpt>
      <trkpt lat="46.41521" lon="5.45292">
        <ele>393</ele>
        <time>2022-03-28T14:45:47Z</time>
      </trkpt>
      <trkpt lat="46.41543" lon="5.45297">
        <ele>393.4</ele>
        <time>2022-03-28T14:45:50Z</time>
      </trkpt>
      <trkpt lat="46.41586" lon="5.45308">
        <ele>393.6</ele>
        <time>2022-03-28T14:45:56Z</time>
      </trkpt>
      <trkpt lat="46.41632" lon="5.45319">
        <ele>394.4</ele>
        <time>2022-03-28T14:46:03Z</time>
      </trkpt>
      <trkpt lat="46.41644" lon="5.45322">
        <ele>394.6</ele>
        <time>2022-03-28T14:46:05Z</time>
      </trkpt>
      <trkpt lat="46.4168" lon="5.45331">
        <ele>395.4</ele>
        <time>2022-03-28T14:46:11Z</time>
      </trkpt>
      <trkpt lat="46.4171" lon="5.45338">
        <ele>396.4</ele>
        <time>2022-03-28T14:46:16Z</time>
      </trkpt>
      <trkpt lat="46.41722" lon="5.45342">
        <ele>396.6</ele>
        <time>2022-03-28T14:46:18Z</time>
      </trkpt>
      <trkpt lat="46.41766" lon="5.4535">
        <ele>397.2</ele>
        <time>2022-03-28T14:46:25Z</time>
      </trkpt>
      <trkpt lat="46.41785" lon="5.45355">
        <ele>397.6</ele>
        <time>2022-03-28T14:46:28Z</time>
      </trkpt>
      <trkpt lat="46.41819" lon="5.45363">
        <ele>397.8</ele>
        <time>2022-03-28T14:46:33Z</time>
      </trkpt>
      <trkpt lat="46.41877" lon="5.45376">
        <ele>398</ele>
        <time>2022-03-28T14:46:41Z</time>
      </trkpt>
      <trkpt lat="46.41935" lon="5.45393">
        <ele>398</ele>
        <time>2022-03-28T14:46:49Z</time>
      </trkpt>
      <trkpt lat="46.41949" lon="5.45397">
        <ele>398.2</ele>
        <time>2022-03-28T14:46:51Z</time>
      </trkpt>
      <trkpt lat="46.41987" lon="5.45413">
        <ele>398.6</ele>
        <time>2022-03-28T14:46:57Z</time>
      </trkpt>
      <trkpt lat="46.42" lon="5.45419">
        <ele>398.8</ele>
        <time>2022-03-28T14:46:59Z</time>
      </trkpt>
      <trkpt lat="46.42055" lon="5.45444">
        <ele>399.6</ele>
        <time>2022-03-28T14:47:08Z</time>
      </trkpt>
      <trkpt lat="46.42062" lon="5.45446">
        <ele>399.8</ele>
        <time>2022-03-28T14:47:09Z</time>
      </trkpt>
      <trkpt lat="46.42102" lon="5.45461">
        <ele>400.4</ele>
        <time>2022-03-28T14:47:15Z</time>
      </trkpt>
      <trkpt lat="46.42159" lon="5.45482">
        <ele>400.2</ele>
        <time>2022-03-28T14:47:23Z</time>
      </trkpt>
      <trkpt lat="46.42216" lon="5.45503">
        <ele>400</ele>
        <time>2022-03-28T14:47:31Z</time>
      </trkpt>
      <trkpt lat="46.42273" lon="5.45522">
        <ele>399.8</ele>
        <time>2022-03-28T14:47:39Z</time>
      </trkpt>
      <trkpt lat="46.4228" lon="5.45524">
        <ele>399.8</ele>
        <time>2022-03-28T14:47:40Z</time>
      </trkpt>
      <trkpt lat="46.42287" lon="5.45526">
        <ele>399.8</ele>
        <time>2022-03-28T14:47:41Z</time>
      </trkpt>
      <trkpt lat="46.42345" lon="5.45543">
        <ele>400</ele>
        <time>2022-03-28T14:47:49Z</time>
      </trkpt>
      <trkpt lat="46.4236" lon="5.45548">
        <ele>400</ele>
        <time>2022-03-28T14:47:51Z</time>
      </trkpt>
      <trkpt lat="46.42401" lon="5.45561">
        <ele>399.4</ele>
        <time>2022-03-28T14:47:56Z</time>
      </trkpt>
      <trkpt lat="46.42437" lon="5.45573">
        <ele>398.6</ele>
        <time>2022-03-28T14:48:00Z</time>
      </trkpt>
      <trkpt lat="46.42465" lon="5.45582">
        <ele>398</ele>
        <time>2022-03-28T14:48:03Z</time>
      </trkpt>
      <trkpt lat="46.42493" lon="5.4559">
        <ele>397.8</ele>
        <time>2022-03-28T14:48:06Z</time>
      </trkpt>
      <trkpt lat="46.42529" lon="5.45602">
        <ele>396.8</ele>
        <time>2022-03-28T14:48:10Z</time>
      </trkpt>
      <trkpt lat="46.42547" lon="5.45608">
        <ele>396.2</ele>
        <time>2022-03-28T14:48:12Z</time>
      </trkpt>
      <trkpt lat="46.42582" lon="5.45619">
        <ele>395.8</ele>
        <time>2022-03-28T14:48:16Z</time>
      </trkpt>
      <trkpt lat="46.42615" lon="5.4563">
        <ele>395.4</ele>
        <time>2022-03-28T14:48:20Z</time>
      </trkpt>
      <trkpt lat="46.42661" lon="5.45645">
        <ele>395.4</ele>
        <time>2022-03-28T14:48:26Z</time>
      </trkpt>
      <trkpt lat="46.42721" lon="5.45664">
        <ele>395.8</ele>
        <time>2022-03-28T14:48:34Z</time>
      </trkpt>
      <trkpt lat="46.42728" lon="5.45666">
        <ele>395.8</ele>
        <time>2022-03-28T14:48:35Z</time>
      </trkpt>
      <trkpt lat="46.42782" lon="5.45678">
        <ele>396.2</ele>
        <time>2022-03-28T14:48:42Z</time>
      </trkpt>
      <trkpt lat="46.4279" lon="5.45679">
        <ele>396.4</ele>
        <time>2022-03-28T14:48:43Z</time>
      </trkpt>
      <trkpt lat="46.42844" lon="5.45682">
        <ele>396.4</ele>
        <time>2022-03-28T14:48:50Z</time>
      </trkpt>
      <trkpt lat="46.42868" lon="5.45683">
        <ele>396.4</ele>
        <time>2022-03-28T14:48:53Z</time>
      </trkpt>
      <trkpt lat="46.42928" lon="5.45683">
        <ele>395.4</ele>
        <time>2022-03-28T14:49:00Z</time>
      </trkpt>
      <trkpt lat="46.42945" lon="5.45683">
        <ele>395</ele>
        <time>2022-03-28T14:49:02Z</time>
      </trkpt>
      <trkpt lat="46.42954" lon="5.45683">
        <ele>394.6</ele>
        <time>2022-03-28T14:49:03Z</time>
      </trkpt>
      <trkpt lat="46.4299" lon="5.45684">
        <ele>393.6</ele>
        <time>2022-03-28T14:49:07Z</time>
      </trkpt>
      <trkpt lat="46.43026" lon="5.45685">
        <ele>393</ele>
        <time>2022-03-28T14:49:11Z</time>
      </trkpt>
      <trkpt lat="46.43044" lon="5.45685">
        <ele>392.4</ele>
        <time>2022-03-28T14:49:13Z</time>
      </trkpt>
      <trkpt lat="46.43101" lon="5.45686">
        <ele>391.6</ele>
        <time>2022-03-28T14:49:19Z</time>
      </trkpt>
      <trkpt lat="46.43111" lon="5.45686">
        <ele>391.4</ele>
        <time>2022-03-28T14:49:20Z</time>
      </trkpt>
      <trkpt lat="46.43141" lon="5.45687">
        <ele>391</ele>
        <time>2022-03-28T14:49:23Z</time>
      </trkpt>
      <trkpt lat="46.43162" lon="5.45687">
        <ele>390.6</ele>
        <time>2022-03-28T14:49:25Z</time>
      </trkpt>
      <trkpt lat="46.43201" lon="5.45688">
        <ele>389.4</ele>
        <time>2022-03-28T14:49:29Z</time>
      </trkpt>
      <trkpt lat="46.4322" lon="5.45688">
        <ele>388.8</ele>
        <time>2022-03-28T14:49:31Z</time>
      </trkpt>
      <trkpt lat="46.43257" lon="5.4569">
        <ele>388.4</ele>
        <time>2022-03-28T14:49:35Z</time>
      </trkpt>
      <trkpt lat="46.43293" lon="5.4569">
        <ele>388.2</ele>
        <time>2022-03-28T14:49:39Z</time>
      </trkpt>
      <trkpt lat="46.43353" lon="5.45692">
        <ele>388</ele>
        <time>2022-03-28T14:49:46Z</time>
      </trkpt>
      <trkpt lat="46.4337" lon="5.45692">
        <ele>388</ele>
        <time>2022-03-28T14:49:48Z</time>
      </trkpt>
      <trkpt lat="46.43429" lon="5.45693">
        <ele>387.8</ele>
        <time>2022-03-28T14:49:55Z</time>
      </trkpt>
      <trkpt lat="46.43489" lon="5.45695">
        <ele>387.6</ele>
        <time>2022-03-28T14:50:02Z</time>
      </trkpt>
      <trkpt lat="46.43522" lon="5.45695">
        <ele>387.6</ele>
        <time>2022-03-28T14:50:06Z</time>
      </trkpt>
      <trkpt lat="46.43578" lon="5.45697">
        <ele>387.6</ele>
        <time>2022-03-28T14:50:13Z</time>
      </trkpt>
      <trkpt lat="46.43586" lon="5.45697">
        <ele>387.6</ele>
        <time>2022-03-28T14:50:14Z</time>
      </trkpt>
      <trkpt lat="46.43646" lon="5.45699">
        <ele>388.4</ele>
        <time>2022-03-28T14:50:22Z</time>
      </trkpt>
      <trkpt lat="46.43654" lon="5.45699">
        <ele>388.4</ele>
        <time>2022-03-28T14:50:23Z</time>
      </trkpt>
      <trkpt lat="46.43714" lon="5.457">
        <ele>388.4</ele>
        <time>2022-03-28T14:50:31Z</time>
      </trkpt>
      <trkpt lat="46.43759" lon="5.45701">
        <ele>388.2</ele>
        <time>2022-03-28T14:50:37Z</time>
      </trkpt>
      <trkpt lat="46.43816" lon="5.45702">
        <ele>388.4</ele>
        <time>2022-03-28T14:50:45Z</time>
      </trkpt>
      <trkpt lat="46.43823" lon="5.45702">
        <ele>388.4</ele>
        <time>2022-03-28T14:50:46Z</time>
      </trkpt>
      <trkpt lat="46.43878" lon="5.45698">
        <ele>388.8</ele>
        <time>2022-03-28T14:50:54Z</time>
      </trkpt>
      <trkpt lat="46.43939" lon="5.45688">
        <ele>388.8</ele>
        <time>2022-03-28T14:51:02Z</time>
      </trkpt>
      <trkpt lat="46.43944" lon="5.45687">
        <ele>388.8</ele>
        <time>2022-03-28T14:51:03Z</time>
      </trkpt>
      <trkpt lat="46.44" lon="5.45677">
        <ele>389.4</ele>
        <time>2022-03-28T14:51:11Z</time>
      </trkpt>
      <trkpt lat="46.44026" lon="5.45672">
        <ele>389.6</ele>
        <time>2022-03-28T14:51:15Z</time>
      </trkpt>
      <trkpt lat="46.44077" lon="5.45662">
        <ele>389.6</ele>
        <time>2022-03-28T14:51:23Z</time>
      </trkpt>
      <trkpt lat="46.4409" lon="5.45659">
        <ele>389.8</ele>
        <time>2022-03-28T14:51:25Z</time>
      </trkpt>
      <trkpt lat="46.44121" lon="5.45654">
        <ele>390.2</ele>
        <time>2022-03-28T14:51:30Z</time>
      </trkpt>
      <trkpt lat="46.44179" lon="5.45643">
        <ele>390.6</ele>
        <time>2022-03-28T14:51:39Z</time>
      </trkpt>
      <trkpt lat="46.44191" lon="5.45641">
        <ele>390.8</ele>
        <time>2022-03-28T14:51:41Z</time>
      </trkpt>
      <trkpt lat="46.44204" lon="5.45638">
        <ele>390.8</ele>
        <time>2022-03-28T14:51:43Z</time>
      </trkpt>
      <trkpt lat="46.44259" lon="5.4563">
        <ele>391.2</ele>
        <time>2022-03-28T14:51:52Z</time>
      </trkpt>
      <trkpt lat="46.44266" lon="5.4563">
        <ele>391.2</ele>
        <time>2022-03-28T14:51:53Z</time>
      </trkpt>
      <trkpt lat="46.44325" lon="5.45633">
        <ele>391.6</ele>
        <time>2022-03-28T14:52:02Z</time>
      </trkpt>
      <trkpt lat="46.44332" lon="5.45634">
        <ele>391.6</ele>
        <time>2022-03-28T14:52:03Z</time>
      </trkpt>
      <trkpt lat="46.44345" lon="5.45635">
        <ele>391.8</ele>
        <time>2022-03-28T14:52:05Z</time>
      </trkpt>
      <trkpt lat="46.44391" lon="5.45642">
        <ele>393</ele>
        <time>2022-03-28T14:52:12Z</time>
      </trkpt>
      <trkpt lat="46.44439" lon="5.45648">
        <ele>394.4</ele>
        <time>2022-03-28T14:52:20Z</time>
      </trkpt>
      <trkpt lat="46.44462" lon="5.45651">
        <ele>395.6</ele>
        <time>2022-03-28T14:52:24Z</time>
      </trkpt>
      <trkpt lat="46.44478" lon="5.45652">
        <ele>396.4</ele>
        <time>2022-03-28T14:52:27Z</time>
      </trkpt>
      <trkpt lat="46.44484" lon="5.45653">
        <ele>396.6</ele>
        <time>2022-03-28T14:52:28Z</time>
      </trkpt>
      <trkpt lat="46.44521" lon="5.45661">
        <ele>397.4</ele>
        <time>2022-03-28T14:52:34Z</time>
      </trkpt>
      <trkpt lat="46.44573" lon="5.45676">
        <ele>397.2</ele>
        <time>2022-03-28T14:52:42Z</time>
      </trkpt>
      <trkpt lat="46.44631" lon="5.45694">
        <ele>397</ele>
        <time>2022-03-28T14:52:50Z</time>
      </trkpt>
      <trkpt lat="46.44638" lon="5.45696">
        <ele>397</ele>
        <time>2022-03-28T14:52:51Z</time>
      </trkpt>
      <trkpt lat="46.44696" lon="5.45718">
        <ele>396.8</ele>
        <time>2022-03-28T14:52:59Z</time>
      </trkpt>
      <trkpt lat="46.44711" lon="5.45724">
        <ele>396.8</ele>
        <time>2022-03-28T14:53:01Z</time>
      </trkpt>
      <trkpt lat="46.44768" lon="5.45753">
        <ele>396.8</ele>
        <time>2022-03-28T14:53:09Z</time>
      </trkpt>
      <trkpt lat="46.44822" lon="5.45784">
        <ele>397.6</ele>
        <time>2022-03-28T14:53:17Z</time>
      </trkpt>
      <trkpt lat="46.44849" lon="5.45799">
        <ele>398.2</ele>
        <time>2022-03-28T14:53:21Z</time>
      </trkpt>
      <trkpt lat="46.44904" lon="5.45832">
        <ele>398.4</ele>
        <time>2022-03-28T14:53:29Z</time>
      </trkpt>
      <trkpt lat="46.44926" lon="5.45845">
        <ele>398.2</ele>
        <time>2022-03-28T14:53:32Z</time>
      </trkpt>
      <trkpt lat="46.44981" lon="5.45877">
        <ele>397.8</ele>
        <time>2022-03-28T14:53:39Z</time>
      </trkpt>
      <trkpt lat="46.44997" lon="5.45887">
        <ele>397.4</ele>
        <time>2022-03-28T14:53:41Z</time>
      </trkpt>
      <trkpt lat="46.45031" lon="5.45907">
        <ele>396.6</ele>
        <time>2022-03-28T14:53:45Z</time>
      </trkpt>
      <trkpt lat="46.45056" lon="5.45923">
        <ele>395.4</ele>
        <time>2022-03-28T14:53:48Z</time>
      </trkpt>
      <trkpt lat="46.45082" lon="5.45937">
        <ele>395</ele>
        <time>2022-03-28T14:53:51Z</time>
      </trkpt>
      <trkpt lat="46.45137" lon="5.45967">
        <ele>394.6</ele>
        <time>2022-03-28T14:53:58Z</time>
      </trkpt>
      <trkpt lat="46.45169" lon="5.45993">
        <ele>395</ele>
        <time>2022-03-28T14:54:03Z</time>
      </trkpt>
      <trkpt lat="46.45176" lon="5.45998">
        <ele>395</ele>
        <time>2022-03-28T14:54:04Z</time>
      </trkpt>
      <trkpt lat="46.45189" lon="5.46005">
        <ele>395.4</ele>
        <time>2022-03-28T14:54:06Z</time>
      </trkpt>
      <trkpt lat="46.45201" lon="5.46015">
        <ele>395.8</ele>
        <time>2022-03-28T14:54:08Z</time>
      </trkpt>
      <trkpt lat="46.45233" lon="5.46043">
        <ele>396.6</ele>
        <time>2022-03-28T14:54:14Z</time>
      </trkpt>
      <trkpt lat="46.45248" lon="5.46048">
        <ele>397.6</ele>
        <time>2022-03-28T14:54:18Z</time>
      </trkpt>
      <trkpt lat="46.45251" lon="5.46048">
        <ele>398.2</ele>
        <time>2022-03-28T14:54:19Z</time>
      </trkpt>
      <trkpt lat="46.45253" lon="5.46042">
        <ele>399</ele>
        <time>2022-03-28T14:54:21Z</time>
      </trkpt>
      <trkpt lat="46.45253" lon="5.46037">
        <ele>399.2</ele>
        <time>2022-03-28T14:54:22Z</time>
      </trkpt>
      <trkpt lat="46.45256" lon="5.46025">
        <ele>399.4</ele>
        <time>2022-03-28T14:54:24Z</time>
      </trkpt>
      <trkpt lat="46.45259" lon="5.46018">
        <ele>399.4</ele>
        <time>2022-03-28T14:54:25Z</time>
      </trkpt>
      <trkpt lat="46.45267" lon="5.46003">
        <ele>399.4</ele>
        <time>2022-03-28T14:54:27Z</time>
      </trkpt>
      <trkpt lat="46.45275" lon="5.45975">
        <ele>398.8</ele>
        <time>2022-03-28T14:54:30Z</time>
      </trkpt>
      <trkpt lat="46.45282" lon="5.45942">
        <ele>398</ele>
        <time>2022-03-28T14:54:33Z</time>
      </trkpt>
      <trkpt lat="46.45286" lon="5.45918">
        <ele>397.6</ele>
        <time>2022-03-28T14:54:35Z</time>
      </trkpt>
      <trkpt lat="46.45291" lon="5.45894">
        <ele>397</ele>
        <time>2022-03-28T14:54:37Z</time>
      </trkpt>
      <trkpt lat="46.45298" lon="5.45871">
        <ele>395.8</ele>
        <time>2022-03-28T14:54:39Z</time>
      </trkpt>
      <trkpt lat="46.45304" lon="5.4585">
        <ele>394.8</ele>
        <time>2022-03-28T14:54:41Z</time>
      </trkpt>
      <trkpt lat="46.45315" lon="5.45816">
        <ele>393.6</ele>
        <time>2022-03-28T14:54:44Z</time>
      </trkpt>
      <trkpt lat="46.45322" lon="5.45784">
        <ele>393</ele>
        <time>2022-03-28T14:54:47Z</time>
      </trkpt>
      <trkpt lat="46.45333" lon="5.45711">
        <ele>392.6</ele>
        <time>2022-03-28T14:54:54Z</time>
      </trkpt>
      <trkpt lat="46.45345" lon="5.45639">
        <ele>392.6</ele>
        <time>2022-03-28T14:55:01Z</time>
      </trkpt>
      <trkpt lat="46.45352" lon="5.45621">
        <ele>392.6</ele>
        <time>2022-03-28T14:55:03Z</time>
      </trkpt>
      <trkpt lat="46.45362" lon="5.45608">
        <ele>392.6</ele>
        <time>2022-03-28T14:55:05Z</time>
      </trkpt>
      <trkpt lat="46.45382" lon="5.45597">
        <ele>392.6</ele>
        <time>2022-03-28T14:55:08Z</time>
      </trkpt>
      <trkpt lat="46.45389" lon="5.45596">
        <ele>392.6</ele>
        <time>2022-03-28T14:55:09Z</time>
      </trkpt>
      <trkpt lat="46.45395" lon="5.45596">
        <ele>392.6</ele>
        <time>2022-03-28T14:55:10Z</time>
      </trkpt>
      <trkpt lat="46.45408" lon="5.456">
        <ele>392.6</ele>
        <time>2022-03-28T14:55:12Z</time>
      </trkpt>
      <trkpt lat="46.45414" lon="5.45604">
        <ele>392.6</ele>
        <time>2022-03-28T14:55:13Z</time>
      </trkpt>
      <trkpt lat="46.45448" lon="5.4563">
        <ele>393.4</ele>
        <time>2022-03-28T14:55:19Z</time>
      </trkpt>
      <trkpt lat="46.45492" lon="5.45662">
        <ele>394.4</ele>
        <time>2022-03-28T14:55:27Z</time>
      </trkpt>
      <trkpt lat="46.45509" lon="5.45672">
        <ele>394.8</ele>
        <time>2022-03-28T14:55:30Z</time>
      </trkpt>
      <trkpt lat="46.45541" lon="5.45688">
        <ele>396</ele>
        <time>2022-03-28T14:55:36Z</time>
      </trkpt>
      <trkpt lat="46.45562" lon="5.45698">
        <ele>397.2</ele>
        <time>2022-03-28T14:55:40Z</time>
      </trkpt>
      <trkpt lat="46.45578" lon="5.45703">
        <ele>398.4</ele>
        <time>2022-03-28T14:55:43Z</time>
      </trkpt>
      <trkpt lat="46.45598" lon="5.45703">
        <ele>399.4</ele>
        <time>2022-03-28T14:55:47Z</time>
      </trkpt>
      <trkpt lat="46.45608" lon="5.45701">
        <ele>400.2</ele>
        <time>2022-03-28T14:55:49Z</time>
      </trkpt>
      <trkpt lat="46.45618" lon="5.45698">
        <ele>400.8</ele>
        <time>2022-03-28T14:55:51Z</time>
      </trkpt>
      <trkpt lat="46.45635" lon="5.4569">
        <ele>401.8</ele>
        <time>2022-03-28T14:55:55Z</time>
      </trkpt>
      <trkpt lat="46.45639" lon="5.45688">
        <ele>402</ele>
        <time>2022-03-28T14:55:56Z</time>
      </trkpt>
      <trkpt lat="46.4566" lon="5.45676">
        <ele>403.2</ele>
        <time>2022-03-28T14:56:01Z</time>
      </trkpt>
      <trkpt lat="46.45683" lon="5.45663">
        <ele>403.6</ele>
        <time>2022-03-28T14:56:06Z</time>
      </trkpt>
      <trkpt lat="46.45709" lon="5.45647">
        <ele>404.2</ele>
        <time>2022-03-28T14:56:12Z</time>
      </trkpt>
      <trkpt lat="46.45733" lon="5.45633">
        <ele>404.6</ele>
        <time>2022-03-28T14:56:17Z</time>
      </trkpt>
      <trkpt lat="46.45774" lon="5.4561">
        <ele>405.2</ele>
        <time>2022-03-28T14:56:25Z</time>
      </trkpt>
      <trkpt lat="46.4578" lon="5.45607">
        <ele>405.4</ele>
        <time>2022-03-28T14:56:26Z</time>
      </trkpt>
      <trkpt lat="46.45836" lon="5.45576">
        <ele>405.6</ele>
        <time>2022-03-28T14:56:35Z</time>
      </trkpt>
      <trkpt lat="46.45887" lon="5.45547">
        <ele>405</ele>
        <time>2022-03-28T14:56:42Z</time>
      </trkpt>
      <trkpt lat="46.4591" lon="5.45533">
        <ele>404.2</ele>
        <time>2022-03-28T14:56:45Z</time>
      </trkpt>
      <trkpt lat="46.45933" lon="5.4552">
        <ele>402.8</ele>
        <time>2022-03-28T14:56:48Z</time>
      </trkpt>
      <trkpt lat="46.45949" lon="5.45511">
        <ele>402.4</ele>
        <time>2022-03-28T14:56:50Z</time>
      </trkpt>
      <trkpt lat="46.45982" lon="5.45492">
        <ele>402</ele>
        <time>2022-03-28T14:56:54Z</time>
      </trkpt>
      <trkpt lat="46.46023" lon="5.45468">
        <ele>401.2</ele>
        <time>2022-03-28T14:56:59Z</time>
      </trkpt>
      <trkpt lat="46.4604" lon="5.45458">
        <ele>400.8</ele>
        <time>2022-03-28T14:57:01Z</time>
      </trkpt>
      <trkpt lat="46.46065" lon="5.45443">
        <ele>399.8</ele>
        <time>2022-03-28T14:57:04Z</time>
      </trkpt>
      <trkpt lat="46.46107" lon="5.45417">
        <ele>399.4</ele>
        <time>2022-03-28T14:57:09Z</time>
      </trkpt>
      <trkpt lat="46.46157" lon="5.45384">
        <ele>398.6</ele>
        <time>2022-03-28T14:57:15Z</time>
      </trkpt>
      <trkpt lat="46.46181" lon="5.45366">
        <ele>398.2</ele>
        <time>2022-03-28T14:57:18Z</time>
      </trkpt>
      <trkpt lat="46.4622" lon="5.45338">
        <ele>397.6</ele>
        <time>2022-03-28T14:57:23Z</time>
      </trkpt>
      <trkpt lat="46.46242" lon="5.45321">
        <ele>397.4</ele>
        <time>2022-03-28T14:57:26Z</time>
      </trkpt>
      <trkpt lat="46.46292" lon="5.45282">
        <ele>397.4</ele>
        <time>2022-03-28T14:57:33Z</time>
      </trkpt>
      <trkpt lat="46.46344" lon="5.45242">
        <ele>396.6</ele>
        <time>2022-03-28T14:57:40Z</time>
      </trkpt>
      <trkpt lat="46.46359" lon="5.45233">
        <ele>396.8</ele>
        <time>2022-03-28T14:57:42Z</time>
      </trkpt>
      <trkpt lat="46.46397" lon="5.45211">
        <ele>396.8</ele>
        <time>2022-03-28T14:57:47Z</time>
      </trkpt>
      <trkpt lat="46.46404" lon="5.45205">
        <ele>396.8</ele>
        <time>2022-03-28T14:57:48Z</time>
      </trkpt>
      <trkpt lat="46.46411" lon="5.45197">
        <ele>396.8</ele>
        <time>2022-03-28T14:57:49Z</time>
      </trkpt>
      <trkpt lat="46.4642" lon="5.45183">
        <ele>397</ele>
        <time>2022-03-28T14:57:51Z</time>
      </trkpt>
      <trkpt lat="46.46425" lon="5.45174">
        <ele>397</ele>
        <time>2022-03-28T14:57:52Z</time>
      </trkpt>
      <trkpt lat="46.46429" lon="5.45165">
        <ele>397.2</ele>
        <time>2022-03-28T14:57:53Z</time>
      </trkpt>
      <trkpt lat="46.46433" lon="5.45145">
        <ele>397.4</ele>
        <time>2022-03-28T14:57:55Z</time>
      </trkpt>
      <trkpt lat="46.46434" lon="5.45135">
        <ele>397.6</ele>
        <time>2022-03-28T14:57:56Z</time>
      </trkpt>
      <trkpt lat="46.46435" lon="5.45126">
        <ele>397.6</ele>
        <time>2022-03-28T14:57:57Z</time>
      </trkpt>
      <trkpt lat="46.46433" lon="5.45106">
        <ele>398</ele>
        <time>2022-03-28T14:57:59Z</time>
      </trkpt>
      <trkpt lat="46.46432" lon="5.45097">
        <ele>398.2</ele>
        <time>2022-03-28T14:58:00Z</time>
      </trkpt>
      <trkpt lat="46.4643" lon="5.45081">
        <ele>399.2</ele>
        <time>2022-03-28T14:58:02Z</time>
      </trkpt>
      <trkpt lat="46.46428" lon="5.45071">
        <ele>399.2</ele>
        <time>2022-03-28T14:58:03Z</time>
      </trkpt>
      <trkpt lat="46.46421" lon="5.45046">
        <ele>399.4</ele>
        <time>2022-03-28T14:58:06Z</time>
      </trkpt>
      <trkpt lat="46.46403" lon="5.4498">
        <ele>399</ele>
        <time>2022-03-28T14:58:13Z</time>
      </trkpt>
      <trkpt lat="46.4639" lon="5.4493">
        <ele>398.8</ele>
        <time>2022-03-28T14:58:19Z</time>
      </trkpt>
      <trkpt lat="46.46366" lon="5.44883">
        <ele>399.6</ele>
        <time>2022-03-28T14:58:26Z</time>
      </trkpt>
      <trkpt lat="46.46357" lon="5.44843">
        <ele>399.8</ele>
        <time>2022-03-28T14:58:31Z</time>
      </trkpt>
      <trkpt lat="46.46354" lon="5.44802">
        <ele>400</ele>
        <time>2022-03-28T14:58:36Z</time>
      </trkpt>
      <trkpt lat="46.46354" lon="5.44781">
        <ele>400.4</ele>
        <time>2022-03-28T14:58:39Z</time>
      </trkpt>
      <trkpt lat="46.46355" lon="5.44757">
        <ele>401.2</ele>
        <time>2022-03-28T14:58:43Z</time>
      </trkpt>
      <trkpt lat="46.46355" lon="5.44743">
        <ele>401.8</ele>
        <time>2022-03-28T14:58:46Z</time>
      </trkpt>
      <trkpt lat="46.46356" lon="5.44734">
        <ele>402.6</ele>
        <time>2022-03-28T14:58:48Z</time>
      </trkpt>
      <trkpt lat="46.46357" lon="5.44729">
        <ele>403.2</ele>
        <time>2022-03-28T14:58:50Z</time>
      </trkpt>
      <trkpt lat="46.46358" lon="5.44726">
        <ele>403.6</ele>
        <time>2022-03-28T14:58:51Z</time>
      </trkpt>
      <trkpt lat="46.46356" lon="5.44721">
        <ele>403.6</ele>
        <time>2022-03-28T14:58:52Z</time>
      </trkpt>
      <trkpt lat="46.46354" lon="5.44718">
        <ele>403.8</ele>
        <time>2022-03-28T14:58:53Z</time>
      </trkpt>
      <trkpt lat="46.4634" lon="5.44707">
        <ele>404.8</ele>
        <time>2022-03-28T14:58:57Z</time>
      </trkpt>
      <trkpt lat="46.46309" lon="5.44691">
        <ele>405.6</ele>
        <time>2022-03-28T14:59:05Z</time>
      </trkpt>
      <trkpt lat="46.46301" lon="5.44688">
        <ele>406</ele>
        <time>2022-03-28T14:59:07Z</time>
      </trkpt>
      <trkpt lat="46.46278" lon="5.44678">
        <ele>407.2</ele>
        <time>2022-03-28T14:59:13Z</time>
      </trkpt>
      <trkpt lat="46.46275" lon="5.44676">
        <ele>407.4</ele>
        <time>2022-03-28T14:59:14Z</time>
      </trkpt>
      <trkpt lat="46.4626" lon="5.44669">
        <ele>408.4</ele>
        <time>2022-03-28T14:59:18Z</time>
      </trkpt>
      <trkpt lat="46.46243" lon="5.44659">
        <ele>409.4</ele>
        <time>2022-03-28T14:59:23Z</time>
      </trkpt>
      <trkpt lat="46.4624" lon="5.44657">
        <ele>409.6</ele>
        <time>2022-03-28T14:59:24Z</time>
      </trkpt>
      <trkpt lat="46.46227" lon="5.44647">
        <ele>410.8</ele>
        <time>2022-03-28T14:59:28Z</time>
      </trkpt>
      <trkpt lat="46.46218" lon="5.44638">
        <ele>411.4</ele>
        <time>2022-03-28T14:59:31Z</time>
      </trkpt>
      <trkpt lat="46.46212" lon="5.44629">
        <ele>411.8</ele>
        <time>2022-03-28T14:59:33Z</time>
      </trkpt>
      <trkpt lat="46.46203" lon="5.44607">
        <ele>412.8</ele>
        <time>2022-03-28T14:59:38Z</time>
      </trkpt>
      <trkpt lat="46.46201" lon="5.44604">
        <ele>413.2</ele>
        <time>2022-03-28T14:59:39Z</time>
      </trkpt>
      <trkpt lat="46.46197" lon="5.4458">
        <ele>414</ele>
        <time>2022-03-28T14:59:44Z</time>
      </trkpt>
      <trkpt lat="46.46196" lon="5.44564">
        <ele>414.4</ele>
        <time>2022-03-28T14:59:47Z</time>
      </trkpt>
      <trkpt lat="46.46195" lon="5.44555">
        <ele>415</ele>
        <time>2022-03-28T14:59:49Z</time>
      </trkpt>
      <trkpt lat="46.46193" lon="5.44523">
        <ele>416</ele>
        <time>2022-03-28T14:59:55Z</time>
      </trkpt>
      <trkpt lat="46.46193" lon="5.44517">
        <ele>416.2</ele>
        <time>2022-03-28T14:59:56Z</time>
      </trkpt>
      <trkpt lat="46.46193" lon="5.44497">
        <ele>417.4</ele>
        <time>2022-03-28T15:00:00Z</time>
      </trkpt>
      <trkpt lat="46.46193" lon="5.44487">
        <ele>417.8</ele>
        <time>2022-03-28T15:00:02Z</time>
      </trkpt>
      <trkpt lat="46.46191" lon="5.44466">
        <ele>418.4</ele>
        <time>2022-03-28T15:00:06Z</time>
      </trkpt>
      <trkpt lat="46.46191" lon="5.4444">
        <ele>419.6</ele>
        <time>2022-03-28T15:00:11Z</time>
      </trkpt>
      <trkpt lat="46.46191" lon="5.44435">
        <ele>420</ele>
        <time>2022-03-28T15:00:12Z</time>
      </trkpt>
      <trkpt lat="46.46191" lon="5.44414">
        <ele>420.6</ele>
        <time>2022-03-28T15:00:16Z</time>
      </trkpt>
      <trkpt lat="46.46191" lon="5.44383">
        <ele>421.4</ele>
        <time>2022-03-28T15:00:22Z</time>
      </trkpt>
      <trkpt lat="46.46191" lon="5.44378">
        <ele>421.6</ele>
        <time>2022-03-28T15:00:23Z</time>
      </trkpt>
      <trkpt lat="46.46192" lon="5.44352">
        <ele>423</ele>
        <time>2022-03-28T15:00:28Z</time>
      </trkpt>
      <trkpt lat="46.46193" lon="5.44337">
        <ele>423.6</ele>
        <time>2022-03-28T15:00:31Z</time>
      </trkpt>
      <trkpt lat="46.46193" lon="5.44318">
        <ele>424.2</ele>
        <time>2022-03-28T15:00:35Z</time>
      </trkpt>
      <trkpt lat="46.46193" lon="5.44301">
        <ele>425</ele>
        <time>2022-03-28T15:00:38Z</time>
      </trkpt>
      <trkpt lat="46.46191" lon="5.44291">
        <ele>425.4</ele>
        <time>2022-03-28T15:00:40Z</time>
      </trkpt>
      <trkpt lat="46.46189" lon="5.44264">
        <ele>426.2</ele>
        <time>2022-03-28T15:00:45Z</time>
      </trkpt>
      <trkpt lat="46.46187" lon="5.44253">
        <ele>426.6</ele>
        <time>2022-03-28T15:00:47Z</time>
      </trkpt>
      <trkpt lat="46.46179" lon="5.44219">
        <ele>427.8</ele>
        <time>2022-03-28T15:00:54Z</time>
      </trkpt>
      <trkpt lat="46.46173" lon="5.44199">
        <ele>428.8</ele>
        <time>2022-03-28T15:00:58Z</time>
      </trkpt>
      <trkpt lat="46.4617" lon="5.4419">
        <ele>429.2</ele>
        <time>2022-03-28T15:01:00Z</time>
      </trkpt>
      <trkpt lat="46.46163" lon="5.44165">
        <ele>430</ele>
        <time>2022-03-28T15:01:05Z</time>
      </trkpt>
      <trkpt lat="46.46155" lon="5.44146">
        <ele>431</ele>
        <time>2022-03-28T15:01:09Z</time>
      </trkpt>
      <trkpt lat="46.46154" lon="5.44141">
        <ele>431.2</ele>
        <time>2022-03-28T15:01:10Z</time>
      </trkpt>
      <trkpt lat="46.46144" lon="5.44107">
        <ele>432.4</ele>
        <time>2022-03-28T15:01:17Z</time>
      </trkpt>
      <trkpt lat="46.46143" lon="5.44102">
        <ele>432.6</ele>
        <time>2022-03-28T15:01:18Z</time>
      </trkpt>
      <trkpt lat="46.46139" lon="5.44083">
        <ele>433.6</ele>
        <time>2022-03-28T15:01:22Z</time>
      </trkpt>
      <trkpt lat="46.46133" lon="5.44048">
        <ele>434.8</ele>
        <time>2022-03-28T15:01:29Z</time>
      </trkpt>
      <trkpt lat="46.46127" lon="5.44015">
        <ele>435.8</ele>
        <time>2022-03-28T15:01:35Z</time>
      </trkpt>
      <trkpt lat="46.46128" lon="5.4401">
        <ele>436</ele>
        <time>2022-03-28T15:01:36Z</time>
      </trkpt>
      <trkpt lat="46.46131" lon="5.43983">
        <ele>436.8</ele>
        <time>2022-03-28T15:01:41Z</time>
      </trkpt>
      <trkpt lat="46.46136" lon="5.43964">
        <ele>437.4</ele>
        <time>2022-03-28T15:01:45Z</time>
      </trkpt>
      <trkpt lat="46.46138" lon="5.43954">
        <ele>438</ele>
        <time>2022-03-28T15:01:47Z</time>
      </trkpt>
      <trkpt lat="46.46144" lon="5.4393">
        <ele>439.4</ele>
        <time>2022-03-28T15:01:52Z</time>
      </trkpt>
      <trkpt lat="46.4615" lon="5.43908">
        <ele>440.2</ele>
        <time>2022-03-28T15:01:56Z</time>
      </trkpt>
      <trkpt lat="46.46153" lon="5.43897">
        <ele>440.4</ele>
        <time>2022-03-28T15:01:58Z</time>
      </trkpt>
      <trkpt lat="46.4616" lon="5.4387">
        <ele>441.6</ele>
        <time>2022-03-28T15:02:03Z</time>
      </trkpt>
      <trkpt lat="46.46165" lon="5.4385">
        <ele>442.6</ele>
        <time>2022-03-28T15:02:07Z</time>
      </trkpt>
      <trkpt lat="46.46167" lon="5.43845">
        <ele>442.8</ele>
        <time>2022-03-28T15:02:08Z</time>
      </trkpt>
      <trkpt lat="46.46173" lon="5.43821">
        <ele>444</ele>
        <time>2022-03-28T15:02:13Z</time>
      </trkpt>
      <trkpt lat="46.46176" lon="5.43814">
        <ele>444.2</ele>
        <time>2022-03-28T15:02:15Z</time>
      </trkpt>
      <trkpt lat="46.46181" lon="5.43798">
        <ele>445</ele>
        <time>2022-03-28T15:02:19Z</time>
      </trkpt>
      <trkpt lat="46.46185" lon="5.43784">
        <ele>445.6</ele>
        <time>2022-03-28T15:02:22Z</time>
      </trkpt>
      <trkpt lat="46.46187" lon="5.43768">
        <ele>446.2</ele>
        <time>2022-03-28T15:02:25Z</time>
      </trkpt>
      <trkpt lat="46.46189" lon="5.43746">
        <ele>447</ele>
        <time>2022-03-28T15:02:29Z</time>
      </trkpt>
      <trkpt lat="46.46191" lon="5.43735">
        <ele>447.2</ele>
        <time>2022-03-28T15:02:31Z</time>
      </trkpt>
      <trkpt lat="46.4619" lon="5.43709">
        <ele>448.4</ele>
        <time>2022-03-28T15:02:36Z</time>
      </trkpt>
      <trkpt lat="46.46184" lon="5.43674">
        <ele>449.6</ele>
        <time>2022-03-28T15:02:42Z</time>
      </trkpt>
      <trkpt lat="46.4618" lon="5.43662">
        <ele>449.8</ele>
        <time>2022-03-28T15:02:44Z</time>
      </trkpt>
      <trkpt lat="46.46162" lon="5.4362">
        <ele>450.6</ele>
        <time>2022-03-28T15:02:51Z</time>
      </trkpt>
      <trkpt lat="46.46136" lon="5.4359">
        <ele>451</ele>
        <time>2022-03-28T15:02:57Z</time>
      </trkpt>
      <trkpt lat="46.46103" lon="5.43571">
        <ele>450.8</ele>
        <time>2022-03-28T15:03:03Z</time>
      </trkpt>
      <trkpt lat="46.46068" lon="5.43567">
        <ele>450.2</ele>
        <time>2022-03-28T15:03:08Z</time>
      </trkpt>
      <trkpt lat="46.46027" lon="5.43561">
        <ele>449.6</ele>
        <time>2022-03-28T15:03:13Z</time>
      </trkpt>
      <trkpt lat="46.46019" lon="5.43559">
        <ele>449.4</ele>
        <time>2022-03-28T15:03:14Z</time>
      </trkpt>
      <trkpt lat="46.46002" lon="5.43553">
        <ele>448.6</ele>
        <time>2022-03-28T15:03:16Z</time>
      </trkpt>
      <trkpt lat="46.45979" lon="5.43539">
        <ele>447.4</ele>
        <time>2022-03-28T15:03:19Z</time>
      </trkpt>
      <trkpt lat="46.4595" lon="5.43516">
        <ele>446.4</ele>
        <time>2022-03-28T15:03:23Z</time>
      </trkpt>
      <trkpt lat="46.45927" lon="5.43499">
        <ele>445.4</ele>
        <time>2022-03-28T15:03:26Z</time>
      </trkpt>
      <trkpt lat="46.45905" lon="5.43482">
        <ele>444</ele>
        <time>2022-03-28T15:03:29Z</time>
      </trkpt>
      <trkpt lat="46.4588" lon="5.43463">
        <ele>442.8</ele>
        <time>2022-03-28T15:03:32Z</time>
      </trkpt>
      <trkpt lat="46.45849" lon="5.43439">
        <ele>441.6</ele>
        <time>2022-03-28T15:03:36Z</time>
      </trkpt>
      <trkpt lat="46.45843" lon="5.43434">
        <ele>441.4</ele>
        <time>2022-03-28T15:03:37Z</time>
      </trkpt>
      <trkpt lat="46.45818" lon="5.43414">
        <ele>440.4</ele>
        <time>2022-03-28T15:03:40Z</time>
      </trkpt>
      <trkpt lat="46.45793" lon="5.43396">
        <ele>439.4</ele>
        <time>2022-03-28T15:03:43Z</time>
      </trkpt>
      <trkpt lat="46.45785" lon="5.4339">
        <ele>439</ele>
        <time>2022-03-28T15:03:44Z</time>
      </trkpt>
      <trkpt lat="46.45763" lon="5.4337">
        <ele>438.2</ele>
        <time>2022-03-28T15:03:47Z</time>
      </trkpt>
      <trkpt lat="46.45739" lon="5.43344">
        <ele>437.2</ele>
        <time>2022-03-28T15:03:50Z</time>
      </trkpt>
      <trkpt lat="46.45719" lon="5.43316">
        <ele>435.6</ele>
        <time>2022-03-28T15:03:53Z</time>
      </trkpt>
      <trkpt lat="46.45708" lon="5.43295">
        <ele>434.8</ele>
        <time>2022-03-28T15:03:55Z</time>
      </trkpt>
      <trkpt lat="46.45678" lon="5.4323">
        <ele>434</ele>
        <time>2022-03-28T15:04:01Z</time>
      </trkpt>
      <trkpt lat="46.45673" lon="5.43219">
        <ele>433.8</ele>
        <time>2022-03-28T15:04:02Z</time>
      </trkpt>
      <trkpt lat="46.45669" lon="5.43209">
        <ele>433.4</ele>
        <time>2022-03-28T15:04:03Z</time>
      </trkpt>
      <trkpt lat="46.45659" lon="5.43187">
        <ele>432.8</ele>
        <time>2022-03-28T15:04:05Z</time>
      </trkpt>
      <trkpt lat="46.45641" lon="5.43144">
        <ele>431.4</ele>
        <time>2022-03-28T15:04:09Z</time>
      </trkpt>
      <trkpt lat="46.45627" lon="5.43113">
        <ele>431.2</ele>
        <time>2022-03-28T15:04:12Z</time>
      </trkpt>
      <trkpt lat="46.45596" lon="5.43046">
        <ele>431</ele>
        <time>2022-03-28T15:04:19Z</time>
      </trkpt>
      <trkpt lat="46.45566" lon="5.42993">
        <ele>431</ele>
        <time>2022-03-28T15:04:26Z</time>
      </trkpt>
      <trkpt lat="46.45542" lon="5.42957">
        <ele>431.6</ele>
        <time>2022-03-28T15:04:32Z</time>
      </trkpt>
      <trkpt lat="46.45514" lon="5.42921">
        <ele>432.2</ele>
        <time>2022-03-28T15:04:39Z</time>
      </trkpt>
      <trkpt lat="46.4551" lon="5.42916">
        <ele>432.4</ele>
        <time>2022-03-28T15:04:40Z</time>
      </trkpt>
      <trkpt lat="46.45495" lon="5.42897">
        <ele>433.6</ele>
        <time>2022-03-28T15:04:44Z</time>
      </trkpt>
      <trkpt lat="46.45487" lon="5.42887">
        <ele>434</ele>
        <time>2022-03-28T15:04:46Z</time>
      </trkpt>
      <trkpt lat="46.4547" lon="5.42866">
        <ele>434.6</ele>
        <time>2022-03-28T15:04:51Z</time>
      </trkpt>
      <trkpt lat="46.45456" lon="5.42851">
        <ele>435</ele>
        <time>2022-03-28T15:04:55Z</time>
      </trkpt>
      <trkpt lat="46.45449" lon="5.42845">
        <ele>435.8</ele>
        <time>2022-03-28T15:04:57Z</time>
      </trkpt>
      <trkpt lat="46.45422" lon="5.42819">
        <ele>436.8</ele>
        <time>2022-03-28T15:05:04Z</time>
      </trkpt>
      <trkpt lat="46.45418" lon="5.42815">
        <ele>436.8</ele>
        <time>2022-03-28T15:05:05Z</time>
      </trkpt>
      <trkpt lat="46.45384" lon="5.42779">
        <ele>437.8</ele>
        <time>2022-03-28T15:05:14Z</time>
      </trkpt>
      <trkpt lat="46.45375" lon="5.42767">
        <ele>438.2</ele>
        <time>2022-03-28T15:05:17Z</time>
      </trkpt>
      <trkpt lat="46.45362" lon="5.42747">
        <ele>438.8</ele>
        <time>2022-03-28T15:05:21Z</time>
      </trkpt>
      <trkpt lat="46.45342" lon="5.42712">
        <ele>439.8</ele>
        <time>2022-03-28T15:05:28Z</time>
      </trkpt>
      <trkpt lat="46.45337" lon="5.42702">
        <ele>440</ele>
        <time>2022-03-28T15:05:30Z</time>
      </trkpt>
      <trkpt lat="46.45323" lon="5.42677">
        <ele>441.2</ele>
        <time>2022-03-28T15:05:35Z</time>
      </trkpt>
      <trkpt lat="46.45317" lon="5.42666">
        <ele>441.4</ele>
        <time>2022-03-28T15:05:37Z</time>
      </trkpt>
      <trkpt lat="46.45299" lon="5.42634">
        <ele>442.4</ele>
        <time>2022-03-28T15:05:43Z</time>
      </trkpt>
      <trkpt lat="46.45282" lon="5.42603">
        <ele>443.6</ele>
        <time>2022-03-28T15:05:49Z</time>
      </trkpt>
      <trkpt lat="46.45262" lon="5.42567">
        <ele>444.6</ele>
        <time>2022-03-28T15:05:56Z</time>
      </trkpt>
      <trkpt lat="46.45259" lon="5.42561">
        <ele>444.6</ele>
        <time>2022-03-28T15:05:57Z</time>
      </trkpt>
      <trkpt lat="46.45239" lon="5.42525">
        <ele>445.6</ele>
        <time>2022-03-28T15:06:04Z</time>
      </trkpt>
      <trkpt lat="46.45225" lon="5.42499">
        <ele>446.6</ele>
        <time>2022-03-28T15:06:09Z</time>
      </trkpt>
      <trkpt lat="46.45221" lon="5.42492">
        <ele>446.8</ele>
        <time>2022-03-28T15:06:10Z</time>
      </trkpt>
      <trkpt lat="46.45197" lon="5.42448">
        <ele>447.8</ele>
        <time>2022-03-28T15:06:18Z</time>
      </trkpt>
      <trkpt lat="46.45194" lon="5.42443">
        <ele>448</ele>
        <time>2022-03-28T15:06:19Z</time>
      </trkpt>
      <trkpt lat="46.45176" lon="5.4241">
        <ele>449.2</ele>
        <time>2022-03-28T15:06:25Z</time>
      </trkpt>
      <trkpt lat="46.45166" lon="5.42396">
        <ele>449.4</ele>
        <time>2022-03-28T15:06:28Z</time>
      </trkpt>
      <trkpt lat="46.45159" lon="5.42386">
        <ele>449.8</ele>
        <time>2022-03-28T15:06:30Z</time>
      </trkpt>
      <trkpt lat="46.45152" lon="5.42377">
        <ele>450.2</ele>
        <time>2022-03-28T15:06:32Z</time>
      </trkpt>
      <trkpt lat="46.45149" lon="5.42372">
        <ele>450.4</ele>
        <time>2022-03-28T15:06:33Z</time>
      </trkpt>
      <trkpt lat="46.45136" lon="5.42356">
        <ele>451.2</ele>
        <time>2022-03-28T15:06:37Z</time>
      </trkpt>
      <trkpt lat="46.45131" lon="5.4235">
        <ele>451.2</ele>
        <time>2022-03-28T15:06:38Z</time>
      </trkpt>
      <trkpt lat="46.45124" lon="5.4234">
        <ele>451.6</ele>
        <time>2022-03-28T15:06:40Z</time>
      </trkpt>
      <trkpt lat="46.45118" lon="5.4233">
        <ele>451.8</ele>
        <time>2022-03-28T15:06:42Z</time>
      </trkpt>
      <trkpt lat="46.45108" lon="5.42317">
        <ele>452</ele>
        <time>2022-03-28T15:06:45Z</time>
      </trkpt>
      <trkpt lat="46.45104" lon="5.42312">
        <ele>452.4</ele>
        <time>2022-03-28T15:06:46Z</time>
      </trkpt>
      <trkpt lat="46.45097" lon="5.42303">
        <ele>453</ele>
        <time>2022-03-28T15:06:48Z</time>
      </trkpt>
      <trkpt lat="46.45091" lon="5.42292">
        <ele>453.4</ele>
        <time>2022-03-28T15:06:50Z</time>
      </trkpt>
      <trkpt lat="46.45089" lon="5.42286">
        <ele>453.6</ele>
        <time>2022-03-28T15:06:51Z</time>
      </trkpt>
      <trkpt lat="46.45087" lon="5.4228">
        <ele>453.6</ele>
        <time>2022-03-28T15:06:52Z</time>
      </trkpt>
      <trkpt lat="46.45084" lon="5.42253">
        <ele>454.4</ele>
        <time>2022-03-28T15:06:56Z</time>
      </trkpt>
      <trkpt lat="46.45083" lon="5.42246">
        <ele>454.6</ele>
        <time>2022-03-28T15:06:57Z</time>
      </trkpt>
      <trkpt lat="46.4508" lon="5.42213">
        <ele>455.6</ele>
        <time>2022-03-28T15:07:02Z</time>
      </trkpt>
      <trkpt lat="46.45078" lon="5.42195">
        <ele>456</ele>
        <time>2022-03-28T15:07:05Z</time>
      </trkpt>
      <trkpt lat="46.45075" lon="5.42181">
        <ele>456.6</ele>
        <time>2022-03-28T15:07:07Z</time>
      </trkpt>
      <trkpt lat="46.45062" lon="5.42143">
        <ele>457.4</ele>
        <time>2022-03-28T15:07:13Z</time>
      </trkpt>
      <trkpt lat="46.45057" lon="5.4213">
        <ele>457.8</ele>
        <time>2022-03-28T15:07:15Z</time>
      </trkpt>
      <trkpt lat="46.45045" lon="5.42097">
        <ele>458</ele>
        <time>2022-03-28T15:07:20Z</time>
      </trkpt>
      <trkpt lat="46.45021" lon="5.42052">
        <ele>458.2</ele>
        <time>2022-03-28T15:07:28Z</time>
      </trkpt>
      <trkpt lat="46.44999" lon="5.42017">
        <ele>458.8</ele>
        <time>2022-03-28T15:07:34Z</time>
      </trkpt>
      <trkpt lat="46.44982" lon="5.41991">
        <ele>459.4</ele>
        <time>2022-03-28T15:07:39Z</time>
      </trkpt>
      <trkpt lat="46.44972" lon="5.41975">
        <ele>459.8</ele>
        <time>2022-03-28T15:07:42Z</time>
      </trkpt>
      <trkpt lat="46.44969" lon="5.41969">
        <ele>460</ele>
        <time>2022-03-28T15:07:43Z</time>
      </trkpt>
      <trkpt lat="46.44965" lon="5.41958">
        <ele>460.6</ele>
        <time>2022-03-28T15:07:45Z</time>
      </trkpt>
      <trkpt lat="46.44963" lon="5.41951">
        <ele>460.8</ele>
        <time>2022-03-28T15:07:46Z</time>
      </trkpt>
      <trkpt lat="46.44961" lon="5.41945">
        <ele>461</ele>
        <time>2022-03-28T15:07:47Z</time>
      </trkpt>
      <trkpt lat="46.4496" lon="5.41939">
        <ele>461.2</ele>
        <time>2022-03-28T15:07:48Z</time>
      </trkpt>
      <trkpt lat="46.4496" lon="5.41918">
        <ele>462</ele>
        <time>2022-03-28T15:07:51Z</time>
      </trkpt>
      <trkpt lat="46.44962" lon="5.41893">
        <ele>462.8</ele>
        <time>2022-03-28T15:07:54Z</time>
      </trkpt>
      <trkpt lat="46.44967" lon="5.41872">
        <ele>462.8</ele>
        <time>2022-03-28T15:07:57Z</time>
      </trkpt>
      <trkpt lat="46.44972" lon="5.41859">
        <ele>463</ele>
        <time>2022-03-28T15:07:59Z</time>
      </trkpt>
      <trkpt lat="46.44985" lon="5.4183">
        <ele>463.6</ele>
        <time>2022-03-28T15:08:04Z</time>
      </trkpt>
      <trkpt lat="46.45" lon="5.41812">
        <ele>464.2</ele>
        <time>2022-03-28T15:08:08Z</time>
      </trkpt>
      <trkpt lat="46.45009" lon="5.41807">
        <ele>464.4</ele>
        <time>2022-03-28T15:08:10Z</time>
      </trkpt>
      <trkpt lat="46.45019" lon="5.41804">
        <ele>464.8</ele>
        <time>2022-03-28T15:08:12Z</time>
      </trkpt>
      <trkpt lat="46.45036" lon="5.41806">
        <ele>465</ele>
        <time>2022-03-28T15:08:15Z</time>
      </trkpt>
      <trkpt lat="46.45041" lon="5.41808">
        <ele>465.2</ele>
        <time>2022-03-28T15:08:16Z</time>
      </trkpt>
      <trkpt lat="46.45068" lon="5.41815">
        <ele>465.4</ele>
        <time>2022-03-28T15:08:21Z</time>
      </trkpt>
      <trkpt lat="46.45101" lon="5.41814">
        <ele>465.2</ele>
        <time>2022-03-28T15:08:26Z</time>
      </trkpt>
      <trkpt lat="46.45108" lon="5.41813">
        <ele>465.2</ele>
        <time>2022-03-28T15:08:27Z</time>
      </trkpt>
      <trkpt lat="46.45136" lon="5.41805">
        <ele>464.8</ele>
        <time>2022-03-28T15:08:31Z</time>
      </trkpt>
      <trkpt lat="46.45167" lon="5.41782">
        <ele>464.6</ele>
        <time>2022-03-28T15:08:36Z</time>
      </trkpt>
      <trkpt lat="46.45193" lon="5.41745">
        <ele>464.4</ele>
        <time>2022-03-28T15:08:41Z</time>
      </trkpt>
      <trkpt lat="46.4521" lon="5.41701">
        <ele>464.6</ele>
        <time>2022-03-28T15:08:46Z</time>
      </trkpt>
      <trkpt lat="46.45225" lon="5.41649">
        <ele>465.8</ele>
        <time>2022-03-28T15:08:52Z</time>
      </trkpt>
      <trkpt lat="46.45227" lon="5.41641">
        <ele>465.8</ele>
        <time>2022-03-28T15:08:53Z</time>
      </trkpt>
      <trkpt lat="46.45232" lon="5.41618">
        <ele>466.2</ele>
        <time>2022-03-28T15:08:56Z</time>
      </trkpt>
      <trkpt lat="46.45238" lon="5.41595">
        <ele>467</ele>
        <time>2022-03-28T15:08:59Z</time>
      </trkpt>
      <trkpt lat="46.4524" lon="5.41587">
        <ele>467</ele>
        <time>2022-03-28T15:09:00Z</time>
      </trkpt>
      <trkpt lat="46.45243" lon="5.4158">
        <ele>467.4</ele>
        <time>2022-03-28T15:09:01Z</time>
      </trkpt>
      <trkpt lat="46.4525" lon="5.41564">
        <ele>467.8</ele>
        <time>2022-03-28T15:09:03Z</time>
      </trkpt>
      <trkpt lat="46.45255" lon="5.41557">
        <ele>468</ele>
        <time>2022-03-28T15:09:04Z</time>
      </trkpt>
      <trkpt lat="46.4526" lon="5.4155">
        <ele>468.2</ele>
        <time>2022-03-28T15:09:05Z</time>
      </trkpt>
      <trkpt lat="46.45265" lon="5.41544">
        <ele>468.4</ele>
        <time>2022-03-28T15:09:06Z</time>
      </trkpt>
      <trkpt lat="46.45271" lon="5.41539">
        <ele>468.4</ele>
        <time>2022-03-28T15:09:07Z</time>
      </trkpt>
      <trkpt lat="46.45277" lon="5.41535">
        <ele>468.6</ele>
        <time>2022-03-28T15:09:08Z</time>
      </trkpt>
      <trkpt lat="46.45283" lon="5.41533">
        <ele>468.6</ele>
        <time>2022-03-28T15:09:09Z</time>
      </trkpt>
      <trkpt lat="46.45295" lon="5.41531">
        <ele>469</ele>
        <time>2022-03-28T15:09:11Z</time>
      </trkpt>
      <trkpt lat="46.45301" lon="5.41531">
        <ele>469</ele>
        <time>2022-03-28T15:09:12Z</time>
      </trkpt>
      <trkpt lat="46.45318" lon="5.41534">
        <ele>469.4</ele>
        <time>2022-03-28T15:09:15Z</time>
      </trkpt>
      <trkpt lat="46.45327" lon="5.41536">
        <ele>469.6</ele>
        <time>2022-03-28T15:09:17Z</time>
      </trkpt>
      <trkpt lat="46.45355" lon="5.41541">
        <ele>470.6</ele>
        <time>2022-03-28T15:09:22Z</time>
      </trkpt>
      <trkpt lat="46.4536" lon="5.41541">
        <ele>470.6</ele>
        <time>2022-03-28T15:09:23Z</time>
      </trkpt>
      <trkpt lat="46.45404" lon="5.41534">
        <ele>471.4</ele>
        <time>2022-03-28T15:09:31Z</time>
      </trkpt>
      <trkpt lat="46.45409" lon="5.41533">
        <ele>471.6</ele>
        <time>2022-03-28T15:09:32Z</time>
      </trkpt>
      <trkpt lat="46.45444" lon="5.41521">
        <ele>472.4</ele>
        <time>2022-03-28T15:09:39Z</time>
      </trkpt>
      <trkpt lat="46.45453" lon="5.41517">
        <ele>472.6</ele>
        <time>2022-03-28T15:09:41Z</time>
      </trkpt>
      <trkpt lat="46.45471" lon="5.4151">
        <ele>474</ele>
        <time>2022-03-28T15:09:45Z</time>
      </trkpt>
      <trkpt lat="46.45476" lon="5.41508">
        <ele>474.2</ele>
        <time>2022-03-28T15:09:46Z</time>
      </trkpt>
      <trkpt lat="46.455" lon="5.41496">
        <ele>475</ele>
        <time>2022-03-28T15:09:51Z</time>
      </trkpt>
      <trkpt lat="46.45514" lon="5.41488">
        <ele>475.8</ele>
        <time>2022-03-28T15:09:54Z</time>
      </trkpt>
      <trkpt lat="46.45523" lon="5.41483">
        <ele>476.2</ele>
        <time>2022-03-28T15:09:56Z</time>
      </trkpt>
      <trkpt lat="46.45546" lon="5.41468">
        <ele>476.6</ele>
        <time>2022-03-28T15:10:01Z</time>
      </trkpt>
      <trkpt lat="46.45578" lon="5.41443">
        <ele>477</ele>
        <time>2022-03-28T15:10:08Z</time>
      </trkpt>
      <trkpt lat="46.45601" lon="5.41411">
        <ele>476.8</ele>
        <time>2022-03-28T15:10:14Z</time>
      </trkpt>
      <trkpt lat="46.4563" lon="5.41353">
        <ele>476.8</ele>
        <time>2022-03-28T15:10:23Z</time>
      </trkpt>
      <trkpt lat="46.45636" lon="5.4134">
        <ele>477.2</ele>
        <time>2022-03-28T15:10:25Z</time>
      </trkpt>
      <trkpt lat="46.45646" lon="5.41322">
        <ele>477.4</ele>
        <time>2022-03-28T15:10:28Z</time>
      </trkpt>
      <trkpt lat="46.45659" lon="5.41305">
        <ele>477.8</ele>
        <time>2022-03-28T15:10:31Z</time>
      </trkpt>
      <trkpt lat="46.45687" lon="5.41269">
        <ele>478</ele>
        <time>2022-03-28T15:10:37Z</time>
      </trkpt>
      <trkpt lat="46.45729" lon="5.41222">
        <ele>478</ele>
        <time>2022-03-28T15:10:45Z</time>
      </trkpt>
      <trkpt lat="46.45753" lon="5.41187">
        <ele>478.2</ele>
        <time>2022-03-28T15:10:50Z</time>
      </trkpt>
      <trkpt lat="46.4576" lon="5.41171">
        <ele>478.2</ele>
        <time>2022-03-28T15:10:52Z</time>
      </trkpt>
      <trkpt lat="46.45772" lon="5.41128">
        <ele>478.2</ele>
        <time>2022-03-28T15:10:57Z</time>
      </trkpt>
      <trkpt lat="46.45774" lon="5.41119">
        <ele>478.2</ele>
        <time>2022-03-28T15:10:58Z</time>
      </trkpt>
      <trkpt lat="46.45793" lon="5.41041">
        <ele>479.2</ele>
        <time>2022-03-28T15:11:07Z</time>
      </trkpt>
      <trkpt lat="46.45796" lon="5.41033">
        <ele>479.2</ele>
        <time>2022-03-28T15:11:08Z</time>
      </trkpt>
      <trkpt lat="46.45815" lon="5.40972">
        <ele>480.4</ele>
        <time>2022-03-28T15:11:16Z</time>
      </trkpt>
      <trkpt lat="46.45817" lon="5.40963">
        <ele>480.4</ele>
        <time>2022-03-28T15:11:17Z</time>
      </trkpt>
      <trkpt lat="46.45828" lon="5.40909">
        <ele>481.4</ele>
        <time>2022-03-28T15:11:24Z</time>
      </trkpt>
      <trkpt lat="46.4583" lon="5.40902">
        <ele>481.4</ele>
        <time>2022-03-28T15:11:25Z</time>
      </trkpt>
      <trkpt lat="46.45841" lon="5.40842">
        <ele>481.8</ele>
        <time>2022-03-28T15:11:32Z</time>
      </trkpt>
      <trkpt lat="46.45848" lon="5.40769">
        <ele>481.8</ele>
        <time>2022-03-28T15:11:40Z</time>
      </trkpt>
      <trkpt lat="46.45851" lon="5.40738">
        <ele>481.8</ele>
        <time>2022-03-28T15:11:43Z</time>
      </trkpt>
      <trkpt lat="46.45858" lon="5.40706">
        <ele>482.2</ele>
        <time>2022-03-28T15:11:47Z</time>
      </trkpt>
      <trkpt lat="46.45861" lon="5.40697">
        <ele>482.4</ele>
        <time>2022-03-28T15:11:48Z</time>
      </trkpt>
      <trkpt lat="46.45869" lon="5.40674">
        <ele>483.2</ele>
        <time>2022-03-28T15:11:52Z</time>
      </trkpt>
      <trkpt lat="46.45871" lon="5.40668">
        <ele>483.8</ele>
        <time>2022-03-28T15:11:53Z</time>
      </trkpt>
      <trkpt lat="46.45883" lon="5.40638">
        <ele>484.8</ele>
        <time>2022-03-28T15:11:59Z</time>
      </trkpt>
      <trkpt lat="46.45889" lon="5.40621">
        <ele>485.8</ele>
        <time>2022-03-28T15:12:03Z</time>
      </trkpt>
      <trkpt lat="46.45894" lon="5.40609">
        <ele>487</ele>
        <time>2022-03-28T15:12:06Z</time>
      </trkpt>
      <trkpt lat="46.45906" lon="5.4059">
        <ele>488.2</ele>
        <time>2022-03-28T15:12:11Z</time>
      </trkpt>
      <trkpt lat="46.45908" lon="5.40585">
        <ele>488.4</ele>
        <time>2022-03-28T15:12:12Z</time>
      </trkpt>
      <trkpt lat="46.45914" lon="5.40568">
        <ele>489.2</ele>
        <time>2022-03-28T15:12:15Z</time>
      </trkpt>
      <trkpt lat="46.45919" lon="5.40554">
        <ele>490.4</ele>
        <time>2022-03-28T15:12:18Z</time>
      </trkpt>
      <trkpt lat="46.45927" lon="5.40536">
        <ele>491.4</ele>
        <time>2022-03-28T15:12:22Z</time>
      </trkpt>
      <trkpt lat="46.45932" lon="5.40524">
        <ele>492.2</ele>
        <time>2022-03-28T15:12:25Z</time>
      </trkpt>
      <trkpt lat="46.45937" lon="5.40516">
        <ele>492.6</ele>
        <time>2022-03-28T15:12:27Z</time>
      </trkpt>
      <trkpt lat="46.45946" lon="5.40503">
        <ele>493.4</ele>
        <time>2022-03-28T15:12:31Z</time>
      </trkpt>
      <trkpt lat="46.45951" lon="5.40496">
        <ele>493.8</ele>
        <time>2022-03-28T15:12:33Z</time>
      </trkpt>
      <trkpt lat="46.45959" lon="5.40483">
        <ele>495</ele>
        <time>2022-03-28T15:12:37Z</time>
      </trkpt>
      <trkpt lat="46.45965" lon="5.40473">
        <ele>495.6</ele>
        <time>2022-03-28T15:12:40Z</time>
      </trkpt>
      <trkpt lat="46.45969" lon="5.40467">
        <ele>496</ele>
        <time>2022-03-28T15:12:42Z</time>
      </trkpt>
      <trkpt lat="46.45978" lon="5.40453">
        <ele>497.2</ele>
        <time>2022-03-28T15:12:46Z</time>
      </trkpt>
      <trkpt lat="46.45982" lon="5.40446">
        <ele>497.6</ele>
        <time>2022-03-28T15:12:48Z</time>
      </trkpt>
      <trkpt lat="46.45987" lon="5.40435">
        <ele>498.2</ele>
        <time>2022-03-28T15:12:51Z</time>
      </trkpt>
      <trkpt lat="46.45993" lon="5.40424">
        <ele>499</ele>
        <time>2022-03-28T15:12:54Z</time>
      </trkpt>
      <trkpt lat="46.45998" lon="5.40411">
        <ele>499.4</ele>
        <time>2022-03-28T15:12:57Z</time>
      </trkpt>
      <trkpt lat="46.46006" lon="5.40392">
        <ele>500.4</ele>
        <time>2022-03-28T15:13:02Z</time>
      </trkpt>
      <trkpt lat="46.46013" lon="5.40378">
        <ele>501.6</ele>
        <time>2022-03-28T15:13:06Z</time>
      </trkpt>
      <trkpt lat="46.46016" lon="5.4037">
        <ele>502</ele>
        <time>2022-03-28T15:13:08Z</time>
      </trkpt>
      <trkpt lat="46.46021" lon="5.40354">
        <ele>502.6</ele>
        <time>2022-03-28T15:13:11Z</time>
      </trkpt>
      <trkpt lat="46.46025" lon="5.40341">
        <ele>503.6</ele>
        <time>2022-03-28T15:13:14Z</time>
      </trkpt>
      <trkpt lat="46.46033" lon="5.40333">
        <ele>504.2</ele>
        <time>2022-03-28T15:13:17Z</time>
      </trkpt>
      <trkpt lat="46.4604" lon="5.40328">
        <ele>505</ele>
        <time>2022-03-28T15:13:19Z</time>
      </trkpt>
      <trkpt lat="46.46053" lon="5.40321">
        <ele>506.2</ele>
        <time>2022-03-28T15:13:23Z</time>
      </trkpt>
      <trkpt lat="46.46056" lon="5.40319">
        <ele>506.4</ele>
        <time>2022-03-28T15:13:24Z</time>
      </trkpt>
      <trkpt lat="46.46069" lon="5.40314">
        <ele>507.2</ele>
        <time>2022-03-28T15:13:28Z</time>
      </trkpt>
      <trkpt lat="46.46086" lon="5.40308">
        <ele>508.4</ele>
        <time>2022-03-28T15:13:33Z</time>
      </trkpt>
      <trkpt lat="46.4609" lon="5.40307">
        <ele>508.8</ele>
        <time>2022-03-28T15:13:34Z</time>
      </trkpt>
      <trkpt lat="46.46106" lon="5.403">
        <ele>509.8</ele>
        <time>2022-03-28T15:13:39Z</time>
      </trkpt>
      <trkpt lat="46.46119" lon="5.40292">
        <ele>510.6</ele>
        <time>2022-03-28T15:13:43Z</time>
      </trkpt>
      <trkpt lat="46.46127" lon="5.40279">
        <ele>511.6</ele>
        <time>2022-03-28T15:13:46Z</time>
      </trkpt>
      <trkpt lat="46.46141" lon="5.40255">
        <ele>512.4</ele>
        <time>2022-03-28T15:13:51Z</time>
      </trkpt>
      <trkpt lat="46.46146" lon="5.40246">
        <ele>512.8</ele>
        <time>2022-03-28T15:13:53Z</time>
      </trkpt>
      <trkpt lat="46.46164" lon="5.40216">
        <ele>513.8</ele>
        <time>2022-03-28T15:14:00Z</time>
      </trkpt>
      <trkpt lat="46.46166" lon="5.40211">
        <ele>514</ele>
        <time>2022-03-28T15:14:01Z</time>
      </trkpt>
      <trkpt lat="46.46179" lon="5.40185">
        <ele>515</ele>
        <time>2022-03-28T15:14:07Z</time>
      </trkpt>
      <trkpt lat="46.46183" lon="5.40175">
        <ele>515.2</ele>
        <time>2022-03-28T15:14:09Z</time>
      </trkpt>
      <trkpt lat="46.46196" lon="5.40152">
        <ele>516</ele>
        <time>2022-03-28T15:14:14Z</time>
      </trkpt>
      <trkpt lat="46.46202" lon="5.40142">
        <ele>516.4</ele>
        <time>2022-03-28T15:14:16Z</time>
      </trkpt>
      <trkpt lat="46.46228" lon="5.40107">
        <ele>517</ele>
        <time>2022-03-28T15:14:23Z</time>
      </trkpt>
      <trkpt lat="46.46232" lon="5.40103">
        <ele>517</ele>
        <time>2022-03-28T15:14:24Z</time>
      </trkpt>
      <trkpt lat="46.46255" lon="5.40085">
        <ele>517.4</ele>
        <time>2022-03-28T15:14:29Z</time>
      </trkpt>
      <trkpt lat="46.46274" lon="5.40081">
        <ele>517.6</ele>
        <time>2022-03-28T15:14:34Z</time>
      </trkpt>
      <trkpt lat="46.46278" lon="5.40081">
        <ele>517.8</ele>
        <time>2022-03-28T15:14:35Z</time>
      </trkpt>
      <trkpt lat="46.46287" lon="5.40082">
        <ele>518.4</ele>
        <time>2022-03-28T15:14:37Z</time>
      </trkpt>
      <trkpt lat="46.46306" lon="5.40084">
        <ele>519.2</ele>
        <time>2022-03-28T15:14:42Z</time>
      </trkpt>
      <trkpt lat="46.4631" lon="5.40084">
        <ele>519.6</ele>
        <time>2022-03-28T15:14:43Z</time>
      </trkpt>
      <trkpt lat="46.46323" lon="5.40085">
        <ele>520.6</ele>
        <time>2022-03-28T15:14:46Z</time>
      </trkpt>
      <trkpt lat="46.46342" lon="5.40085">
        <ele>521.6</ele>
        <time>2022-03-28T15:14:50Z</time>
      </trkpt>
      <trkpt lat="46.46347" lon="5.40085">
        <ele>521.8</ele>
        <time>2022-03-28T15:14:51Z</time>
      </trkpt>
      <trkpt lat="46.46378" lon="5.40082">
        <ele>522.8</ele>
        <time>2022-03-28T15:14:57Z</time>
      </trkpt>
      <trkpt lat="46.46383" lon="5.40082">
        <ele>523</ele>
        <time>2022-03-28T15:14:58Z</time>
      </trkpt>
      <trkpt lat="46.46402" lon="5.4008">
        <ele>523.8</ele>
        <time>2022-03-28T15:15:02Z</time>
      </trkpt>
      <trkpt lat="46.46425" lon="5.40077">
        <ele>524.4</ele>
        <time>2022-03-28T15:15:07Z</time>
      </trkpt>
      <trkpt lat="46.46434" lon="5.40076">
        <ele>524.8</ele>
        <time>2022-03-28T15:15:09Z</time>
      </trkpt>
      <trkpt lat="46.46468" lon="5.40071">
        <ele>526.2</ele>
        <time>2022-03-28T15:15:16Z</time>
      </trkpt>
      <trkpt lat="46.46472" lon="5.4007">
        <ele>526.2</ele>
        <time>2022-03-28T15:15:17Z</time>
      </trkpt>
      <trkpt lat="46.46486" lon="5.40069">
        <ele>527</ele>
        <time>2022-03-28T15:15:20Z</time>
      </trkpt>
      <trkpt lat="46.46496" lon="5.40071">
        <ele>527.4</ele>
        <time>2022-03-28T15:15:22Z</time>
      </trkpt>
      <trkpt lat="46.46511" lon="5.40075">
        <ele>528</ele>
        <time>2022-03-28T15:15:25Z</time>
      </trkpt>
      <trkpt lat="46.46534" lon="5.40087">
        <ele>528.6</ele>
        <time>2022-03-28T15:15:30Z</time>
      </trkpt>
      <trkpt lat="46.46539" lon="5.40089">
        <ele>528.8</ele>
        <time>2022-03-28T15:15:31Z</time>
      </trkpt>
      <trkpt lat="46.46548" lon="5.40093">
        <ele>529</ele>
        <time>2022-03-28T15:15:33Z</time>
      </trkpt>
      <trkpt lat="46.46575" lon="5.40108">
        <ele>529.4</ele>
        <time>2022-03-28T15:15:39Z</time>
      </trkpt>
      <trkpt lat="46.46585" lon="5.40113">
        <ele>529.8</ele>
        <time>2022-03-28T15:15:41Z</time>
      </trkpt>
      <trkpt lat="46.4662" lon="5.40129">
        <ele>530.8</ele>
        <time>2022-03-28T15:15:49Z</time>
      </trkpt>
      <trkpt lat="46.46629" lon="5.40135">
        <ele>531.4</ele>
        <time>2022-03-28T15:15:51Z</time>
      </trkpt>
      <trkpt lat="46.46637" lon="5.4014">
        <ele>531.8</ele>
        <time>2022-03-28T15:15:53Z</time>
      </trkpt>
      <trkpt lat="46.46657" lon="5.40152">
        <ele>532.8</ele>
        <time>2022-03-28T15:15:58Z</time>
      </trkpt>
      <trkpt lat="46.46665" lon="5.40157">
        <ele>533.2</ele>
        <time>2022-03-28T15:16:00Z</time>
      </trkpt>
      <trkpt lat="46.46674" lon="5.40162">
        <ele>534</ele>
        <time>2022-03-28T15:16:02Z</time>
      </trkpt>
      <trkpt lat="46.4669" lon="5.4017">
        <ele>535.4</ele>
        <time>2022-03-28T15:16:06Z</time>
      </trkpt>
      <trkpt lat="46.46698" lon="5.40174">
        <ele>535.8</ele>
        <time>2022-03-28T15:16:08Z</time>
      </trkpt>
      <trkpt lat="46.46703" lon="5.40176">
        <ele>536.2</ele>
        <time>2022-03-28T15:16:09Z</time>
      </trkpt>
      <trkpt lat="46.46711" lon="5.40181">
        <ele>536.6</ele>
        <time>2022-03-28T15:16:11Z</time>
      </trkpt>
      <trkpt lat="46.46728" lon="5.40188">
        <ele>537.8</ele>
        <time>2022-03-28T15:16:15Z</time>
      </trkpt>
      <trkpt lat="46.46735" lon="5.40192">
        <ele>538.4</ele>
        <time>2022-03-28T15:16:17Z</time>
      </trkpt>
      <trkpt lat="46.46746" lon="5.40197">
        <ele>539</ele>
        <time>2022-03-28T15:16:20Z</time>
      </trkpt>
      <trkpt lat="46.46765" lon="5.40206">
        <ele>540.2</ele>
        <time>2022-03-28T15:16:25Z</time>
      </trkpt>
      <trkpt lat="46.46783" lon="5.40216">
        <ele>541.4</ele>
        <time>2022-03-28T15:16:30Z</time>
      </trkpt>
      <trkpt lat="46.4679" lon="5.4022">
        <ele>541.8</ele>
        <time>2022-03-28T15:16:32Z</time>
      </trkpt>
      <trkpt lat="46.46802" lon="5.40226">
        <ele>542.8</ele>
        <time>2022-03-28T15:16:35Z</time>
      </trkpt>
      <trkpt lat="46.46822" lon="5.40236">
        <ele>544</ele>
        <time>2022-03-28T15:16:40Z</time>
      </trkpt>
      <trkpt lat="46.46839" lon="5.40244">
        <ele>545.4</ele>
        <time>2022-03-28T15:16:44Z</time>
      </trkpt>
      <trkpt lat="46.46859" lon="5.40254">
        <ele>546.6</ele>
        <time>2022-03-28T15:16:49Z</time>
      </trkpt>
      <trkpt lat="46.4688" lon="5.40264">
        <ele>547.6</ele>
        <time>2022-03-28T15:16:54Z</time>
      </trkpt>
      <trkpt lat="46.46903" lon="5.40275">
        <ele>548.4</ele>
        <time>2022-03-28T15:16:59Z</time>
      </trkpt>
      <trkpt lat="46.46908" lon="5.40277">
        <ele>548.6</ele>
        <time>2022-03-28T15:17:00Z</time>
      </trkpt>
      <trkpt lat="46.46913" lon="5.4028">
        <ele>548.8</ele>
        <time>2022-03-28T15:17:01Z</time>
      </trkpt>
      <trkpt lat="46.46932" lon="5.40291">
        <ele>549.8</ele>
        <time>2022-03-28T15:17:05Z</time>
      </trkpt>
      <trkpt lat="46.46956" lon="5.40303">
        <ele>550.4</ele>
        <time>2022-03-28T15:17:10Z</time>
      </trkpt>
      <trkpt lat="46.46965" lon="5.40306">
        <ele>551</ele>
        <time>2022-03-28T15:17:12Z</time>
      </trkpt>
      <trkpt lat="46.46996" lon="5.40316">
        <ele>552.2</ele>
        <time>2022-03-28T15:17:18Z</time>
      </trkpt>
      <trkpt lat="46.47006" lon="5.40319">
        <ele>552.8</ele>
        <time>2022-03-28T15:17:20Z</time>
      </trkpt>
      <trkpt lat="46.47023" lon="5.40322">
        <ele>553.2</ele>
        <time>2022-03-28T15:17:23Z</time>
      </trkpt>
      <trkpt lat="46.47042" lon="5.40325">
        <ele>553.6</ele>
        <time>2022-03-28T15:17:26Z</time>
      </trkpt>
      <trkpt lat="46.47082" lon="5.40328">
        <ele>553.8</ele>
        <time>2022-03-28T15:17:31Z</time>
      </trkpt>
      <trkpt lat="46.47121" lon="5.40334">
        <ele>552.6</ele>
        <time>2022-03-28T15:17:35Z</time>
      </trkpt>
      <trkpt lat="46.47131" lon="5.40336">
        <ele>552.2</ele>
        <time>2022-03-28T15:17:36Z</time>
      </trkpt>
      <trkpt lat="46.47163" lon="5.40345">
        <ele>551.2</ele>
        <time>2022-03-28T15:17:39Z</time>
      </trkpt>
      <trkpt lat="46.47173" lon="5.4035">
        <ele>550.8</ele>
        <time>2022-03-28T15:17:40Z</time>
      </trkpt>
      <trkpt lat="46.47184" lon="5.40356">
        <ele>550.6</ele>
        <time>2022-03-28T15:17:41Z</time>
      </trkpt>
      <trkpt lat="46.47193" lon="5.40363">
        <ele>550</ele>
        <time>2022-03-28T15:17:42Z</time>
      </trkpt>
      <trkpt lat="46.47202" lon="5.40371">
        <ele>549.6</ele>
        <time>2022-03-28T15:17:43Z</time>
      </trkpt>
      <trkpt lat="46.4721" lon="5.40382">
        <ele>548.8</ele>
        <time>2022-03-28T15:17:44Z</time>
      </trkpt>
      <trkpt lat="46.47226" lon="5.40404">
        <ele>547.6</ele>
        <time>2022-03-28T15:17:46Z</time>
      </trkpt>
      <trkpt lat="46.47236" lon="5.40414">
        <ele>547</ele>
        <time>2022-03-28T15:17:47Z</time>
      </trkpt>
      <trkpt lat="46.47245" lon="5.40424">
        <ele>546.6</ele>
        <time>2022-03-28T15:17:48Z</time>
      </trkpt>
      <trkpt lat="46.47256" lon="5.40432">
        <ele>546</ele>
        <time>2022-03-28T15:17:49Z</time>
      </trkpt>
      <trkpt lat="46.47266" lon="5.40437">
        <ele>545.8</ele>
        <time>2022-03-28T15:17:50Z</time>
      </trkpt>
      <trkpt lat="46.47278" lon="5.40441">
        <ele>545.4</ele>
        <time>2022-03-28T15:17:51Z</time>
      </trkpt>
      <trkpt lat="46.47314" lon="5.40447">
        <ele>543.6</ele>
        <time>2022-03-28T15:17:54Z</time>
      </trkpt>
      <trkpt lat="46.47337" lon="5.40449">
        <ele>541.8</ele>
        <time>2022-03-28T15:17:56Z</time>
      </trkpt>
      <trkpt lat="46.4736" lon="5.40453">
        <ele>540.2</ele>
        <time>2022-03-28T15:17:58Z</time>
      </trkpt>
      <trkpt lat="46.47382" lon="5.40451">
        <ele>539.4</ele>
        <time>2022-03-28T15:18:00Z</time>
      </trkpt>
      <trkpt lat="46.47393" lon="5.40449">
        <ele>538.8</ele>
        <time>2022-03-28T15:18:01Z</time>
      </trkpt>
      <trkpt lat="46.47438" lon="5.40444">
        <ele>537.4</ele>
        <time>2022-03-28T15:18:05Z</time>
      </trkpt>
      <trkpt lat="46.4745" lon="5.40445">
        <ele>537.2</ele>
        <time>2022-03-28T15:18:06Z</time>
      </trkpt>
      <trkpt lat="46.47483" lon="5.40455">
        <ele>535.2</ele>
        <time>2022-03-28T15:18:09Z</time>
      </trkpt>
      <trkpt lat="46.47501" lon="5.40469">
        <ele>533.8</ele>
        <time>2022-03-28T15:18:11Z</time>
      </trkpt>
      <trkpt lat="46.47508" lon="5.40477">
        <ele>533.2</ele>
        <time>2022-03-28T15:18:12Z</time>
      </trkpt>
      <trkpt lat="46.47517" lon="5.40482">
        <ele>532.6</ele>
        <time>2022-03-28T15:18:13Z</time>
      </trkpt>
      <trkpt lat="46.47525" lon="5.40482">
        <ele>531.8</ele>
        <time>2022-03-28T15:18:14Z</time>
      </trkpt>
      <trkpt lat="46.47533" lon="5.40479">
        <ele>531.2</ele>
        <time>2022-03-28T15:18:15Z</time>
      </trkpt>
      <trkpt lat="46.47538" lon="5.40474">
        <ele>530.2</ele>
        <time>2022-03-28T15:18:16Z</time>
      </trkpt>
      <trkpt lat="46.47543" lon="5.40464">
        <ele>529.2</ele>
        <time>2022-03-28T15:18:17Z</time>
      </trkpt>
      <trkpt lat="46.47546" lon="5.40453">
        <ele>529</ele>
        <time>2022-03-28T15:18:18Z</time>
      </trkpt>
      <trkpt lat="46.47548" lon="5.40439">
        <ele>528.4</ele>
        <time>2022-03-28T15:18:19Z</time>
      </trkpt>
      <trkpt lat="46.47544" lon="5.40424">
        <ele>528.2</ele>
        <time>2022-03-28T15:18:20Z</time>
      </trkpt>
      <trkpt lat="46.47538" lon="5.40409">
        <ele>527.6</ele>
        <time>2022-03-28T15:18:21Z</time>
      </trkpt>
      <trkpt lat="46.47529" lon="5.40378">
        <ele>526.2</ele>
        <time>2022-03-28T15:18:23Z</time>
      </trkpt>
      <trkpt lat="46.47527" lon="5.40362">
        <ele>525.8</ele>
        <time>2022-03-28T15:18:24Z</time>
      </trkpt>
      <trkpt lat="46.47527" lon="5.40346">
        <ele>525.6</ele>
        <time>2022-03-28T15:18:25Z</time>
      </trkpt>
      <trkpt lat="46.4753" lon="5.40331">
        <ele>524.6</ele>
        <time>2022-03-28T15:18:26Z</time>
      </trkpt>
      <trkpt lat="46.47536" lon="5.40316">
        <ele>524.2</ele>
        <time>2022-03-28T15:18:27Z</time>
      </trkpt>
      <trkpt lat="46.47544" lon="5.40304">
        <ele>523.8</ele>
        <time>2022-03-28T15:18:28Z</time>
      </trkpt>
      <trkpt lat="46.47554" lon="5.40293">
        <ele>523.4</ele>
        <time>2022-03-28T15:18:29Z</time>
      </trkpt>
      <trkpt lat="46.47575" lon="5.40276">
        <ele>522.4</ele>
        <time>2022-03-28T15:18:31Z</time>
      </trkpt>
      <trkpt lat="46.47587" lon="5.40271">
        <ele>521.4</ele>
        <time>2022-03-28T15:18:32Z</time>
      </trkpt>
      <trkpt lat="46.47599" lon="5.40267">
        <ele>520.4</ele>
        <time>2022-03-28T15:18:33Z</time>
      </trkpt>
      <trkpt lat="46.47623" lon="5.4026">
        <ele>519.4</ele>
        <time>2022-03-28T15:18:35Z</time>
      </trkpt>
      <trkpt lat="46.47636" lon="5.40256">
        <ele>519.2</ele>
        <time>2022-03-28T15:18:36Z</time>
      </trkpt>
      <trkpt lat="46.47648" lon="5.40254">
        <ele>518.2</ele>
        <time>2022-03-28T15:18:37Z</time>
      </trkpt>
      <trkpt lat="46.4767" lon="5.40252">
        <ele>516.8</ele>
        <time>2022-03-28T15:18:39Z</time>
      </trkpt>
      <trkpt lat="46.4769" lon="5.40242">
        <ele>516</ele>
        <time>2022-03-28T15:18:41Z</time>
      </trkpt>
      <trkpt lat="46.47699" lon="5.4023">
        <ele>515.4</ele>
        <time>2022-03-28T15:18:42Z</time>
      </trkpt>
      <trkpt lat="46.47706" lon="5.40216">
        <ele>515</ele>
        <time>2022-03-28T15:18:43Z</time>
      </trkpt>
      <trkpt lat="46.47716" lon="5.40185">
        <ele>514.2</ele>
        <time>2022-03-28T15:18:45Z</time>
      </trkpt>
      <trkpt lat="46.47729" lon="5.40158">
        <ele>513</ele>
        <time>2022-03-28T15:18:47Z</time>
      </trkpt>
      <trkpt lat="46.47739" lon="5.40148">
        <ele>512.8</ele>
        <time>2022-03-28T15:18:48Z</time>
      </trkpt>
      <trkpt lat="46.47746" lon="5.40136">
        <ele>512</ele>
        <time>2022-03-28T15:18:49Z</time>
      </trkpt>
      <trkpt lat="46.47755" lon="5.40104">
        <ele>510.8</ele>
        <time>2022-03-28T15:18:51Z</time>
      </trkpt>
      <trkpt lat="46.4776" lon="5.4007">
        <ele>510</ele>
        <time>2022-03-28T15:18:53Z</time>
      </trkpt>
      <trkpt lat="46.47759" lon="5.40052">
        <ele>509.2</ele>
        <time>2022-03-28T15:18:54Z</time>
      </trkpt>
      <trkpt lat="46.4776" lon="5.40022">
        <ele>507.6</ele>
        <time>2022-03-28T15:18:56Z</time>
      </trkpt>
      <trkpt lat="46.47763" lon="5.40008">
        <ele>507.2</ele>
        <time>2022-03-28T15:18:57Z</time>
      </trkpt>
      <trkpt lat="46.47768" lon="5.39997">
        <ele>506.8</ele>
        <time>2022-03-28T15:18:58Z</time>
      </trkpt>
      <trkpt lat="46.47777" lon="5.39989">
        <ele>506.4</ele>
        <time>2022-03-28T15:18:59Z</time>
      </trkpt>
      <trkpt lat="46.47787" lon="5.39985">
        <ele>505.4</ele>
        <time>2022-03-28T15:19:00Z</time>
      </trkpt>
      <trkpt lat="46.47797" lon="5.39981">
        <ele>504.6</ele>
        <time>2022-03-28T15:19:01Z</time>
      </trkpt>
      <trkpt lat="46.47808" lon="5.39976">
        <ele>503.8</ele>
        <time>2022-03-28T15:19:02Z</time>
      </trkpt>
      <trkpt lat="46.47819" lon="5.3997">
        <ele>503</ele>
        <time>2022-03-28T15:19:03Z</time>
      </trkpt>
      <trkpt lat="46.47842" lon="5.39959">
        <ele>501.8</ele>
        <time>2022-03-28T15:19:05Z</time>
      </trkpt>
      <trkpt lat="46.47864" lon="5.39946">
        <ele>500.6</ele>
        <time>2022-03-28T15:19:07Z</time>
      </trkpt>
      <trkpt lat="46.47876" lon="5.3994">
        <ele>499.6</ele>
        <time>2022-03-28T15:19:08Z</time>
      </trkpt>
      <trkpt lat="46.47911" lon="5.39922">
        <ele>498.6</ele>
        <time>2022-03-28T15:19:11Z</time>
      </trkpt>
      <trkpt lat="46.47934" lon="5.3991">
        <ele>497.8</ele>
        <time>2022-03-28T15:19:13Z</time>
      </trkpt>
      <trkpt lat="46.47946" lon="5.39904">
        <ele>497</ele>
        <time>2022-03-28T15:19:14Z</time>
      </trkpt>
      <trkpt lat="46.47968" lon="5.39894">
        <ele>495.6</ele>
        <time>2022-03-28T15:19:16Z</time>
      </trkpt>
      <trkpt lat="46.4799" lon="5.39885">
        <ele>494.6</ele>
        <time>2022-03-28T15:19:18Z</time>
      </trkpt>
      <trkpt lat="46.48012" lon="5.3988">
        <ele>493.4</ele>
        <time>2022-03-28T15:19:20Z</time>
      </trkpt>
      <trkpt lat="46.48024" lon="5.39882">
        <ele>492.8</ele>
        <time>2022-03-28T15:19:21Z</time>
      </trkpt>
      <trkpt lat="46.48034" lon="5.39888">
        <ele>492.6</ele>
        <time>2022-03-28T15:19:22Z</time>
      </trkpt>
      <trkpt lat="46.48044" lon="5.39894">
        <ele>492.4</ele>
        <time>2022-03-28T15:19:23Z</time>
      </trkpt>
      <trkpt lat="46.48054" lon="5.399">
        <ele>492.2</ele>
        <time>2022-03-28T15:19:24Z</time>
      </trkpt>
      <trkpt lat="46.48063" lon="5.39905">
        <ele>492.2</ele>
        <time>2022-03-28T15:19:25Z</time>
      </trkpt>
      <trkpt lat="46.48083" lon="5.39909">
        <ele>492.2</ele>
        <time>2022-03-28T15:19:27Z</time>
      </trkpt>
      <trkpt lat="46.48111" lon="5.39906">
        <ele>492.2</ele>
        <time>2022-03-28T15:19:30Z</time>
      </trkpt>
      <trkpt lat="46.4813" lon="5.399">
        <ele>492</ele>
        <time>2022-03-28T15:19:32Z</time>
      </trkpt>
      <trkpt lat="46.48176" lon="5.39876">
        <ele>492.2</ele>
        <time>2022-03-28T15:19:37Z</time>
      </trkpt>
      <trkpt lat="46.48191" lon="5.39861">
        <ele>492</ele>
        <time>2022-03-28T15:19:39Z</time>
      </trkpt>
      <trkpt lat="46.48196" lon="5.3985">
        <ele>491.8</ele>
        <time>2022-03-28T15:19:40Z</time>
      </trkpt>
      <trkpt lat="46.48198" lon="5.39838">
        <ele>491.8</ele>
        <time>2022-03-28T15:19:41Z</time>
      </trkpt>
      <trkpt lat="46.48197" lon="5.39825">
        <ele>491.8</ele>
        <time>2022-03-28T15:19:42Z</time>
      </trkpt>
      <trkpt lat="46.48186" lon="5.39762">
        <ele>491</ele>
        <time>2022-03-28T15:19:47Z</time>
      </trkpt>
      <trkpt lat="46.48179" lon="5.39708">
        <ele>490.2</ele>
        <time>2022-03-28T15:19:52Z</time>
      </trkpt>
      <trkpt lat="46.48179" lon="5.39677">
        <ele>489.8</ele>
        <time>2022-03-28T15:19:55Z</time>
      </trkpt>
      <trkpt lat="46.48179" lon="5.39666">
        <ele>489.6</ele>
        <time>2022-03-28T15:19:56Z</time>
      </trkpt>
      <trkpt lat="46.48181" lon="5.39654">
        <ele>489.4</ele>
        <time>2022-03-28T15:19:57Z</time>
      </trkpt>
      <trkpt lat="46.48189" lon="5.3963">
        <ele>488.8</ele>
        <time>2022-03-28T15:19:59Z</time>
      </trkpt>
      <trkpt lat="46.48203" lon="5.3959">
        <ele>487.6</ele>
        <time>2022-03-28T15:20:02Z</time>
      </trkpt>
      <trkpt lat="46.48208" lon="5.39576">
        <ele>486.6</ele>
        <time>2022-03-28T15:20:03Z</time>
      </trkpt>
      <trkpt lat="46.48215" lon="5.39548">
        <ele>485.2</ele>
        <time>2022-03-28T15:20:05Z</time>
      </trkpt>
      <trkpt lat="46.4822" lon="5.39519">
        <ele>484.4</ele>
        <time>2022-03-28T15:20:07Z</time>
      </trkpt>
      <trkpt lat="46.48223" lon="5.39506">
        <ele>483.4</ele>
        <time>2022-03-28T15:20:08Z</time>
      </trkpt>
      <trkpt lat="46.48235" lon="5.39484">
        <ele>481.2</ele>
        <time>2022-03-28T15:20:10Z</time>
      </trkpt>
      <trkpt lat="46.48247" lon="5.3947">
        <ele>479.6</ele>
        <time>2022-03-28T15:20:12Z</time>
      </trkpt>
      <trkpt lat="46.48254" lon="5.39467">
        <ele>478.2</ele>
        <time>2022-03-28T15:20:13Z</time>
      </trkpt>
      <trkpt lat="46.48261" lon="5.39465">
        <ele>477.6</ele>
        <time>2022-03-28T15:20:14Z</time>
      </trkpt>
      <trkpt lat="46.48269" lon="5.39465">
        <ele>476.6</ele>
        <time>2022-03-28T15:20:15Z</time>
      </trkpt>
      <trkpt lat="46.48276" lon="5.39467">
        <ele>476</ele>
        <time>2022-03-28T15:20:16Z</time>
      </trkpt>
      <trkpt lat="46.48283" lon="5.39468">
        <ele>475.2</ele>
        <time>2022-03-28T15:20:17Z</time>
      </trkpt>
      <trkpt lat="46.48297" lon="5.39461">
        <ele>474.2</ele>
        <time>2022-03-28T15:20:19Z</time>
      </trkpt>
      <trkpt lat="46.48299" lon="5.39452">
        <ele>473.8</ele>
        <time>2022-03-28T15:20:20Z</time>
      </trkpt>
      <trkpt lat="46.48302" lon="5.39443">
        <ele>473.4</ele>
        <time>2022-03-28T15:20:21Z</time>
      </trkpt>
      <trkpt lat="46.48304" lon="5.39434">
        <ele>472.6</ele>
        <time>2022-03-28T15:20:22Z</time>
      </trkpt>
      <trkpt lat="46.48305" lon="5.39421">
        <ele>472.2</ele>
        <time>2022-03-28T15:20:23Z</time>
      </trkpt>
      <trkpt lat="46.48308" lon="5.39396">
        <ele>471.6</ele>
        <time>2022-03-28T15:20:25Z</time>
      </trkpt>
      <trkpt lat="46.48315" lon="5.39357">
        <ele>470.2</ele>
        <time>2022-03-28T15:20:28Z</time>
      </trkpt>
      <trkpt lat="46.48319" lon="5.39349">
        <ele>469.4</ele>
        <time>2022-03-28T15:20:29Z</time>
      </trkpt>
      <trkpt lat="46.48322" lon="5.3934">
        <ele>468.8</ele>
        <time>2022-03-28T15:20:30Z</time>
      </trkpt>
      <trkpt lat="46.48327" lon="5.39332">
        <ele>468.2</ele>
        <time>2022-03-28T15:20:31Z</time>
      </trkpt>
      <trkpt lat="46.48333" lon="5.39323">
        <ele>467.6</ele>
        <time>2022-03-28T15:20:32Z</time>
      </trkpt>
      <trkpt lat="46.48339" lon="5.39317">
        <ele>466.8</ele>
        <time>2022-03-28T15:20:33Z</time>
      </trkpt>
      <trkpt lat="46.48345" lon="5.39308">
        <ele>465.6</ele>
        <time>2022-03-28T15:20:34Z</time>
      </trkpt>
      <trkpt lat="46.4835" lon="5.393">
        <ele>465.4</ele>
        <time>2022-03-28T15:20:35Z</time>
      </trkpt>
      <trkpt lat="46.48361" lon="5.39296">
        <ele>464.6</ele>
        <time>2022-03-28T15:20:37Z</time>
      </trkpt>
      <trkpt lat="46.48368" lon="5.39295">
        <ele>463.4</ele>
        <time>2022-03-28T15:20:38Z</time>
      </trkpt>
      <trkpt lat="46.48374" lon="5.39295">
        <ele>462.8</ele>
        <time>2022-03-28T15:20:39Z</time>
      </trkpt>
      <trkpt lat="46.48381" lon="5.39296">
        <ele>462</ele>
        <time>2022-03-28T15:20:40Z</time>
      </trkpt>
      <trkpt lat="46.48388" lon="5.39298">
        <ele>460.8</ele>
        <time>2022-03-28T15:20:41Z</time>
      </trkpt>
      <trkpt lat="46.48396" lon="5.39301">
        <ele>460</ele>
        <time>2022-03-28T15:20:43Z</time>
      </trkpt>
      <trkpt lat="46.48398" lon="5.39302">
        <ele>459.8</ele>
        <time>2022-03-28T15:20:44Z</time>
      </trkpt>
      <trkpt lat="46.484" lon="5.39304">
        <ele>458.6</ele>
        <time>2022-03-28T15:20:46Z</time>
      </trkpt>
      <trkpt lat="46.484" lon="5.39304">
        <ele>457.6</ele>
        <time>2022-03-28T15:20:48Z</time>
      </trkpt>
      <trkpt lat="46.484" lon="5.39304">
        <ele>457.4</ele>
        <time>2022-03-28T15:20:49Z</time>
      </trkpt>
      <trkpt lat="46.48405" lon="5.39304">
        <ele>455.4</ele>
        <time>2022-03-28T15:21:15Z</time>
      </trkpt>
      <trkpt lat="46.48413" lon="5.39303">
        <ele>455.4</ele>
        <time>2022-03-28T15:21:17Z</time>
      </trkpt>
      <trkpt lat="46.48425" lon="5.39302">
        <ele>455.2</ele>
        <time>2022-03-28T15:21:19Z</time>
      </trkpt>
      <trkpt lat="46.48439" lon="5.39299">
        <ele>455</ele>
        <time>2022-03-28T15:21:21Z</time>
      </trkpt>
      <trkpt lat="46.48465" lon="5.39294">
        <ele>454.2</ele>
        <time>2022-03-28T15:21:24Z</time>
      </trkpt>
      <trkpt lat="46.48475" lon="5.39293">
        <ele>453.8</ele>
        <time>2022-03-28T15:21:25Z</time>
      </trkpt>
      <trkpt lat="46.48496" lon="5.39288">
        <ele>453</ele>
        <time>2022-03-28T15:21:27Z</time>
      </trkpt>
      <trkpt lat="46.48517" lon="5.39283">
        <ele>451.6</ele>
        <time>2022-03-28T15:21:29Z</time>
      </trkpt>
      <trkpt lat="46.48539" lon="5.39279">
        <ele>450.4</ele>
        <time>2022-03-28T15:21:31Z</time>
      </trkpt>
      <trkpt lat="46.48575" lon="5.39275">
        <ele>448.2</ele>
        <time>2022-03-28T15:21:34Z</time>
      </trkpt>
      <trkpt lat="46.48612" lon="5.39269">
        <ele>447.2</ele>
        <time>2022-03-28T15:21:37Z</time>
      </trkpt>
      <trkpt lat="46.48638" lon="5.39269">
        <ele>445.8</ele>
        <time>2022-03-28T15:21:39Z</time>
      </trkpt>
      <trkpt lat="46.4865" lon="5.39271">
        <ele>445</ele>
        <time>2022-03-28T15:21:40Z</time>
      </trkpt>
      <trkpt lat="46.48662" lon="5.39274">
        <ele>444</ele>
        <time>2022-03-28T15:21:41Z</time>
      </trkpt>
      <trkpt lat="46.48682" lon="5.3928">
        <ele>442</ele>
        <time>2022-03-28T15:21:43Z</time>
      </trkpt>
      <trkpt lat="46.48692" lon="5.39286">
        <ele>441.6</ele>
        <time>2022-03-28T15:21:44Z</time>
      </trkpt>
      <trkpt lat="46.48701" lon="5.39295">
        <ele>440.4</ele>
        <time>2022-03-28T15:21:45Z</time>
      </trkpt>
      <trkpt lat="46.48717" lon="5.39304">
        <ele>438.2</ele>
        <time>2022-03-28T15:21:47Z</time>
      </trkpt>
      <trkpt lat="46.48724" lon="5.39302">
        <ele>437</ele>
        <time>2022-03-28T15:21:48Z</time>
      </trkpt>
      <trkpt lat="46.4873" lon="5.39297">
        <ele>436.8</ele>
        <time>2022-03-28T15:21:49Z</time>
      </trkpt>
      <trkpt lat="46.48733" lon="5.39288">
        <ele>435.8</ele>
        <time>2022-03-28T15:21:50Z</time>
      </trkpt>
      <trkpt lat="46.4873" lon="5.39278">
        <ele>435.2</ele>
        <time>2022-03-28T15:21:51Z</time>
      </trkpt>
      <trkpt lat="46.48726" lon="5.39268">
        <ele>434</ele>
        <time>2022-03-28T15:21:52Z</time>
      </trkpt>
      <trkpt lat="46.48714" lon="5.39248">
        <ele>432.6</ele>
        <time>2022-03-28T15:21:54Z</time>
      </trkpt>
      <trkpt lat="46.48707" lon="5.39237">
        <ele>431.4</ele>
        <time>2022-03-28T15:21:55Z</time>
      </trkpt>
      <trkpt lat="46.48691" lon="5.39216">
        <ele>429.8</ele>
        <time>2022-03-28T15:21:57Z</time>
      </trkpt>
      <trkpt lat="46.48675" lon="5.39193">
        <ele>428.4</ele>
        <time>2022-03-28T15:21:59Z</time>
      </trkpt>
      <trkpt lat="46.48668" lon="5.39182">
        <ele>427.4</ele>
        <time>2022-03-28T15:22:00Z</time>
      </trkpt>
      <trkpt lat="46.4866" lon="5.3917">
        <ele>426.4</ele>
        <time>2022-03-28T15:22:01Z</time>
      </trkpt>
      <trkpt lat="46.48642" lon="5.39146">
        <ele>425.2</ele>
        <time>2022-03-28T15:22:03Z</time>
      </trkpt>
      <trkpt lat="46.48622" lon="5.39125">
        <ele>423.8</ele>
        <time>2022-03-28T15:22:05Z</time>
      </trkpt>
      <trkpt lat="46.486" lon="5.39108">
        <ele>422.8</ele>
        <time>2022-03-28T15:22:07Z</time>
      </trkpt>
      <trkpt lat="46.48577" lon="5.39091">
        <ele>420.6</ele>
        <time>2022-03-28T15:22:09Z</time>
      </trkpt>
      <trkpt lat="46.48554" lon="5.39076">
        <ele>418.4</ele>
        <time>2022-03-28T15:22:11Z</time>
      </trkpt>
      <trkpt lat="46.4853" lon="5.39061">
        <ele>416.2</ele>
        <time>2022-03-28T15:22:13Z</time>
      </trkpt>
      <trkpt lat="46.48518" lon="5.39053">
        <ele>415.8</ele>
        <time>2022-03-28T15:22:14Z</time>
      </trkpt>
      <trkpt lat="46.48508" lon="5.39042">
        <ele>414.6</ele>
        <time>2022-03-28T15:22:15Z</time>
      </trkpt>
      <trkpt lat="46.485" lon="5.39028">
        <ele>413.4</ele>
        <time>2022-03-28T15:22:16Z</time>
      </trkpt>
      <trkpt lat="46.48493" lon="5.39011">
        <ele>412.8</ele>
        <time>2022-03-28T15:22:17Z</time>
      </trkpt>
      <trkpt lat="46.48488" lon="5.38993">
        <ele>411</ele>
        <time>2022-03-28T15:22:18Z</time>
      </trkpt>
      <trkpt lat="46.48478" lon="5.38962">
        <ele>408.8</ele>
        <time>2022-03-28T15:22:20Z</time>
      </trkpt>
      <trkpt lat="46.48471" lon="5.38946">
        <ele>408.2</ele>
        <time>2022-03-28T15:22:21Z</time>
      </trkpt>
      <trkpt lat="46.48462" lon="5.38929">
        <ele>406.8</ele>
        <time>2022-03-28T15:22:22Z</time>
      </trkpt>
      <trkpt lat="46.48456" lon="5.38916">
        <ele>405.6</ele>
        <time>2022-03-28T15:22:23Z</time>
      </trkpt>
      <trkpt lat="46.48452" lon="5.38903">
        <ele>405</ele>
        <time>2022-03-28T15:22:24Z</time>
      </trkpt>
      <trkpt lat="46.4845" lon="5.38889">
        <ele>403.6</ele>
        <time>2022-03-28T15:22:25Z</time>
      </trkpt>
      <trkpt lat="46.48451" lon="5.38875">
        <ele>403.2</ele>
        <time>2022-03-28T15:22:26Z</time>
      </trkpt>
      <trkpt lat="46.48453" lon="5.38861">
        <ele>402</ele>
        <time>2022-03-28T15:22:27Z</time>
      </trkpt>
      <trkpt lat="46.48459" lon="5.38849">
        <ele>401.6</ele>
        <time>2022-03-28T15:22:28Z</time>
      </trkpt>
      <trkpt lat="46.48467" lon="5.38841">
        <ele>400.4</ele>
        <time>2022-03-28T15:22:29Z</time>
      </trkpt>
      <trkpt lat="46.48486" lon="5.38828">
        <ele>399</ele>
        <time>2022-03-28T15:22:31Z</time>
      </trkpt>
      <trkpt lat="46.48506" lon="5.38816">
        <ele>397.8</ele>
        <time>2022-03-28T15:22:33Z</time>
      </trkpt>
      <trkpt lat="46.48525" lon="5.38805">
        <ele>396.6</ele>
        <time>2022-03-28T15:22:35Z</time>
      </trkpt>
      <trkpt lat="46.48548" lon="5.3879">
        <ele>395</ele>
        <time>2022-03-28T15:22:37Z</time>
      </trkpt>
      <trkpt lat="46.48568" lon="5.38777">
        <ele>393.2</ele>
        <time>2022-03-28T15:22:39Z</time>
      </trkpt>
      <trkpt lat="46.48576" lon="5.38774">
        <ele>392.6</ele>
        <time>2022-03-28T15:22:40Z</time>
      </trkpt>
      <trkpt lat="46.48585" lon="5.38772">
        <ele>391.8</ele>
        <time>2022-03-28T15:22:41Z</time>
      </trkpt>
      <trkpt lat="46.48592" lon="5.38775">
        <ele>391.6</ele>
        <time>2022-03-28T15:22:42Z</time>
      </trkpt>
      <trkpt lat="46.48599" lon="5.38778">
        <ele>391</ele>
        <time>2022-03-28T15:22:43Z</time>
      </trkpt>
      <trkpt lat="46.48604" lon="5.38778">
        <ele>389.8</ele>
        <time>2022-03-28T15:22:44Z</time>
      </trkpt>
      <trkpt lat="46.48613" lon="5.38769">
        <ele>388.2</ele>
        <time>2022-03-28T15:22:46Z</time>
      </trkpt>
      <trkpt lat="46.48623" lon="5.38748">
        <ele>386.4</ele>
        <time>2022-03-28T15:22:48Z</time>
      </trkpt>
      <trkpt lat="46.48628" lon="5.38736">
        <ele>386</ele>
        <time>2022-03-28T15:22:49Z</time>
      </trkpt>
      <trkpt lat="46.48632" lon="5.38724">
        <ele>385</ele>
        <time>2022-03-28T15:22:50Z</time>
      </trkpt>
      <trkpt lat="46.48636" lon="5.3871">
        <ele>383.8</ele>
        <time>2022-03-28T15:22:51Z</time>
      </trkpt>
      <trkpt lat="46.48638" lon="5.38695">
        <ele>383.4</ele>
        <time>2022-03-28T15:22:52Z</time>
      </trkpt>
      <trkpt lat="46.48639" lon="5.3868">
        <ele>382.4</ele>
        <time>2022-03-28T15:22:53Z</time>
      </trkpt>
      <trkpt lat="46.48636" lon="5.38648">
        <ele>381.4</ele>
        <time>2022-03-28T15:22:55Z</time>
      </trkpt>
      <trkpt lat="46.48634" lon="5.38633">
        <ele>381</ele>
        <time>2022-03-28T15:22:56Z</time>
      </trkpt>
      <trkpt lat="46.48626" lon="5.38603">
        <ele>379.8</ele>
        <time>2022-03-28T15:22:58Z</time>
      </trkpt>
      <trkpt lat="46.48618" lon="5.38573">
        <ele>379</ele>
        <time>2022-03-28T15:23:00Z</time>
      </trkpt>
      <trkpt lat="46.48615" lon="5.38558">
        <ele>378.6</ele>
        <time>2022-03-28T15:23:01Z</time>
      </trkpt>
      <trkpt lat="46.48607" lon="5.38528">
        <ele>377.4</ele>
        <time>2022-03-28T15:23:03Z</time>
      </trkpt>
      <trkpt lat="46.48598" lon="5.38498">
        <ele>376</ele>
        <time>2022-03-28T15:23:05Z</time>
      </trkpt>
    </trkseg>
  </trk>
</gpx>